<?xml version="1.0" encoding="UTF-8" standalone="no" ?>
<gpx xmlns="http://www.topografix.com/GPX/1/1" xmlns:xsi="http://www.w3.org/2001/XMLSchema-instance" xsi:schemaLocation="http://www.topografix.com/GPX/1/1 http://www.topografix.com/GPX/1/1/gpx.xsd" version="1.1" creator="VisuGPX - https://www.visugpx.com">
  <metadata>
    <name>Bourg d'Oisans - Cols Glandon &amp; Croix de Fer</name>
  </metadata>
  <trk>
    <name><![CDATA[Bourg d'Oisans - Cols Glandon & Croix de Fer]]></name>
    <extensions>
      <line xmlns="http://www.topografix.com/GPX/gpx_style/0/2">
        <color>0000FF</color>
        <width>4</width>
      </line>
    </extensions>
    <trkseg>
      <trkpt lat="45.05495" lon="6.03046">
        <ele>723</ele>
        <time>0001-01-01T09:45:00Z</time>
      </trkpt>
      <trkpt lat="45.05497" lon="6.03029">
        <ele>726</ele>
        <time>0001-01-01T09:45:00Z</time>
      </trkpt>
      <trkpt lat="45.055" lon="6.03014">
        <ele>726</ele>
        <time>0001-01-01T09:45:00Z</time>
      </trkpt>
      <trkpt lat="45.05502" lon="6.03006">
        <ele>726</ele>
        <time>0001-01-01T09:45:00Z</time>
      </trkpt>
      <trkpt lat="45.05508" lon="6.02993">
        <ele>726</ele>
        <time>0001-01-01T09:45:00Z</time>
      </trkpt>
      <trkpt lat="45.05511" lon="6.02985">
        <ele>726</ele>
        <time>0001-01-01T09:45:00Z</time>
      </trkpt>
      <trkpt lat="45.05516" lon="6.02981">
        <ele>726</ele>
        <time>0001-01-01T09:45:00Z</time>
      </trkpt>
      <trkpt lat="45.0552" lon="6.02979">
        <ele>726</ele>
        <time>0001-01-01T09:45:00Z</time>
      </trkpt>
      <trkpt lat="45.05526" lon="6.02977">
        <ele>726</ele>
        <time>0001-01-01T09:45:00Z</time>
      </trkpt>
      <trkpt lat="45.05536" lon="6.02975">
        <ele>726</ele>
        <time>0001-01-01T09:45:00Z</time>
      </trkpt>
      <trkpt lat="45.05553" lon="6.0297">
        <ele>721</ele>
        <time>0001-01-01T09:45:00Z</time>
      </trkpt>
      <trkpt lat="45.05562" lon="6.02969">
        <ele>721</ele>
        <time>0001-01-01T09:45:00Z</time>
      </trkpt>
      <trkpt lat="45.05566" lon="6.02969">
        <ele>721</ele>
        <time>0001-01-01T09:45:00Z</time>
      </trkpt>
      <trkpt lat="45.05582" lon="6.02968">
        <ele>721</ele>
        <time>0001-01-01T09:45:00Z</time>
      </trkpt>
      <trkpt lat="45.05597" lon="6.02965">
        <ele>721</ele>
        <time>0001-01-01T09:45:00Z</time>
      </trkpt>
      <trkpt lat="45.05607" lon="6.02963">
        <ele>721</ele>
        <time>0001-01-01T09:45:00Z</time>
      </trkpt>
      <trkpt lat="45.05627" lon="6.02958">
        <ele>723</ele>
        <time>0001-01-01T09:45:00Z</time>
      </trkpt>
      <trkpt lat="45.05655" lon="6.02955">
        <ele>723</ele>
        <time>0001-01-01T09:45:00Z</time>
      </trkpt>
      <trkpt lat="45.05663" lon="6.02953">
        <ele>723</ele>
        <time>0001-01-01T09:45:00Z</time>
      </trkpt>
      <trkpt lat="45.0568" lon="6.02948">
        <ele>723</ele>
        <time>0001-01-01T09:45:00Z</time>
      </trkpt>
      <trkpt lat="45.05707" lon="6.02939">
        <ele>723</ele>
        <time>0001-01-01T09:45:00Z</time>
      </trkpt>
      <trkpt lat="45.0573" lon="6.02925">
        <ele>721</ele>
        <time>0001-01-01T09:45:00Z</time>
      </trkpt>
      <trkpt lat="45.05734" lon="6.02923">
        <ele>721</ele>
        <time>0001-01-01T09:45:00Z</time>
      </trkpt>
      <trkpt lat="45.05766" lon="6.02901">
        <ele>721</ele>
        <time>0001-01-01T09:45:00Z</time>
      </trkpt>
      <trkpt lat="45.0577" lon="6.02898">
        <ele>721</ele>
        <time>0001-01-01T09:45:00Z</time>
      </trkpt>
      <trkpt lat="45.05809" lon="6.0287">
        <ele>722</ele>
        <time>0001-01-01T09:45:00Z</time>
      </trkpt>
      <trkpt lat="45.0582" lon="6.02863">
        <ele>722</ele>
        <time>0001-01-01T09:45:00Z</time>
      </trkpt>
      <trkpt lat="45.05889" lon="6.02808">
        <ele>720</ele>
        <time>0001-01-01T09:45:00Z</time>
      </trkpt>
      <trkpt lat="45.05982" lon="6.02736">
        <ele>718</ele>
        <time>0001-01-01T09:45:00Z</time>
      </trkpt>
      <trkpt lat="45.06053" lon="6.02682">
        <ele>717</ele>
        <time>0001-01-01T09:45:00Z</time>
      </trkpt>
      <trkpt lat="45.06112" lon="6.02637">
        <ele>717</ele>
        <time>0001-01-01T09:45:00Z</time>
      </trkpt>
      <trkpt lat="45.06162" lon="6.02598">
        <ele>715</ele>
        <time>0001-01-01T09:45:00Z</time>
      </trkpt>
      <trkpt lat="45.06224" lon="6.02551">
        <ele>719</ele>
        <time>0001-01-01T09:45:00Z</time>
      </trkpt>
      <trkpt lat="45.06233" lon="6.02544">
        <ele>719</ele>
        <time>0001-01-01T09:45:00Z</time>
      </trkpt>
      <trkpt lat="45.06282" lon="6.02508">
        <ele>718</ele>
        <time>0001-01-01T09:45:00Z</time>
      </trkpt>
      <trkpt lat="45.06289" lon="6.02508">
        <ele>718</ele>
        <time>0001-01-01T09:45:00Z</time>
      </trkpt>
      <trkpt lat="45.06291" lon="6.02507">
        <ele>718</ele>
        <time>0001-01-01T09:45:00Z</time>
      </trkpt>
      <trkpt lat="45.06305" lon="6.02497">
        <ele>718</ele>
        <time>0001-01-01T09:45:00Z</time>
      </trkpt>
      <trkpt lat="45.06316" lon="6.02489">
        <ele>718</ele>
        <time>0001-01-01T09:45:00Z</time>
      </trkpt>
      <trkpt lat="45.06324" lon="6.02485">
        <ele>718</ele>
        <time>0001-01-01T09:45:00Z</time>
      </trkpt>
      <trkpt lat="45.06331" lon="6.02483">
        <ele>718</ele>
        <time>0001-01-01T09:45:00Z</time>
      </trkpt>
      <trkpt lat="45.06338" lon="6.02482">
        <ele>718</ele>
        <time>0001-01-01T09:45:00Z</time>
      </trkpt>
      <trkpt lat="45.06345" lon="6.02482">
        <ele>718</ele>
        <time>0001-01-01T09:45:00Z</time>
      </trkpt>
      <trkpt lat="45.06346" lon="6.02484">
        <ele>718</ele>
        <time>0001-01-01T09:45:00Z</time>
      </trkpt>
      <trkpt lat="45.06348" lon="6.02485">
        <ele>718</ele>
        <time>0001-01-01T09:45:00Z</time>
      </trkpt>
      <trkpt lat="45.06349" lon="6.02486">
        <ele>718</ele>
        <time>0001-01-01T09:45:00Z</time>
      </trkpt>
      <trkpt lat="45.0635" lon="6.02488">
        <ele>718</ele>
        <time>0001-01-01T09:45:00Z</time>
      </trkpt>
      <trkpt lat="45.06352" lon="6.02488">
        <ele>718</ele>
        <time>0001-01-01T09:45:00Z</time>
      </trkpt>
      <trkpt lat="45.06353" lon="6.02489">
        <ele>718</ele>
        <time>0001-01-01T09:45:00Z</time>
      </trkpt>
      <trkpt lat="45.06355" lon="6.0249">
        <ele>718</ele>
        <time>0001-01-01T09:45:00Z</time>
      </trkpt>
      <trkpt lat="45.06356" lon="6.0249">
        <ele>718</ele>
        <time>0001-01-01T09:45:00Z</time>
      </trkpt>
      <trkpt lat="45.06358" lon="6.02491">
        <ele>718</ele>
        <time>0001-01-01T09:45:00Z</time>
      </trkpt>
      <trkpt lat="45.0636" lon="6.02491">
        <ele>718</ele>
        <time>0001-01-01T09:45:00Z</time>
      </trkpt>
      <trkpt lat="45.06362" lon="6.0249">
        <ele>718</ele>
        <time>0001-01-01T09:45:00Z</time>
      </trkpt>
      <trkpt lat="45.06364" lon="6.0249">
        <ele>718</ele>
        <time>0001-01-01T09:45:00Z</time>
      </trkpt>
      <trkpt lat="45.06365" lon="6.02489">
        <ele>718</ele>
        <time>0001-01-01T09:45:00Z</time>
      </trkpt>
      <trkpt lat="45.06367" lon="6.02488">
        <ele>718</ele>
        <time>0001-01-01T09:45:00Z</time>
      </trkpt>
      <trkpt lat="45.06368" lon="6.02487">
        <ele>718</ele>
        <time>0001-01-01T09:45:00Z</time>
      </trkpt>
      <trkpt lat="45.06369" lon="6.02486">
        <ele>718</ele>
        <time>0001-01-01T09:45:00Z</time>
      </trkpt>
      <trkpt lat="45.06371" lon="6.02485">
        <ele>718</ele>
        <time>0001-01-01T09:45:00Z</time>
      </trkpt>
      <trkpt lat="45.06372" lon="6.02483">
        <ele>718</ele>
        <time>0001-01-01T09:45:00Z</time>
      </trkpt>
      <trkpt lat="45.06373" lon="6.02482">
        <ele>718</ele>
        <time>0001-01-01T09:45:00Z</time>
      </trkpt>
      <trkpt lat="45.06374" lon="6.0248">
        <ele>718</ele>
        <time>0001-01-01T09:45:00Z</time>
      </trkpt>
      <trkpt lat="45.06375" lon="6.02478">
        <ele>718</ele>
        <time>0001-01-01T09:45:00Z</time>
      </trkpt>
      <trkpt lat="45.06376" lon="6.02476">
        <ele>720</ele>
        <time>0001-01-01T09:45:00Z</time>
      </trkpt>
      <trkpt lat="45.06376" lon="6.02474">
        <ele>720</ele>
        <time>0001-01-01T09:45:00Z</time>
      </trkpt>
      <trkpt lat="45.06377" lon="6.02472">
        <ele>720</ele>
        <time>0001-01-01T09:45:00Z</time>
      </trkpt>
      <trkpt lat="45.06377" lon="6.0247">
        <ele>720</ele>
        <time>0001-01-01T09:45:00Z</time>
      </trkpt>
      <trkpt lat="45.06378" lon="6.02468">
        <ele>720</ele>
        <time>0001-01-01T09:45:00Z</time>
      </trkpt>
      <trkpt lat="45.06378" lon="6.02465">
        <ele>720</ele>
        <time>0001-01-01T09:45:00Z</time>
      </trkpt>
      <trkpt lat="45.06378" lon="6.02463">
        <ele>720</ele>
        <time>0001-01-01T09:45:00Z</time>
      </trkpt>
      <trkpt lat="45.06378" lon="6.02461">
        <ele>720</ele>
        <time>0001-01-01T09:45:00Z</time>
      </trkpt>
      <trkpt lat="45.06377" lon="6.02459">
        <ele>720</ele>
        <time>0001-01-01T09:45:00Z</time>
      </trkpt>
      <trkpt lat="45.06383" lon="6.02448">
        <ele>719</ele>
        <time>0001-01-01T09:45:00Z</time>
      </trkpt>
      <trkpt lat="45.06388" lon="6.0244">
        <ele>719</ele>
        <time>0001-01-01T09:45:00Z</time>
      </trkpt>
      <trkpt lat="45.06394" lon="6.02432">
        <ele>719</ele>
        <time>0001-01-01T09:45:00Z</time>
      </trkpt>
      <trkpt lat="45.06406" lon="6.02417">
        <ele>719</ele>
        <time>0001-01-01T09:45:00Z</time>
      </trkpt>
      <trkpt lat="45.06439" lon="6.0239">
        <ele>719</ele>
        <time>0001-01-01T09:45:00Z</time>
      </trkpt>
      <trkpt lat="45.06449" lon="6.02382">
        <ele>719</ele>
        <time>0001-01-01T09:45:00Z</time>
      </trkpt>
      <trkpt lat="45.06471" lon="6.02365">
        <ele>718</ele>
        <time>0001-01-01T09:45:00Z</time>
      </trkpt>
      <trkpt lat="45.06513" lon="6.02333">
        <ele>718</ele>
        <time>0001-01-01T09:45:00Z</time>
      </trkpt>
      <trkpt lat="45.06578" lon="6.02285">
        <ele>722</ele>
        <time>0001-01-01T09:45:00Z</time>
      </trkpt>
      <trkpt lat="45.06641" lon="6.02239">
        <ele>716</ele>
        <time>0001-01-01T09:45:00Z</time>
      </trkpt>
      <trkpt lat="45.06696" lon="6.02196">
        <ele>715</ele>
        <time>0001-01-01T09:45:00Z</time>
      </trkpt>
      <trkpt lat="45.06806" lon="6.02109">
        <ele>714</ele>
        <time>0001-01-01T09:45:00Z</time>
      </trkpt>
      <trkpt lat="45.06938" lon="6.02009">
        <ele>719</ele>
        <time>0001-01-01T09:45:00Z</time>
      </trkpt>
      <trkpt lat="45.07151" lon="6.01856">
        <ele>733</ele>
        <time>0001-01-01T09:45:00Z</time>
      </trkpt>
      <trkpt lat="45.07214" lon="6.01803">
        <ele>721</ele>
        <time>0001-01-01T09:45:00Z</time>
      </trkpt>
      <trkpt lat="45.07228" lon="6.01793">
        <ele>721</ele>
        <time>0001-01-01T09:45:00Z</time>
      </trkpt>
      <trkpt lat="45.0725" lon="6.01779">
        <ele>725</ele>
        <time>0001-01-01T09:45:00Z</time>
      </trkpt>
      <trkpt lat="45.07272" lon="6.01764">
        <ele>725</ele>
        <time>0001-01-01T09:45:00Z</time>
      </trkpt>
      <trkpt lat="45.07298" lon="6.01744">
        <ele>723</ele>
        <time>0001-01-01T09:45:00Z</time>
      </trkpt>
      <trkpt lat="45.07317" lon="6.01728">
        <ele>723</ele>
        <time>0001-01-01T09:45:00Z</time>
      </trkpt>
      <trkpt lat="45.07338" lon="6.01709">
        <ele>723</ele>
        <time>0001-01-01T09:45:00Z</time>
      </trkpt>
      <trkpt lat="45.07354" lon="6.01692">
        <ele>727</ele>
        <time>0001-01-01T09:45:00Z</time>
      </trkpt>
      <trkpt lat="45.07399" lon="6.01658">
        <ele>728</ele>
        <time>0001-01-01T09:45:00Z</time>
      </trkpt>
      <trkpt lat="45.07409" lon="6.0165">
        <ele>728</ele>
        <time>0001-01-01T09:45:00Z</time>
      </trkpt>
      <trkpt lat="45.07448" lon="6.0162">
        <ele>728</ele>
        <time>0001-01-01T09:45:00Z</time>
      </trkpt>
      <trkpt lat="45.0752" lon="6.01563">
        <ele>729</ele>
        <time>0001-01-01T09:45:00Z</time>
      </trkpt>
      <trkpt lat="45.0759" lon="6.01508">
        <ele>725</ele>
        <time>0001-01-01T09:45:00Z</time>
      </trkpt>
      <trkpt lat="45.07609" lon="6.01494">
        <ele>725</ele>
        <time>0001-01-01T09:45:00Z</time>
      </trkpt>
      <trkpt lat="45.07621" lon="6.01486">
        <ele>725</ele>
        <time>0001-01-01T09:45:00Z</time>
      </trkpt>
      <trkpt lat="45.07627" lon="6.01483">
        <ele>722</ele>
        <time>0001-01-01T09:45:00Z</time>
      </trkpt>
      <trkpt lat="45.07635" lon="6.0148">
        <ele>722</ele>
        <time>0001-01-01T09:45:00Z</time>
      </trkpt>
      <trkpt lat="45.07649" lon="6.01474">
        <ele>722</ele>
        <time>0001-01-01T09:45:00Z</time>
      </trkpt>
      <trkpt lat="45.07681" lon="6.01466">
        <ele>722</ele>
        <time>0001-01-01T09:45:00Z</time>
      </trkpt>
      <trkpt lat="45.07698" lon="6.01462">
        <ele>722</ele>
        <time>0001-01-01T09:45:00Z</time>
      </trkpt>
      <trkpt lat="45.07743" lon="6.01451">
        <ele>720</ele>
        <time>0001-01-01T09:45:00Z</time>
      </trkpt>
      <trkpt lat="45.0784" lon="6.01428">
        <ele>717</ele>
        <time>0001-01-01T09:45:00Z</time>
      </trkpt>
      <trkpt lat="45.07893" lon="6.01415">
        <ele>714</ele>
        <time>0001-01-01T09:45:00Z</time>
      </trkpt>
      <trkpt lat="45.07936" lon="6.01406">
        <ele>714</ele>
        <time>0001-01-01T09:45:00Z</time>
      </trkpt>
      <trkpt lat="45.08038" lon="6.01381">
        <ele>713</ele>
        <time>0001-01-01T09:45:00Z</time>
      </trkpt>
      <trkpt lat="45.08174" lon="6.01349">
        <ele>717</ele>
        <time>0001-01-01T09:45:00Z</time>
      </trkpt>
      <trkpt lat="45.08216" lon="6.01338">
        <ele>717</ele>
        <time>0001-01-01T09:45:00Z</time>
      </trkpt>
      <trkpt lat="45.0841" lon="6.01292">
        <ele>713</ele>
        <time>0001-01-01T09:45:00Z</time>
      </trkpt>
      <trkpt lat="45.08456" lon="6.01282">
        <ele>714</ele>
        <time>0001-01-01T09:45:00Z</time>
      </trkpt>
      <trkpt lat="45.08567" lon="6.01255">
        <ele>715</ele>
        <time>0001-01-01T09:45:00Z</time>
      </trkpt>
      <trkpt lat="45.08749" lon="6.01212">
        <ele>716</ele>
        <time>0001-01-01T09:45:00Z</time>
      </trkpt>
      <trkpt lat="45.08897" lon="6.01177">
        <ele>714</ele>
        <time>0001-01-01T09:45:00Z</time>
      </trkpt>
      <trkpt lat="45.08963" lon="6.01162">
        <ele>714</ele>
        <time>0001-01-01T09:45:00Z</time>
      </trkpt>
      <trkpt lat="45.0898" lon="6.01161">
        <ele>714</ele>
        <time>0001-01-01T09:45:00Z</time>
      </trkpt>
      <trkpt lat="45.0899" lon="6.01161">
        <ele>714</ele>
        <time>0001-01-01T09:45:00Z</time>
      </trkpt>
      <trkpt lat="45.09001" lon="6.01161">
        <ele>714</ele>
        <time>0001-01-01T09:45:00Z</time>
      </trkpt>
      <trkpt lat="45.09011" lon="6.01162">
        <ele>714</ele>
        <time>0001-01-01T09:45:00Z</time>
      </trkpt>
      <trkpt lat="45.09022" lon="6.01162">
        <ele>714</ele>
        <time>0001-01-01T09:45:00Z</time>
      </trkpt>
      <trkpt lat="45.0903" lon="6.01162">
        <ele>714</ele>
        <time>0001-01-01T09:45:00Z</time>
      </trkpt>
      <trkpt lat="45.09035" lon="6.01162">
        <ele>714</ele>
        <time>0001-01-01T09:45:00Z</time>
      </trkpt>
      <trkpt lat="45.09043" lon="6.01159">
        <ele>714</ele>
        <time>0001-01-01T09:45:00Z</time>
      </trkpt>
      <trkpt lat="45.09051" lon="6.01155">
        <ele>714</ele>
        <time>0001-01-01T09:45:00Z</time>
      </trkpt>
      <trkpt lat="45.0906" lon="6.01148">
        <ele>714</ele>
        <time>0001-01-01T09:45:00Z</time>
      </trkpt>
      <trkpt lat="45.09073" lon="6.0114">
        <ele>714</ele>
        <time>0001-01-01T09:45:00Z</time>
      </trkpt>
      <trkpt lat="45.09084" lon="6.01135">
        <ele>714</ele>
        <time>0001-01-01T09:45:00Z</time>
      </trkpt>
      <trkpt lat="45.09094" lon="6.0113">
        <ele>714</ele>
        <time>0001-01-01T09:45:00Z</time>
      </trkpt>
      <trkpt lat="45.09111" lon="6.01126">
        <ele>714</ele>
        <time>0001-01-01T09:45:00Z</time>
      </trkpt>
      <trkpt lat="45.09232" lon="6.01097">
        <ele>714</ele>
        <time>0001-01-01T09:45:00Z</time>
      </trkpt>
      <trkpt lat="45.09241" lon="6.01094">
        <ele>714</ele>
        <time>0001-01-01T09:45:00Z</time>
      </trkpt>
      <trkpt lat="45.09341" lon="6.01072">
        <ele>712</ele>
        <time>0001-01-01T09:45:00Z</time>
      </trkpt>
      <trkpt lat="45.094" lon="6.01058">
        <ele>714</ele>
        <time>0001-01-01T09:45:00Z</time>
      </trkpt>
      <trkpt lat="45.09529" lon="6.01027">
        <ele>713</ele>
        <time>0001-01-01T09:45:00Z</time>
      </trkpt>
      <trkpt lat="45.09587" lon="6.01013">
        <ele>712</ele>
        <time>0001-01-01T09:45:00Z</time>
      </trkpt>
      <trkpt lat="45.09691" lon="6.0099">
        <ele>712</ele>
        <time>0001-01-01T09:45:00Z</time>
      </trkpt>
      <trkpt lat="45.09697" lon="6.00991">
        <ele>712</ele>
        <time>0001-01-01T09:45:00Z</time>
      </trkpt>
      <trkpt lat="45.0971" lon="6.00987">
        <ele>712</ele>
        <time>0001-01-01T09:45:00Z</time>
      </trkpt>
      <trkpt lat="45.0972" lon="6.00984">
        <ele>712</ele>
        <time>0001-01-01T09:45:00Z</time>
      </trkpt>
      <trkpt lat="45.09726" lon="6.0098">
        <ele>712</ele>
        <time>0001-01-01T09:45:00Z</time>
      </trkpt>
      <trkpt lat="45.09742" lon="6.0097">
        <ele>712</ele>
        <time>0001-01-01T09:45:00Z</time>
      </trkpt>
      <trkpt lat="45.09751" lon="6.00965">
        <ele>712</ele>
        <time>0001-01-01T09:45:00Z</time>
      </trkpt>
      <trkpt lat="45.09759" lon="6.00961">
        <ele>712</ele>
        <time>0001-01-01T09:45:00Z</time>
      </trkpt>
      <trkpt lat="45.09771" lon="6.00959">
        <ele>712</ele>
        <time>0001-01-01T09:45:00Z</time>
      </trkpt>
      <trkpt lat="45.09784" lon="6.00961">
        <ele>712</ele>
        <time>0001-01-01T09:45:00Z</time>
      </trkpt>
      <trkpt lat="45.09796" lon="6.00963">
        <ele>712</ele>
        <time>0001-01-01T09:45:00Z</time>
      </trkpt>
      <trkpt lat="45.09814" lon="6.00961">
        <ele>712</ele>
        <time>0001-01-01T09:45:00Z</time>
      </trkpt>
      <trkpt lat="45.09824" lon="6.00958">
        <ele>715</ele>
        <time>0001-01-01T09:45:00Z</time>
      </trkpt>
      <trkpt lat="45.09835" lon="6.00957">
        <ele>715</ele>
        <time>0001-01-01T09:45:00Z</time>
      </trkpt>
      <trkpt lat="45.09837" lon="6.00957">
        <ele>715</ele>
        <time>0001-01-01T09:45:00Z</time>
      </trkpt>
      <trkpt lat="45.09911" lon="6.00939">
        <ele>714</ele>
        <time>0001-01-01T09:45:00Z</time>
      </trkpt>
      <trkpt lat="45.0994" lon="6.00932">
        <ele>714</ele>
        <time>0001-01-01T09:45:00Z</time>
      </trkpt>
      <trkpt lat="45.101" lon="6.00894">
        <ele>713</ele>
        <time>0001-01-01T09:45:00Z</time>
      </trkpt>
      <trkpt lat="45.10142" lon="6.00884">
        <ele>712</ele>
        <time>0001-01-01T09:45:00Z</time>
      </trkpt>
      <trkpt lat="45.10291" lon="6.00848">
        <ele>710</ele>
        <time>0001-01-01T09:45:00Z</time>
      </trkpt>
      <trkpt lat="45.10481" lon="6.00803">
        <ele>712</ele>
        <time>0001-01-01T09:45:00Z</time>
      </trkpt>
      <trkpt lat="45.10574" lon="6.00782">
        <ele>712</ele>
        <time>0001-01-01T09:45:00Z</time>
      </trkpt>
      <trkpt lat="45.1067" lon="6.00759">
        <ele>711</ele>
        <time>0001-01-01T09:45:00Z</time>
      </trkpt>
      <trkpt lat="45.10765" lon="6.00737">
        <ele>711</ele>
        <time>0001-01-01T09:45:00Z</time>
      </trkpt>
      <trkpt lat="45.10861" lon="6.00715">
        <ele>710</ele>
        <time>0001-01-01T09:45:00Z</time>
      </trkpt>
      <trkpt lat="45.10909" lon="6.00703">
        <ele>712</ele>
        <time>0001-01-01T09:45:00Z</time>
      </trkpt>
      <trkpt lat="45.10957" lon="6.00692">
        <ele>712</ele>
        <time>0001-01-01T09:45:00Z</time>
      </trkpt>
      <trkpt lat="45.11004" lon="6.0068">
        <ele>712</ele>
        <time>0001-01-01T09:45:00Z</time>
      </trkpt>
      <trkpt lat="45.11053" lon="6.00669">
        <ele>712</ele>
        <time>0001-01-01T09:45:00Z</time>
      </trkpt>
      <trkpt lat="45.11242" lon="6.00621">
        <ele>715</ele>
        <time>0001-01-01T09:45:00Z</time>
      </trkpt>
      <trkpt lat="45.11322" lon="6.00604">
        <ele>724</ele>
        <time>0001-01-01T09:45:00Z</time>
      </trkpt>
      <trkpt lat="45.11341" lon="6.00599">
        <ele>724</ele>
        <time>0001-01-01T09:45:00Z</time>
      </trkpt>
      <trkpt lat="45.11362" lon="6.00592">
        <ele>724</ele>
        <time>0001-01-01T09:45:00Z</time>
      </trkpt>
      <trkpt lat="45.11387" lon="6.00584">
        <ele>712</ele>
        <time>0001-01-01T09:45:00Z</time>
      </trkpt>
      <trkpt lat="45.11401" lon="6.00577">
        <ele>712</ele>
        <time>0001-01-01T09:45:00Z</time>
      </trkpt>
      <trkpt lat="45.11418" lon="6.00564">
        <ele>712</ele>
        <time>0001-01-01T09:45:00Z</time>
      </trkpt>
      <trkpt lat="45.11424" lon="6.00578">
        <ele>712</ele>
        <time>0001-01-01T09:45:00Z</time>
      </trkpt>
      <trkpt lat="45.11425" lon="6.00582">
        <ele>712</ele>
        <time>0001-01-01T09:45:00Z</time>
      </trkpt>
      <trkpt lat="45.11429" lon="6.00593">
        <ele>712</ele>
        <time>0001-01-01T09:45:00Z</time>
      </trkpt>
      <trkpt lat="45.11434" lon="6.0061">
        <ele>712</ele>
        <time>0001-01-01T09:45:00Z</time>
      </trkpt>
      <trkpt lat="45.11438" lon="6.00623">
        <ele>712</ele>
        <time>0001-01-01T09:45:00Z</time>
      </trkpt>
      <trkpt lat="45.11441" lon="6.00648">
        <ele>713</ele>
        <time>0001-01-01T09:45:00Z</time>
      </trkpt>
      <trkpt lat="45.11446" lon="6.00696">
        <ele>713</ele>
        <time>0001-01-01T09:45:00Z</time>
      </trkpt>
      <trkpt lat="45.11456" lon="6.00799">
        <ele>714</ele>
        <time>0001-01-01T09:45:00Z</time>
      </trkpt>
      <trkpt lat="45.1146" lon="6.00835">
        <ele>712</ele>
        <time>0001-01-01T09:45:00Z</time>
      </trkpt>
      <trkpt lat="45.11465" lon="6.00886">
        <ele>711</ele>
        <time>0001-01-01T09:45:00Z</time>
      </trkpt>
      <trkpt lat="45.11486" lon="6.01094">
        <ele>715</ele>
        <time>0001-01-01T09:45:00Z</time>
      </trkpt>
      <trkpt lat="45.11494" lon="6.01166">
        <ele>714</ele>
        <time>0001-01-01T09:45:00Z</time>
      </trkpt>
      <trkpt lat="45.11498" lon="6.01198">
        <ele>714</ele>
        <time>0001-01-01T09:45:00Z</time>
      </trkpt>
      <trkpt lat="45.11502" lon="6.01218">
        <ele>715</ele>
        <time>0001-01-01T09:45:00Z</time>
      </trkpt>
      <trkpt lat="45.11509" lon="6.0124">
        <ele>715</ele>
        <time>0001-01-01T09:45:00Z</time>
      </trkpt>
      <trkpt lat="45.11513" lon="6.01251">
        <ele>715</ele>
        <time>0001-01-01T09:45:00Z</time>
      </trkpt>
      <trkpt lat="45.11522" lon="6.01269">
        <ele>715</ele>
        <time>0001-01-01T09:45:00Z</time>
      </trkpt>
      <trkpt lat="45.11534" lon="6.01288">
        <ele>715</ele>
        <time>0001-01-01T09:45:00Z</time>
      </trkpt>
      <trkpt lat="45.11536" lon="6.01291">
        <ele>715</ele>
        <time>0001-01-01T09:45:00Z</time>
      </trkpt>
      <trkpt lat="45.1155" lon="6.01308">
        <ele>711</ele>
        <time>0001-01-01T09:45:00Z</time>
      </trkpt>
      <trkpt lat="45.11557" lon="6.01315">
        <ele>711</ele>
        <time>0001-01-01T09:45:00Z</time>
      </trkpt>
      <trkpt lat="45.11573" lon="6.01332">
        <ele>711</ele>
        <time>0001-01-01T09:45:00Z</time>
      </trkpt>
      <trkpt lat="45.11594" lon="6.01354">
        <ele>711</ele>
        <time>0001-01-01T09:45:00Z</time>
      </trkpt>
      <trkpt lat="45.11597" lon="6.01358">
        <ele>711</ele>
        <time>0001-01-01T09:45:00Z</time>
      </trkpt>
      <trkpt lat="45.11639" lon="6.01402">
        <ele>711</ele>
        <time>0001-01-01T09:45:00Z</time>
      </trkpt>
      <trkpt lat="45.11699" lon="6.01469">
        <ele>713</ele>
        <time>0001-01-01T09:45:00Z</time>
      </trkpt>
      <trkpt lat="45.11714" lon="6.0149">
        <ele>714</ele>
        <time>0001-01-01T09:45:00Z</time>
      </trkpt>
      <trkpt lat="45.11722" lon="6.01502">
        <ele>714</ele>
        <time>0001-01-01T09:45:00Z</time>
      </trkpt>
      <trkpt lat="45.11772" lon="6.01559">
        <ele>716</ele>
        <time>0001-01-01T09:45:00Z</time>
      </trkpt>
      <trkpt lat="45.11805" lon="6.01599">
        <ele>716</ele>
        <time>0001-01-01T09:45:00Z</time>
      </trkpt>
      <trkpt lat="45.11887" lon="6.01698">
        <ele>715</ele>
        <time>0001-01-01T09:45:00Z</time>
      </trkpt>
      <trkpt lat="45.11899" lon="6.01713">
        <ele>713</ele>
        <time>0001-01-01T09:45:00Z</time>
      </trkpt>
      <trkpt lat="45.11914" lon="6.01732">
        <ele>713</ele>
        <time>0001-01-01T09:45:00Z</time>
      </trkpt>
      <trkpt lat="45.11928" lon="6.01752">
        <ele>713</ele>
        <time>0001-01-01T09:45:00Z</time>
      </trkpt>
      <trkpt lat="45.11938" lon="6.01767">
        <ele>713</ele>
        <time>0001-01-01T09:45:00Z</time>
      </trkpt>
      <trkpt lat="45.11945" lon="6.01779">
        <ele>713</ele>
        <time>0001-01-01T09:45:00Z</time>
      </trkpt>
      <trkpt lat="45.11958" lon="6.01803">
        <ele>715</ele>
        <time>0001-01-01T09:45:00Z</time>
      </trkpt>
      <trkpt lat="45.11975" lon="6.01834">
        <ele>715</ele>
        <time>0001-01-01T09:45:00Z</time>
      </trkpt>
      <trkpt lat="45.11996" lon="6.0188">
        <ele>714</ele>
        <time>0001-01-01T09:45:00Z</time>
      </trkpt>
      <trkpt lat="45.12022" lon="6.01947">
        <ele>714</ele>
        <time>0001-01-01T09:45:00Z</time>
      </trkpt>
      <trkpt lat="45.12052" lon="6.02018">
        <ele>721</ele>
        <time>0001-01-01T09:45:00Z</time>
      </trkpt>
      <trkpt lat="45.12057" lon="6.02029">
        <ele>721</ele>
        <time>0001-01-01T09:45:00Z</time>
      </trkpt>
      <trkpt lat="45.12066" lon="6.0205">
        <ele>720</ele>
        <time>0001-01-01T09:45:00Z</time>
      </trkpt>
      <trkpt lat="45.12076" lon="6.02073">
        <ele>720</ele>
        <time>0001-01-01T09:45:00Z</time>
      </trkpt>
      <trkpt lat="45.12086" lon="6.02101">
        <ele>720</ele>
        <time>0001-01-01T09:45:00Z</time>
      </trkpt>
      <trkpt lat="45.12089" lon="6.02113">
        <ele>720</ele>
        <time>0001-01-01T09:45:00Z</time>
      </trkpt>
      <trkpt lat="45.12095" lon="6.02145">
        <ele>717</ele>
        <time>0001-01-01T09:45:00Z</time>
      </trkpt>
      <trkpt lat="45.121" lon="6.02174">
        <ele>717</ele>
        <time>0001-01-01T09:45:00Z</time>
      </trkpt>
      <trkpt lat="45.12107" lon="6.02198">
        <ele>717</ele>
        <time>0001-01-01T09:45:00Z</time>
      </trkpt>
      <trkpt lat="45.12112" lon="6.02212">
        <ele>717</ele>
        <time>0001-01-01T09:45:00Z</time>
      </trkpt>
      <trkpt lat="45.12121" lon="6.02229">
        <ele>717</ele>
        <time>0001-01-01T09:45:00Z</time>
      </trkpt>
      <trkpt lat="45.12129" lon="6.0224">
        <ele>719</ele>
        <time>0001-01-01T09:45:00Z</time>
      </trkpt>
      <trkpt lat="45.12136" lon="6.02248">
        <ele>719</ele>
        <time>0001-01-01T09:45:00Z</time>
      </trkpt>
      <trkpt lat="45.12145" lon="6.02257">
        <ele>719</ele>
        <time>0001-01-01T09:45:00Z</time>
      </trkpt>
      <trkpt lat="45.1215" lon="6.0226">
        <ele>719</ele>
        <time>0001-01-01T09:45:00Z</time>
      </trkpt>
      <trkpt lat="45.12156" lon="6.02264">
        <ele>719</ele>
        <time>0001-01-01T09:45:00Z</time>
      </trkpt>
      <trkpt lat="45.12163" lon="6.02266">
        <ele>719</ele>
        <time>0001-01-01T09:45:00Z</time>
      </trkpt>
      <trkpt lat="45.12176" lon="6.02271">
        <ele>719</ele>
        <time>0001-01-01T09:45:00Z</time>
      </trkpt>
      <trkpt lat="45.12186" lon="6.02274">
        <ele>719</ele>
        <time>0001-01-01T09:45:00Z</time>
      </trkpt>
      <trkpt lat="45.12189" lon="6.02275">
        <ele>719</ele>
        <time>0001-01-01T09:45:00Z</time>
      </trkpt>
      <trkpt lat="45.12197" lon="6.02277">
        <ele>719</ele>
        <time>0001-01-01T09:45:00Z</time>
      </trkpt>
      <trkpt lat="45.12201" lon="6.02279">
        <ele>719</ele>
        <time>0001-01-01T09:45:00Z</time>
      </trkpt>
      <trkpt lat="45.12203" lon="6.02279">
        <ele>719</ele>
        <time>0001-01-01T09:45:00Z</time>
      </trkpt>
      <trkpt lat="45.12212" lon="6.02288">
        <ele>744</ele>
        <time>0001-01-01T09:45:00Z</time>
      </trkpt>
      <trkpt lat="45.12218" lon="6.02293">
        <ele>723</ele>
        <time>0001-01-01T09:45:00Z</time>
      </trkpt>
      <trkpt lat="45.12224" lon="6.02302">
        <ele>723</ele>
        <time>0001-01-01T09:45:00Z</time>
      </trkpt>
      <trkpt lat="45.12227" lon="6.0231">
        <ele>723</ele>
        <time>0001-01-01T09:45:00Z</time>
      </trkpt>
      <trkpt lat="45.12232" lon="6.0232">
        <ele>723</ele>
        <time>0001-01-01T09:45:00Z</time>
      </trkpt>
      <trkpt lat="45.12238" lon="6.0234">
        <ele>723</ele>
        <time>0001-01-01T09:45:00Z</time>
      </trkpt>
      <trkpt lat="45.12242" lon="6.02358">
        <ele>723</ele>
        <time>0001-01-01T09:45:00Z</time>
      </trkpt>
      <trkpt lat="45.12247" lon="6.02381">
        <ele>716</ele>
        <time>0001-01-01T09:45:00Z</time>
      </trkpt>
      <trkpt lat="45.12251" lon="6.02398">
        <ele>716</ele>
        <time>0001-01-01T09:45:00Z</time>
      </trkpt>
      <trkpt lat="45.12256" lon="6.02415">
        <ele>716</ele>
        <time>0001-01-01T09:45:00Z</time>
      </trkpt>
      <trkpt lat="45.12267" lon="6.02444">
        <ele>716</ele>
        <time>0001-01-01T09:45:00Z</time>
      </trkpt>
      <trkpt lat="45.1229" lon="6.02501">
        <ele>718</ele>
        <time>0001-01-01T09:45:00Z</time>
      </trkpt>
      <trkpt lat="45.12381" lon="6.02729">
        <ele>723</ele>
        <time>0001-01-01T09:45:00Z</time>
      </trkpt>
      <trkpt lat="45.12388" lon="6.02749">
        <ele>723</ele>
        <time>0001-01-01T09:45:00Z</time>
      </trkpt>
      <trkpt lat="45.12395" lon="6.02763">
        <ele>723</ele>
        <time>0001-01-01T09:45:00Z</time>
      </trkpt>
      <trkpt lat="45.12443" lon="6.02882">
        <ele>721</ele>
        <time>0001-01-01T09:45:00Z</time>
      </trkpt>
      <trkpt lat="45.12477" lon="6.02965">
        <ele>723</ele>
        <time>0001-01-01T09:45:00Z</time>
      </trkpt>
      <trkpt lat="45.1253" lon="6.03098">
        <ele>722</ele>
        <time>0001-01-01T09:45:00Z</time>
      </trkpt>
      <trkpt lat="45.12578" lon="6.03213">
        <ele>724</ele>
        <time>0001-01-01T09:45:00Z</time>
      </trkpt>
      <trkpt lat="45.12666" lon="6.03428">
        <ele>726</ele>
        <time>0001-01-01T09:45:00Z</time>
      </trkpt>
      <trkpt lat="45.12669" lon="6.03435">
        <ele>726</ele>
        <time>0001-01-01T09:45:00Z</time>
      </trkpt>
      <trkpt lat="45.12696" lon="6.03505">
        <ele>725</ele>
        <time>0001-01-01T09:45:00Z</time>
      </trkpt>
      <trkpt lat="45.12719" lon="6.03563">
        <ele>730</ele>
        <time>0001-01-01T09:45:00Z</time>
      </trkpt>
      <trkpt lat="45.12787" lon="6.03735">
        <ele>729</ele>
        <time>0001-01-01T09:45:00Z</time>
      </trkpt>
      <trkpt lat="45.12793" lon="6.03754">
        <ele>740</ele>
        <time>0001-01-01T09:45:00Z</time>
      </trkpt>
      <trkpt lat="45.12793" lon="6.03765">
        <ele>740</ele>
        <time>0001-01-01T09:45:00Z</time>
      </trkpt>
      <trkpt lat="45.12791" lon="6.03778">
        <ele>729</ele>
        <time>0001-01-01T09:45:00Z</time>
      </trkpt>
      <trkpt lat="45.12788" lon="6.03795">
        <ele>726</ele>
        <time>0001-01-01T09:45:00Z</time>
      </trkpt>
      <trkpt lat="45.12787" lon="6.03803">
        <ele>726</ele>
        <time>0001-01-01T09:45:00Z</time>
      </trkpt>
      <trkpt lat="45.12787" lon="6.03817">
        <ele>726</ele>
        <time>0001-01-01T09:45:00Z</time>
      </trkpt>
      <trkpt lat="45.12788" lon="6.03824">
        <ele>726</ele>
        <time>0001-01-01T09:45:00Z</time>
      </trkpt>
      <trkpt lat="45.1279" lon="6.03831">
        <ele>726</ele>
        <time>0001-01-01T09:45:00Z</time>
      </trkpt>
      <trkpt lat="45.12795" lon="6.03844">
        <ele>732</ele>
        <time>0001-01-01T09:45:00Z</time>
      </trkpt>
      <trkpt lat="45.12824" lon="6.03915">
        <ele>729</ele>
        <time>0001-01-01T09:45:00Z</time>
      </trkpt>
      <trkpt lat="45.12825" lon="6.03919">
        <ele>729</ele>
        <time>0001-01-01T09:45:00Z</time>
      </trkpt>
      <trkpt lat="45.1285" lon="6.03971">
        <ele>729</ele>
        <time>0001-01-01T09:45:00Z</time>
      </trkpt>
      <trkpt lat="45.12884" lon="6.04042">
        <ele>734</ele>
        <time>0001-01-01T09:45:00Z</time>
      </trkpt>
      <trkpt lat="45.12893" lon="6.04063">
        <ele>734</ele>
        <time>0001-01-01T09:45:00Z</time>
      </trkpt>
      <trkpt lat="45.12896" lon="6.04069">
        <ele>734</ele>
        <time>0001-01-01T09:45:00Z</time>
      </trkpt>
      <trkpt lat="45.12905" lon="6.04091">
        <ele>734</ele>
        <time>0001-01-01T09:45:00Z</time>
      </trkpt>
      <trkpt lat="45.12916" lon="6.04118">
        <ele>734</ele>
        <time>0001-01-01T09:45:00Z</time>
      </trkpt>
      <trkpt lat="45.12921" lon="6.04133">
        <ele>736</ele>
        <time>0001-01-01T09:45:00Z</time>
      </trkpt>
      <trkpt lat="45.12924" lon="6.04143">
        <ele>736</ele>
        <time>0001-01-01T09:45:00Z</time>
      </trkpt>
      <trkpt lat="45.12924" lon="6.04152">
        <ele>736</ele>
        <time>0001-01-01T09:45:00Z</time>
      </trkpt>
      <trkpt lat="45.12924" lon="6.0416">
        <ele>736</ele>
        <time>0001-01-01T09:45:00Z</time>
      </trkpt>
      <trkpt lat="45.12924" lon="6.04168">
        <ele>736</ele>
        <time>0001-01-01T09:45:00Z</time>
      </trkpt>
      <trkpt lat="45.12922" lon="6.04178">
        <ele>736</ele>
        <time>0001-01-01T09:45:00Z</time>
      </trkpt>
      <trkpt lat="45.12918" lon="6.04188">
        <ele>736</ele>
        <time>0001-01-01T09:45:00Z</time>
      </trkpt>
      <trkpt lat="45.12909" lon="6.04206">
        <ele>736</ele>
        <time>0001-01-01T09:45:00Z</time>
      </trkpt>
      <trkpt lat="45.12859" lon="6.04307">
        <ele>744</ele>
        <time>0001-01-01T09:45:00Z</time>
      </trkpt>
      <trkpt lat="45.12839" lon="6.0435">
        <ele>744</ele>
        <time>0001-01-01T09:45:00Z</time>
      </trkpt>
      <trkpt lat="45.1283" lon="6.04362">
        <ele>744</ele>
        <time>0001-01-01T09:45:00Z</time>
      </trkpt>
      <trkpt lat="45.12827" lon="6.04366">
        <ele>744</ele>
        <time>0001-01-01T09:45:00Z</time>
      </trkpt>
      <trkpt lat="45.1282" lon="6.04372">
        <ele>744</ele>
        <time>0001-01-01T09:45:00Z</time>
      </trkpt>
      <trkpt lat="45.12814" lon="6.04375">
        <ele>752</ele>
        <time>0001-01-01T09:45:00Z</time>
      </trkpt>
      <trkpt lat="45.12807" lon="6.04379">
        <ele>752</ele>
        <time>0001-01-01T09:45:00Z</time>
      </trkpt>
      <trkpt lat="45.12803" lon="6.04382">
        <ele>752</ele>
        <time>0001-01-01T09:45:00Z</time>
      </trkpt>
      <trkpt lat="45.12801" lon="6.04384">
        <ele>752</ele>
        <time>0001-01-01T09:45:00Z</time>
      </trkpt>
      <trkpt lat="45.128" lon="6.04388">
        <ele>752</ele>
        <time>0001-01-01T09:45:00Z</time>
      </trkpt>
      <trkpt lat="45.12799" lon="6.04391">
        <ele>752</ele>
        <time>0001-01-01T09:45:00Z</time>
      </trkpt>
      <trkpt lat="45.12799" lon="6.04393">
        <ele>752</ele>
        <time>0001-01-01T09:45:00Z</time>
      </trkpt>
      <trkpt lat="45.12799" lon="6.04396">
        <ele>752</ele>
        <time>0001-01-01T09:45:00Z</time>
      </trkpt>
      <trkpt lat="45.12799" lon="6.04399">
        <ele>752</ele>
        <time>0001-01-01T09:45:00Z</time>
      </trkpt>
      <trkpt lat="45.128" lon="6.04402">
        <ele>752</ele>
        <time>0001-01-01T09:45:00Z</time>
      </trkpt>
      <trkpt lat="45.12801" lon="6.04405">
        <ele>752</ele>
        <time>0001-01-01T09:45:00Z</time>
      </trkpt>
      <trkpt lat="45.12802" lon="6.04408">
        <ele>752</ele>
        <time>0001-01-01T09:45:00Z</time>
      </trkpt>
      <trkpt lat="45.12803" lon="6.0441">
        <ele>752</ele>
        <time>0001-01-01T09:45:00Z</time>
      </trkpt>
      <trkpt lat="45.12805" lon="6.04412">
        <ele>752</ele>
        <time>0001-01-01T09:45:00Z</time>
      </trkpt>
      <trkpt lat="45.12807" lon="6.04413">
        <ele>752</ele>
        <time>0001-01-01T09:45:00Z</time>
      </trkpt>
      <trkpt lat="45.12809" lon="6.04414">
        <ele>752</ele>
        <time>0001-01-01T09:45:00Z</time>
      </trkpt>
      <trkpt lat="45.12812" lon="6.04414">
        <ele>752</ele>
        <time>0001-01-01T09:45:00Z</time>
      </trkpt>
      <trkpt lat="45.12816" lon="6.04413">
        <ele>752</ele>
        <time>0001-01-01T09:45:00Z</time>
      </trkpt>
      <trkpt lat="45.12819" lon="6.04412">
        <ele>752</ele>
        <time>0001-01-01T09:45:00Z</time>
      </trkpt>
      <trkpt lat="45.12821" lon="6.0441">
        <ele>752</ele>
        <time>0001-01-01T09:45:00Z</time>
      </trkpt>
      <trkpt lat="45.12834" lon="6.04394">
        <ele>752</ele>
        <time>0001-01-01T09:45:00Z</time>
      </trkpt>
      <trkpt lat="45.12965" lon="6.04229">
        <ele>764</ele>
        <time>0001-01-01T09:45:00Z</time>
      </trkpt>
      <trkpt lat="45.13008" lon="6.04174">
        <ele>758</ele>
        <time>0001-01-01T09:45:00Z</time>
      </trkpt>
      <trkpt lat="45.13028" lon="6.04149">
        <ele>758</ele>
        <time>0001-01-01T09:45:00Z</time>
      </trkpt>
      <trkpt lat="45.13033" lon="6.04142">
        <ele>758</ele>
        <time>0001-01-01T09:45:00Z</time>
      </trkpt>
      <trkpt lat="45.13036" lon="6.04136">
        <ele>758</ele>
        <time>0001-01-01T09:45:00Z</time>
      </trkpt>
      <trkpt lat="45.13041" lon="6.04118">
        <ele>757</ele>
        <time>0001-01-01T09:45:00Z</time>
      </trkpt>
      <trkpt lat="45.13047" lon="6.04096">
        <ele>775</ele>
        <time>0001-01-01T09:45:00Z</time>
      </trkpt>
      <trkpt lat="45.13051" lon="6.04085">
        <ele>775</ele>
        <time>0001-01-01T09:45:00Z</time>
      </trkpt>
      <trkpt lat="45.13054" lon="6.04081">
        <ele>775</ele>
        <time>0001-01-01T09:45:00Z</time>
      </trkpt>
      <trkpt lat="45.13058" lon="6.04078">
        <ele>775</ele>
        <time>0001-01-01T09:45:00Z</time>
      </trkpt>
      <trkpt lat="45.13064" lon="6.04077">
        <ele>775</ele>
        <time>0001-01-01T09:45:00Z</time>
      </trkpt>
      <trkpt lat="45.13069" lon="6.04079">
        <ele>775</ele>
        <time>0001-01-01T09:45:00Z</time>
      </trkpt>
      <trkpt lat="45.13073" lon="6.04082">
        <ele>775</ele>
        <time>0001-01-01T09:45:00Z</time>
      </trkpt>
      <trkpt lat="45.13076" lon="6.0409">
        <ele>775</ele>
        <time>0001-01-01T09:45:00Z</time>
      </trkpt>
      <trkpt lat="45.13077" lon="6.04099">
        <ele>775</ele>
        <time>0001-01-01T09:45:00Z</time>
      </trkpt>
      <trkpt lat="45.13075" lon="6.04105">
        <ele>775</ele>
        <time>0001-01-01T09:45:00Z</time>
      </trkpt>
      <trkpt lat="45.13071" lon="6.04114">
        <ele>775</ele>
        <time>0001-01-01T09:45:00Z</time>
      </trkpt>
      <trkpt lat="45.13059" lon="6.04134">
        <ele>768</ele>
        <time>0001-01-01T09:45:00Z</time>
      </trkpt>
      <trkpt lat="45.13012" lon="6.0421">
        <ele>764</ele>
        <time>0001-01-01T09:45:00Z</time>
      </trkpt>
      <trkpt lat="45.12947" lon="6.04316">
        <ele>762</ele>
        <time>0001-01-01T09:45:00Z</time>
      </trkpt>
      <trkpt lat="45.12873" lon="6.04437">
        <ele>752</ele>
        <time>0001-01-01T09:45:00Z</time>
      </trkpt>
      <trkpt lat="45.1286" lon="6.04457">
        <ele>752</ele>
        <time>0001-01-01T09:45:00Z</time>
      </trkpt>
      <trkpt lat="45.12821" lon="6.04521">
        <ele>766</ele>
        <time>0001-01-01T09:45:00Z</time>
      </trkpt>
      <trkpt lat="45.12805" lon="6.04547">
        <ele>785</ele>
        <time>0001-01-01T09:45:00Z</time>
      </trkpt>
      <trkpt lat="45.12815" lon="6.04566">
        <ele>785</ele>
        <time>0001-01-01T09:45:00Z</time>
      </trkpt>
      <trkpt lat="45.12846" lon="6.04615">
        <ele>785</ele>
        <time>0001-01-01T09:45:00Z</time>
      </trkpt>
      <trkpt lat="45.12873" lon="6.04657">
        <ele>809</ele>
        <time>0001-01-01T09:45:00Z</time>
      </trkpt>
      <trkpt lat="45.12901" lon="6.04702">
        <ele>758</ele>
        <time>0001-01-01T09:45:00Z</time>
      </trkpt>
      <trkpt lat="45.12929" lon="6.04746">
        <ele>788</ele>
        <time>0001-01-01T09:45:00Z</time>
      </trkpt>
      <trkpt lat="45.12941" lon="6.04765">
        <ele>788</ele>
        <time>0001-01-01T09:45:00Z</time>
      </trkpt>
      <trkpt lat="45.12947" lon="6.04771">
        <ele>788</ele>
        <time>0001-01-01T09:45:00Z</time>
      </trkpt>
      <trkpt lat="45.12958" lon="6.04779">
        <ele>788</ele>
        <time>0001-01-01T09:45:00Z</time>
      </trkpt>
      <trkpt lat="45.12968" lon="6.04783">
        <ele>775</ele>
        <time>0001-01-01T09:45:00Z</time>
      </trkpt>
      <trkpt lat="45.12994" lon="6.0479">
        <ele>775</ele>
        <time>0001-01-01T09:45:00Z</time>
      </trkpt>
      <trkpt lat="45.13016" lon="6.04796">
        <ele>814</ele>
        <time>0001-01-01T09:45:00Z</time>
      </trkpt>
      <trkpt lat="45.13037" lon="6.04803">
        <ele>814</ele>
        <time>0001-01-01T09:45:00Z</time>
      </trkpt>
      <trkpt lat="45.13051" lon="6.04808">
        <ele>805</ele>
        <time>0001-01-01T09:45:00Z</time>
      </trkpt>
      <trkpt lat="45.13137" lon="6.0484">
        <ele>783</ele>
        <time>0001-01-01T09:45:00Z</time>
      </trkpt>
      <trkpt lat="45.13227" lon="6.0487">
        <ele>758</ele>
        <time>0001-01-01T09:45:00Z</time>
      </trkpt>
      <trkpt lat="45.13275" lon="6.04884">
        <ele>778</ele>
        <time>0001-01-01T09:45:00Z</time>
      </trkpt>
      <trkpt lat="45.13289" lon="6.04888">
        <ele>778</ele>
        <time>0001-01-01T09:45:00Z</time>
      </trkpt>
      <trkpt lat="45.13427" lon="6.04924">
        <ele>764</ele>
        <time>0001-01-01T09:45:00Z</time>
      </trkpt>
      <trkpt lat="45.13464" lon="6.04932">
        <ele>763</ele>
        <time>0001-01-01T09:45:00Z</time>
      </trkpt>
      <trkpt lat="45.13478" lon="6.04934">
        <ele>763</ele>
        <time>0001-01-01T09:45:00Z</time>
      </trkpt>
      <trkpt lat="45.13492" lon="6.04936">
        <ele>763</ele>
        <time>0001-01-01T09:45:00Z</time>
      </trkpt>
      <trkpt lat="45.13576" lon="6.04953">
        <ele>776</ele>
        <time>0001-01-01T09:45:00Z</time>
      </trkpt>
      <trkpt lat="45.13601" lon="6.04958">
        <ele>776</ele>
        <time>0001-01-01T09:45:00Z</time>
      </trkpt>
      <trkpt lat="45.13607" lon="6.04958">
        <ele>776</ele>
        <time>0001-01-01T09:45:00Z</time>
      </trkpt>
      <trkpt lat="45.13615" lon="6.04957">
        <ele>776</ele>
        <time>0001-01-01T09:45:00Z</time>
      </trkpt>
      <trkpt lat="45.13625" lon="6.04954">
        <ele>776</ele>
        <time>0001-01-01T09:45:00Z</time>
      </trkpt>
      <trkpt lat="45.13635" lon="6.0495">
        <ele>784</ele>
        <time>0001-01-01T09:45:00Z</time>
      </trkpt>
      <trkpt lat="45.13636" lon="6.04949">
        <ele>784</ele>
        <time>0001-01-01T09:45:00Z</time>
      </trkpt>
      <trkpt lat="45.13646" lon="6.04944">
        <ele>784</ele>
        <time>0001-01-01T09:45:00Z</time>
      </trkpt>
      <trkpt lat="45.13695" lon="6.04901">
        <ele>784</ele>
        <time>0001-01-01T09:45:00Z</time>
      </trkpt>
      <trkpt lat="45.13717" lon="6.04883">
        <ele>804</ele>
        <time>0001-01-01T09:45:00Z</time>
      </trkpt>
      <trkpt lat="45.13738" lon="6.04866">
        <ele>779</ele>
        <time>0001-01-01T09:45:00Z</time>
      </trkpt>
      <trkpt lat="45.13754" lon="6.04857">
        <ele>779</ele>
        <time>0001-01-01T09:45:00Z</time>
      </trkpt>
      <trkpt lat="45.13768" lon="6.0485">
        <ele>779</ele>
        <time>0001-01-01T09:45:00Z</time>
      </trkpt>
      <trkpt lat="45.13781" lon="6.04846">
        <ele>779</ele>
        <time>0001-01-01T09:45:00Z</time>
      </trkpt>
      <trkpt lat="45.13795" lon="6.04843">
        <ele>785</ele>
        <time>0001-01-01T09:45:00Z</time>
      </trkpt>
      <trkpt lat="45.13808" lon="6.04842">
        <ele>785</ele>
        <time>0001-01-01T09:45:00Z</time>
      </trkpt>
      <trkpt lat="45.13822" lon="6.04842">
        <ele>785</ele>
        <time>0001-01-01T09:45:00Z</time>
      </trkpt>
      <trkpt lat="45.13839" lon="6.04846">
        <ele>785</ele>
        <time>0001-01-01T09:45:00Z</time>
      </trkpt>
      <trkpt lat="45.13858" lon="6.04854">
        <ele>785</ele>
        <time>0001-01-01T09:45:00Z</time>
      </trkpt>
      <trkpt lat="45.13878" lon="6.04867">
        <ele>758</ele>
        <time>0001-01-01T09:45:00Z</time>
      </trkpt>
      <trkpt lat="45.13883" lon="6.04871">
        <ele>758</ele>
        <time>0001-01-01T09:45:00Z</time>
      </trkpt>
      <trkpt lat="45.13903" lon="6.04881">
        <ele>804</ele>
        <time>0001-01-01T09:45:00Z</time>
      </trkpt>
      <trkpt lat="45.13915" lon="6.04887">
        <ele>804</ele>
        <time>0001-01-01T09:45:00Z</time>
      </trkpt>
      <trkpt lat="45.13919" lon="6.04889">
        <ele>804</ele>
        <time>0001-01-01T09:45:00Z</time>
      </trkpt>
      <trkpt lat="45.13933" lon="6.04892">
        <ele>804</ele>
        <time>0001-01-01T09:45:00Z</time>
      </trkpt>
      <trkpt lat="45.13942" lon="6.04894">
        <ele>804</ele>
        <time>0001-01-01T09:45:00Z</time>
      </trkpt>
      <trkpt lat="45.1396" lon="6.04895">
        <ele>811</ele>
        <time>0001-01-01T09:45:00Z</time>
      </trkpt>
      <trkpt lat="45.13977" lon="6.04894">
        <ele>811</ele>
        <time>0001-01-01T09:45:00Z</time>
      </trkpt>
      <trkpt lat="45.13996" lon="6.04892">
        <ele>811</ele>
        <time>0001-01-01T09:45:00Z</time>
      </trkpt>
      <trkpt lat="45.14014" lon="6.04892">
        <ele>811</ele>
        <time>0001-01-01T09:45:00Z</time>
      </trkpt>
      <trkpt lat="45.14029" lon="6.04892">
        <ele>811</ele>
        <time>0001-01-01T09:45:00Z</time>
      </trkpt>
      <trkpt lat="45.14054" lon="6.04897">
        <ele>758</ele>
        <time>0001-01-01T09:45:00Z</time>
      </trkpt>
      <trkpt lat="45.14082" lon="6.04902">
        <ele>758</ele>
        <time>0001-01-01T09:45:00Z</time>
      </trkpt>
      <trkpt lat="45.14099" lon="6.04907">
        <ele>758</ele>
        <time>0001-01-01T09:45:00Z</time>
      </trkpt>
      <trkpt lat="45.14113" lon="6.04912">
        <ele>758</ele>
        <time>0001-01-01T09:45:00Z</time>
      </trkpt>
      <trkpt lat="45.14135" lon="6.04924">
        <ele>758</ele>
        <time>0001-01-01T09:45:00Z</time>
      </trkpt>
      <trkpt lat="45.14169" lon="6.04942">
        <ele>758</ele>
        <time>0001-01-01T09:45:00Z</time>
      </trkpt>
      <trkpt lat="45.14215" lon="6.04967">
        <ele>795</ele>
        <time>0001-01-01T09:45:00Z</time>
      </trkpt>
      <trkpt lat="45.14272" lon="6.05005">
        <ele>795</ele>
        <time>0001-01-01T09:45:00Z</time>
      </trkpt>
      <trkpt lat="45.14301" lon="6.05026">
        <ele>769</ele>
        <time>0001-01-01T09:45:00Z</time>
      </trkpt>
      <trkpt lat="45.14327" lon="6.05045">
        <ele>798</ele>
        <time>0001-01-01T09:45:00Z</time>
      </trkpt>
      <trkpt lat="45.14338" lon="6.05055">
        <ele>798</ele>
        <time>0001-01-01T09:45:00Z</time>
      </trkpt>
      <trkpt lat="45.14352" lon="6.0507">
        <ele>798</ele>
        <time>0001-01-01T09:45:00Z</time>
      </trkpt>
      <trkpt lat="45.14365" lon="6.05085">
        <ele>798</ele>
        <time>0001-01-01T09:45:00Z</time>
      </trkpt>
      <trkpt lat="45.14379" lon="6.051">
        <ele>774</ele>
        <time>0001-01-01T09:45:00Z</time>
      </trkpt>
      <trkpt lat="45.1439" lon="6.0511">
        <ele>774</ele>
        <time>0001-01-01T09:45:00Z</time>
      </trkpt>
      <trkpt lat="45.14405" lon="6.05121">
        <ele>774</ele>
        <time>0001-01-01T09:45:00Z</time>
      </trkpt>
      <trkpt lat="45.14423" lon="6.05131">
        <ele>795</ele>
        <time>0001-01-01T09:45:00Z</time>
      </trkpt>
      <trkpt lat="45.1444" lon="6.05142">
        <ele>795</ele>
        <time>0001-01-01T09:45:00Z</time>
      </trkpt>
      <trkpt lat="45.14452" lon="6.05153">
        <ele>795</ele>
        <time>0001-01-01T09:45:00Z</time>
      </trkpt>
      <trkpt lat="45.14454" lon="6.05156">
        <ele>795</ele>
        <time>0001-01-01T09:45:00Z</time>
      </trkpt>
      <trkpt lat="45.14459" lon="6.05165">
        <ele>787</ele>
        <time>0001-01-01T09:45:00Z</time>
      </trkpt>
      <trkpt lat="45.14461" lon="6.05173">
        <ele>787</ele>
        <time>0001-01-01T09:45:00Z</time>
      </trkpt>
      <trkpt lat="45.14462" lon="6.05187">
        <ele>787</ele>
        <time>0001-01-01T09:45:00Z</time>
      </trkpt>
      <trkpt lat="45.14462" lon="6.05201">
        <ele>787</ele>
        <time>0001-01-01T09:45:00Z</time>
      </trkpt>
      <trkpt lat="45.1446" lon="6.05209">
        <ele>789</ele>
        <time>0001-01-01T09:45:00Z</time>
      </trkpt>
      <trkpt lat="45.14458" lon="6.05219">
        <ele>816</ele>
        <time>0001-01-01T09:45:00Z</time>
      </trkpt>
      <trkpt lat="45.14454" lon="6.05231">
        <ele>816</ele>
        <time>0001-01-01T09:45:00Z</time>
      </trkpt>
      <trkpt lat="45.1445" lon="6.05245">
        <ele>816</ele>
        <time>0001-01-01T09:45:00Z</time>
      </trkpt>
      <trkpt lat="45.14445" lon="6.05259">
        <ele>816</ele>
        <time>0001-01-01T09:45:00Z</time>
      </trkpt>
      <trkpt lat="45.14444" lon="6.05266">
        <ele>816</ele>
        <time>0001-01-01T09:45:00Z</time>
      </trkpt>
      <trkpt lat="45.14443" lon="6.05274">
        <ele>816</ele>
        <time>0001-01-01T09:45:00Z</time>
      </trkpt>
      <trkpt lat="45.14443" lon="6.0529">
        <ele>816</ele>
        <time>0001-01-01T09:45:00Z</time>
      </trkpt>
      <trkpt lat="45.14445" lon="6.05318">
        <ele>828</ele>
        <time>0001-01-01T09:45:00Z</time>
      </trkpt>
      <trkpt lat="45.14447" lon="6.0534">
        <ele>828</ele>
        <time>0001-01-01T09:45:00Z</time>
      </trkpt>
      <trkpt lat="45.14451" lon="6.05368">
        <ele>828</ele>
        <time>0001-01-01T09:45:00Z</time>
      </trkpt>
      <trkpt lat="45.14455" lon="6.05386">
        <ele>850</ele>
        <time>0001-01-01T09:45:00Z</time>
      </trkpt>
      <trkpt lat="45.14462" lon="6.05402">
        <ele>805</ele>
        <time>0001-01-01T09:45:00Z</time>
      </trkpt>
      <trkpt lat="45.1447" lon="6.05416">
        <ele>805</ele>
        <time>0001-01-01T09:45:00Z</time>
      </trkpt>
      <trkpt lat="45.14478" lon="6.05427">
        <ele>805</ele>
        <time>0001-01-01T09:45:00Z</time>
      </trkpt>
      <trkpt lat="45.14487" lon="6.05434">
        <ele>805</ele>
        <time>0001-01-01T09:45:00Z</time>
      </trkpt>
      <trkpt lat="45.14498" lon="6.05438">
        <ele>805</ele>
        <time>0001-01-01T09:45:00Z</time>
      </trkpt>
      <trkpt lat="45.14512" lon="6.05442">
        <ele>805</ele>
        <time>0001-01-01T09:45:00Z</time>
      </trkpt>
      <trkpt lat="45.14521" lon="6.05441">
        <ele>805</ele>
        <time>0001-01-01T09:45:00Z</time>
      </trkpt>
      <trkpt lat="45.14531" lon="6.05437">
        <ele>805</ele>
        <time>0001-01-01T09:45:00Z</time>
      </trkpt>
      <trkpt lat="45.14537" lon="6.05432">
        <ele>805</ele>
        <time>0001-01-01T09:45:00Z</time>
      </trkpt>
      <trkpt lat="45.14544" lon="6.05426">
        <ele>819</ele>
        <time>0001-01-01T09:45:00Z</time>
      </trkpt>
      <trkpt lat="45.14549" lon="6.05421">
        <ele>819</ele>
        <time>0001-01-01T09:45:00Z</time>
      </trkpt>
      <trkpt lat="45.14552" lon="6.05419">
        <ele>819</ele>
        <time>0001-01-01T09:45:00Z</time>
      </trkpt>
      <trkpt lat="45.14558" lon="6.05411">
        <ele>819</ele>
        <time>0001-01-01T09:45:00Z</time>
      </trkpt>
      <trkpt lat="45.14565" lon="6.054">
        <ele>819</ele>
        <time>0001-01-01T09:45:00Z</time>
      </trkpt>
      <trkpt lat="45.14576" lon="6.05364">
        <ele>818</ele>
        <time>0001-01-01T09:45:00Z</time>
      </trkpt>
      <trkpt lat="45.14578" lon="6.05352">
        <ele>818</ele>
        <time>0001-01-01T09:45:00Z</time>
      </trkpt>
      <trkpt lat="45.14584" lon="6.05307">
        <ele>818</ele>
        <time>0001-01-01T09:45:00Z</time>
      </trkpt>
      <trkpt lat="45.14588" lon="6.05268">
        <ele>812</ele>
        <time>0001-01-01T09:45:00Z</time>
      </trkpt>
      <trkpt lat="45.14591" lon="6.05244">
        <ele>812</ele>
        <time>0001-01-01T09:45:00Z</time>
      </trkpt>
      <trkpt lat="45.14595" lon="6.05212">
        <ele>812</ele>
        <time>0001-01-01T09:45:00Z</time>
      </trkpt>
      <trkpt lat="45.14598" lon="6.05193">
        <ele>798</ele>
        <time>0001-01-01T09:45:00Z</time>
      </trkpt>
      <trkpt lat="45.14603" lon="6.05178">
        <ele>798</ele>
        <time>0001-01-01T09:45:00Z</time>
      </trkpt>
      <trkpt lat="45.14605" lon="6.05173">
        <ele>798</ele>
        <time>0001-01-01T09:45:00Z</time>
      </trkpt>
      <trkpt lat="45.14608" lon="6.05167">
        <ele>798</ele>
        <time>0001-01-01T09:45:00Z</time>
      </trkpt>
      <trkpt lat="45.14614" lon="6.05158">
        <ele>798</ele>
        <time>0001-01-01T09:45:00Z</time>
      </trkpt>
      <trkpt lat="45.1462" lon="6.0515">
        <ele>798</ele>
        <time>0001-01-01T09:45:00Z</time>
      </trkpt>
      <trkpt lat="45.14636" lon="6.05133">
        <ele>824</ele>
        <time>0001-01-01T09:45:00Z</time>
      </trkpt>
      <trkpt lat="45.14654" lon="6.05107">
        <ele>806</ele>
        <time>0001-01-01T09:45:00Z</time>
      </trkpt>
      <trkpt lat="45.14663" lon="6.05098">
        <ele>806</ele>
        <time>0001-01-01T09:45:00Z</time>
      </trkpt>
      <trkpt lat="45.14672" lon="6.05089">
        <ele>806</ele>
        <time>0001-01-01T09:45:00Z</time>
      </trkpt>
      <trkpt lat="45.14678" lon="6.05085">
        <ele>806</ele>
        <time>0001-01-01T09:45:00Z</time>
      </trkpt>
      <trkpt lat="45.14685" lon="6.05082">
        <ele>806</ele>
        <time>0001-01-01T09:45:00Z</time>
      </trkpt>
      <trkpt lat="45.1469" lon="6.05082">
        <ele>806</ele>
        <time>0001-01-01T09:45:00Z</time>
      </trkpt>
      <trkpt lat="45.14699" lon="6.05081">
        <ele>806</ele>
        <time>0001-01-01T09:45:00Z</time>
      </trkpt>
      <trkpt lat="45.14706" lon="6.05081">
        <ele>806</ele>
        <time>0001-01-01T09:45:00Z</time>
      </trkpt>
      <trkpt lat="45.14714" lon="6.0508">
        <ele>821</ele>
        <time>0001-01-01T09:45:00Z</time>
      </trkpt>
      <trkpt lat="45.14723" lon="6.05075">
        <ele>821</ele>
        <time>0001-01-01T09:45:00Z</time>
      </trkpt>
      <trkpt lat="45.14734" lon="6.05068">
        <ele>821</ele>
        <time>0001-01-01T09:45:00Z</time>
      </trkpt>
      <trkpt lat="45.14744" lon="6.05058">
        <ele>821</ele>
        <time>0001-01-01T09:45:00Z</time>
      </trkpt>
      <trkpt lat="45.14754" lon="6.05045">
        <ele>821</ele>
        <time>0001-01-01T09:45:00Z</time>
      </trkpt>
      <trkpt lat="45.14765" lon="6.05031">
        <ele>800</ele>
        <time>0001-01-01T09:45:00Z</time>
      </trkpt>
      <trkpt lat="45.14767" lon="6.05026">
        <ele>800</ele>
        <time>0001-01-01T09:45:00Z</time>
      </trkpt>
      <trkpt lat="45.14795" lon="6.04985">
        <ele>821</ele>
        <time>0001-01-01T09:45:00Z</time>
      </trkpt>
      <trkpt lat="45.14801" lon="6.04972">
        <ele>821</ele>
        <time>0001-01-01T09:45:00Z</time>
      </trkpt>
      <trkpt lat="45.14803" lon="6.04965">
        <ele>821</ele>
        <time>0001-01-01T09:45:00Z</time>
      </trkpt>
      <trkpt lat="45.14806" lon="6.04954">
        <ele>806</ele>
        <time>0001-01-01T09:45:00Z</time>
      </trkpt>
      <trkpt lat="45.14808" lon="6.04945">
        <ele>806</ele>
        <time>0001-01-01T09:45:00Z</time>
      </trkpt>
      <trkpt lat="45.14813" lon="6.04921">
        <ele>806</ele>
        <time>0001-01-01T09:45:00Z</time>
      </trkpt>
      <trkpt lat="45.14816" lon="6.04907">
        <ele>806</ele>
        <time>0001-01-01T09:45:00Z</time>
      </trkpt>
      <trkpt lat="45.14819" lon="6.04898">
        <ele>806</ele>
        <time>0001-01-01T09:45:00Z</time>
      </trkpt>
      <trkpt lat="45.14822" lon="6.04888">
        <ele>806</ele>
        <time>0001-01-01T09:45:00Z</time>
      </trkpt>
      <trkpt lat="45.14824" lon="6.04886">
        <ele>806</ele>
        <time>0001-01-01T09:45:00Z</time>
      </trkpt>
      <trkpt lat="45.14826" lon="6.0488">
        <ele>806</ele>
        <time>0001-01-01T09:45:00Z</time>
      </trkpt>
      <trkpt lat="45.14832" lon="6.04873">
        <ele>787</ele>
        <time>0001-01-01T09:45:00Z</time>
      </trkpt>
      <trkpt lat="45.14835" lon="6.04869">
        <ele>787</ele>
        <time>0001-01-01T09:45:00Z</time>
      </trkpt>
      <trkpt lat="45.14846" lon="6.04861">
        <ele>787</ele>
        <time>0001-01-01T09:45:00Z</time>
      </trkpt>
      <trkpt lat="45.14858" lon="6.04854">
        <ele>787</ele>
        <time>0001-01-01T09:45:00Z</time>
      </trkpt>
      <trkpt lat="45.14883" lon="6.04842">
        <ele>800</ele>
        <time>0001-01-01T09:45:00Z</time>
      </trkpt>
      <trkpt lat="45.14902" lon="6.04838">
        <ele>800</ele>
        <time>0001-01-01T09:45:00Z</time>
      </trkpt>
      <trkpt lat="45.14929" lon="6.04834">
        <ele>800</ele>
        <time>0001-01-01T09:45:00Z</time>
      </trkpt>
      <trkpt lat="45.14944" lon="6.04834">
        <ele>800</ele>
        <time>0001-01-01T09:45:00Z</time>
      </trkpt>
      <trkpt lat="45.14962" lon="6.04832">
        <ele>812</ele>
        <time>0001-01-01T09:45:00Z</time>
      </trkpt>
      <trkpt lat="45.14974" lon="6.04828">
        <ele>812</ele>
        <time>0001-01-01T09:45:00Z</time>
      </trkpt>
      <trkpt lat="45.14992" lon="6.0482">
        <ele>812</ele>
        <time>0001-01-01T09:45:00Z</time>
      </trkpt>
      <trkpt lat="45.15017" lon="6.04804">
        <ele>812</ele>
        <time>0001-01-01T09:45:00Z</time>
      </trkpt>
      <trkpt lat="45.15038" lon="6.0479">
        <ele>784</ele>
        <time>0001-01-01T09:45:00Z</time>
      </trkpt>
      <trkpt lat="45.1506" lon="6.04776">
        <ele>796</ele>
        <time>0001-01-01T09:45:00Z</time>
      </trkpt>
      <trkpt lat="45.151" lon="6.04753">
        <ele>796</ele>
        <time>0001-01-01T09:45:00Z</time>
      </trkpt>
      <trkpt lat="45.15132" lon="6.04731">
        <ele>812</ele>
        <time>0001-01-01T09:45:00Z</time>
      </trkpt>
      <trkpt lat="45.15158" lon="6.04713">
        <ele>812</ele>
        <time>0001-01-01T09:45:00Z</time>
      </trkpt>
      <trkpt lat="45.15175" lon="6.04697">
        <ele>787</ele>
        <time>0001-01-01T09:45:00Z</time>
      </trkpt>
      <trkpt lat="45.1519" lon="6.0468">
        <ele>787</ele>
        <time>0001-01-01T09:45:00Z</time>
      </trkpt>
      <trkpt lat="45.15209" lon="6.04657">
        <ele>802</ele>
        <time>0001-01-01T09:45:00Z</time>
      </trkpt>
      <trkpt lat="45.15217" lon="6.04649">
        <ele>802</ele>
        <time>0001-01-01T09:45:00Z</time>
      </trkpt>
      <trkpt lat="45.15238" lon="6.04638">
        <ele>802</ele>
        <time>0001-01-01T09:45:00Z</time>
      </trkpt>
      <trkpt lat="45.15263" lon="6.04629">
        <ele>802</ele>
        <time>0001-01-01T09:45:00Z</time>
      </trkpt>
      <trkpt lat="45.1528" lon="6.04618">
        <ele>791</ele>
        <time>0001-01-01T09:45:00Z</time>
      </trkpt>
      <trkpt lat="45.15295" lon="6.04604">
        <ele>796</ele>
        <time>0001-01-01T09:45:00Z</time>
      </trkpt>
      <trkpt lat="45.15309" lon="6.04591">
        <ele>796</ele>
        <time>0001-01-01T09:45:00Z</time>
      </trkpt>
      <trkpt lat="45.1531" lon="6.0459">
        <ele>796</ele>
        <time>0001-01-01T09:45:00Z</time>
      </trkpt>
      <trkpt lat="45.15319" lon="6.0458">
        <ele>796</ele>
        <time>0001-01-01T09:45:00Z</time>
      </trkpt>
      <trkpt lat="45.15323" lon="6.04576">
        <ele>796</ele>
        <time>0001-01-01T09:45:00Z</time>
      </trkpt>
      <trkpt lat="45.15333" lon="6.04566">
        <ele>796</ele>
        <time>0001-01-01T09:45:00Z</time>
      </trkpt>
      <trkpt lat="45.15338" lon="6.04563">
        <ele>796</ele>
        <time>0001-01-01T09:45:00Z</time>
      </trkpt>
      <trkpt lat="45.1535" lon="6.04555">
        <ele>796</ele>
        <time>0001-01-01T09:45:00Z</time>
      </trkpt>
      <trkpt lat="45.15356" lon="6.04553">
        <ele>796</ele>
        <time>0001-01-01T09:45:00Z</time>
      </trkpt>
      <trkpt lat="45.15366" lon="6.0455">
        <ele>796</ele>
        <time>0001-01-01T09:45:00Z</time>
      </trkpt>
      <trkpt lat="45.154" lon="6.04547">
        <ele>803</ele>
        <time>0001-01-01T09:45:00Z</time>
      </trkpt>
      <trkpt lat="45.15438" lon="6.04542">
        <ele>803</ele>
        <time>0001-01-01T09:45:00Z</time>
      </trkpt>
      <trkpt lat="45.15474" lon="6.04532">
        <ele>820</ele>
        <time>0001-01-01T09:45:00Z</time>
      </trkpt>
      <trkpt lat="45.15511" lon="6.0452">
        <ele>820</ele>
        <time>0001-01-01T09:45:00Z</time>
      </trkpt>
      <trkpt lat="45.15532" lon="6.04511">
        <ele>820</ele>
        <time>0001-01-01T09:45:00Z</time>
      </trkpt>
      <trkpt lat="45.15547" lon="6.045">
        <ele>818</ele>
        <time>0001-01-01T09:45:00Z</time>
      </trkpt>
      <trkpt lat="45.15557" lon="6.04484">
        <ele>818</ele>
        <time>0001-01-01T09:45:00Z</time>
      </trkpt>
      <trkpt lat="45.1557" lon="6.04468">
        <ele>818</ele>
        <time>0001-01-01T09:45:00Z</time>
      </trkpt>
      <trkpt lat="45.15584" lon="6.04453">
        <ele>845</ele>
        <time>0001-01-01T09:45:00Z</time>
      </trkpt>
      <trkpt lat="45.15604" lon="6.0444">
        <ele>845</ele>
        <time>0001-01-01T09:45:00Z</time>
      </trkpt>
      <trkpt lat="45.15621" lon="6.04429">
        <ele>845</ele>
        <time>0001-01-01T09:45:00Z</time>
      </trkpt>
      <trkpt lat="45.15643" lon="6.04417">
        <ele>839</ele>
        <time>0001-01-01T09:45:00Z</time>
      </trkpt>
      <trkpt lat="45.15664" lon="6.04402">
        <ele>839</ele>
        <time>0001-01-01T09:45:00Z</time>
      </trkpt>
      <trkpt lat="45.15708" lon="6.04364">
        <ele>873</ele>
        <time>0001-01-01T09:45:00Z</time>
      </trkpt>
      <trkpt lat="45.15736" lon="6.04345">
        <ele>858</ele>
        <time>0001-01-01T09:45:00Z</time>
      </trkpt>
      <trkpt lat="45.1576" lon="6.04336">
        <ele>858</ele>
        <time>0001-01-01T09:45:00Z</time>
      </trkpt>
      <trkpt lat="45.15784" lon="6.04333">
        <ele>858</ele>
        <time>0001-01-01T09:45:00Z</time>
      </trkpt>
      <trkpt lat="45.15813" lon="6.04323">
        <ele>854</ele>
        <time>0001-01-01T09:45:00Z</time>
      </trkpt>
      <trkpt lat="45.15827" lon="6.04314">
        <ele>854</ele>
        <time>0001-01-01T09:45:00Z</time>
      </trkpt>
      <trkpt lat="45.15834" lon="6.0431">
        <ele>854</ele>
        <time>0001-01-01T09:45:00Z</time>
      </trkpt>
      <trkpt lat="45.1585" lon="6.04298">
        <ele>854</ele>
        <time>0001-01-01T09:45:00Z</time>
      </trkpt>
      <trkpt lat="45.15861" lon="6.04294">
        <ele>854</ele>
        <time>0001-01-01T09:45:00Z</time>
      </trkpt>
      <trkpt lat="45.1587" lon="6.04292">
        <ele>854</ele>
        <time>0001-01-01T09:45:00Z</time>
      </trkpt>
      <trkpt lat="45.15885" lon="6.04292">
        <ele>848</ele>
        <time>0001-01-01T09:45:00Z</time>
      </trkpt>
      <trkpt lat="45.15888" lon="6.04291">
        <ele>881</ele>
        <time>0001-01-01T09:45:00Z</time>
      </trkpt>
      <trkpt lat="45.15896" lon="6.04291">
        <ele>881</ele>
        <time>0001-01-01T09:45:00Z</time>
      </trkpt>
      <trkpt lat="45.15905" lon="6.04288">
        <ele>881</ele>
        <time>0001-01-01T09:45:00Z</time>
      </trkpt>
      <trkpt lat="45.15917" lon="6.04284">
        <ele>881</ele>
        <time>0001-01-01T09:45:00Z</time>
      </trkpt>
      <trkpt lat="45.15947" lon="6.04271">
        <ele>881</ele>
        <time>0001-01-01T09:45:00Z</time>
      </trkpt>
      <trkpt lat="45.15973" lon="6.04258">
        <ele>878</ele>
        <time>0001-01-01T09:45:00Z</time>
      </trkpt>
      <trkpt lat="45.1598" lon="6.04253">
        <ele>878</ele>
        <time>0001-01-01T09:45:00Z</time>
      </trkpt>
      <trkpt lat="45.15999" lon="6.0424">
        <ele>878</ele>
        <time>0001-01-01T09:45:00Z</time>
      </trkpt>
      <trkpt lat="45.16017" lon="6.04227">
        <ele>878</ele>
        <time>0001-01-01T09:45:00Z</time>
      </trkpt>
      <trkpt lat="45.16034" lon="6.04215">
        <ele>878</ele>
        <time>0001-01-01T09:45:00Z</time>
      </trkpt>
      <trkpt lat="45.16047" lon="6.04209">
        <ele>867</ele>
        <time>0001-01-01T09:45:00Z</time>
      </trkpt>
      <trkpt lat="45.16065" lon="6.04202">
        <ele>912</ele>
        <time>0001-01-01T09:45:00Z</time>
      </trkpt>
      <trkpt lat="45.16077" lon="6.04201">
        <ele>912</ele>
        <time>0001-01-01T09:45:00Z</time>
      </trkpt>
      <trkpt lat="45.16092" lon="6.04201">
        <ele>912</ele>
        <time>0001-01-01T09:45:00Z</time>
      </trkpt>
      <trkpt lat="45.16108" lon="6.04201">
        <ele>912</ele>
        <time>0001-01-01T09:45:00Z</time>
      </trkpt>
      <trkpt lat="45.16122" lon="6.04201">
        <ele>912</ele>
        <time>0001-01-01T09:45:00Z</time>
      </trkpt>
      <trkpt lat="45.16134" lon="6.04201">
        <ele>904</ele>
        <time>0001-01-01T09:45:00Z</time>
      </trkpt>
      <trkpt lat="45.16145" lon="6.04203">
        <ele>904</ele>
        <time>0001-01-01T09:45:00Z</time>
      </trkpt>
      <trkpt lat="45.16162" lon="6.04206">
        <ele>904</ele>
        <time>0001-01-01T09:45:00Z</time>
      </trkpt>
      <trkpt lat="45.16186" lon="6.04211">
        <ele>865</ele>
        <time>0001-01-01T09:45:00Z</time>
      </trkpt>
      <trkpt lat="45.16215" lon="6.04217">
        <ele>879</ele>
        <time>0001-01-01T09:45:00Z</time>
      </trkpt>
      <trkpt lat="45.16227" lon="6.04219">
        <ele>879</ele>
        <time>0001-01-01T09:45:00Z</time>
      </trkpt>
      <trkpt lat="45.16238" lon="6.04221">
        <ele>879</ele>
        <time>0001-01-01T09:45:00Z</time>
      </trkpt>
      <trkpt lat="45.16249" lon="6.04221">
        <ele>879</ele>
        <time>0001-01-01T09:45:00Z</time>
      </trkpt>
      <trkpt lat="45.1627" lon="6.04222">
        <ele>879</ele>
        <time>0001-01-01T09:45:00Z</time>
      </trkpt>
      <trkpt lat="45.16288" lon="6.0422">
        <ele>879</ele>
        <time>0001-01-01T09:45:00Z</time>
      </trkpt>
      <trkpt lat="45.16306" lon="6.04219">
        <ele>883</ele>
        <time>0001-01-01T09:45:00Z</time>
      </trkpt>
      <trkpt lat="45.16326" lon="6.04216">
        <ele>883</ele>
        <time>0001-01-01T09:45:00Z</time>
      </trkpt>
      <trkpt lat="45.16361" lon="6.04213">
        <ele>883</ele>
        <time>0001-01-01T09:45:00Z</time>
      </trkpt>
      <trkpt lat="45.16415" lon="6.04213">
        <ele>891</ele>
        <time>0001-01-01T09:45:00Z</time>
      </trkpt>
      <trkpt lat="45.16444" lon="6.04207">
        <ele>919</ele>
        <time>0001-01-01T09:45:00Z</time>
      </trkpt>
      <trkpt lat="45.16477" lon="6.04201">
        <ele>922</ele>
        <time>0001-01-01T09:45:00Z</time>
      </trkpt>
      <trkpt lat="45.16513" lon="6.042">
        <ele>922</ele>
        <time>0001-01-01T09:45:00Z</time>
      </trkpt>
      <trkpt lat="45.1654" lon="6.04198">
        <ele>922</ele>
        <time>0001-01-01T09:45:00Z</time>
      </trkpt>
      <trkpt lat="45.16557" lon="6.04196">
        <ele>928</ele>
        <time>0001-01-01T09:45:00Z</time>
      </trkpt>
      <trkpt lat="45.16571" lon="6.04189">
        <ele>928</ele>
        <time>0001-01-01T09:45:00Z</time>
      </trkpt>
      <trkpt lat="45.16588" lon="6.04182">
        <ele>928</ele>
        <time>0001-01-01T09:45:00Z</time>
      </trkpt>
      <trkpt lat="45.16601" lon="6.0418">
        <ele>928</ele>
        <time>0001-01-01T09:45:00Z</time>
      </trkpt>
      <trkpt lat="45.16624" lon="6.04181">
        <ele>928</ele>
        <time>0001-01-01T09:45:00Z</time>
      </trkpt>
      <trkpt lat="45.16641" lon="6.04182">
        <ele>935</ele>
        <time>0001-01-01T09:45:00Z</time>
      </trkpt>
      <trkpt lat="45.16664" lon="6.0418">
        <ele>935</ele>
        <time>0001-01-01T09:45:00Z</time>
      </trkpt>
      <trkpt lat="45.16692" lon="6.04174">
        <ele>935</ele>
        <time>0001-01-01T09:45:00Z</time>
      </trkpt>
      <trkpt lat="45.1671" lon="6.04171">
        <ele>924</ele>
        <time>0001-01-01T09:45:00Z</time>
      </trkpt>
      <trkpt lat="45.16725" lon="6.04168">
        <ele>924</ele>
        <time>0001-01-01T09:45:00Z</time>
      </trkpt>
      <trkpt lat="45.16745" lon="6.04157">
        <ele>924</ele>
        <time>0001-01-01T09:45:00Z</time>
      </trkpt>
      <trkpt lat="45.16767" lon="6.04146">
        <ele>924</ele>
        <time>0001-01-01T09:45:00Z</time>
      </trkpt>
      <trkpt lat="45.16771" lon="6.04145">
        <ele>924</ele>
        <time>0001-01-01T09:45:00Z</time>
      </trkpt>
      <trkpt lat="45.16792" lon="6.04135">
        <ele>920</ele>
        <time>0001-01-01T09:45:00Z</time>
      </trkpt>
      <trkpt lat="45.16815" lon="6.04124">
        <ele>942</ele>
        <time>0001-01-01T09:45:00Z</time>
      </trkpt>
      <trkpt lat="45.16829" lon="6.04113">
        <ele>942</ele>
        <time>0001-01-01T09:45:00Z</time>
      </trkpt>
      <trkpt lat="45.16844" lon="6.04096">
        <ele>942</ele>
        <time>0001-01-01T09:45:00Z</time>
      </trkpt>
      <trkpt lat="45.16857" lon="6.04073">
        <ele>942</ele>
        <time>0001-01-01T09:45:00Z</time>
      </trkpt>
      <trkpt lat="45.16871" lon="6.04039">
        <ele>972</ele>
        <time>0001-01-01T09:45:00Z</time>
      </trkpt>
      <trkpt lat="45.16877" lon="6.04027">
        <ele>945</ele>
        <time>0001-01-01T09:45:00Z</time>
      </trkpt>
      <trkpt lat="45.16879" lon="6.04024">
        <ele>945</ele>
        <time>0001-01-01T09:45:00Z</time>
      </trkpt>
      <trkpt lat="45.16886" lon="6.04012">
        <ele>945</ele>
        <time>0001-01-01T09:45:00Z</time>
      </trkpt>
      <trkpt lat="45.16889" lon="6.04007">
        <ele>945</ele>
        <time>0001-01-01T09:45:00Z</time>
      </trkpt>
      <trkpt lat="45.16898" lon="6.03997">
        <ele>945</ele>
        <time>0001-01-01T09:45:00Z</time>
      </trkpt>
      <trkpt lat="45.16916" lon="6.03984">
        <ele>945</ele>
        <time>0001-01-01T09:45:00Z</time>
      </trkpt>
      <trkpt lat="45.16923" lon="6.03979">
        <ele>945</ele>
        <time>0001-01-01T09:45:00Z</time>
      </trkpt>
      <trkpt lat="45.16938" lon="6.03975">
        <ele>945</ele>
        <time>0001-01-01T09:45:00Z</time>
      </trkpt>
      <trkpt lat="45.16944" lon="6.03973">
        <ele>945</ele>
        <time>0001-01-01T09:45:00Z</time>
      </trkpt>
      <trkpt lat="45.1696" lon="6.03971">
        <ele>938</ele>
        <time>0001-01-01T09:45:00Z</time>
      </trkpt>
      <trkpt lat="45.16978" lon="6.03966">
        <ele>938</ele>
        <time>0001-01-01T09:45:00Z</time>
      </trkpt>
      <trkpt lat="45.16996" lon="6.03955">
        <ele>968</ele>
        <time>0001-01-01T09:45:00Z</time>
      </trkpt>
      <trkpt lat="45.1701" lon="6.03942">
        <ele>968</ele>
        <time>0001-01-01T09:45:00Z</time>
      </trkpt>
      <trkpt lat="45.17027" lon="6.03927">
        <ele>968</ele>
        <time>0001-01-01T09:45:00Z</time>
      </trkpt>
      <trkpt lat="45.17058" lon="6.03909">
        <ele>951</ele>
        <time>0001-01-01T09:45:00Z</time>
      </trkpt>
      <trkpt lat="45.17107" lon="6.03882">
        <ele>951</ele>
        <time>0001-01-01T09:45:00Z</time>
      </trkpt>
      <trkpt lat="45.17141" lon="6.03861">
        <ele>978</ele>
        <time>0001-01-01T09:45:00Z</time>
      </trkpt>
      <trkpt lat="45.17166" lon="6.03845">
        <ele>978</ele>
        <time>0001-01-01T09:45:00Z</time>
      </trkpt>
      <trkpt lat="45.17192" lon="6.03828">
        <ele>978</ele>
        <time>0001-01-01T09:45:00Z</time>
      </trkpt>
      <trkpt lat="45.17213" lon="6.03817">
        <ele>962</ele>
        <time>0001-01-01T09:45:00Z</time>
      </trkpt>
      <trkpt lat="45.17243" lon="6.03804">
        <ele>962</ele>
        <time>0001-01-01T09:45:00Z</time>
      </trkpt>
      <trkpt lat="45.17267" lon="6.03796">
        <ele>962</ele>
        <time>0001-01-01T09:45:00Z</time>
      </trkpt>
      <trkpt lat="45.17302" lon="6.03785">
        <ele>995</ele>
        <time>0001-01-01T09:45:00Z</time>
      </trkpt>
      <trkpt lat="45.1731" lon="6.03784">
        <ele>995</ele>
        <time>0001-01-01T09:45:00Z</time>
      </trkpt>
      <trkpt lat="45.1733" lon="6.03782">
        <ele>995</ele>
        <time>0001-01-01T09:45:00Z</time>
      </trkpt>
      <trkpt lat="45.17346" lon="6.03781">
        <ele>995</ele>
        <time>0001-01-01T09:45:00Z</time>
      </trkpt>
      <trkpt lat="45.17356" lon="6.03781">
        <ele>995</ele>
        <time>0001-01-01T09:45:00Z</time>
      </trkpt>
      <trkpt lat="45.17365" lon="6.0378">
        <ele>995</ele>
        <time>0001-01-01T09:45:00Z</time>
      </trkpt>
      <trkpt lat="45.17382" lon="6.03775">
        <ele>998</ele>
        <time>0001-01-01T09:45:00Z</time>
      </trkpt>
      <trkpt lat="45.17402" lon="6.03767">
        <ele>998</ele>
        <time>0001-01-01T09:45:00Z</time>
      </trkpt>
      <trkpt lat="45.17415" lon="6.03757">
        <ele>998</ele>
        <time>0001-01-01T09:45:00Z</time>
      </trkpt>
      <trkpt lat="45.17427" lon="6.03745">
        <ele>998</ele>
        <time>0001-01-01T09:45:00Z</time>
      </trkpt>
      <trkpt lat="45.1744" lon="6.03731">
        <ele>998</ele>
        <time>0001-01-01T09:45:00Z</time>
      </trkpt>
      <trkpt lat="45.17451" lon="6.03723">
        <ele>998</ele>
        <time>0001-01-01T09:45:00Z</time>
      </trkpt>
      <trkpt lat="45.17466" lon="6.03717">
        <ele>989</ele>
        <time>0001-01-01T09:45:00Z</time>
      </trkpt>
      <trkpt lat="45.17487" lon="6.03712">
        <ele>989</ele>
        <time>0001-01-01T09:45:00Z</time>
      </trkpt>
      <trkpt lat="45.17501" lon="6.0371">
        <ele>989</ele>
        <time>0001-01-01T09:45:00Z</time>
      </trkpt>
      <trkpt lat="45.1752" lon="6.03707">
        <ele>1028</ele>
        <time>0001-01-01T09:45:00Z</time>
      </trkpt>
      <trkpt lat="45.17534" lon="6.03703">
        <ele>1028</ele>
        <time>0001-01-01T09:45:00Z</time>
      </trkpt>
      <trkpt lat="45.17547" lon="6.03698">
        <ele>1017</ele>
        <time>0001-01-01T09:45:00Z</time>
      </trkpt>
      <trkpt lat="45.1756" lon="6.03691">
        <ele>1017</ele>
        <time>0001-01-01T09:45:00Z</time>
      </trkpt>
      <trkpt lat="45.17573" lon="6.03688">
        <ele>1017</ele>
        <time>0001-01-01T09:45:00Z</time>
      </trkpt>
      <trkpt lat="45.17583" lon="6.03689">
        <ele>1017</ele>
        <time>0001-01-01T09:45:00Z</time>
      </trkpt>
      <trkpt lat="45.17592" lon="6.03691">
        <ele>1017</ele>
        <time>0001-01-01T09:45:00Z</time>
      </trkpt>
      <trkpt lat="45.17607" lon="6.03694">
        <ele>1017</ele>
        <time>0001-01-01T09:45:00Z</time>
      </trkpt>
      <trkpt lat="45.1762" lon="6.03695">
        <ele>1017</ele>
        <time>0001-01-01T09:45:00Z</time>
      </trkpt>
      <trkpt lat="45.17629" lon="6.03692">
        <ele>1010</ele>
        <time>0001-01-01T09:45:00Z</time>
      </trkpt>
      <trkpt lat="45.17643" lon="6.03687">
        <ele>1010</ele>
        <time>0001-01-01T09:45:00Z</time>
      </trkpt>
      <trkpt lat="45.1766" lon="6.03673">
        <ele>1010</ele>
        <time>0001-01-01T09:45:00Z</time>
      </trkpt>
      <trkpt lat="45.17672" lon="6.03661">
        <ele>1010</ele>
        <time>0001-01-01T09:45:00Z</time>
      </trkpt>
      <trkpt lat="45.17683" lon="6.03647">
        <ele>1010</ele>
        <time>0001-01-01T09:45:00Z</time>
      </trkpt>
      <trkpt lat="45.17694" lon="6.03634">
        <ele>1010</ele>
        <time>0001-01-01T09:45:00Z</time>
      </trkpt>
      <trkpt lat="45.17702" lon="6.03628">
        <ele>1010</ele>
        <time>0001-01-01T09:45:00Z</time>
      </trkpt>
      <trkpt lat="45.17708" lon="6.03627">
        <ele>1010</ele>
        <time>0001-01-01T09:45:00Z</time>
      </trkpt>
      <trkpt lat="45.17717" lon="6.03628">
        <ele>1012</ele>
        <time>0001-01-01T09:45:00Z</time>
      </trkpt>
      <trkpt lat="45.17731" lon="6.0364">
        <ele>1012</ele>
        <time>0001-01-01T09:45:00Z</time>
      </trkpt>
      <trkpt lat="45.17752" lon="6.03658">
        <ele>1012</ele>
        <time>0001-01-01T09:45:00Z</time>
      </trkpt>
      <trkpt lat="45.17766" lon="6.03668">
        <ele>1012</ele>
        <time>0001-01-01T09:45:00Z</time>
      </trkpt>
      <trkpt lat="45.17777" lon="6.03674">
        <ele>1012</ele>
        <time>0001-01-01T09:45:00Z</time>
      </trkpt>
      <trkpt lat="45.17785" lon="6.03674">
        <ele>1012</ele>
        <time>0001-01-01T09:45:00Z</time>
      </trkpt>
      <trkpt lat="45.17795" lon="6.0367">
        <ele>1022</ele>
        <time>0001-01-01T09:45:00Z</time>
      </trkpt>
      <trkpt lat="45.17809" lon="6.03662">
        <ele>1022</ele>
        <time>0001-01-01T09:45:00Z</time>
      </trkpt>
      <trkpt lat="45.17819" lon="6.03658">
        <ele>1022</ele>
        <time>0001-01-01T09:45:00Z</time>
      </trkpt>
      <trkpt lat="45.17829" lon="6.03657">
        <ele>1022</ele>
        <time>0001-01-01T09:45:00Z</time>
      </trkpt>
      <trkpt lat="45.1785" lon="6.03659">
        <ele>1022</ele>
        <time>0001-01-01T09:45:00Z</time>
      </trkpt>
      <trkpt lat="45.17863" lon="6.03661">
        <ele>1022</ele>
        <time>0001-01-01T09:45:00Z</time>
      </trkpt>
      <trkpt lat="45.17875" lon="6.03662">
        <ele>1028</ele>
        <time>0001-01-01T09:45:00Z</time>
      </trkpt>
      <trkpt lat="45.17884" lon="6.0366">
        <ele>1028</ele>
        <time>0001-01-01T09:45:00Z</time>
      </trkpt>
      <trkpt lat="45.17893" lon="6.03657">
        <ele>1028</ele>
        <time>0001-01-01T09:45:00Z</time>
      </trkpt>
      <trkpt lat="45.1791" lon="6.03648">
        <ele>1028</ele>
        <time>0001-01-01T09:45:00Z</time>
      </trkpt>
      <trkpt lat="45.17928" lon="6.03635">
        <ele>1028</ele>
        <time>0001-01-01T09:45:00Z</time>
      </trkpt>
      <trkpt lat="45.17951" lon="6.03614">
        <ele>1064</ele>
        <time>0001-01-01T09:45:00Z</time>
      </trkpt>
      <trkpt lat="45.17966" lon="6.03598">
        <ele>1054</ele>
        <time>0001-01-01T09:45:00Z</time>
      </trkpt>
      <trkpt lat="45.1798" lon="6.03588">
        <ele>1054</ele>
        <time>0001-01-01T09:45:00Z</time>
      </trkpt>
      <trkpt lat="45.17993" lon="6.03582">
        <ele>1054</ele>
        <time>0001-01-01T09:45:00Z</time>
      </trkpt>
      <trkpt lat="45.1801" lon="6.03574">
        <ele>1054</ele>
        <time>0001-01-01T09:45:00Z</time>
      </trkpt>
      <trkpt lat="45.18079" lon="6.03543">
        <ele>1045</ele>
        <time>0001-01-01T09:45:00Z</time>
      </trkpt>
      <trkpt lat="45.18112" lon="6.03529">
        <ele>1093</ele>
        <time>0001-01-01T09:45:00Z</time>
      </trkpt>
      <trkpt lat="45.18139" lon="6.03517">
        <ele>1089</ele>
        <time>0001-01-01T09:45:00Z</time>
      </trkpt>
      <trkpt lat="45.18171" lon="6.03503">
        <ele>1089</ele>
        <time>0001-01-01T09:45:00Z</time>
      </trkpt>
      <trkpt lat="45.18192" lon="6.03497">
        <ele>1089</ele>
        <time>0001-01-01T09:45:00Z</time>
      </trkpt>
      <trkpt lat="45.18221" lon="6.03492">
        <ele>1087</ele>
        <time>0001-01-01T09:45:00Z</time>
      </trkpt>
      <trkpt lat="45.18242" lon="6.0349">
        <ele>1087</ele>
        <time>0001-01-01T09:45:00Z</time>
      </trkpt>
      <trkpt lat="45.18259" lon="6.0349">
        <ele>1087</ele>
        <time>0001-01-01T09:45:00Z</time>
      </trkpt>
      <trkpt lat="45.18277" lon="6.03492">
        <ele>1087</ele>
        <time>0001-01-01T09:45:00Z</time>
      </trkpt>
      <trkpt lat="45.18294" lon="6.03492">
        <ele>1084</ele>
        <time>0001-01-01T09:45:00Z</time>
      </trkpt>
      <trkpt lat="45.18311" lon="6.03489">
        <ele>1084</ele>
        <time>0001-01-01T09:45:00Z</time>
      </trkpt>
      <trkpt lat="45.18345" lon="6.03483">
        <ele>1084</ele>
        <time>0001-01-01T09:45:00Z</time>
      </trkpt>
      <trkpt lat="45.18378" lon="6.03475">
        <ele>1088</ele>
        <time>0001-01-01T09:45:00Z</time>
      </trkpt>
      <trkpt lat="45.18406" lon="6.03469">
        <ele>1088</ele>
        <time>0001-01-01T09:45:00Z</time>
      </trkpt>
      <trkpt lat="45.1845" lon="6.0346">
        <ele>1088</ele>
        <time>0001-01-01T09:45:00Z</time>
      </trkpt>
      <trkpt lat="45.18485" lon="6.03453">
        <ele>1129</ele>
        <time>0001-01-01T09:45:00Z</time>
      </trkpt>
      <trkpt lat="45.18507" lon="6.03448">
        <ele>1129</ele>
        <time>0001-01-01T09:45:00Z</time>
      </trkpt>
      <trkpt lat="45.18526" lon="6.03447">
        <ele>1129</ele>
        <time>0001-01-01T09:45:00Z</time>
      </trkpt>
      <trkpt lat="45.18548" lon="6.03445">
        <ele>1127</ele>
        <time>0001-01-01T09:45:00Z</time>
      </trkpt>
      <trkpt lat="45.18565" lon="6.03441">
        <ele>1127</ele>
        <time>0001-01-01T09:45:00Z</time>
      </trkpt>
      <trkpt lat="45.1858" lon="6.03434">
        <ele>1127</ele>
        <time>0001-01-01T09:45:00Z</time>
      </trkpt>
      <trkpt lat="45.18592" lon="6.03427">
        <ele>1127</ele>
        <time>0001-01-01T09:45:00Z</time>
      </trkpt>
      <trkpt lat="45.18606" lon="6.03417">
        <ele>1127</ele>
        <time>0001-01-01T09:45:00Z</time>
      </trkpt>
      <trkpt lat="45.18628" lon="6.03405">
        <ele>1120</ele>
        <time>0001-01-01T09:45:00Z</time>
      </trkpt>
      <trkpt lat="45.18651" lon="6.03395">
        <ele>1120</ele>
        <time>0001-01-01T09:45:00Z</time>
      </trkpt>
      <trkpt lat="45.18675" lon="6.03385">
        <ele>1120</ele>
        <time>0001-01-01T09:45:00Z</time>
      </trkpt>
      <trkpt lat="45.1869" lon="6.03378">
        <ele>1120</ele>
        <time>0001-01-01T09:45:00Z</time>
      </trkpt>
      <trkpt lat="45.18701" lon="6.03376">
        <ele>1120</ele>
        <time>0001-01-01T09:45:00Z</time>
      </trkpt>
      <trkpt lat="45.18703" lon="6.03376">
        <ele>1120</ele>
        <time>0001-01-01T09:45:00Z</time>
      </trkpt>
      <trkpt lat="45.18711" lon="6.03377">
        <ele>1131</ele>
        <time>0001-01-01T09:45:00Z</time>
      </trkpt>
      <trkpt lat="45.18718" lon="6.03379">
        <ele>1131</ele>
        <time>0001-01-01T09:45:00Z</time>
      </trkpt>
      <trkpt lat="45.18725" lon="6.03382">
        <ele>1131</ele>
        <time>0001-01-01T09:45:00Z</time>
      </trkpt>
      <trkpt lat="45.18734" lon="6.03388">
        <ele>1131</ele>
        <time>0001-01-01T09:45:00Z</time>
      </trkpt>
      <trkpt lat="45.18751" lon="6.03402">
        <ele>1131</ele>
        <time>0001-01-01T09:45:00Z</time>
      </trkpt>
      <trkpt lat="45.18773" lon="6.03419">
        <ele>1131</ele>
        <time>0001-01-01T09:45:00Z</time>
      </trkpt>
      <trkpt lat="45.18799" lon="6.0344">
        <ele>1171</ele>
        <time>0001-01-01T09:45:00Z</time>
      </trkpt>
      <trkpt lat="45.18831" lon="6.03465">
        <ele>1134</ele>
        <time>0001-01-01T09:45:00Z</time>
      </trkpt>
      <trkpt lat="45.18861" lon="6.03486">
        <ele>1134</ele>
        <time>0001-01-01T09:45:00Z</time>
      </trkpt>
      <trkpt lat="45.18881" lon="6.03499">
        <ele>1169</ele>
        <time>0001-01-01T09:45:00Z</time>
      </trkpt>
      <trkpt lat="45.18903" lon="6.03512">
        <ele>1169</ele>
        <time>0001-01-01T09:45:00Z</time>
      </trkpt>
      <trkpt lat="45.18925" lon="6.03522">
        <ele>1169</ele>
        <time>0001-01-01T09:45:00Z</time>
      </trkpt>
      <trkpt lat="45.18952" lon="6.03531">
        <ele>1169</ele>
        <time>0001-01-01T09:45:00Z</time>
      </trkpt>
      <trkpt lat="45.18971" lon="6.03538">
        <ele>1205</ele>
        <time>0001-01-01T09:45:00Z</time>
      </trkpt>
      <trkpt lat="45.18987" lon="6.03547">
        <ele>1158</ele>
        <time>0001-01-01T09:45:00Z</time>
      </trkpt>
      <trkpt lat="45.19001" lon="6.03556">
        <ele>1158</ele>
        <time>0001-01-01T09:45:00Z</time>
      </trkpt>
      <trkpt lat="45.19013" lon="6.03565">
        <ele>1158</ele>
        <time>0001-01-01T09:45:00Z</time>
      </trkpt>
      <trkpt lat="45.19037" lon="6.03574">
        <ele>1158</ele>
        <time>0001-01-01T09:45:00Z</time>
      </trkpt>
      <trkpt lat="45.19074" lon="6.03587">
        <ele>1184</ele>
        <time>0001-01-01T09:45:00Z</time>
      </trkpt>
      <trkpt lat="45.19104" lon="6.03597">
        <ele>1184</ele>
        <time>0001-01-01T09:45:00Z</time>
      </trkpt>
      <trkpt lat="45.19128" lon="6.03605">
        <ele>1208</ele>
        <time>0001-01-01T09:45:00Z</time>
      </trkpt>
      <trkpt lat="45.19159" lon="6.03612">
        <ele>1208</ele>
        <time>0001-01-01T09:45:00Z</time>
      </trkpt>
      <trkpt lat="45.19175" lon="6.03616">
        <ele>1208</ele>
        <time>0001-01-01T09:45:00Z</time>
      </trkpt>
      <trkpt lat="45.1919" lon="6.03624">
        <ele>1208</ele>
        <time>0001-01-01T09:45:00Z</time>
      </trkpt>
      <trkpt lat="45.19203" lon="6.03634">
        <ele>1166</ele>
        <time>0001-01-01T09:45:00Z</time>
      </trkpt>
      <trkpt lat="45.19218" lon="6.03644">
        <ele>1193</ele>
        <time>0001-01-01T09:45:00Z</time>
      </trkpt>
      <trkpt lat="45.19229" lon="6.03649">
        <ele>1193</ele>
        <time>0001-01-01T09:45:00Z</time>
      </trkpt>
      <trkpt lat="45.19242" lon="6.0365">
        <ele>1193</ele>
        <time>0001-01-01T09:45:00Z</time>
      </trkpt>
      <trkpt lat="45.19257" lon="6.03649">
        <ele>1193</ele>
        <time>0001-01-01T09:45:00Z</time>
      </trkpt>
      <trkpt lat="45.19274" lon="6.03653">
        <ele>1193</ele>
        <time>0001-01-01T09:45:00Z</time>
      </trkpt>
      <trkpt lat="45.19288" lon="6.03661">
        <ele>1193</ele>
        <time>0001-01-01T09:45:00Z</time>
      </trkpt>
      <trkpt lat="45.19301" lon="6.0367">
        <ele>1227</ele>
        <time>0001-01-01T09:45:00Z</time>
      </trkpt>
      <trkpt lat="45.19318" lon="6.03685">
        <ele>1227</ele>
        <time>0001-01-01T09:45:00Z</time>
      </trkpt>
      <trkpt lat="45.19334" lon="6.03703">
        <ele>1227</ele>
        <time>0001-01-01T09:45:00Z</time>
      </trkpt>
      <trkpt lat="45.19352" lon="6.03725">
        <ele>1190</ele>
        <time>0001-01-01T09:45:00Z</time>
      </trkpt>
      <trkpt lat="45.19368" lon="6.03739">
        <ele>1190</ele>
        <time>0001-01-01T09:45:00Z</time>
      </trkpt>
      <trkpt lat="45.19384" lon="6.03752">
        <ele>1229</ele>
        <time>0001-01-01T09:45:00Z</time>
      </trkpt>
      <trkpt lat="45.19411" lon="6.03768">
        <ele>1229</ele>
        <time>0001-01-01T09:45:00Z</time>
      </trkpt>
      <trkpt lat="45.19432" lon="6.03779">
        <ele>1229</ele>
        <time>0001-01-01T09:45:00Z</time>
      </trkpt>
      <trkpt lat="45.19452" lon="6.03788">
        <ele>1229</ele>
        <time>0001-01-01T09:45:00Z</time>
      </trkpt>
      <trkpt lat="45.19473" lon="6.03793">
        <ele>1214</ele>
        <time>0001-01-01T09:45:00Z</time>
      </trkpt>
      <trkpt lat="45.19493" lon="6.03798">
        <ele>1214</ele>
        <time>0001-01-01T09:45:00Z</time>
      </trkpt>
      <trkpt lat="45.19507" lon="6.03799">
        <ele>1214</ele>
        <time>0001-01-01T09:45:00Z</time>
      </trkpt>
      <trkpt lat="45.19519" lon="6.03802">
        <ele>1214</ele>
        <time>0001-01-01T09:45:00Z</time>
      </trkpt>
      <trkpt lat="45.1953" lon="6.03809">
        <ele>1214</ele>
        <time>0001-01-01T09:45:00Z</time>
      </trkpt>
      <trkpt lat="45.19548" lon="6.03823">
        <ele>1245</ele>
        <time>0001-01-01T09:45:00Z</time>
      </trkpt>
      <trkpt lat="45.19571" lon="6.03841">
        <ele>1245</ele>
        <time>0001-01-01T09:45:00Z</time>
      </trkpt>
      <trkpt lat="45.19591" lon="6.03858">
        <ele>1245</ele>
        <time>0001-01-01T09:45:00Z</time>
      </trkpt>
      <trkpt lat="45.19604" lon="6.03868">
        <ele>1245</ele>
        <time>0001-01-01T09:45:00Z</time>
      </trkpt>
      <trkpt lat="45.19611" lon="6.03872">
        <ele>1245</ele>
        <time>0001-01-01T09:45:00Z</time>
      </trkpt>
      <trkpt lat="45.19623" lon="6.03875">
        <ele>1207</ele>
        <time>0001-01-01T09:45:00Z</time>
      </trkpt>
      <trkpt lat="45.19653" lon="6.0388">
        <ele>1227</ele>
        <time>0001-01-01T09:45:00Z</time>
      </trkpt>
      <trkpt lat="45.19687" lon="6.03885">
        <ele>1227</ele>
        <time>0001-01-01T09:45:00Z</time>
      </trkpt>
      <trkpt lat="45.19715" lon="6.0389">
        <ele>1245</ele>
        <time>0001-01-01T09:45:00Z</time>
      </trkpt>
      <trkpt lat="45.19737" lon="6.03892">
        <ele>1245</ele>
        <time>0001-01-01T09:45:00Z</time>
      </trkpt>
      <trkpt lat="45.19751" lon="6.03895">
        <ele>1245</ele>
        <time>0001-01-01T09:45:00Z</time>
      </trkpt>
      <trkpt lat="45.19768" lon="6.03902">
        <ele>1245</ele>
        <time>0001-01-01T09:45:00Z</time>
      </trkpt>
      <trkpt lat="45.19785" lon="6.03908">
        <ele>1245</ele>
        <time>0001-01-01T09:45:00Z</time>
      </trkpt>
      <trkpt lat="45.19804" lon="6.03912">
        <ele>1262</ele>
        <time>0001-01-01T09:45:00Z</time>
      </trkpt>
      <trkpt lat="45.19824" lon="6.03917">
        <ele>1262</ele>
        <time>0001-01-01T09:45:00Z</time>
      </trkpt>
      <trkpt lat="45.19845" lon="6.03926">
        <ele>1262</ele>
        <time>0001-01-01T09:45:00Z</time>
      </trkpt>
      <trkpt lat="45.19864" lon="6.03934">
        <ele>1262</ele>
        <time>0001-01-01T09:45:00Z</time>
      </trkpt>
      <trkpt lat="45.19874" lon="6.03936">
        <ele>1262</ele>
        <time>0001-01-01T09:45:00Z</time>
      </trkpt>
      <trkpt lat="45.19881" lon="6.03937">
        <ele>1263</ele>
        <time>0001-01-01T09:45:00Z</time>
      </trkpt>
      <trkpt lat="45.19888" lon="6.03934">
        <ele>1263</ele>
        <time>0001-01-01T09:45:00Z</time>
      </trkpt>
      <trkpt lat="45.19898" lon="6.03928">
        <ele>1263</ele>
        <time>0001-01-01T09:45:00Z</time>
      </trkpt>
      <trkpt lat="45.19904" lon="6.03926">
        <ele>1263</ele>
        <time>0001-01-01T09:45:00Z</time>
      </trkpt>
      <trkpt lat="45.19906" lon="6.03925">
        <ele>1263</ele>
        <time>0001-01-01T09:45:00Z</time>
      </trkpt>
      <trkpt lat="45.1991" lon="6.03924">
        <ele>1263</ele>
        <time>0001-01-01T09:45:00Z</time>
      </trkpt>
      <trkpt lat="45.19916" lon="6.03923">
        <ele>1263</ele>
        <time>0001-01-01T09:45:00Z</time>
      </trkpt>
      <trkpt lat="45.19921" lon="6.03922">
        <ele>1263</ele>
        <time>0001-01-01T09:45:00Z</time>
      </trkpt>
      <trkpt lat="45.19931" lon="6.03921">
        <ele>1263</ele>
        <time>0001-01-01T09:45:00Z</time>
      </trkpt>
      <trkpt lat="45.19944" lon="6.03916">
        <ele>1263</ele>
        <time>0001-01-01T09:45:00Z</time>
      </trkpt>
      <trkpt lat="45.19957" lon="6.03911">
        <ele>1263</ele>
        <time>0001-01-01T09:45:00Z</time>
      </trkpt>
      <trkpt lat="45.1997" lon="6.03908">
        <ele>1262</ele>
        <time>0001-01-01T09:45:00Z</time>
      </trkpt>
      <trkpt lat="45.1999" lon="6.0391">
        <ele>1262</ele>
        <time>0001-01-01T09:45:00Z</time>
      </trkpt>
      <trkpt lat="45.20011" lon="6.03914">
        <ele>1262</ele>
        <time>0001-01-01T09:45:00Z</time>
      </trkpt>
      <trkpt lat="45.20029" lon="6.0392">
        <ele>1262</ele>
        <time>0001-01-01T09:45:00Z</time>
      </trkpt>
      <trkpt lat="45.2005" lon="6.03928">
        <ele>1268</ele>
        <time>0001-01-01T09:45:00Z</time>
      </trkpt>
      <trkpt lat="45.20071" lon="6.03938">
        <ele>1268</ele>
        <time>0001-01-01T09:45:00Z</time>
      </trkpt>
      <trkpt lat="45.20087" lon="6.03945">
        <ele>1268</ele>
        <time>0001-01-01T09:45:00Z</time>
      </trkpt>
      <trkpt lat="45.20098" lon="6.03948">
        <ele>1268</ele>
        <time>0001-01-01T09:45:00Z</time>
      </trkpt>
      <trkpt lat="45.20112" lon="6.03949">
        <ele>1268</ele>
        <time>0001-01-01T09:45:00Z</time>
      </trkpt>
      <trkpt lat="45.20128" lon="6.0395">
        <ele>1281</ele>
        <time>0001-01-01T09:45:00Z</time>
      </trkpt>
      <trkpt lat="45.20146" lon="6.0395">
        <ele>1281</ele>
        <time>0001-01-01T09:45:00Z</time>
      </trkpt>
      <trkpt lat="45.2015" lon="6.03951">
        <ele>1281</ele>
        <time>0001-01-01T09:45:00Z</time>
      </trkpt>
      <trkpt lat="45.20157" lon="6.03953">
        <ele>1281</ele>
        <time>0001-01-01T09:45:00Z</time>
      </trkpt>
      <trkpt lat="45.20165" lon="6.03957">
        <ele>1281</ele>
        <time>0001-01-01T09:45:00Z</time>
      </trkpt>
      <trkpt lat="45.20172" lon="6.03963">
        <ele>1258</ele>
        <time>0001-01-01T09:45:00Z</time>
      </trkpt>
      <trkpt lat="45.20185" lon="6.03978">
        <ele>1258</ele>
        <time>0001-01-01T09:45:00Z</time>
      </trkpt>
      <trkpt lat="45.20198" lon="6.03993">
        <ele>1258</ele>
        <time>0001-01-01T09:45:00Z</time>
      </trkpt>
      <trkpt lat="45.20209" lon="6.04007">
        <ele>1270</ele>
        <time>0001-01-01T09:45:00Z</time>
      </trkpt>
      <trkpt lat="45.20227" lon="6.04022">
        <ele>1270</ele>
        <time>0001-01-01T09:45:00Z</time>
      </trkpt>
      <trkpt lat="45.20236" lon="6.04029">
        <ele>1270</ele>
        <time>0001-01-01T09:45:00Z</time>
      </trkpt>
      <trkpt lat="45.20239" lon="6.0403">
        <ele>1270</ele>
        <time>0001-01-01T09:45:00Z</time>
      </trkpt>
      <trkpt lat="45.20245" lon="6.04031">
        <ele>1270</ele>
        <time>0001-01-01T09:45:00Z</time>
      </trkpt>
      <trkpt lat="45.20252" lon="6.04032">
        <ele>1270</ele>
        <time>0001-01-01T09:45:00Z</time>
      </trkpt>
      <trkpt lat="45.20262" lon="6.0403">
        <ele>1270</ele>
        <time>0001-01-01T09:45:00Z</time>
      </trkpt>
      <trkpt lat="45.20279" lon="6.04023">
        <ele>1270</ele>
        <time>0001-01-01T09:45:00Z</time>
      </trkpt>
      <trkpt lat="45.20293" lon="6.04021">
        <ele>1292</ele>
        <time>0001-01-01T09:45:00Z</time>
      </trkpt>
      <trkpt lat="45.20302" lon="6.04022">
        <ele>1292</ele>
        <time>0001-01-01T09:45:00Z</time>
      </trkpt>
      <trkpt lat="45.20307" lon="6.04023">
        <ele>1292</ele>
        <time>0001-01-01T09:45:00Z</time>
      </trkpt>
      <trkpt lat="45.20312" lon="6.04025">
        <ele>1292</ele>
        <time>0001-01-01T09:45:00Z</time>
      </trkpt>
      <trkpt lat="45.20321" lon="6.04031">
        <ele>1292</ele>
        <time>0001-01-01T09:45:00Z</time>
      </trkpt>
      <trkpt lat="45.20329" lon="6.04041">
        <ele>1292</ele>
        <time>0001-01-01T09:45:00Z</time>
      </trkpt>
      <trkpt lat="45.20336" lon="6.04053">
        <ele>1273</ele>
        <time>0001-01-01T09:45:00Z</time>
      </trkpt>
      <trkpt lat="45.20338" lon="6.04056">
        <ele>1273</ele>
        <time>0001-01-01T09:45:00Z</time>
      </trkpt>
      <trkpt lat="45.20346" lon="6.04067">
        <ele>1273</ele>
        <time>0001-01-01T09:45:00Z</time>
      </trkpt>
      <trkpt lat="45.20359" lon="6.04081">
        <ele>1273</ele>
        <time>0001-01-01T09:45:00Z</time>
      </trkpt>
      <trkpt lat="45.20366" lon="6.04089">
        <ele>1273</ele>
        <time>0001-01-01T09:45:00Z</time>
      </trkpt>
      <trkpt lat="45.20378" lon="6.04102">
        <ele>1285</ele>
        <time>0001-01-01T09:45:00Z</time>
      </trkpt>
      <trkpt lat="45.20394" lon="6.04118">
        <ele>1285</ele>
        <time>0001-01-01T09:45:00Z</time>
      </trkpt>
      <trkpt lat="45.20412" lon="6.04137">
        <ele>1269</ele>
        <time>0001-01-01T09:45:00Z</time>
      </trkpt>
      <trkpt lat="45.2043" lon="6.04155">
        <ele>1269</ele>
        <time>0001-01-01T09:45:00Z</time>
      </trkpt>
      <trkpt lat="45.20439" lon="6.04165">
        <ele>1269</ele>
        <time>0001-01-01T09:45:00Z</time>
      </trkpt>
      <trkpt lat="45.20449" lon="6.04178">
        <ele>1269</ele>
        <time>0001-01-01T09:45:00Z</time>
      </trkpt>
      <trkpt lat="45.20457" lon="6.04189">
        <ele>1269</ele>
        <time>0001-01-01T09:45:00Z</time>
      </trkpt>
      <trkpt lat="45.2046" lon="6.04197">
        <ele>1286</ele>
        <time>0001-01-01T09:45:00Z</time>
      </trkpt>
      <trkpt lat="45.20474" lon="6.04234">
        <ele>1280</ele>
        <time>0001-01-01T09:45:00Z</time>
      </trkpt>
      <trkpt lat="45.2049" lon="6.04276">
        <ele>1280</ele>
        <time>0001-01-01T09:45:00Z</time>
      </trkpt>
      <trkpt lat="45.205" lon="6.04305">
        <ele>1274</ele>
        <time>0001-01-01T09:45:00Z</time>
      </trkpt>
      <trkpt lat="45.20503" lon="6.04312">
        <ele>1274</ele>
        <time>0001-01-01T09:45:00Z</time>
      </trkpt>
      <trkpt lat="45.20516" lon="6.04332">
        <ele>1274</ele>
        <time>0001-01-01T09:45:00Z</time>
      </trkpt>
      <trkpt lat="45.20523" lon="6.04338">
        <ele>1274</ele>
        <time>0001-01-01T09:45:00Z</time>
      </trkpt>
      <trkpt lat="45.20535" lon="6.04348">
        <ele>1274</ele>
        <time>0001-01-01T09:45:00Z</time>
      </trkpt>
      <trkpt lat="45.20542" lon="6.04353">
        <ele>1280</ele>
        <time>0001-01-01T09:45:00Z</time>
      </trkpt>
      <trkpt lat="45.20567" lon="6.04363">
        <ele>1280</ele>
        <time>0001-01-01T09:45:00Z</time>
      </trkpt>
      <trkpt lat="45.206" lon="6.04373">
        <ele>1280</ele>
        <time>0001-01-01T09:45:00Z</time>
      </trkpt>
      <trkpt lat="45.20619" lon="6.04382">
        <ele>1266</ele>
        <time>0001-01-01T09:45:00Z</time>
      </trkpt>
      <trkpt lat="45.20626" lon="6.04386">
        <ele>1279</ele>
        <time>0001-01-01T09:45:00Z</time>
      </trkpt>
      <trkpt lat="45.20638" lon="6.04398">
        <ele>1279</ele>
        <time>0001-01-01T09:45:00Z</time>
      </trkpt>
      <trkpt lat="45.20661" lon="6.04427">
        <ele>1279</ele>
        <time>0001-01-01T09:45:00Z</time>
      </trkpt>
      <trkpt lat="45.20672" lon="6.04439">
        <ele>1279</ele>
        <time>0001-01-01T09:45:00Z</time>
      </trkpt>
      <trkpt lat="45.20689" lon="6.04451">
        <ele>1279</ele>
        <time>0001-01-01T09:45:00Z</time>
      </trkpt>
      <trkpt lat="45.20706" lon="6.04461">
        <ele>1253</ele>
        <time>0001-01-01T09:45:00Z</time>
      </trkpt>
      <trkpt lat="45.20722" lon="6.04469">
        <ele>1270</ele>
        <time>0001-01-01T09:45:00Z</time>
      </trkpt>
      <trkpt lat="45.20736" lon="6.04475">
        <ele>1270</ele>
        <time>0001-01-01T09:45:00Z</time>
      </trkpt>
      <trkpt lat="45.2075" lon="6.04478">
        <ele>1270</ele>
        <time>0001-01-01T09:45:00Z</time>
      </trkpt>
      <trkpt lat="45.20762" lon="6.04479">
        <ele>1270</ele>
        <time>0001-01-01T09:45:00Z</time>
      </trkpt>
      <trkpt lat="45.20776" lon="6.04481">
        <ele>1270</ele>
        <time>0001-01-01T09:45:00Z</time>
      </trkpt>
      <trkpt lat="45.20791" lon="6.04481">
        <ele>1270</ele>
        <time>0001-01-01T09:45:00Z</time>
      </trkpt>
      <trkpt lat="45.20802" lon="6.04482">
        <ele>1284</ele>
        <time>0001-01-01T09:45:00Z</time>
      </trkpt>
      <trkpt lat="45.20811" lon="6.04486">
        <ele>1284</ele>
        <time>0001-01-01T09:45:00Z</time>
      </trkpt>
      <trkpt lat="45.20819" lon="6.04491">
        <ele>1284</ele>
        <time>0001-01-01T09:45:00Z</time>
      </trkpt>
      <trkpt lat="45.20825" lon="6.04501">
        <ele>1284</ele>
        <time>0001-01-01T09:45:00Z</time>
      </trkpt>
      <trkpt lat="45.20833" lon="6.04513">
        <ele>1284</ele>
        <time>0001-01-01T09:45:00Z</time>
      </trkpt>
      <trkpt lat="45.20842" lon="6.04532">
        <ele>1284</ele>
        <time>0001-01-01T09:45:00Z</time>
      </trkpt>
      <trkpt lat="45.2085" lon="6.04541">
        <ele>1284</ele>
        <time>0001-01-01T09:45:00Z</time>
      </trkpt>
      <trkpt lat="45.20856" lon="6.04548">
        <ele>1263</ele>
        <time>0001-01-01T09:45:00Z</time>
      </trkpt>
      <trkpt lat="45.20862" lon="6.04549">
        <ele>1263</ele>
        <time>0001-01-01T09:45:00Z</time>
      </trkpt>
      <trkpt lat="45.2087" lon="6.04549">
        <ele>1263</ele>
        <time>0001-01-01T09:45:00Z</time>
      </trkpt>
      <trkpt lat="45.20884" lon="6.04544">
        <ele>1280</ele>
        <time>0001-01-01T09:45:00Z</time>
      </trkpt>
      <trkpt lat="45.20907" lon="6.04531">
        <ele>1302</ele>
        <time>0001-01-01T09:45:00Z</time>
      </trkpt>
      <trkpt lat="45.20919" lon="6.04523">
        <ele>1302</ele>
        <time>0001-01-01T09:45:00Z</time>
      </trkpt>
      <trkpt lat="45.20929" lon="6.04521">
        <ele>1302</ele>
        <time>0001-01-01T09:45:00Z</time>
      </trkpt>
      <trkpt lat="45.20937" lon="6.04523">
        <ele>1302</ele>
        <time>0001-01-01T09:45:00Z</time>
      </trkpt>
      <trkpt lat="45.20944" lon="6.0453">
        <ele>1302</ele>
        <time>0001-01-01T09:45:00Z</time>
      </trkpt>
      <trkpt lat="45.20947" lon="6.04538">
        <ele>1302</ele>
        <time>0001-01-01T09:45:00Z</time>
      </trkpt>
      <trkpt lat="45.20948" lon="6.04548">
        <ele>1280</ele>
        <time>0001-01-01T09:45:00Z</time>
      </trkpt>
      <trkpt lat="45.20948" lon="6.04559">
        <ele>1280</ele>
        <time>0001-01-01T09:45:00Z</time>
      </trkpt>
      <trkpt lat="45.20944" lon="6.04594">
        <ele>1280</ele>
        <time>0001-01-01T09:45:00Z</time>
      </trkpt>
      <trkpt lat="45.20942" lon="6.04616">
        <ele>1280</ele>
        <time>0001-01-01T09:45:00Z</time>
      </trkpt>
      <trkpt lat="45.20943" lon="6.04629">
        <ele>1260</ele>
        <time>0001-01-01T09:45:00Z</time>
      </trkpt>
      <trkpt lat="45.20947" lon="6.04639">
        <ele>1260</ele>
        <time>0001-01-01T09:45:00Z</time>
      </trkpt>
      <trkpt lat="45.20951" lon="6.04647">
        <ele>1260</ele>
        <time>0001-01-01T09:45:00Z</time>
      </trkpt>
      <trkpt lat="45.20959" lon="6.04653">
        <ele>1289</ele>
        <time>0001-01-01T09:45:00Z</time>
      </trkpt>
      <trkpt lat="45.2097" lon="6.04656">
        <ele>1289</ele>
        <time>0001-01-01T09:45:00Z</time>
      </trkpt>
      <trkpt lat="45.20989" lon="6.04658">
        <ele>1289</ele>
        <time>0001-01-01T09:45:00Z</time>
      </trkpt>
      <trkpt lat="45.20999" lon="6.0466">
        <ele>1289</ele>
        <time>0001-01-01T09:45:00Z</time>
      </trkpt>
      <trkpt lat="45.21006" lon="6.04666">
        <ele>1289</ele>
        <time>0001-01-01T09:45:00Z</time>
      </trkpt>
      <trkpt lat="45.21015" lon="6.04681">
        <ele>1289</ele>
        <time>0001-01-01T09:45:00Z</time>
      </trkpt>
      <trkpt lat="45.21025" lon="6.04695">
        <ele>1289</ele>
        <time>0001-01-01T09:45:00Z</time>
      </trkpt>
      <trkpt lat="45.21036" lon="6.04702">
        <ele>1289</ele>
        <time>0001-01-01T09:45:00Z</time>
      </trkpt>
      <trkpt lat="45.21045" lon="6.04707">
        <ele>1314</ele>
        <time>0001-01-01T09:45:00Z</time>
      </trkpt>
      <trkpt lat="45.21055" lon="6.04709">
        <ele>1272</ele>
        <time>0001-01-01T09:45:00Z</time>
      </trkpt>
      <trkpt lat="45.21063" lon="6.04712">
        <ele>1272</ele>
        <time>0001-01-01T09:45:00Z</time>
      </trkpt>
      <trkpt lat="45.21074" lon="6.04719">
        <ele>1272</ele>
        <time>0001-01-01T09:45:00Z</time>
      </trkpt>
      <trkpt lat="45.21087" lon="6.04729">
        <ele>1272</ele>
        <time>0001-01-01T09:45:00Z</time>
      </trkpt>
      <trkpt lat="45.21102" lon="6.04739">
        <ele>1272</ele>
        <time>0001-01-01T09:45:00Z</time>
      </trkpt>
      <trkpt lat="45.21118" lon="6.0475">
        <ele>1272</ele>
        <time>0001-01-01T09:45:00Z</time>
      </trkpt>
      <trkpt lat="45.2112" lon="6.04754">
        <ele>1272</ele>
        <time>0001-01-01T09:45:00Z</time>
      </trkpt>
      <trkpt lat="45.21123" lon="6.04757">
        <ele>1272</ele>
        <time>0001-01-01T09:45:00Z</time>
      </trkpt>
      <trkpt lat="45.21125" lon="6.04762">
        <ele>1272</ele>
        <time>0001-01-01T09:45:00Z</time>
      </trkpt>
      <trkpt lat="45.21126" lon="6.04767">
        <ele>1308</ele>
        <time>0001-01-01T09:45:00Z</time>
      </trkpt>
      <trkpt lat="45.21126" lon="6.04772">
        <ele>1308</ele>
        <time>0001-01-01T09:45:00Z</time>
      </trkpt>
      <trkpt lat="45.21126" lon="6.04776">
        <ele>1308</ele>
        <time>0001-01-01T09:45:00Z</time>
      </trkpt>
      <trkpt lat="45.21126" lon="6.04781">
        <ele>1308</ele>
        <time>0001-01-01T09:45:00Z</time>
      </trkpt>
      <trkpt lat="45.21125" lon="6.04784">
        <ele>1272</ele>
        <time>0001-01-01T09:45:00Z</time>
      </trkpt>
      <trkpt lat="45.21124" lon="6.04789">
        <ele>1272</ele>
        <time>0001-01-01T09:45:00Z</time>
      </trkpt>
      <trkpt lat="45.21122" lon="6.04793">
        <ele>1261</ele>
        <time>0001-01-01T09:45:00Z</time>
      </trkpt>
      <trkpt lat="45.21119" lon="6.04798">
        <ele>1261</ele>
        <time>0001-01-01T09:45:00Z</time>
      </trkpt>
      <trkpt lat="45.21113" lon="6.04806">
        <ele>1261</ele>
        <time>0001-01-01T09:45:00Z</time>
      </trkpt>
      <trkpt lat="45.21111" lon="6.04809">
        <ele>1261</ele>
        <time>0001-01-01T09:45:00Z</time>
      </trkpt>
      <trkpt lat="45.21106" lon="6.04814">
        <ele>1261</ele>
        <time>0001-01-01T09:45:00Z</time>
      </trkpt>
      <trkpt lat="45.21096" lon="6.04823">
        <ele>1261</ele>
        <time>0001-01-01T09:45:00Z</time>
      </trkpt>
      <trkpt lat="45.21093" lon="6.04826">
        <ele>1261</ele>
        <time>0001-01-01T09:45:00Z</time>
      </trkpt>
      <trkpt lat="45.2109" lon="6.04831">
        <ele>1261</ele>
        <time>0001-01-01T09:45:00Z</time>
      </trkpt>
      <trkpt lat="45.21088" lon="6.04834">
        <ele>1261</ele>
        <time>0001-01-01T09:45:00Z</time>
      </trkpt>
      <trkpt lat="45.21087" lon="6.04837">
        <ele>1261</ele>
        <time>0001-01-01T09:45:00Z</time>
      </trkpt>
      <trkpt lat="45.21085" lon="6.04841">
        <ele>1261</ele>
        <time>0001-01-01T09:45:00Z</time>
      </trkpt>
      <trkpt lat="45.21083" lon="6.04853">
        <ele>1261</ele>
        <time>0001-01-01T09:45:00Z</time>
      </trkpt>
      <trkpt lat="45.21081" lon="6.04862">
        <ele>1261</ele>
        <time>0001-01-01T09:45:00Z</time>
      </trkpt>
      <trkpt lat="45.21078" lon="6.04892">
        <ele>1273</ele>
        <time>0001-01-01T09:45:00Z</time>
      </trkpt>
      <trkpt lat="45.21073" lon="6.04933">
        <ele>1273</ele>
        <time>0001-01-01T09:45:00Z</time>
      </trkpt>
      <trkpt lat="45.21073" lon="6.04939">
        <ele>1273</ele>
        <time>0001-01-01T09:45:00Z</time>
      </trkpt>
      <trkpt lat="45.21073" lon="6.04942">
        <ele>1273</ele>
        <time>0001-01-01T09:45:00Z</time>
      </trkpt>
      <trkpt lat="45.21073" lon="6.04947">
        <ele>1273</ele>
        <time>0001-01-01T09:45:00Z</time>
      </trkpt>
      <trkpt lat="45.21074" lon="6.0495">
        <ele>1273</ele>
        <time>0001-01-01T09:45:00Z</time>
      </trkpt>
      <trkpt lat="45.21074" lon="6.04954">
        <ele>1273</ele>
        <time>0001-01-01T09:45:00Z</time>
      </trkpt>
      <trkpt lat="45.21076" lon="6.0496">
        <ele>1261</ele>
        <time>0001-01-01T09:45:00Z</time>
      </trkpt>
      <trkpt lat="45.21079" lon="6.04966">
        <ele>1261</ele>
        <time>0001-01-01T09:45:00Z</time>
      </trkpt>
      <trkpt lat="45.21081" lon="6.0497">
        <ele>1261</ele>
        <time>0001-01-01T09:45:00Z</time>
      </trkpt>
      <trkpt lat="45.21092" lon="6.04986">
        <ele>1261</ele>
        <time>0001-01-01T09:45:00Z</time>
      </trkpt>
      <trkpt lat="45.21108" lon="6.05007">
        <ele>1261</ele>
        <time>0001-01-01T09:45:00Z</time>
      </trkpt>
      <trkpt lat="45.21113" lon="6.05017">
        <ele>1261</ele>
        <time>0001-01-01T09:45:00Z</time>
      </trkpt>
      <trkpt lat="45.21114" lon="6.05022">
        <ele>1261</ele>
        <time>0001-01-01T09:45:00Z</time>
      </trkpt>
      <trkpt lat="45.21115" lon="6.05025">
        <ele>1261</ele>
        <time>0001-01-01T09:45:00Z</time>
      </trkpt>
      <trkpt lat="45.21117" lon="6.05035">
        <ele>1261</ele>
        <time>0001-01-01T09:45:00Z</time>
      </trkpt>
      <trkpt lat="45.21117" lon="6.0504">
        <ele>1261</ele>
        <time>0001-01-01T09:45:00Z</time>
      </trkpt>
      <trkpt lat="45.21117" lon="6.05045">
        <ele>1260</ele>
        <time>0001-01-01T09:45:00Z</time>
      </trkpt>
      <trkpt lat="45.21117" lon="6.05052">
        <ele>1260</ele>
        <time>0001-01-01T09:45:00Z</time>
      </trkpt>
      <trkpt lat="45.21116" lon="6.05056">
        <ele>1260</ele>
        <time>0001-01-01T09:45:00Z</time>
      </trkpt>
      <trkpt lat="45.21114" lon="6.05062">
        <ele>1260</ele>
        <time>0001-01-01T09:45:00Z</time>
      </trkpt>
      <trkpt lat="45.21111" lon="6.05067">
        <ele>1260</ele>
        <time>0001-01-01T09:45:00Z</time>
      </trkpt>
      <trkpt lat="45.21109" lon="6.05073">
        <ele>1260</ele>
        <time>0001-01-01T09:45:00Z</time>
      </trkpt>
      <trkpt lat="45.21103" lon="6.05082">
        <ele>1260</ele>
        <time>0001-01-01T09:45:00Z</time>
      </trkpt>
      <trkpt lat="45.21087" lon="6.05097">
        <ele>1260</ele>
        <time>0001-01-01T09:45:00Z</time>
      </trkpt>
      <trkpt lat="45.21082" lon="6.05104">
        <ele>1260</ele>
        <time>0001-01-01T09:45:00Z</time>
      </trkpt>
      <trkpt lat="45.2108" lon="6.05108">
        <ele>1260</ele>
        <time>0001-01-01T09:45:00Z</time>
      </trkpt>
      <trkpt lat="45.21078" lon="6.05112">
        <ele>1260</ele>
        <time>0001-01-01T09:45:00Z</time>
      </trkpt>
      <trkpt lat="45.21077" lon="6.05117">
        <ele>1260</ele>
        <time>0001-01-01T09:45:00Z</time>
      </trkpt>
      <trkpt lat="45.21076" lon="6.05123">
        <ele>1260</ele>
        <time>0001-01-01T09:45:00Z</time>
      </trkpt>
      <trkpt lat="45.21076" lon="6.05128">
        <ele>1265</ele>
        <time>0001-01-01T09:45:00Z</time>
      </trkpt>
      <trkpt lat="45.21076" lon="6.05148">
        <ele>1265</ele>
        <time>0001-01-01T09:45:00Z</time>
      </trkpt>
      <trkpt lat="45.2108" lon="6.05182">
        <ele>1265</ele>
        <time>0001-01-01T09:45:00Z</time>
      </trkpt>
      <trkpt lat="45.21086" lon="6.0522">
        <ele>1257</ele>
        <time>0001-01-01T09:45:00Z</time>
      </trkpt>
      <trkpt lat="45.21092" lon="6.05252">
        <ele>1257</ele>
        <time>0001-01-01T09:45:00Z</time>
      </trkpt>
      <trkpt lat="45.21093" lon="6.05267">
        <ele>1257</ele>
        <time>0001-01-01T09:45:00Z</time>
      </trkpt>
      <trkpt lat="45.21093" lon="6.05279">
        <ele>1257</ele>
        <time>0001-01-01T09:45:00Z</time>
      </trkpt>
      <trkpt lat="45.21093" lon="6.05307">
        <ele>1255</ele>
        <time>0001-01-01T09:45:00Z</time>
      </trkpt>
      <trkpt lat="45.21091" lon="6.05344">
        <ele>1255</ele>
        <time>0001-01-01T09:45:00Z</time>
      </trkpt>
      <trkpt lat="45.21086" lon="6.05415">
        <ele>1255</ele>
        <time>0001-01-01T09:45:00Z</time>
      </trkpt>
      <trkpt lat="45.21082" lon="6.05471">
        <ele>1254</ele>
        <time>0001-01-01T09:45:00Z</time>
      </trkpt>
      <trkpt lat="45.21081" lon="6.05492">
        <ele>1254</ele>
        <time>0001-01-01T09:45:00Z</time>
      </trkpt>
      <trkpt lat="45.21081" lon="6.05507">
        <ele>1254</ele>
        <time>0001-01-01T09:45:00Z</time>
      </trkpt>
      <trkpt lat="45.21084" lon="6.05524">
        <ele>1254</ele>
        <time>0001-01-01T09:45:00Z</time>
      </trkpt>
      <trkpt lat="45.21089" lon="6.0554">
        <ele>1254</ele>
        <time>0001-01-01T09:45:00Z</time>
      </trkpt>
      <trkpt lat="45.21088" lon="6.05565">
        <ele>1249</ele>
        <time>0001-01-01T09:45:00Z</time>
      </trkpt>
      <trkpt lat="45.21088" lon="6.05572">
        <ele>1249</ele>
        <time>0001-01-01T09:45:00Z</time>
      </trkpt>
      <trkpt lat="45.21086" lon="6.05592">
        <ele>1249</ele>
        <time>0001-01-01T09:45:00Z</time>
      </trkpt>
      <trkpt lat="45.21084" lon="6.05613">
        <ele>1249</ele>
        <time>0001-01-01T09:45:00Z</time>
      </trkpt>
      <trkpt lat="45.21083" lon="6.0562">
        <ele>1249</ele>
        <time>0001-01-01T09:45:00Z</time>
      </trkpt>
      <trkpt lat="45.21083" lon="6.0563">
        <ele>1244</ele>
        <time>0001-01-01T09:45:00Z</time>
      </trkpt>
      <trkpt lat="45.21083" lon="6.05645">
        <ele>1244</ele>
        <time>0001-01-01T09:45:00Z</time>
      </trkpt>
      <trkpt lat="45.21083" lon="6.05669">
        <ele>1244</ele>
        <time>0001-01-01T09:45:00Z</time>
      </trkpt>
      <trkpt lat="45.21084" lon="6.0568">
        <ele>1244</ele>
        <time>0001-01-01T09:45:00Z</time>
      </trkpt>
      <trkpt lat="45.21084" lon="6.05682">
        <ele>1244</ele>
        <time>0001-01-01T09:45:00Z</time>
      </trkpt>
      <trkpt lat="45.21083" lon="6.05684">
        <ele>1244</ele>
        <time>0001-01-01T09:45:00Z</time>
      </trkpt>
      <trkpt lat="45.21083" lon="6.05687">
        <ele>1244</ele>
        <time>0001-01-01T09:45:00Z</time>
      </trkpt>
      <trkpt lat="45.21082" lon="6.0569">
        <ele>1244</ele>
        <time>0001-01-01T09:45:00Z</time>
      </trkpt>
      <trkpt lat="45.2108" lon="6.05692">
        <ele>1244</ele>
        <time>0001-01-01T09:45:00Z</time>
      </trkpt>
      <trkpt lat="45.21079" lon="6.05692">
        <ele>1244</ele>
        <time>0001-01-01T09:45:00Z</time>
      </trkpt>
      <trkpt lat="45.21077" lon="6.05693">
        <ele>1244</ele>
        <time>0001-01-01T09:45:00Z</time>
      </trkpt>
      <trkpt lat="45.21075" lon="6.05693">
        <ele>1244</ele>
        <time>0001-01-01T09:45:00Z</time>
      </trkpt>
      <trkpt lat="45.21074" lon="6.05692">
        <ele>1244</ele>
        <time>0001-01-01T09:45:00Z</time>
      </trkpt>
      <trkpt lat="45.21073" lon="6.05691">
        <ele>1244</ele>
        <time>0001-01-01T09:45:00Z</time>
      </trkpt>
      <trkpt lat="45.21072" lon="6.0569">
        <ele>1244</ele>
        <time>0001-01-01T09:45:00Z</time>
      </trkpt>
      <trkpt lat="45.21071" lon="6.05688">
        <ele>1244</ele>
        <time>0001-01-01T09:45:00Z</time>
      </trkpt>
      <trkpt lat="45.2107" lon="6.05684">
        <ele>1244</ele>
        <time>0001-01-01T09:45:00Z</time>
      </trkpt>
      <trkpt lat="45.21069" lon="6.05678">
        <ele>1244</ele>
        <time>0001-01-01T09:45:00Z</time>
      </trkpt>
      <trkpt lat="45.21068" lon="6.05672">
        <ele>1244</ele>
        <time>0001-01-01T09:45:00Z</time>
      </trkpt>
      <trkpt lat="45.21068" lon="6.05667">
        <ele>1244</ele>
        <time>0001-01-01T09:45:00Z</time>
      </trkpt>
      <trkpt lat="45.21067" lon="6.05661">
        <ele>1244</ele>
        <time>0001-01-01T09:45:00Z</time>
      </trkpt>
      <trkpt lat="45.21066" lon="6.05652">
        <ele>1244</ele>
        <time>0001-01-01T09:45:00Z</time>
      </trkpt>
      <trkpt lat="45.21064" lon="6.05642">
        <ele>1244</ele>
        <time>0001-01-01T09:45:00Z</time>
      </trkpt>
      <trkpt lat="45.21059" lon="6.05615">
        <ele>1249</ele>
        <time>0001-01-01T09:45:00Z</time>
      </trkpt>
      <trkpt lat="45.21058" lon="6.05607">
        <ele>1249</ele>
        <time>0001-01-01T09:45:00Z</time>
      </trkpt>
      <trkpt lat="45.21056" lon="6.05588">
        <ele>1249</ele>
        <time>0001-01-01T09:45:00Z</time>
      </trkpt>
      <trkpt lat="45.21056" lon="6.0557">
        <ele>1249</ele>
        <time>0001-01-01T09:45:00Z</time>
      </trkpt>
      <trkpt lat="45.21055" lon="6.05563">
        <ele>1249</ele>
        <time>0001-01-01T09:45:00Z</time>
      </trkpt>
      <trkpt lat="45.21055" lon="6.05561">
        <ele>1249</ele>
        <time>0001-01-01T09:45:00Z</time>
      </trkpt>
      <trkpt lat="45.21055" lon="6.05558">
        <ele>1249</ele>
        <time>0001-01-01T09:45:00Z</time>
      </trkpt>
      <trkpt lat="45.21054" lon="6.05555">
        <ele>1249</ele>
        <time>0001-01-01T09:45:00Z</time>
      </trkpt>
      <trkpt lat="45.21053" lon="6.05552">
        <ele>1249</ele>
        <time>0001-01-01T09:45:00Z</time>
      </trkpt>
      <trkpt lat="45.21052" lon="6.0555">
        <ele>1249</ele>
        <time>0001-01-01T09:45:00Z</time>
      </trkpt>
      <trkpt lat="45.21051" lon="6.05549">
        <ele>1249</ele>
        <time>0001-01-01T09:45:00Z</time>
      </trkpt>
      <trkpt lat="45.21049" lon="6.05548">
        <ele>1249</ele>
        <time>0001-01-01T09:45:00Z</time>
      </trkpt>
      <trkpt lat="45.21048" lon="6.05547">
        <ele>1249</ele>
        <time>0001-01-01T09:45:00Z</time>
      </trkpt>
      <trkpt lat="45.21047" lon="6.05548">
        <ele>1249</ele>
        <time>0001-01-01T09:45:00Z</time>
      </trkpt>
      <trkpt lat="45.21046" lon="6.05548">
        <ele>1249</ele>
        <time>0001-01-01T09:45:00Z</time>
      </trkpt>
      <trkpt lat="45.21045" lon="6.05549">
        <ele>1249</ele>
        <time>0001-01-01T09:45:00Z</time>
      </trkpt>
      <trkpt lat="45.21044" lon="6.0555">
        <ele>1249</ele>
        <time>0001-01-01T09:45:00Z</time>
      </trkpt>
      <trkpt lat="45.21044" lon="6.05551">
        <ele>1249</ele>
        <time>0001-01-01T09:45:00Z</time>
      </trkpt>
      <trkpt lat="45.21043" lon="6.05554">
        <ele>1249</ele>
        <time>0001-01-01T09:45:00Z</time>
      </trkpt>
      <trkpt lat="45.21042" lon="6.05558">
        <ele>1249</ele>
        <time>0001-01-01T09:45:00Z</time>
      </trkpt>
      <trkpt lat="45.21041" lon="6.05562">
        <ele>1211</ele>
        <time>0001-01-01T09:45:00Z</time>
      </trkpt>
      <trkpt lat="45.2104" lon="6.05566">
        <ele>1211</ele>
        <time>0001-01-01T09:45:00Z</time>
      </trkpt>
      <trkpt lat="45.21039" lon="6.05573">
        <ele>1211</ele>
        <time>0001-01-01T09:45:00Z</time>
      </trkpt>
      <trkpt lat="45.21037" lon="6.05586">
        <ele>1211</ele>
        <time>0001-01-01T09:45:00Z</time>
      </trkpt>
      <trkpt lat="45.21035" lon="6.05596">
        <ele>1211</ele>
        <time>0001-01-01T09:45:00Z</time>
      </trkpt>
      <trkpt lat="45.21033" lon="6.05607">
        <ele>1211</ele>
        <time>0001-01-01T09:45:00Z</time>
      </trkpt>
      <trkpt lat="45.2103" lon="6.0562">
        <ele>1211</ele>
        <time>0001-01-01T09:45:00Z</time>
      </trkpt>
      <trkpt lat="45.21022" lon="6.05654">
        <ele>1208</ele>
        <time>0001-01-01T09:45:00Z</time>
      </trkpt>
      <trkpt lat="45.21021" lon="6.05661">
        <ele>1208</ele>
        <time>0001-01-01T09:45:00Z</time>
      </trkpt>
      <trkpt lat="45.2102" lon="6.05668">
        <ele>1208</ele>
        <time>0001-01-01T09:45:00Z</time>
      </trkpt>
      <trkpt lat="45.21019" lon="6.05676">
        <ele>1208</ele>
        <time>0001-01-01T09:45:00Z</time>
      </trkpt>
      <trkpt lat="45.21018" lon="6.05682">
        <ele>1208</ele>
        <time>0001-01-01T09:45:00Z</time>
      </trkpt>
      <trkpt lat="45.21018" lon="6.05686">
        <ele>1208</ele>
        <time>0001-01-01T09:45:00Z</time>
      </trkpt>
      <trkpt lat="45.21017" lon="6.05694">
        <ele>1208</ele>
        <time>0001-01-01T09:45:00Z</time>
      </trkpt>
      <trkpt lat="45.21017" lon="6.05702">
        <ele>1208</ele>
        <time>0001-01-01T09:45:00Z</time>
      </trkpt>
      <trkpt lat="45.21017" lon="6.05708">
        <ele>1208</ele>
        <time>0001-01-01T09:45:00Z</time>
      </trkpt>
      <trkpt lat="45.21018" lon="6.05713">
        <ele>1206</ele>
        <time>0001-01-01T09:45:00Z</time>
      </trkpt>
      <trkpt lat="45.21018" lon="6.05716">
        <ele>1206</ele>
        <time>0001-01-01T09:45:00Z</time>
      </trkpt>
      <trkpt lat="45.21018" lon="6.05719">
        <ele>1206</ele>
        <time>0001-01-01T09:45:00Z</time>
      </trkpt>
      <trkpt lat="45.21018" lon="6.05721">
        <ele>1206</ele>
        <time>0001-01-01T09:45:00Z</time>
      </trkpt>
      <trkpt lat="45.21018" lon="6.05723">
        <ele>1206</ele>
        <time>0001-01-01T09:45:00Z</time>
      </trkpt>
      <trkpt lat="45.21017" lon="6.05725">
        <ele>1206</ele>
        <time>0001-01-01T09:45:00Z</time>
      </trkpt>
      <trkpt lat="45.21016" lon="6.05727">
        <ele>1206</ele>
        <time>0001-01-01T09:45:00Z</time>
      </trkpt>
      <trkpt lat="45.21015" lon="6.05729">
        <ele>1206</ele>
        <time>0001-01-01T09:45:00Z</time>
      </trkpt>
      <trkpt lat="45.21014" lon="6.0573">
        <ele>1206</ele>
        <time>0001-01-01T09:45:00Z</time>
      </trkpt>
      <trkpt lat="45.21012" lon="6.05731">
        <ele>1206</ele>
        <time>0001-01-01T09:45:00Z</time>
      </trkpt>
      <trkpt lat="45.21011" lon="6.05731">
        <ele>1206</ele>
        <time>0001-01-01T09:45:00Z</time>
      </trkpt>
      <trkpt lat="45.21009" lon="6.0573">
        <ele>1206</ele>
        <time>0001-01-01T09:45:00Z</time>
      </trkpt>
      <trkpt lat="45.21007" lon="6.05729">
        <ele>1206</ele>
        <time>0001-01-01T09:45:00Z</time>
      </trkpt>
      <trkpt lat="45.21006" lon="6.05728">
        <ele>1206</ele>
        <time>0001-01-01T09:45:00Z</time>
      </trkpt>
      <trkpt lat="45.21004" lon="6.05726">
        <ele>1206</ele>
        <time>0001-01-01T09:45:00Z</time>
      </trkpt>
      <trkpt lat="45.21002" lon="6.05722">
        <ele>1206</ele>
        <time>0001-01-01T09:45:00Z</time>
      </trkpt>
      <trkpt lat="45.20999" lon="6.05713">
        <ele>1206</ele>
        <time>0001-01-01T09:45:00Z</time>
      </trkpt>
      <trkpt lat="45.20997" lon="6.05708">
        <ele>1208</ele>
        <time>0001-01-01T09:45:00Z</time>
      </trkpt>
      <trkpt lat="45.20995" lon="6.057">
        <ele>1208</ele>
        <time>0001-01-01T09:45:00Z</time>
      </trkpt>
      <trkpt lat="45.20993" lon="6.05695">
        <ele>1208</ele>
        <time>0001-01-01T09:45:00Z</time>
      </trkpt>
      <trkpt lat="45.2099" lon="6.05682">
        <ele>1208</ele>
        <time>0001-01-01T09:45:00Z</time>
      </trkpt>
      <trkpt lat="45.20986" lon="6.0566">
        <ele>1208</ele>
        <time>0001-01-01T09:45:00Z</time>
      </trkpt>
      <trkpt lat="45.20979" lon="6.05624">
        <ele>1211</ele>
        <time>0001-01-01T09:45:00Z</time>
      </trkpt>
      <trkpt lat="45.20976" lon="6.05603">
        <ele>1211</ele>
        <time>0001-01-01T09:45:00Z</time>
      </trkpt>
      <trkpt lat="45.20975" lon="6.05596">
        <ele>1211</ele>
        <time>0001-01-01T09:45:00Z</time>
      </trkpt>
      <trkpt lat="45.20974" lon="6.05588">
        <ele>1211</ele>
        <time>0001-01-01T09:45:00Z</time>
      </trkpt>
      <trkpt lat="45.20974" lon="6.0558">
        <ele>1211</ele>
        <time>0001-01-01T09:45:00Z</time>
      </trkpt>
      <trkpt lat="45.20974" lon="6.05567">
        <ele>1211</ele>
        <time>0001-01-01T09:45:00Z</time>
      </trkpt>
      <trkpt lat="45.20974" lon="6.05564">
        <ele>1211</ele>
        <time>0001-01-01T09:45:00Z</time>
      </trkpt>
      <trkpt lat="45.20974" lon="6.05559">
        <ele>1211</ele>
        <time>0001-01-01T09:45:00Z</time>
      </trkpt>
      <trkpt lat="45.20975" lon="6.05554">
        <ele>1211</ele>
        <time>0001-01-01T09:45:00Z</time>
      </trkpt>
      <trkpt lat="45.20978" lon="6.05539">
        <ele>1207</ele>
        <time>0001-01-01T09:45:00Z</time>
      </trkpt>
      <trkpt lat="45.20981" lon="6.05527">
        <ele>1207</ele>
        <time>0001-01-01T09:45:00Z</time>
      </trkpt>
      <trkpt lat="45.20981" lon="6.05523">
        <ele>1207</ele>
        <time>0001-01-01T09:45:00Z</time>
      </trkpt>
      <trkpt lat="45.20981" lon="6.0552">
        <ele>1207</ele>
        <time>0001-01-01T09:45:00Z</time>
      </trkpt>
      <trkpt lat="45.20981" lon="6.05518">
        <ele>1207</ele>
        <time>0001-01-01T09:45:00Z</time>
      </trkpt>
      <trkpt lat="45.20981" lon="6.05515">
        <ele>1207</ele>
        <time>0001-01-01T09:45:00Z</time>
      </trkpt>
      <trkpt lat="45.2098" lon="6.05514">
        <ele>1207</ele>
        <time>0001-01-01T09:45:00Z</time>
      </trkpt>
      <trkpt lat="45.20979" lon="6.05512">
        <ele>1207</ele>
        <time>0001-01-01T09:45:00Z</time>
      </trkpt>
      <trkpt lat="45.20978" lon="6.05511">
        <ele>1207</ele>
        <time>0001-01-01T09:45:00Z</time>
      </trkpt>
      <trkpt lat="45.20977" lon="6.0551">
        <ele>1207</ele>
        <time>0001-01-01T09:45:00Z</time>
      </trkpt>
      <trkpt lat="45.20976" lon="6.0551">
        <ele>1207</ele>
        <time>0001-01-01T09:45:00Z</time>
      </trkpt>
      <trkpt lat="45.20974" lon="6.0551">
        <ele>1207</ele>
        <time>0001-01-01T09:45:00Z</time>
      </trkpt>
      <trkpt lat="45.20973" lon="6.0551">
        <ele>1207</ele>
        <time>0001-01-01T09:45:00Z</time>
      </trkpt>
      <trkpt lat="45.20972" lon="6.0551">
        <ele>1207</ele>
        <time>0001-01-01T09:45:00Z</time>
      </trkpt>
      <trkpt lat="45.20971" lon="6.05511">
        <ele>1207</ele>
        <time>0001-01-01T09:45:00Z</time>
      </trkpt>
      <trkpt lat="45.2097" lon="6.05512">
        <ele>1207</ele>
        <time>0001-01-01T09:45:00Z</time>
      </trkpt>
      <trkpt lat="45.20968" lon="6.05514">
        <ele>1207</ele>
        <time>0001-01-01T09:45:00Z</time>
      </trkpt>
      <trkpt lat="45.20967" lon="6.05517">
        <ele>1207</ele>
        <time>0001-01-01T09:45:00Z</time>
      </trkpt>
      <trkpt lat="45.20966" lon="6.05519">
        <ele>1207</ele>
        <time>0001-01-01T09:45:00Z</time>
      </trkpt>
      <trkpt lat="45.20954" lon="6.05553">
        <ele>1183</ele>
        <time>0001-01-01T09:45:00Z</time>
      </trkpt>
      <trkpt lat="45.20949" lon="6.05574">
        <ele>1183</ele>
        <time>0001-01-01T09:45:00Z</time>
      </trkpt>
      <trkpt lat="45.20947" lon="6.05588">
        <ele>1183</ele>
        <time>0001-01-01T09:45:00Z</time>
      </trkpt>
      <trkpt lat="45.20941" lon="6.05632">
        <ele>1183</ele>
        <time>0001-01-01T09:45:00Z</time>
      </trkpt>
      <trkpt lat="45.20937" lon="6.05661">
        <ele>1183</ele>
        <time>0001-01-01T09:45:00Z</time>
      </trkpt>
      <trkpt lat="45.20936" lon="6.05681">
        <ele>1183</ele>
        <time>0001-01-01T09:45:00Z</time>
      </trkpt>
      <trkpt lat="45.20933" lon="6.05704">
        <ele>1183</ele>
        <time>0001-01-01T09:45:00Z</time>
      </trkpt>
      <trkpt lat="45.20932" lon="6.05711">
        <ele>1183</ele>
        <time>0001-01-01T09:45:00Z</time>
      </trkpt>
      <trkpt lat="45.20931" lon="6.05718">
        <ele>1183</ele>
        <time>0001-01-01T09:45:00Z</time>
      </trkpt>
      <trkpt lat="45.20929" lon="6.05724">
        <ele>1183</ele>
        <time>0001-01-01T09:45:00Z</time>
      </trkpt>
      <trkpt lat="45.20927" lon="6.05734">
        <ele>1183</ele>
        <time>0001-01-01T09:45:00Z</time>
      </trkpt>
      <trkpt lat="45.20925" lon="6.05738">
        <ele>1183</ele>
        <time>0001-01-01T09:45:00Z</time>
      </trkpt>
      <trkpt lat="45.20923" lon="6.05742">
        <ele>1183</ele>
        <time>0001-01-01T09:45:00Z</time>
      </trkpt>
      <trkpt lat="45.2092" lon="6.0575">
        <ele>1183</ele>
        <time>0001-01-01T09:45:00Z</time>
      </trkpt>
      <trkpt lat="45.20918" lon="6.05753">
        <ele>1183</ele>
        <time>0001-01-01T09:45:00Z</time>
      </trkpt>
      <trkpt lat="45.20916" lon="6.05755">
        <ele>1183</ele>
        <time>0001-01-01T09:45:00Z</time>
      </trkpt>
      <trkpt lat="45.20915" lon="6.05757">
        <ele>1183</ele>
        <time>0001-01-01T09:45:00Z</time>
      </trkpt>
      <trkpt lat="45.20912" lon="6.05759">
        <ele>1183</ele>
        <time>0001-01-01T09:45:00Z</time>
      </trkpt>
      <trkpt lat="45.20909" lon="6.05759">
        <ele>1183</ele>
        <time>0001-01-01T09:45:00Z</time>
      </trkpt>
      <trkpt lat="45.20906" lon="6.0576">
        <ele>1183</ele>
        <time>0001-01-01T09:45:00Z</time>
      </trkpt>
      <trkpt lat="45.20903" lon="6.05761">
        <ele>1183</ele>
        <time>0001-01-01T09:45:00Z</time>
      </trkpt>
      <trkpt lat="45.209" lon="6.05762">
        <ele>1183</ele>
        <time>0001-01-01T09:45:00Z</time>
      </trkpt>
      <trkpt lat="45.20888" lon="6.0577">
        <ele>1183</ele>
        <time>0001-01-01T09:45:00Z</time>
      </trkpt>
      <trkpt lat="45.20881" lon="6.05781">
        <ele>1183</ele>
        <time>0001-01-01T09:45:00Z</time>
      </trkpt>
      <trkpt lat="45.20876" lon="6.05798">
        <ele>1185</ele>
        <time>0001-01-01T09:45:00Z</time>
      </trkpt>
      <trkpt lat="45.20867" lon="6.0583">
        <ele>1238</ele>
        <time>0001-01-01T09:45:00Z</time>
      </trkpt>
      <trkpt lat="45.20859" lon="6.0586">
        <ele>1238</ele>
        <time>0001-01-01T09:45:00Z</time>
      </trkpt>
      <trkpt lat="45.20854" lon="6.05886">
        <ele>1235</ele>
        <time>0001-01-01T09:45:00Z</time>
      </trkpt>
      <trkpt lat="45.20849" lon="6.05917">
        <ele>1235</ele>
        <time>0001-01-01T09:45:00Z</time>
      </trkpt>
      <trkpt lat="45.20845" lon="6.05943">
        <ele>1235</ele>
        <time>0001-01-01T09:45:00Z</time>
      </trkpt>
      <trkpt lat="45.20839" lon="6.05979">
        <ele>1251</ele>
        <time>0001-01-01T09:45:00Z</time>
      </trkpt>
      <trkpt lat="45.20836" lon="6.05997">
        <ele>1251</ele>
        <time>0001-01-01T09:45:00Z</time>
      </trkpt>
      <trkpt lat="45.20834" lon="6.06007">
        <ele>1251</ele>
        <time>0001-01-01T09:45:00Z</time>
      </trkpt>
      <trkpt lat="45.20827" lon="6.0605">
        <ele>1246</ele>
        <time>0001-01-01T09:45:00Z</time>
      </trkpt>
      <trkpt lat="45.20821" lon="6.06082">
        <ele>1246</ele>
        <time>0001-01-01T09:45:00Z</time>
      </trkpt>
      <trkpt lat="45.20815" lon="6.0612">
        <ele>1246</ele>
        <time>0001-01-01T09:45:00Z</time>
      </trkpt>
      <trkpt lat="45.2081" lon="6.06145">
        <ele>1217</ele>
        <time>0001-01-01T09:45:00Z</time>
      </trkpt>
      <trkpt lat="45.20803" lon="6.06193">
        <ele>1217</ele>
        <time>0001-01-01T09:45:00Z</time>
      </trkpt>
      <trkpt lat="45.20797" lon="6.06238">
        <ele>1202</ele>
        <time>0001-01-01T09:45:00Z</time>
      </trkpt>
      <trkpt lat="45.20792" lon="6.06284">
        <ele>1202</ele>
        <time>0001-01-01T09:45:00Z</time>
      </trkpt>
      <trkpt lat="45.20791" lon="6.06293">
        <ele>1296</ele>
        <time>0001-01-01T09:45:00Z</time>
      </trkpt>
      <trkpt lat="45.20789" lon="6.06309">
        <ele>1296</ele>
        <time>0001-01-01T09:45:00Z</time>
      </trkpt>
      <trkpt lat="45.20788" lon="6.06329">
        <ele>1296</ele>
        <time>0001-01-01T09:45:00Z</time>
      </trkpt>
      <trkpt lat="45.20787" lon="6.06354">
        <ele>1296</ele>
        <time>0001-01-01T09:45:00Z</time>
      </trkpt>
      <trkpt lat="45.20787" lon="6.06367">
        <ele>1296</ele>
        <time>0001-01-01T09:45:00Z</time>
      </trkpt>
      <trkpt lat="45.20787" lon="6.06377">
        <ele>1280</ele>
        <time>0001-01-01T09:45:00Z</time>
      </trkpt>
      <trkpt lat="45.20786" lon="6.06384">
        <ele>1280</ele>
        <time>0001-01-01T09:45:00Z</time>
      </trkpt>
      <trkpt lat="45.20783" lon="6.06398">
        <ele>1280</ele>
        <time>0001-01-01T09:45:00Z</time>
      </trkpt>
      <trkpt lat="45.20778" lon="6.06415">
        <ele>1280</ele>
        <time>0001-01-01T09:45:00Z</time>
      </trkpt>
      <trkpt lat="45.20772" lon="6.06433">
        <ele>1280</ele>
        <time>0001-01-01T09:45:00Z</time>
      </trkpt>
      <trkpt lat="45.20763" lon="6.06458">
        <ele>1280</ele>
        <time>0001-01-01T09:45:00Z</time>
      </trkpt>
      <trkpt lat="45.20759" lon="6.06469">
        <ele>1261</ele>
        <time>0001-01-01T09:45:00Z</time>
      </trkpt>
      <trkpt lat="45.20757" lon="6.06476">
        <ele>1261</ele>
        <time>0001-01-01T09:45:00Z</time>
      </trkpt>
      <trkpt lat="45.20753" lon="6.06482">
        <ele>1261</ele>
        <time>0001-01-01T09:45:00Z</time>
      </trkpt>
      <trkpt lat="45.20747" lon="6.0649">
        <ele>1261</ele>
        <time>0001-01-01T09:45:00Z</time>
      </trkpt>
      <trkpt lat="45.20742" lon="6.06497">
        <ele>1261</ele>
        <time>0001-01-01T09:45:00Z</time>
      </trkpt>
      <trkpt lat="45.20738" lon="6.06504">
        <ele>1261</ele>
        <time>0001-01-01T09:45:00Z</time>
      </trkpt>
      <trkpt lat="45.20735" lon="6.06511">
        <ele>1261</ele>
        <time>0001-01-01T09:45:00Z</time>
      </trkpt>
      <trkpt lat="45.2073" lon="6.06528">
        <ele>1261</ele>
        <time>0001-01-01T09:45:00Z</time>
      </trkpt>
      <trkpt lat="45.20724" lon="6.06547">
        <ele>1239</ele>
        <time>0001-01-01T09:45:00Z</time>
      </trkpt>
      <trkpt lat="45.20719" lon="6.06557">
        <ele>1239</ele>
        <time>0001-01-01T09:45:00Z</time>
      </trkpt>
      <trkpt lat="45.20706" lon="6.06582">
        <ele>1310</ele>
        <time>0001-01-01T09:45:00Z</time>
      </trkpt>
      <trkpt lat="45.20684" lon="6.06616">
        <ele>1310</ele>
        <time>0001-01-01T09:45:00Z</time>
      </trkpt>
      <trkpt lat="45.20667" lon="6.06646">
        <ele>1277</ele>
        <time>0001-01-01T09:45:00Z</time>
      </trkpt>
      <trkpt lat="45.20651" lon="6.06678">
        <ele>1277</ele>
        <time>0001-01-01T09:45:00Z</time>
      </trkpt>
      <trkpt lat="45.20638" lon="6.06705">
        <ele>1277</ele>
        <time>0001-01-01T09:45:00Z</time>
      </trkpt>
      <trkpt lat="45.20624" lon="6.0673">
        <ele>1314</ele>
        <time>0001-01-01T09:45:00Z</time>
      </trkpt>
      <trkpt lat="45.20612" lon="6.06754">
        <ele>1314</ele>
        <time>0001-01-01T09:45:00Z</time>
      </trkpt>
      <trkpt lat="45.20599" lon="6.06778">
        <ele>1314</ele>
        <time>0001-01-01T09:45:00Z</time>
      </trkpt>
      <trkpt lat="45.20589" lon="6.06798">
        <ele>1299</ele>
        <time>0001-01-01T09:45:00Z</time>
      </trkpt>
      <trkpt lat="45.20586" lon="6.06806">
        <ele>1299</ele>
        <time>0001-01-01T09:45:00Z</time>
      </trkpt>
      <trkpt lat="45.20583" lon="6.06816">
        <ele>1299</ele>
        <time>0001-01-01T09:45:00Z</time>
      </trkpt>
      <trkpt lat="45.2058" lon="6.06827">
        <ele>1299</ele>
        <time>0001-01-01T09:45:00Z</time>
      </trkpt>
      <trkpt lat="45.20578" lon="6.0684">
        <ele>1299</ele>
        <time>0001-01-01T09:45:00Z</time>
      </trkpt>
      <trkpt lat="45.20576" lon="6.06852">
        <ele>1299</ele>
        <time>0001-01-01T09:45:00Z</time>
      </trkpt>
      <trkpt lat="45.20575" lon="6.06863">
        <ele>1299</ele>
        <time>0001-01-01T09:45:00Z</time>
      </trkpt>
      <trkpt lat="45.20572" lon="6.06874">
        <ele>1299</ele>
        <time>0001-01-01T09:45:00Z</time>
      </trkpt>
      <trkpt lat="45.20567" lon="6.0689">
        <ele>1290</ele>
        <time>0001-01-01T09:45:00Z</time>
      </trkpt>
      <trkpt lat="45.20545" lon="6.06948">
        <ele>1290</ele>
        <time>0001-01-01T09:45:00Z</time>
      </trkpt>
      <trkpt lat="45.20529" lon="6.0699">
        <ele>1324</ele>
        <time>0001-01-01T09:45:00Z</time>
      </trkpt>
      <trkpt lat="45.20519" lon="6.07017">
        <ele>1324</ele>
        <time>0001-01-01T09:45:00Z</time>
      </trkpt>
      <trkpt lat="45.20506" lon="6.07053">
        <ele>1304</ele>
        <time>0001-01-01T09:45:00Z</time>
      </trkpt>
      <trkpt lat="45.20491" lon="6.07092">
        <ele>1304</ele>
        <time>0001-01-01T09:45:00Z</time>
      </trkpt>
      <trkpt lat="45.20481" lon="6.07116">
        <ele>1304</ele>
        <time>0001-01-01T09:45:00Z</time>
      </trkpt>
      <trkpt lat="45.20477" lon="6.07127">
        <ele>1291</ele>
        <time>0001-01-01T09:45:00Z</time>
      </trkpt>
      <trkpt lat="45.20475" lon="6.07134">
        <ele>1291</ele>
        <time>0001-01-01T09:45:00Z</time>
      </trkpt>
      <trkpt lat="45.20473" lon="6.07145">
        <ele>1291</ele>
        <time>0001-01-01T09:45:00Z</time>
      </trkpt>
      <trkpt lat="45.20472" lon="6.07158">
        <ele>1291</ele>
        <time>0001-01-01T09:45:00Z</time>
      </trkpt>
      <trkpt lat="45.2047" lon="6.07172">
        <ele>1291</ele>
        <time>0001-01-01T09:45:00Z</time>
      </trkpt>
      <trkpt lat="45.20467" lon="6.07186">
        <ele>1291</ele>
        <time>0001-01-01T09:45:00Z</time>
      </trkpt>
      <trkpt lat="45.20463" lon="6.07198">
        <ele>1291</ele>
        <time>0001-01-01T09:45:00Z</time>
      </trkpt>
      <trkpt lat="45.20459" lon="6.07209">
        <ele>1293</ele>
        <time>0001-01-01T09:45:00Z</time>
      </trkpt>
      <trkpt lat="45.20455" lon="6.07217">
        <ele>1313</ele>
        <time>0001-01-01T09:45:00Z</time>
      </trkpt>
      <trkpt lat="45.20443" lon="6.07237">
        <ele>1313</ele>
        <time>0001-01-01T09:45:00Z</time>
      </trkpt>
      <trkpt lat="45.2043" lon="6.07261">
        <ele>1313</ele>
        <time>0001-01-01T09:45:00Z</time>
      </trkpt>
      <trkpt lat="45.20425" lon="6.07274">
        <ele>1313</ele>
        <time>0001-01-01T09:45:00Z</time>
      </trkpt>
      <trkpt lat="45.20427" lon="6.07284">
        <ele>1313</ele>
        <time>0001-01-01T09:45:00Z</time>
      </trkpt>
      <trkpt lat="45.20428" lon="6.07291">
        <ele>1313</ele>
        <time>0001-01-01T09:45:00Z</time>
      </trkpt>
      <trkpt lat="45.2043" lon="6.07298">
        <ele>1300</ele>
        <time>0001-01-01T09:45:00Z</time>
      </trkpt>
      <trkpt lat="45.20433" lon="6.07306">
        <ele>1300</ele>
        <time>0001-01-01T09:45:00Z</time>
      </trkpt>
      <trkpt lat="45.20439" lon="6.07326">
        <ele>1300</ele>
        <time>0001-01-01T09:45:00Z</time>
      </trkpt>
      <trkpt lat="45.2044" lon="6.07333">
        <ele>1300</ele>
        <time>0001-01-01T09:45:00Z</time>
      </trkpt>
      <trkpt lat="45.2044" lon="6.07339">
        <ele>1300</ele>
        <time>0001-01-01T09:45:00Z</time>
      </trkpt>
      <trkpt lat="45.20439" lon="6.07345">
        <ele>1300</ele>
        <time>0001-01-01T09:45:00Z</time>
      </trkpt>
      <trkpt lat="45.20437" lon="6.07351">
        <ele>1300</ele>
        <time>0001-01-01T09:45:00Z</time>
      </trkpt>
      <trkpt lat="45.20429" lon="6.07367">
        <ele>1300</ele>
        <time>0001-01-01T09:45:00Z</time>
      </trkpt>
      <trkpt lat="45.20415" lon="6.07391">
        <ele>1313</ele>
        <time>0001-01-01T09:45:00Z</time>
      </trkpt>
      <trkpt lat="45.20399" lon="6.07416">
        <ele>1313</ele>
        <time>0001-01-01T09:45:00Z</time>
      </trkpt>
      <trkpt lat="45.20392" lon="6.07427">
        <ele>1313</ele>
        <time>0001-01-01T09:45:00Z</time>
      </trkpt>
      <trkpt lat="45.20386" lon="6.07437">
        <ele>1313</ele>
        <time>0001-01-01T09:45:00Z</time>
      </trkpt>
      <trkpt lat="45.20383" lon="6.07443">
        <ele>1313</ele>
        <time>0001-01-01T09:45:00Z</time>
      </trkpt>
      <trkpt lat="45.20382" lon="6.07449">
        <ele>1313</ele>
        <time>0001-01-01T09:45:00Z</time>
      </trkpt>
      <trkpt lat="45.2038" lon="6.07461">
        <ele>1340</ele>
        <time>0001-01-01T09:45:00Z</time>
      </trkpt>
      <trkpt lat="45.20378" lon="6.07474">
        <ele>1340</ele>
        <time>0001-01-01T09:45:00Z</time>
      </trkpt>
      <trkpt lat="45.20378" lon="6.07481">
        <ele>1340</ele>
        <time>0001-01-01T09:45:00Z</time>
      </trkpt>
      <trkpt lat="45.20376" lon="6.0749">
        <ele>1340</ele>
        <time>0001-01-01T09:45:00Z</time>
      </trkpt>
      <trkpt lat="45.20374" lon="6.07497">
        <ele>1321</ele>
        <time>0001-01-01T09:45:00Z</time>
      </trkpt>
      <trkpt lat="45.20369" lon="6.07509">
        <ele>1321</ele>
        <time>0001-01-01T09:45:00Z</time>
      </trkpt>
      <trkpt lat="45.20354" lon="6.07531">
        <ele>1321</ele>
        <time>0001-01-01T09:45:00Z</time>
      </trkpt>
      <trkpt lat="45.20331" lon="6.07554">
        <ele>1339</ele>
        <time>0001-01-01T09:45:00Z</time>
      </trkpt>
      <trkpt lat="45.20305" lon="6.07581">
        <ele>1339</ele>
        <time>0001-01-01T09:45:00Z</time>
      </trkpt>
      <trkpt lat="45.20291" lon="6.07592">
        <ele>1334</ele>
        <time>0001-01-01T09:45:00Z</time>
      </trkpt>
      <trkpt lat="45.20284" lon="6.07599">
        <ele>1334</ele>
        <time>0001-01-01T09:45:00Z</time>
      </trkpt>
      <trkpt lat="45.20277" lon="6.07607">
        <ele>1334</ele>
        <time>0001-01-01T09:45:00Z</time>
      </trkpt>
      <trkpt lat="45.20272" lon="6.07616">
        <ele>1334</ele>
        <time>0001-01-01T09:45:00Z</time>
      </trkpt>
      <trkpt lat="45.20263" lon="6.07632">
        <ele>1348</ele>
        <time>0001-01-01T09:45:00Z</time>
      </trkpt>
      <trkpt lat="45.20259" lon="6.0764">
        <ele>1348</ele>
        <time>0001-01-01T09:45:00Z</time>
      </trkpt>
      <trkpt lat="45.20249" lon="6.07654">
        <ele>1348</ele>
        <time>0001-01-01T09:45:00Z</time>
      </trkpt>
      <trkpt lat="45.20243" lon="6.07661">
        <ele>1348</ele>
        <time>0001-01-01T09:45:00Z</time>
      </trkpt>
      <trkpt lat="45.20237" lon="6.07666">
        <ele>1348</ele>
        <time>0001-01-01T09:45:00Z</time>
      </trkpt>
      <trkpt lat="45.2023" lon="6.0767">
        <ele>1348</ele>
        <time>0001-01-01T09:45:00Z</time>
      </trkpt>
      <trkpt lat="45.20226" lon="6.07672">
        <ele>1348</ele>
        <time>0001-01-01T09:45:00Z</time>
      </trkpt>
      <trkpt lat="45.20219" lon="6.07672">
        <ele>1348</ele>
        <time>0001-01-01T09:45:00Z</time>
      </trkpt>
      <trkpt lat="45.20215" lon="6.07672">
        <ele>1348</ele>
        <time>0001-01-01T09:45:00Z</time>
      </trkpt>
      <trkpt lat="45.20206" lon="6.07669">
        <ele>1345</ele>
        <time>0001-01-01T09:45:00Z</time>
      </trkpt>
      <trkpt lat="45.20198" lon="6.07666">
        <ele>1345</ele>
        <time>0001-01-01T09:45:00Z</time>
      </trkpt>
      <trkpt lat="45.20193" lon="6.07665">
        <ele>1345</ele>
        <time>0001-01-01T09:45:00Z</time>
      </trkpt>
      <trkpt lat="45.20189" lon="6.07666">
        <ele>1345</ele>
        <time>0001-01-01T09:45:00Z</time>
      </trkpt>
      <trkpt lat="45.20188" lon="6.07668">
        <ele>1345</ele>
        <time>0001-01-01T09:45:00Z</time>
      </trkpt>
      <trkpt lat="45.20187" lon="6.0767">
        <ele>1345</ele>
        <time>0001-01-01T09:45:00Z</time>
      </trkpt>
      <trkpt lat="45.20186" lon="6.07672">
        <ele>1345</ele>
        <time>0001-01-01T09:45:00Z</time>
      </trkpt>
      <trkpt lat="45.20186" lon="6.07674">
        <ele>1345</ele>
        <time>0001-01-01T09:45:00Z</time>
      </trkpt>
      <trkpt lat="45.20186" lon="6.07677">
        <ele>1345</ele>
        <time>0001-01-01T09:45:00Z</time>
      </trkpt>
      <trkpt lat="45.20187" lon="6.07681">
        <ele>1345</ele>
        <time>0001-01-01T09:45:00Z</time>
      </trkpt>
      <trkpt lat="45.2019" lon="6.07685">
        <ele>1345</ele>
        <time>0001-01-01T09:45:00Z</time>
      </trkpt>
      <trkpt lat="45.20196" lon="6.07691">
        <ele>1345</ele>
        <time>0001-01-01T09:45:00Z</time>
      </trkpt>
      <trkpt lat="45.20209" lon="6.077">
        <ele>1348</ele>
        <time>0001-01-01T09:45:00Z</time>
      </trkpt>
      <trkpt lat="45.20217" lon="6.07705">
        <ele>1348</ele>
        <time>0001-01-01T09:45:00Z</time>
      </trkpt>
      <trkpt lat="45.20225" lon="6.07708">
        <ele>1348</ele>
        <time>0001-01-01T09:45:00Z</time>
      </trkpt>
      <trkpt lat="45.20235" lon="6.07709">
        <ele>1372</ele>
        <time>0001-01-01T09:45:00Z</time>
      </trkpt>
      <trkpt lat="45.20244" lon="6.07707">
        <ele>1348</ele>
        <time>0001-01-01T09:45:00Z</time>
      </trkpt>
      <trkpt lat="45.20256" lon="6.07702">
        <ele>1348</ele>
        <time>0001-01-01T09:45:00Z</time>
      </trkpt>
      <trkpt lat="45.20266" lon="6.07697">
        <ele>1348</ele>
        <time>0001-01-01T09:45:00Z</time>
      </trkpt>
      <trkpt lat="45.20282" lon="6.07686">
        <ele>1348</ele>
        <time>0001-01-01T09:45:00Z</time>
      </trkpt>
      <trkpt lat="45.20302" lon="6.07675">
        <ele>1370</ele>
        <time>0001-01-01T09:45:00Z</time>
      </trkpt>
      <trkpt lat="45.20324" lon="6.07662">
        <ele>1370</ele>
        <time>0001-01-01T09:45:00Z</time>
      </trkpt>
      <trkpt lat="45.20342" lon="6.0765">
        <ele>1370</ele>
        <time>0001-01-01T09:45:00Z</time>
      </trkpt>
      <trkpt lat="45.20355" lon="6.07638">
        <ele>1370</ele>
        <time>0001-01-01T09:45:00Z</time>
      </trkpt>
      <trkpt lat="45.20364" lon="6.07632">
        <ele>1370</ele>
        <time>0001-01-01T09:45:00Z</time>
      </trkpt>
      <trkpt lat="45.20368" lon="6.0763">
        <ele>1370</ele>
        <time>0001-01-01T09:45:00Z</time>
      </trkpt>
      <trkpt lat="45.20371" lon="6.07629">
        <ele>1370</ele>
        <time>0001-01-01T09:45:00Z</time>
      </trkpt>
      <trkpt lat="45.20373" lon="6.0763">
        <ele>1370</ele>
        <time>0001-01-01T09:45:00Z</time>
      </trkpt>
      <trkpt lat="45.20377" lon="6.07633">
        <ele>1415</ele>
        <time>0001-01-01T09:45:00Z</time>
      </trkpt>
      <trkpt lat="45.20376" lon="6.07642">
        <ele>1415</ele>
        <time>0001-01-01T09:45:00Z</time>
      </trkpt>
      <trkpt lat="45.20374" lon="6.07649">
        <ele>1370</ele>
        <time>0001-01-01T09:45:00Z</time>
      </trkpt>
      <trkpt lat="45.20368" lon="6.07655">
        <ele>1370</ele>
        <time>0001-01-01T09:45:00Z</time>
      </trkpt>
      <trkpt lat="45.20345" lon="6.07677">
        <ele>1370</ele>
        <time>0001-01-01T09:45:00Z</time>
      </trkpt>
      <trkpt lat="45.20312" lon="6.07714">
        <ele>1406</ele>
        <time>0001-01-01T09:45:00Z</time>
      </trkpt>
      <trkpt lat="45.20289" lon="6.07739">
        <ele>1372</ele>
        <time>0001-01-01T09:45:00Z</time>
      </trkpt>
      <trkpt lat="45.20277" lon="6.07751">
        <ele>1372</ele>
        <time>0001-01-01T09:45:00Z</time>
      </trkpt>
      <trkpt lat="45.20262" lon="6.07769">
        <ele>1372</ele>
        <time>0001-01-01T09:45:00Z</time>
      </trkpt>
      <trkpt lat="45.20236" lon="6.07796">
        <ele>1422</ele>
        <time>0001-01-01T09:45:00Z</time>
      </trkpt>
      <trkpt lat="45.20213" lon="6.0782">
        <ele>1422</ele>
        <time>0001-01-01T09:45:00Z</time>
      </trkpt>
      <trkpt lat="45.20196" lon="6.07838">
        <ele>1386</ele>
        <time>0001-01-01T09:45:00Z</time>
      </trkpt>
      <trkpt lat="45.20176" lon="6.07856">
        <ele>1386</ele>
        <time>0001-01-01T09:45:00Z</time>
      </trkpt>
      <trkpt lat="45.20167" lon="6.07864">
        <ele>1386</ele>
        <time>0001-01-01T09:45:00Z</time>
      </trkpt>
      <trkpt lat="45.20159" lon="6.07871">
        <ele>1386</ele>
        <time>0001-01-01T09:45:00Z</time>
      </trkpt>
      <trkpt lat="45.20156" lon="6.07877">
        <ele>1434</ele>
        <time>0001-01-01T09:45:00Z</time>
      </trkpt>
      <trkpt lat="45.20152" lon="6.07885">
        <ele>1434</ele>
        <time>0001-01-01T09:45:00Z</time>
      </trkpt>
      <trkpt lat="45.2015" lon="6.07893">
        <ele>1434</ele>
        <time>0001-01-01T09:45:00Z</time>
      </trkpt>
      <trkpt lat="45.20147" lon="6.07903">
        <ele>1434</ele>
        <time>0001-01-01T09:45:00Z</time>
      </trkpt>
      <trkpt lat="45.20145" lon="6.07923">
        <ele>1434</ele>
        <time>0001-01-01T09:45:00Z</time>
      </trkpt>
      <trkpt lat="45.20145" lon="6.07942">
        <ele>1434</ele>
        <time>0001-01-01T09:45:00Z</time>
      </trkpt>
      <trkpt lat="45.20143" lon="6.07964">
        <ele>1456</ele>
        <time>0001-01-01T09:45:00Z</time>
      </trkpt>
      <trkpt lat="45.20141" lon="6.07987">
        <ele>1456</ele>
        <time>0001-01-01T09:45:00Z</time>
      </trkpt>
      <trkpt lat="45.20139" lon="6.08004">
        <ele>1456</ele>
        <time>0001-01-01T09:45:00Z</time>
      </trkpt>
      <trkpt lat="45.20137" lon="6.08015">
        <ele>1456</ele>
        <time>0001-01-01T09:45:00Z</time>
      </trkpt>
      <trkpt lat="45.20127" lon="6.08056">
        <ele>1477</ele>
        <time>0001-01-01T09:45:00Z</time>
      </trkpt>
      <trkpt lat="45.20123" lon="6.08076">
        <ele>1399</ele>
        <time>0001-01-01T09:45:00Z</time>
      </trkpt>
      <trkpt lat="45.20119" lon="6.08096">
        <ele>1399</ele>
        <time>0001-01-01T09:45:00Z</time>
      </trkpt>
      <trkpt lat="45.20117" lon="6.08113">
        <ele>1399</ele>
        <time>0001-01-01T09:45:00Z</time>
      </trkpt>
      <trkpt lat="45.20116" lon="6.08127">
        <ele>1404</ele>
        <time>0001-01-01T09:45:00Z</time>
      </trkpt>
      <trkpt lat="45.20116" lon="6.08139">
        <ele>1404</ele>
        <time>0001-01-01T09:45:00Z</time>
      </trkpt>
      <trkpt lat="45.20117" lon="6.08155">
        <ele>1404</ele>
        <time>0001-01-01T09:45:00Z</time>
      </trkpt>
      <trkpt lat="45.20118" lon="6.08172">
        <ele>1404</ele>
        <time>0001-01-01T09:45:00Z</time>
      </trkpt>
      <trkpt lat="45.20123" lon="6.08206">
        <ele>1404</ele>
        <time>0001-01-01T09:45:00Z</time>
      </trkpt>
      <trkpt lat="45.20125" lon="6.08223">
        <ele>1468</ele>
        <time>0001-01-01T09:45:00Z</time>
      </trkpt>
      <trkpt lat="45.20129" lon="6.08253">
        <ele>1468</ele>
        <time>0001-01-01T09:45:00Z</time>
      </trkpt>
      <trkpt lat="45.20129" lon="6.08266">
        <ele>1468</ele>
        <time>0001-01-01T09:45:00Z</time>
      </trkpt>
      <trkpt lat="45.20129" lon="6.08291">
        <ele>1468</ele>
        <time>0001-01-01T09:45:00Z</time>
      </trkpt>
      <trkpt lat="45.2013" lon="6.08297">
        <ele>1490</ele>
        <time>0001-01-01T09:45:00Z</time>
      </trkpt>
      <trkpt lat="45.20129" lon="6.08313">
        <ele>1490</ele>
        <time>0001-01-01T09:45:00Z</time>
      </trkpt>
      <trkpt lat="45.20128" lon="6.08321">
        <ele>1490</ele>
        <time>0001-01-01T09:45:00Z</time>
      </trkpt>
      <trkpt lat="45.20125" lon="6.08329">
        <ele>1490</ele>
        <time>0001-01-01T09:45:00Z</time>
      </trkpt>
      <trkpt lat="45.2012" lon="6.08344">
        <ele>1429</ele>
        <time>0001-01-01T09:45:00Z</time>
      </trkpt>
      <trkpt lat="45.20115" lon="6.08356">
        <ele>1429</ele>
        <time>0001-01-01T09:45:00Z</time>
      </trkpt>
      <trkpt lat="45.20111" lon="6.08365">
        <ele>1429</ele>
        <time>0001-01-01T09:45:00Z</time>
      </trkpt>
      <trkpt lat="45.20107" lon="6.0838">
        <ele>1439</ele>
        <time>0001-01-01T09:45:00Z</time>
      </trkpt>
      <trkpt lat="45.20105" lon="6.08394">
        <ele>1439</ele>
        <time>0001-01-01T09:45:00Z</time>
      </trkpt>
      <trkpt lat="45.20103" lon="6.08407">
        <ele>1439</ele>
        <time>0001-01-01T09:45:00Z</time>
      </trkpt>
      <trkpt lat="45.20102" lon="6.08421">
        <ele>1439</ele>
        <time>0001-01-01T09:45:00Z</time>
      </trkpt>
      <trkpt lat="45.201" lon="6.08432">
        <ele>1439</ele>
        <time>0001-01-01T09:45:00Z</time>
      </trkpt>
      <trkpt lat="45.201" lon="6.08438">
        <ele>1439</ele>
        <time>0001-01-01T09:45:00Z</time>
      </trkpt>
      <trkpt lat="45.20101" lon="6.08442">
        <ele>1439</ele>
        <time>0001-01-01T09:45:00Z</time>
      </trkpt>
      <trkpt lat="45.20102" lon="6.08453">
        <ele>1439</ele>
        <time>0001-01-01T09:45:00Z</time>
      </trkpt>
      <trkpt lat="45.20105" lon="6.0846">
        <ele>1442</ele>
        <time>0001-01-01T09:45:00Z</time>
      </trkpt>
      <trkpt lat="45.20112" lon="6.08484">
        <ele>1442</ele>
        <time>0001-01-01T09:45:00Z</time>
      </trkpt>
      <trkpt lat="45.20118" lon="6.08506">
        <ele>1442</ele>
        <time>0001-01-01T09:45:00Z</time>
      </trkpt>
      <trkpt lat="45.20127" lon="6.08532">
        <ele>1510</ele>
        <time>0001-01-01T09:45:00Z</time>
      </trkpt>
      <trkpt lat="45.20138" lon="6.08554">
        <ele>1442</ele>
        <time>0001-01-01T09:45:00Z</time>
      </trkpt>
      <trkpt lat="45.20152" lon="6.08579">
        <ele>1442</ele>
        <time>0001-01-01T09:45:00Z</time>
      </trkpt>
      <trkpt lat="45.20168" lon="6.08609">
        <ele>1442</ele>
        <time>0001-01-01T09:45:00Z</time>
      </trkpt>
      <trkpt lat="45.20184" lon="6.08634">
        <ele>1431</ele>
        <time>0001-01-01T09:45:00Z</time>
      </trkpt>
      <trkpt lat="45.20208" lon="6.08663">
        <ele>1431</ele>
        <time>0001-01-01T09:45:00Z</time>
      </trkpt>
      <trkpt lat="45.20238" lon="6.08696">
        <ele>1482</ele>
        <time>0001-01-01T09:45:00Z</time>
      </trkpt>
      <trkpt lat="45.20264" lon="6.08725">
        <ele>1451</ele>
        <time>0001-01-01T09:45:00Z</time>
      </trkpt>
      <trkpt lat="45.20288" lon="6.0875">
        <ele>1451</ele>
        <time>0001-01-01T09:45:00Z</time>
      </trkpt>
      <trkpt lat="45.20309" lon="6.08773">
        <ele>1497</ele>
        <time>0001-01-01T09:45:00Z</time>
      </trkpt>
      <trkpt lat="45.20322" lon="6.08791">
        <ele>1497</ele>
        <time>0001-01-01T09:45:00Z</time>
      </trkpt>
      <trkpt lat="45.20336" lon="6.08812">
        <ele>1461</ele>
        <time>0001-01-01T09:45:00Z</time>
      </trkpt>
      <trkpt lat="45.2034" lon="6.08819">
        <ele>1461</ele>
        <time>0001-01-01T09:45:00Z</time>
      </trkpt>
      <trkpt lat="45.20351" lon="6.08845">
        <ele>1461</ele>
        <time>0001-01-01T09:45:00Z</time>
      </trkpt>
      <trkpt lat="45.20363" lon="6.08882">
        <ele>1452</ele>
        <time>0001-01-01T09:45:00Z</time>
      </trkpt>
      <trkpt lat="45.20364" lon="6.08887">
        <ele>1452</ele>
        <time>0001-01-01T09:45:00Z</time>
      </trkpt>
      <trkpt lat="45.20374" lon="6.08923">
        <ele>1452</ele>
        <time>0001-01-01T09:45:00Z</time>
      </trkpt>
      <trkpt lat="45.20379" lon="6.08941">
        <ele>1500</ele>
        <time>0001-01-01T09:45:00Z</time>
      </trkpt>
      <trkpt lat="45.20382" lon="6.08957">
        <ele>1500</ele>
        <time>0001-01-01T09:45:00Z</time>
      </trkpt>
      <trkpt lat="45.20383" lon="6.08967">
        <ele>1501</ele>
        <time>0001-01-01T09:45:00Z</time>
      </trkpt>
      <trkpt lat="45.20383" lon="6.08976">
        <ele>1501</ele>
        <time>0001-01-01T09:45:00Z</time>
      </trkpt>
      <trkpt lat="45.20381" lon="6.08989">
        <ele>1501</ele>
        <time>0001-01-01T09:45:00Z</time>
      </trkpt>
      <trkpt lat="45.20378" lon="6.08998">
        <ele>1501</ele>
        <time>0001-01-01T09:45:00Z</time>
      </trkpt>
      <trkpt lat="45.20373" lon="6.09018">
        <ele>1457</ele>
        <time>0001-01-01T09:45:00Z</time>
      </trkpt>
      <trkpt lat="45.20371" lon="6.09031">
        <ele>1457</ele>
        <time>0001-01-01T09:45:00Z</time>
      </trkpt>
      <trkpt lat="45.20371" lon="6.09042">
        <ele>1467</ele>
        <time>0001-01-01T09:45:00Z</time>
      </trkpt>
      <trkpt lat="45.20372" lon="6.09056">
        <ele>1467</ele>
        <time>0001-01-01T09:45:00Z</time>
      </trkpt>
      <trkpt lat="45.20373" lon="6.09064">
        <ele>1467</ele>
        <time>0001-01-01T09:45:00Z</time>
      </trkpt>
      <trkpt lat="45.20375" lon="6.09072">
        <ele>1467</ele>
        <time>0001-01-01T09:45:00Z</time>
      </trkpt>
      <trkpt lat="45.20376" lon="6.09077">
        <ele>1512</ele>
        <time>0001-01-01T09:45:00Z</time>
      </trkpt>
      <trkpt lat="45.20378" lon="6.09083">
        <ele>1512</ele>
        <time>0001-01-01T09:45:00Z</time>
      </trkpt>
      <trkpt lat="45.20382" lon="6.09092">
        <ele>1512</ele>
        <time>0001-01-01T09:45:00Z</time>
      </trkpt>
      <trkpt lat="45.20388" lon="6.09103">
        <ele>1512</ele>
        <time>0001-01-01T09:45:00Z</time>
      </trkpt>
      <trkpt lat="45.20393" lon="6.09111">
        <ele>1512</ele>
        <time>0001-01-01T09:45:00Z</time>
      </trkpt>
      <trkpt lat="45.20396" lon="6.09118">
        <ele>1512</ele>
        <time>0001-01-01T09:45:00Z</time>
      </trkpt>
      <trkpt lat="45.20399" lon="6.09127">
        <ele>1496</ele>
        <time>0001-01-01T09:45:00Z</time>
      </trkpt>
      <trkpt lat="45.20401" lon="6.09134">
        <ele>1496</ele>
        <time>0001-01-01T09:45:00Z</time>
      </trkpt>
      <trkpt lat="45.20403" lon="6.09145">
        <ele>1496</ele>
        <time>0001-01-01T09:45:00Z</time>
      </trkpt>
      <trkpt lat="45.20405" lon="6.09164">
        <ele>1496</ele>
        <time>0001-01-01T09:45:00Z</time>
      </trkpt>
      <trkpt lat="45.20408" lon="6.09184">
        <ele>1496</ele>
        <time>0001-01-01T09:45:00Z</time>
      </trkpt>
      <trkpt lat="45.20411" lon="6.092">
        <ele>1496</ele>
        <time>0001-01-01T09:45:00Z</time>
      </trkpt>
      <trkpt lat="45.20415" lon="6.09215">
        <ele>1494</ele>
        <time>0001-01-01T09:45:00Z</time>
      </trkpt>
      <trkpt lat="45.20423" lon="6.09248">
        <ele>1494</ele>
        <time>0001-01-01T09:45:00Z</time>
      </trkpt>
      <trkpt lat="45.20426" lon="6.09259">
        <ele>1494</ele>
        <time>0001-01-01T09:45:00Z</time>
      </trkpt>
      <trkpt lat="45.20429" lon="6.09271">
        <ele>1494</ele>
        <time>0001-01-01T09:45:00Z</time>
      </trkpt>
      <trkpt lat="45.20432" lon="6.09281">
        <ele>1494</ele>
        <time>0001-01-01T09:45:00Z</time>
      </trkpt>
      <trkpt lat="45.20434" lon="6.09288">
        <ele>1494</ele>
        <time>0001-01-01T09:45:00Z</time>
      </trkpt>
      <trkpt lat="45.20442" lon="6.0931">
        <ele>1485</ele>
        <time>0001-01-01T09:45:00Z</time>
      </trkpt>
      <trkpt lat="45.20446" lon="6.09322">
        <ele>1485</ele>
        <time>0001-01-01T09:45:00Z</time>
      </trkpt>
      <trkpt lat="45.20455" lon="6.09348">
        <ele>1485</ele>
        <time>0001-01-01T09:45:00Z</time>
      </trkpt>
      <trkpt lat="45.20459" lon="6.09365">
        <ele>1530</ele>
        <time>0001-01-01T09:45:00Z</time>
      </trkpt>
      <trkpt lat="45.20461" lon="6.09374">
        <ele>1530</ele>
        <time>0001-01-01T09:45:00Z</time>
      </trkpt>
      <trkpt lat="45.20466" lon="6.09407">
        <ele>1525</ele>
        <time>0001-01-01T09:45:00Z</time>
      </trkpt>
      <trkpt lat="45.20468" lon="6.09423">
        <ele>1525</ele>
        <time>0001-01-01T09:45:00Z</time>
      </trkpt>
      <trkpt lat="45.2047" lon="6.09438">
        <ele>1525</ele>
        <time>0001-01-01T09:45:00Z</time>
      </trkpt>
      <trkpt lat="45.20471" lon="6.0946">
        <ele>1527</ele>
        <time>0001-01-01T09:45:00Z</time>
      </trkpt>
      <trkpt lat="45.2047" lon="6.09484">
        <ele>1527</ele>
        <time>0001-01-01T09:45:00Z</time>
      </trkpt>
      <trkpt lat="45.20464" lon="6.09548">
        <ele>1534</ele>
        <time>0001-01-01T09:45:00Z</time>
      </trkpt>
      <trkpt lat="45.20456" lon="6.09612">
        <ele>1502</ele>
        <time>0001-01-01T09:45:00Z</time>
      </trkpt>
      <trkpt lat="45.20452" lon="6.09653">
        <ele>1513</ele>
        <time>0001-01-01T09:45:00Z</time>
      </trkpt>
      <trkpt lat="45.20453" lon="6.09672">
        <ele>1513</ele>
        <time>0001-01-01T09:45:00Z</time>
      </trkpt>
      <trkpt lat="45.20456" lon="6.097">
        <ele>1513</ele>
        <time>0001-01-01T09:45:00Z</time>
      </trkpt>
      <trkpt lat="45.20459" lon="6.09723">
        <ele>1549</ele>
        <time>0001-01-01T09:45:00Z</time>
      </trkpt>
      <trkpt lat="45.20459" lon="6.09735">
        <ele>1549</ele>
        <time>0001-01-01T09:45:00Z</time>
      </trkpt>
      <trkpt lat="45.20456" lon="6.09757">
        <ele>1527</ele>
        <time>0001-01-01T09:45:00Z</time>
      </trkpt>
      <trkpt lat="45.20445" lon="6.09798">
        <ele>1537</ele>
        <time>0001-01-01T09:45:00Z</time>
      </trkpt>
      <trkpt lat="45.20436" lon="6.09842">
        <ele>1537</ele>
        <time>0001-01-01T09:45:00Z</time>
      </trkpt>
      <trkpt lat="45.20434" lon="6.09866">
        <ele>1537</ele>
        <time>0001-01-01T09:45:00Z</time>
      </trkpt>
      <trkpt lat="45.20434" lon="6.09894">
        <ele>1544</ele>
        <time>0001-01-01T09:45:00Z</time>
      </trkpt>
      <trkpt lat="45.20438" lon="6.09946">
        <ele>1544</ele>
        <time>0001-01-01T09:45:00Z</time>
      </trkpt>
      <trkpt lat="45.20442" lon="6.10009">
        <ele>1553</ele>
        <time>0001-01-01T09:45:00Z</time>
      </trkpt>
      <trkpt lat="45.20447" lon="6.10081">
        <ele>1554</ele>
        <time>0001-01-01T09:45:00Z</time>
      </trkpt>
      <trkpt lat="45.20451" lon="6.10135">
        <ele>1556</ele>
        <time>0001-01-01T09:45:00Z</time>
      </trkpt>
      <trkpt lat="45.20451" lon="6.1015">
        <ele>1556</ele>
        <time>0001-01-01T09:45:00Z</time>
      </trkpt>
      <trkpt lat="45.20453" lon="6.1017">
        <ele>1556</ele>
        <time>0001-01-01T09:45:00Z</time>
      </trkpt>
      <trkpt lat="45.20454" lon="6.10177">
        <ele>1556</ele>
        <time>0001-01-01T09:45:00Z</time>
      </trkpt>
      <trkpt lat="45.20459" lon="6.102">
        <ele>1578</ele>
        <time>0001-01-01T09:45:00Z</time>
      </trkpt>
      <trkpt lat="45.20463" lon="6.1021">
        <ele>1578</ele>
        <time>0001-01-01T09:45:00Z</time>
      </trkpt>
      <trkpt lat="45.20471" lon="6.10229">
        <ele>1578</ele>
        <time>0001-01-01T09:45:00Z</time>
      </trkpt>
      <trkpt lat="45.20481" lon="6.10248">
        <ele>1578</ele>
        <time>0001-01-01T09:45:00Z</time>
      </trkpt>
      <trkpt lat="45.20488" lon="6.10265">
        <ele>1578</ele>
        <time>0001-01-01T09:45:00Z</time>
      </trkpt>
      <trkpt lat="45.20496" lon="6.1028">
        <ele>1578</ele>
        <time>0001-01-01T09:45:00Z</time>
      </trkpt>
      <trkpt lat="45.20501" lon="6.10294">
        <ele>1575</ele>
        <time>0001-01-01T09:45:00Z</time>
      </trkpt>
      <trkpt lat="45.20504" lon="6.10305">
        <ele>1575</ele>
        <time>0001-01-01T09:45:00Z</time>
      </trkpt>
      <trkpt lat="45.2051" lon="6.10323">
        <ele>1575</ele>
        <time>0001-01-01T09:45:00Z</time>
      </trkpt>
      <trkpt lat="45.20521" lon="6.10355">
        <ele>1575</ele>
        <time>0001-01-01T09:45:00Z</time>
      </trkpt>
      <trkpt lat="45.2053" lon="6.10386">
        <ele>1561</ele>
        <time>0001-01-01T09:45:00Z</time>
      </trkpt>
      <trkpt lat="45.20536" lon="6.10408">
        <ele>1561</ele>
        <time>0001-01-01T09:45:00Z</time>
      </trkpt>
      <trkpt lat="45.20541" lon="6.10429">
        <ele>1561</ele>
        <time>0001-01-01T09:45:00Z</time>
      </trkpt>
      <trkpt lat="45.2055" lon="6.10471">
        <ele>1602</ele>
        <time>0001-01-01T09:45:00Z</time>
      </trkpt>
      <trkpt lat="45.20556" lon="6.10495">
        <ele>1602</ele>
        <time>0001-01-01T09:45:00Z</time>
      </trkpt>
      <trkpt lat="45.20562" lon="6.10515">
        <ele>1602</ele>
        <time>0001-01-01T09:45:00Z</time>
      </trkpt>
      <trkpt lat="45.20571" lon="6.10538">
        <ele>1602</ele>
        <time>0001-01-01T09:45:00Z</time>
      </trkpt>
      <trkpt lat="45.20578" lon="6.10557">
        <ele>1590</ele>
        <time>0001-01-01T09:45:00Z</time>
      </trkpt>
      <trkpt lat="45.20589" lon="6.10583">
        <ele>1590</ele>
        <time>0001-01-01T09:45:00Z</time>
      </trkpt>
      <trkpt lat="45.20601" lon="6.10614">
        <ele>1590</ele>
        <time>0001-01-01T09:45:00Z</time>
      </trkpt>
      <trkpt lat="45.20612" lon="6.1064">
        <ele>1578</ele>
        <time>0001-01-01T09:45:00Z</time>
      </trkpt>
      <trkpt lat="45.20628" lon="6.10675">
        <ele>1631</ele>
        <time>0001-01-01T09:45:00Z</time>
      </trkpt>
      <trkpt lat="45.20636" lon="6.10694">
        <ele>1631</ele>
        <time>0001-01-01T09:45:00Z</time>
      </trkpt>
      <trkpt lat="45.20642" lon="6.10708">
        <ele>1631</ele>
        <time>0001-01-01T09:45:00Z</time>
      </trkpt>
      <trkpt lat="45.20649" lon="6.10729">
        <ele>1617</ele>
        <time>0001-01-01T09:45:00Z</time>
      </trkpt>
      <trkpt lat="45.20658" lon="6.10757">
        <ele>1617</ele>
        <time>0001-01-01T09:45:00Z</time>
      </trkpt>
      <trkpt lat="45.2066" lon="6.10769">
        <ele>1617</ele>
        <time>0001-01-01T09:45:00Z</time>
      </trkpt>
      <trkpt lat="45.20667" lon="6.10791">
        <ele>1617</ele>
        <time>0001-01-01T09:45:00Z</time>
      </trkpt>
      <trkpt lat="45.2067" lon="6.10806">
        <ele>1603</ele>
        <time>0001-01-01T09:45:00Z</time>
      </trkpt>
      <trkpt lat="45.20674" lon="6.10822">
        <ele>1603</ele>
        <time>0001-01-01T09:45:00Z</time>
      </trkpt>
      <trkpt lat="45.20675" lon="6.10834">
        <ele>1603</ele>
        <time>0001-01-01T09:45:00Z</time>
      </trkpt>
      <trkpt lat="45.20675" lon="6.10844">
        <ele>1603</ele>
        <time>0001-01-01T09:45:00Z</time>
      </trkpt>
      <trkpt lat="45.20675" lon="6.10864">
        <ele>1603</ele>
        <time>0001-01-01T09:45:00Z</time>
      </trkpt>
      <trkpt lat="45.20675" lon="6.10875">
        <ele>1600</ele>
        <time>0001-01-01T09:45:00Z</time>
      </trkpt>
      <trkpt lat="45.20676" lon="6.10883">
        <ele>1600</ele>
        <time>0001-01-01T09:45:00Z</time>
      </trkpt>
      <trkpt lat="45.20677" lon="6.10889">
        <ele>1600</ele>
        <time>0001-01-01T09:45:00Z</time>
      </trkpt>
      <trkpt lat="45.2068" lon="6.10892">
        <ele>1600</ele>
        <time>0001-01-01T09:45:00Z</time>
      </trkpt>
      <trkpt lat="45.20683" lon="6.10893">
        <ele>1600</ele>
        <time>0001-01-01T09:45:00Z</time>
      </trkpt>
      <trkpt lat="45.20686" lon="6.10894">
        <ele>1600</ele>
        <time>0001-01-01T09:45:00Z</time>
      </trkpt>
      <trkpt lat="45.20689" lon="6.10893">
        <ele>1600</ele>
        <time>0001-01-01T09:45:00Z</time>
      </trkpt>
      <trkpt lat="45.20691" lon="6.10891">
        <ele>1600</ele>
        <time>0001-01-01T09:45:00Z</time>
      </trkpt>
      <trkpt lat="45.20692" lon="6.10888">
        <ele>1600</ele>
        <time>0001-01-01T09:45:00Z</time>
      </trkpt>
      <trkpt lat="45.20694" lon="6.10882">
        <ele>1600</ele>
        <time>0001-01-01T09:45:00Z</time>
      </trkpt>
      <trkpt lat="45.20693" lon="6.10876">
        <ele>1600</ele>
        <time>0001-01-01T09:45:00Z</time>
      </trkpt>
      <trkpt lat="45.20692" lon="6.10869">
        <ele>1603</ele>
        <time>0001-01-01T09:45:00Z</time>
      </trkpt>
      <trkpt lat="45.2069" lon="6.10862">
        <ele>1603</ele>
        <time>0001-01-01T09:45:00Z</time>
      </trkpt>
      <trkpt lat="45.20687" lon="6.10852">
        <ele>1603</ele>
        <time>0001-01-01T09:45:00Z</time>
      </trkpt>
      <trkpt lat="45.20681" lon="6.10823">
        <ele>1603</ele>
        <time>0001-01-01T09:45:00Z</time>
      </trkpt>
      <trkpt lat="45.20677" lon="6.10801">
        <ele>1603</ele>
        <time>0001-01-01T09:45:00Z</time>
      </trkpt>
      <trkpt lat="45.20674" lon="6.10775">
        <ele>1617</ele>
        <time>0001-01-01T09:45:00Z</time>
      </trkpt>
      <trkpt lat="45.20674" lon="6.10754">
        <ele>1617</ele>
        <time>0001-01-01T09:45:00Z</time>
      </trkpt>
      <trkpt lat="45.20672" lon="6.10735">
        <ele>1617</ele>
        <time>0001-01-01T09:45:00Z</time>
      </trkpt>
      <trkpt lat="45.2067" lon="6.10718">
        <ele>1617</ele>
        <time>0001-01-01T09:45:00Z</time>
      </trkpt>
      <trkpt lat="45.20659" lon="6.10658">
        <ele>1631</ele>
        <time>0001-01-01T09:45:00Z</time>
      </trkpt>
      <trkpt lat="45.20656" lon="6.1064">
        <ele>1631</ele>
        <time>0001-01-01T09:45:00Z</time>
      </trkpt>
      <trkpt lat="45.20654" lon="6.10631">
        <ele>1631</ele>
        <time>0001-01-01T09:45:00Z</time>
      </trkpt>
      <trkpt lat="45.20652" lon="6.10618">
        <ele>1648</ele>
        <time>0001-01-01T09:45:00Z</time>
      </trkpt>
      <trkpt lat="45.20651" lon="6.10598">
        <ele>1648</ele>
        <time>0001-01-01T09:45:00Z</time>
      </trkpt>
      <trkpt lat="45.20651" lon="6.10588">
        <ele>1648</ele>
        <time>0001-01-01T09:45:00Z</time>
      </trkpt>
      <trkpt lat="45.2065" lon="6.10578">
        <ele>1648</ele>
        <time>0001-01-01T09:45:00Z</time>
      </trkpt>
      <trkpt lat="45.20648" lon="6.10562">
        <ele>1648</ele>
        <time>0001-01-01T09:45:00Z</time>
      </trkpt>
      <trkpt lat="45.20644" lon="6.10549">
        <ele>1648</ele>
        <time>0001-01-01T09:45:00Z</time>
      </trkpt>
      <trkpt lat="45.20642" lon="6.10544">
        <ele>1648</ele>
        <time>0001-01-01T09:45:00Z</time>
      </trkpt>
      <trkpt lat="45.20635" lon="6.1053">
        <ele>1667</ele>
        <time>0001-01-01T09:45:00Z</time>
      </trkpt>
      <trkpt lat="45.2063" lon="6.1052">
        <ele>1667</ele>
        <time>0001-01-01T09:45:00Z</time>
      </trkpt>
      <trkpt lat="45.20625" lon="6.10508">
        <ele>1602</ele>
        <time>0001-01-01T09:45:00Z</time>
      </trkpt>
      <trkpt lat="45.20623" lon="6.105">
        <ele>1602</ele>
        <time>0001-01-01T09:45:00Z</time>
      </trkpt>
      <trkpt lat="45.20618" lon="6.1048">
        <ele>1602</ele>
        <time>0001-01-01T09:45:00Z</time>
      </trkpt>
      <trkpt lat="45.20615" lon="6.10461">
        <ele>1602</ele>
        <time>0001-01-01T09:45:00Z</time>
      </trkpt>
      <trkpt lat="45.20612" lon="6.10447">
        <ele>1615</ele>
        <time>0001-01-01T09:45:00Z</time>
      </trkpt>
      <trkpt lat="45.2061" lon="6.10432">
        <ele>1615</ele>
        <time>0001-01-01T09:45:00Z</time>
      </trkpt>
      <trkpt lat="45.20608" lon="6.10425">
        <ele>1615</ele>
        <time>0001-01-01T09:45:00Z</time>
      </trkpt>
      <trkpt lat="45.20604" lon="6.10409">
        <ele>1615</ele>
        <time>0001-01-01T09:45:00Z</time>
      </trkpt>
      <trkpt lat="45.206" lon="6.10399">
        <ele>1615</ele>
        <time>0001-01-01T09:45:00Z</time>
      </trkpt>
      <trkpt lat="45.20594" lon="6.10388">
        <ele>1615</ele>
        <time>0001-01-01T09:45:00Z</time>
      </trkpt>
      <trkpt lat="45.20585" lon="6.10373">
        <ele>1636</ele>
        <time>0001-01-01T09:45:00Z</time>
      </trkpt>
      <trkpt lat="45.20576" lon="6.10355">
        <ele>1636</ele>
        <time>0001-01-01T09:45:00Z</time>
      </trkpt>
      <trkpt lat="45.20567" lon="6.10337">
        <ele>1636</ele>
        <time>0001-01-01T09:45:00Z</time>
      </trkpt>
      <trkpt lat="45.20566" lon="6.10332">
        <ele>1636</ele>
        <time>0001-01-01T09:45:00Z</time>
      </trkpt>
      <trkpt lat="45.20565" lon="6.10329">
        <ele>1636</ele>
        <time>0001-01-01T09:45:00Z</time>
      </trkpt>
      <trkpt lat="45.20566" lon="6.10326">
        <ele>1636</ele>
        <time>0001-01-01T09:45:00Z</time>
      </trkpt>
      <trkpt lat="45.20567" lon="6.10323">
        <ele>1636</ele>
        <time>0001-01-01T09:45:00Z</time>
      </trkpt>
      <trkpt lat="45.20569" lon="6.10318">
        <ele>1636</ele>
        <time>0001-01-01T09:45:00Z</time>
      </trkpt>
      <trkpt lat="45.20573" lon="6.10315">
        <ele>1636</ele>
        <time>0001-01-01T09:45:00Z</time>
      </trkpt>
      <trkpt lat="45.20576" lon="6.10315">
        <ele>1636</ele>
        <time>0001-01-01T09:45:00Z</time>
      </trkpt>
      <trkpt lat="45.20579" lon="6.10315">
        <ele>1636</ele>
        <time>0001-01-01T09:45:00Z</time>
      </trkpt>
      <trkpt lat="45.20582" lon="6.10318">
        <ele>1636</ele>
        <time>0001-01-01T09:45:00Z</time>
      </trkpt>
      <trkpt lat="45.20585" lon="6.10324">
        <ele>1636</ele>
        <time>0001-01-01T09:45:00Z</time>
      </trkpt>
      <trkpt lat="45.20586" lon="6.10332">
        <ele>1636</ele>
        <time>0001-01-01T09:45:00Z</time>
      </trkpt>
      <trkpt lat="45.20586" lon="6.10344">
        <ele>1636</ele>
        <time>0001-01-01T09:45:00Z</time>
      </trkpt>
      <trkpt lat="45.20587" lon="6.10353">
        <ele>1636</ele>
        <time>0001-01-01T09:45:00Z</time>
      </trkpt>
      <trkpt lat="45.20591" lon="6.10366">
        <ele>1636</ele>
        <time>0001-01-01T09:45:00Z</time>
      </trkpt>
      <trkpt lat="45.20596" lon="6.10377">
        <ele>1615</ele>
        <time>0001-01-01T09:45:00Z</time>
      </trkpt>
      <trkpt lat="45.206" lon="6.10386">
        <ele>1615</ele>
        <time>0001-01-01T09:45:00Z</time>
      </trkpt>
      <trkpt lat="45.2061" lon="6.10405">
        <ele>1615</ele>
        <time>0001-01-01T09:45:00Z</time>
      </trkpt>
      <trkpt lat="45.20618" lon="6.10423">
        <ele>1615</ele>
        <time>0001-01-01T09:45:00Z</time>
      </trkpt>
      <trkpt lat="45.20624" lon="6.10439">
        <ele>1615</ele>
        <time>0001-01-01T09:45:00Z</time>
      </trkpt>
      <trkpt lat="45.20629" lon="6.10456">
        <ele>1694</ele>
        <time>0001-01-01T09:45:00Z</time>
      </trkpt>
      <trkpt lat="45.20633" lon="6.10469">
        <ele>1667</ele>
        <time>0001-01-01T09:45:00Z</time>
      </trkpt>
      <trkpt lat="45.20641" lon="6.10486">
        <ele>1667</ele>
        <time>0001-01-01T09:45:00Z</time>
      </trkpt>
      <trkpt lat="45.20647" lon="6.10495">
        <ele>1667</ele>
        <time>0001-01-01T09:45:00Z</time>
      </trkpt>
      <trkpt lat="45.20656" lon="6.10508">
        <ele>1667</ele>
        <time>0001-01-01T09:45:00Z</time>
      </trkpt>
      <trkpt lat="45.20665" lon="6.10522">
        <ele>1667</ele>
        <time>0001-01-01T09:45:00Z</time>
      </trkpt>
      <trkpt lat="45.20672" lon="6.10532">
        <ele>1667</ele>
        <time>0001-01-01T09:45:00Z</time>
      </trkpt>
      <trkpt lat="45.20681" lon="6.10546">
        <ele>1648</ele>
        <time>0001-01-01T09:45:00Z</time>
      </trkpt>
      <trkpt lat="45.20683" lon="6.10553">
        <ele>1648</ele>
        <time>0001-01-01T09:45:00Z</time>
      </trkpt>
      <trkpt lat="45.20688" lon="6.10567">
        <ele>1648</ele>
        <time>0001-01-01T09:45:00Z</time>
      </trkpt>
      <trkpt lat="45.20692" lon="6.10578">
        <ele>1648</ele>
        <time>0001-01-01T09:45:00Z</time>
      </trkpt>
      <trkpt lat="45.20698" lon="6.10598">
        <ele>1648</ele>
        <time>0001-01-01T09:45:00Z</time>
      </trkpt>
      <trkpt lat="45.20704" lon="6.10621">
        <ele>1648</ele>
        <time>0001-01-01T09:45:00Z</time>
      </trkpt>
      <trkpt lat="45.20708" lon="6.10635">
        <ele>1631</ele>
        <time>0001-01-01T09:45:00Z</time>
      </trkpt>
      <trkpt lat="45.20715" lon="6.10657">
        <ele>1706</ele>
        <time>0001-01-01T09:45:00Z</time>
      </trkpt>
      <trkpt lat="45.20725" lon="6.10679">
        <ele>1706</ele>
        <time>0001-01-01T09:45:00Z</time>
      </trkpt>
      <trkpt lat="45.20738" lon="6.1071">
        <ele>1677</ele>
        <time>0001-01-01T09:45:00Z</time>
      </trkpt>
      <trkpt lat="45.20742" lon="6.10724">
        <ele>1677</ele>
        <time>0001-01-01T09:45:00Z</time>
      </trkpt>
      <trkpt lat="45.20745" lon="6.10734">
        <ele>1677</ele>
        <time>0001-01-01T09:45:00Z</time>
      </trkpt>
      <trkpt lat="45.20748" lon="6.10755">
        <ele>1677</ele>
        <time>0001-01-01T09:45:00Z</time>
      </trkpt>
      <trkpt lat="45.2075" lon="6.10776">
        <ele>1677</ele>
        <time>0001-01-01T09:45:00Z</time>
      </trkpt>
      <trkpt lat="45.20751" lon="6.10789">
        <ele>1677</ele>
        <time>0001-01-01T09:45:00Z</time>
      </trkpt>
      <trkpt lat="45.20753" lon="6.10803">
        <ele>1648</ele>
        <time>0001-01-01T09:45:00Z</time>
      </trkpt>
      <trkpt lat="45.20757" lon="6.10822">
        <ele>1648</ele>
        <time>0001-01-01T09:45:00Z</time>
      </trkpt>
      <trkpt lat="45.20763" lon="6.10838">
        <ele>1648</ele>
        <time>0001-01-01T09:45:00Z</time>
      </trkpt>
      <trkpt lat="45.20769" lon="6.10857">
        <ele>1648</ele>
        <time>0001-01-01T09:45:00Z</time>
      </trkpt>
      <trkpt lat="45.20775" lon="6.10876">
        <ele>1647</ele>
        <time>0001-01-01T09:45:00Z</time>
      </trkpt>
      <trkpt lat="45.20782" lon="6.109">
        <ele>1647</ele>
        <time>0001-01-01T09:45:00Z</time>
      </trkpt>
      <trkpt lat="45.20786" lon="6.10917">
        <ele>1647</ele>
        <time>0001-01-01T09:45:00Z</time>
      </trkpt>
      <trkpt lat="45.20788" lon="6.10926">
        <ele>1647</ele>
        <time>0001-01-01T09:45:00Z</time>
      </trkpt>
      <trkpt lat="45.2079" lon="6.10938">
        <ele>1647</ele>
        <time>0001-01-01T09:45:00Z</time>
      </trkpt>
      <trkpt lat="45.20791" lon="6.1095">
        <ele>1647</ele>
        <time>0001-01-01T09:45:00Z</time>
      </trkpt>
      <trkpt lat="45.2079" lon="6.10969">
        <ele>1652</ele>
        <time>0001-01-01T09:45:00Z</time>
      </trkpt>
      <trkpt lat="45.20787" lon="6.10984">
        <ele>1652</ele>
        <time>0001-01-01T09:45:00Z</time>
      </trkpt>
      <trkpt lat="45.20785" lon="6.11001">
        <ele>1652</ele>
        <time>0001-01-01T09:45:00Z</time>
      </trkpt>
      <trkpt lat="45.20784" lon="6.11014">
        <ele>1652</ele>
        <time>0001-01-01T09:45:00Z</time>
      </trkpt>
      <trkpt lat="45.20783" lon="6.11038">
        <ele>1652</ele>
        <time>0001-01-01T09:45:00Z</time>
      </trkpt>
      <trkpt lat="45.20784" lon="6.11074">
        <ele>1646</ele>
        <time>0001-01-01T09:45:00Z</time>
      </trkpt>
      <trkpt lat="45.20781" lon="6.111">
        <ele>1646</ele>
        <time>0001-01-01T09:45:00Z</time>
      </trkpt>
      <trkpt lat="45.20778" lon="6.11126">
        <ele>1650</ele>
        <time>0001-01-01T09:45:00Z</time>
      </trkpt>
      <trkpt lat="45.20775" lon="6.11146">
        <ele>1650</ele>
        <time>0001-01-01T09:45:00Z</time>
      </trkpt>
      <trkpt lat="45.20775" lon="6.11164">
        <ele>1650</ele>
        <time>0001-01-01T09:45:00Z</time>
      </trkpt>
      <trkpt lat="45.20774" lon="6.11181">
        <ele>1650</ele>
        <time>0001-01-01T09:45:00Z</time>
      </trkpt>
      <trkpt lat="45.20776" lon="6.11198">
        <ele>1650</ele>
        <time>0001-01-01T09:45:00Z</time>
      </trkpt>
      <trkpt lat="45.20783" lon="6.11236">
        <ele>1628</ele>
        <time>0001-01-01T09:45:00Z</time>
      </trkpt>
      <trkpt lat="45.2079" lon="6.11267">
        <ele>1628</ele>
        <time>0001-01-01T09:45:00Z</time>
      </trkpt>
      <trkpt lat="45.20793" lon="6.11285">
        <ele>1628</ele>
        <time>0001-01-01T09:45:00Z</time>
      </trkpt>
      <trkpt lat="45.20793" lon="6.11293">
        <ele>1628</ele>
        <time>0001-01-01T09:45:00Z</time>
      </trkpt>
      <trkpt lat="45.20793" lon="6.1131">
        <ele>1628</ele>
        <time>0001-01-01T09:45:00Z</time>
      </trkpt>
      <trkpt lat="45.20789" lon="6.11326">
        <ele>1633</ele>
        <time>0001-01-01T09:45:00Z</time>
      </trkpt>
      <trkpt lat="45.20787" lon="6.11338">
        <ele>1633</ele>
        <time>0001-01-01T09:45:00Z</time>
      </trkpt>
      <trkpt lat="45.20786" lon="6.11349">
        <ele>1633</ele>
        <time>0001-01-01T09:45:00Z</time>
      </trkpt>
      <trkpt lat="45.20786" lon="6.1136">
        <ele>1633</ele>
        <time>0001-01-01T09:45:00Z</time>
      </trkpt>
      <trkpt lat="45.20789" lon="6.11375">
        <ele>1633</ele>
        <time>0001-01-01T09:45:00Z</time>
      </trkpt>
      <trkpt lat="45.20795" lon="6.11398">
        <ele>1633</ele>
        <time>0001-01-01T09:45:00Z</time>
      </trkpt>
      <trkpt lat="45.20801" lon="6.11417">
        <ele>1633</ele>
        <time>0001-01-01T09:45:00Z</time>
      </trkpt>
      <trkpt lat="45.20804" lon="6.11435">
        <ele>1633</ele>
        <time>0001-01-01T09:45:00Z</time>
      </trkpt>
      <trkpt lat="45.20806" lon="6.11454">
        <ele>1633</ele>
        <time>0001-01-01T09:45:00Z</time>
      </trkpt>
      <trkpt lat="45.20808" lon="6.11465">
        <ele>1633</ele>
        <time>0001-01-01T09:45:00Z</time>
      </trkpt>
      <trkpt lat="45.20812" lon="6.11478">
        <ele>1633</ele>
        <time>0001-01-01T09:45:00Z</time>
      </trkpt>
      <trkpt lat="45.20819" lon="6.11494">
        <ele>1633</ele>
        <time>0001-01-01T09:45:00Z</time>
      </trkpt>
      <trkpt lat="45.20822" lon="6.11501">
        <ele>1633</ele>
        <time>0001-01-01T09:45:00Z</time>
      </trkpt>
      <trkpt lat="45.20831" lon="6.11531">
        <ele>1633</ele>
        <time>0001-01-01T09:45:00Z</time>
      </trkpt>
      <trkpt lat="45.20834" lon="6.11546">
        <ele>1735</ele>
        <time>0001-01-01T09:45:00Z</time>
      </trkpt>
      <trkpt lat="45.20837" lon="6.1156">
        <ele>1735</ele>
        <time>0001-01-01T09:45:00Z</time>
      </trkpt>
      <trkpt lat="45.20842" lon="6.11595">
        <ele>1735</ele>
        <time>0001-01-01T09:45:00Z</time>
      </trkpt>
      <trkpt lat="45.20845" lon="6.11618">
        <ele>1735</ele>
        <time>0001-01-01T09:45:00Z</time>
      </trkpt>
      <trkpt lat="45.20846" lon="6.11631">
        <ele>1723</ele>
        <time>0001-01-01T09:45:00Z</time>
      </trkpt>
      <trkpt lat="45.20849" lon="6.11671">
        <ele>1723</ele>
        <time>0001-01-01T09:45:00Z</time>
      </trkpt>
      <trkpt lat="45.2085" lon="6.11683">
        <ele>1723</ele>
        <time>0001-01-01T09:45:00Z</time>
      </trkpt>
      <trkpt lat="45.20851" lon="6.11694">
        <ele>1723</ele>
        <time>0001-01-01T09:45:00Z</time>
      </trkpt>
      <trkpt lat="45.20851" lon="6.1171">
        <ele>1716</ele>
        <time>0001-01-01T09:45:00Z</time>
      </trkpt>
      <trkpt lat="45.2085" lon="6.11742">
        <ele>1716</ele>
        <time>0001-01-01T09:45:00Z</time>
      </trkpt>
      <trkpt lat="45.20847" lon="6.1178">
        <ele>1716</ele>
        <time>0001-01-01T09:45:00Z</time>
      </trkpt>
      <trkpt lat="45.20844" lon="6.11815">
        <ele>1704</ele>
        <time>0001-01-01T09:45:00Z</time>
      </trkpt>
      <trkpt lat="45.20845" lon="6.11835">
        <ele>1704</ele>
        <time>0001-01-01T09:45:00Z</time>
      </trkpt>
      <trkpt lat="45.2085" lon="6.11858">
        <ele>1704</ele>
        <time>0001-01-01T09:45:00Z</time>
      </trkpt>
      <trkpt lat="45.20858" lon="6.11878">
        <ele>1687</ele>
        <time>0001-01-01T09:45:00Z</time>
      </trkpt>
      <trkpt lat="45.20862" lon="6.11891">
        <ele>1687</ele>
        <time>0001-01-01T09:45:00Z</time>
      </trkpt>
      <trkpt lat="45.20863" lon="6.11904">
        <ele>1687</ele>
        <time>0001-01-01T09:45:00Z</time>
      </trkpt>
      <trkpt lat="45.20863" lon="6.1192">
        <ele>1687</ele>
        <time>0001-01-01T09:45:00Z</time>
      </trkpt>
      <trkpt lat="45.2086" lon="6.1195">
        <ele>1687</ele>
        <time>0001-01-01T09:45:00Z</time>
      </trkpt>
      <trkpt lat="45.20859" lon="6.11976">
        <ele>1689</ele>
        <time>0001-01-01T09:45:00Z</time>
      </trkpt>
      <trkpt lat="45.20858" lon="6.12005">
        <ele>1689</ele>
        <time>0001-01-01T09:45:00Z</time>
      </trkpt>
      <trkpt lat="45.2086" lon="6.12024">
        <ele>1689</ele>
        <time>0001-01-01T09:45:00Z</time>
      </trkpt>
      <trkpt lat="45.20864" lon="6.12053">
        <ele>1683</ele>
        <time>0001-01-01T09:45:00Z</time>
      </trkpt>
      <trkpt lat="45.20873" lon="6.12093">
        <ele>1683</ele>
        <time>0001-01-01T09:45:00Z</time>
      </trkpt>
      <trkpt lat="45.20883" lon="6.12133">
        <ele>1728</ele>
        <time>0001-01-01T09:45:00Z</time>
      </trkpt>
      <trkpt lat="45.20896" lon="6.12185">
        <ele>1728</ele>
        <time>0001-01-01T09:45:00Z</time>
      </trkpt>
      <trkpt lat="45.2091" lon="6.12219">
        <ele>1706</ele>
        <time>0001-01-01T09:45:00Z</time>
      </trkpt>
      <trkpt lat="45.2092" lon="6.1224">
        <ele>1706</ele>
        <time>0001-01-01T09:45:00Z</time>
      </trkpt>
      <trkpt lat="45.20922" lon="6.12245">
        <ele>1706</ele>
        <time>0001-01-01T09:45:00Z</time>
      </trkpt>
      <trkpt lat="45.20934" lon="6.12272">
        <ele>1706</ele>
        <time>0001-01-01T09:45:00Z</time>
      </trkpt>
      <trkpt lat="45.2095" lon="6.12313">
        <ele>1690</ele>
        <time>0001-01-01T09:45:00Z</time>
      </trkpt>
      <trkpt lat="45.20968" lon="6.12356">
        <ele>1759</ele>
        <time>0001-01-01T09:45:00Z</time>
      </trkpt>
      <trkpt lat="45.20971" lon="6.12366">
        <ele>1759</ele>
        <time>0001-01-01T09:45:00Z</time>
      </trkpt>
      <trkpt lat="45.2099" lon="6.12414">
        <ele>1736</ele>
        <time>0001-01-01T09:45:00Z</time>
      </trkpt>
      <trkpt lat="45.21004" lon="6.12465">
        <ele>1718</ele>
        <time>0001-01-01T09:45:00Z</time>
      </trkpt>
      <trkpt lat="45.21009" lon="6.12479">
        <ele>1718</ele>
        <time>0001-01-01T09:45:00Z</time>
      </trkpt>
      <trkpt lat="45.21013" lon="6.12501">
        <ele>1718</ele>
        <time>0001-01-01T09:45:00Z</time>
      </trkpt>
      <trkpt lat="45.21017" lon="6.12519">
        <ele>1718</ele>
        <time>0001-01-01T09:45:00Z</time>
      </trkpt>
      <trkpt lat="45.21021" lon="6.12541">
        <ele>1718</ele>
        <time>0001-01-01T09:45:00Z</time>
      </trkpt>
      <trkpt lat="45.21026" lon="6.12557">
        <ele>1701</ele>
        <time>0001-01-01T09:45:00Z</time>
      </trkpt>
      <trkpt lat="45.21028" lon="6.12565">
        <ele>1701</ele>
        <time>0001-01-01T09:45:00Z</time>
      </trkpt>
      <trkpt lat="45.21032" lon="6.12578">
        <ele>1701</ele>
        <time>0001-01-01T09:45:00Z</time>
      </trkpt>
      <trkpt lat="45.2104" lon="6.126">
        <ele>1701</ele>
        <time>0001-01-01T09:45:00Z</time>
      </trkpt>
      <trkpt lat="45.2105" lon="6.1262">
        <ele>1771</ele>
        <time>0001-01-01T09:45:00Z</time>
      </trkpt>
      <trkpt lat="45.2106" lon="6.12641">
        <ele>1742</ele>
        <time>0001-01-01T09:45:00Z</time>
      </trkpt>
      <trkpt lat="45.21087" lon="6.12694">
        <ele>1742</ele>
        <time>0001-01-01T09:45:00Z</time>
      </trkpt>
      <trkpt lat="45.21105" lon="6.12729">
        <ele>1714</ele>
        <time>0001-01-01T09:45:00Z</time>
      </trkpt>
      <trkpt lat="45.2111" lon="6.12737">
        <ele>1714</ele>
        <time>0001-01-01T09:45:00Z</time>
      </trkpt>
      <trkpt lat="45.21121" lon="6.12748">
        <ele>1714</ele>
        <time>0001-01-01T09:45:00Z</time>
      </trkpt>
      <trkpt lat="45.21128" lon="6.12755">
        <ele>1755</ele>
        <time>0001-01-01T09:45:00Z</time>
      </trkpt>
      <trkpt lat="45.21137" lon="6.1276">
        <ele>1755</ele>
        <time>0001-01-01T09:45:00Z</time>
      </trkpt>
      <trkpt lat="45.21146" lon="6.12762">
        <ele>1755</ele>
        <time>0001-01-01T09:45:00Z</time>
      </trkpt>
      <trkpt lat="45.21155" lon="6.12766">
        <ele>1755</ele>
        <time>0001-01-01T09:45:00Z</time>
      </trkpt>
      <trkpt lat="45.21166" lon="6.12771">
        <ele>1755</ele>
        <time>0001-01-01T09:45:00Z</time>
      </trkpt>
      <trkpt lat="45.21174" lon="6.12777">
        <ele>1755</ele>
        <time>0001-01-01T09:45:00Z</time>
      </trkpt>
      <trkpt lat="45.2118" lon="6.12784">
        <ele>1755</ele>
        <time>0001-01-01T09:45:00Z</time>
      </trkpt>
      <trkpt lat="45.21186" lon="6.12794">
        <ele>1722</ele>
        <time>0001-01-01T09:45:00Z</time>
      </trkpt>
      <trkpt lat="45.21192" lon="6.12804">
        <ele>1722</ele>
        <time>0001-01-01T09:45:00Z</time>
      </trkpt>
      <trkpt lat="45.21198" lon="6.12818">
        <ele>1722</ele>
        <time>0001-01-01T09:45:00Z</time>
      </trkpt>
      <trkpt lat="45.21212" lon="6.1285">
        <ele>1766</ele>
        <time>0001-01-01T09:45:00Z</time>
      </trkpt>
      <trkpt lat="45.21217" lon="6.12861">
        <ele>1766</ele>
        <time>0001-01-01T09:45:00Z</time>
      </trkpt>
      <trkpt lat="45.21226" lon="6.12873">
        <ele>1766</ele>
        <time>0001-01-01T09:45:00Z</time>
      </trkpt>
      <trkpt lat="45.21246" lon="6.12895">
        <ele>1743</ele>
        <time>0001-01-01T09:45:00Z</time>
      </trkpt>
      <trkpt lat="45.21269" lon="6.12923">
        <ele>1743</ele>
        <time>0001-01-01T09:45:00Z</time>
      </trkpt>
      <trkpt lat="45.21296" lon="6.12954">
        <ele>1783</ele>
        <time>0001-01-01T09:45:00Z</time>
      </trkpt>
      <trkpt lat="45.21319" lon="6.12978">
        <ele>1750</ele>
        <time>0001-01-01T09:45:00Z</time>
      </trkpt>
      <trkpt lat="45.21349" lon="6.13009">
        <ele>1750</ele>
        <time>0001-01-01T09:45:00Z</time>
      </trkpt>
      <trkpt lat="45.21373" lon="6.13032">
        <ele>1750</ele>
        <time>0001-01-01T09:45:00Z</time>
      </trkpt>
      <trkpt lat="45.21397" lon="6.13053">
        <ele>1751</ele>
        <time>0001-01-01T09:45:00Z</time>
      </trkpt>
      <trkpt lat="45.21406" lon="6.13064">
        <ele>1751</ele>
        <time>0001-01-01T09:45:00Z</time>
      </trkpt>
      <trkpt lat="45.21417" lon="6.13077">
        <ele>1751</ele>
        <time>0001-01-01T09:45:00Z</time>
      </trkpt>
      <trkpt lat="45.21435" lon="6.13102">
        <ele>1751</ele>
        <time>0001-01-01T09:45:00Z</time>
      </trkpt>
      <trkpt lat="45.21442" lon="6.1311">
        <ele>1751</ele>
        <time>0001-01-01T09:45:00Z</time>
      </trkpt>
      <trkpt lat="45.21451" lon="6.13116">
        <ele>1751</ele>
        <time>0001-01-01T09:45:00Z</time>
      </trkpt>
      <trkpt lat="45.21455" lon="6.13118">
        <ele>1751</ele>
        <time>0001-01-01T09:45:00Z</time>
      </trkpt>
      <trkpt lat="45.21475" lon="6.13127">
        <ele>1753</ele>
        <time>0001-01-01T09:45:00Z</time>
      </trkpt>
      <trkpt lat="45.21511" lon="6.13146">
        <ele>1753</ele>
        <time>0001-01-01T09:45:00Z</time>
      </trkpt>
      <trkpt lat="45.21537" lon="6.13159">
        <ele>1753</ele>
        <time>0001-01-01T09:45:00Z</time>
      </trkpt>
      <trkpt lat="45.21574" lon="6.13185">
        <ele>1780</ele>
        <time>0001-01-01T09:45:00Z</time>
      </trkpt>
      <trkpt lat="45.21651" lon="6.13241">
        <ele>1783</ele>
        <time>0001-01-01T09:45:00Z</time>
      </trkpt>
      <trkpt lat="45.21689" lon="6.13276">
        <ele>1783</ele>
        <time>0001-01-01T09:45:00Z</time>
      </trkpt>
      <trkpt lat="45.21698" lon="6.13285">
        <ele>1783</ele>
        <time>0001-01-01T09:45:00Z</time>
      </trkpt>
      <trkpt lat="45.21715" lon="6.13302">
        <ele>1777</ele>
        <time>0001-01-01T09:45:00Z</time>
      </trkpt>
      <trkpt lat="45.21726" lon="6.13314">
        <ele>1777</ele>
        <time>0001-01-01T09:45:00Z</time>
      </trkpt>
      <trkpt lat="45.21747" lon="6.13331">
        <ele>1777</ele>
        <time>0001-01-01T09:45:00Z</time>
      </trkpt>
      <trkpt lat="45.21783" lon="6.13357">
        <ele>1777</ele>
        <time>0001-01-01T09:45:00Z</time>
      </trkpt>
      <trkpt lat="45.21817" lon="6.13381">
        <ele>1775</ele>
        <time>0001-01-01T09:45:00Z</time>
      </trkpt>
      <trkpt lat="45.21845" lon="6.13403">
        <ele>1775</ele>
        <time>0001-01-01T09:45:00Z</time>
      </trkpt>
      <trkpt lat="45.21877" lon="6.13428">
        <ele>1815</ele>
        <time>0001-01-01T09:45:00Z</time>
      </trkpt>
      <trkpt lat="45.21907" lon="6.13455">
        <ele>1815</ele>
        <time>0001-01-01T09:45:00Z</time>
      </trkpt>
      <trkpt lat="45.21938" lon="6.13485">
        <ele>1772</ele>
        <time>0001-01-01T09:45:00Z</time>
      </trkpt>
      <trkpt lat="45.21969" lon="6.13514">
        <ele>1810</ele>
        <time>0001-01-01T09:45:00Z</time>
      </trkpt>
      <trkpt lat="45.21994" lon="6.13539">
        <ele>1810</ele>
        <time>0001-01-01T09:45:00Z</time>
      </trkpt>
      <trkpt lat="45.2201" lon="6.13553">
        <ele>1773</ele>
        <time>0001-01-01T09:45:00Z</time>
      </trkpt>
      <trkpt lat="45.22022" lon="6.13561">
        <ele>1773</ele>
        <time>0001-01-01T09:45:00Z</time>
      </trkpt>
      <trkpt lat="45.22038" lon="6.13568">
        <ele>1773</ele>
        <time>0001-01-01T09:45:00Z</time>
      </trkpt>
      <trkpt lat="45.2207" lon="6.13585">
        <ele>1805</ele>
        <time>0001-01-01T09:45:00Z</time>
      </trkpt>
      <trkpt lat="45.22096" lon="6.13602">
        <ele>1805</ele>
        <time>0001-01-01T09:45:00Z</time>
      </trkpt>
      <trkpt lat="45.22116" lon="6.1362">
        <ele>1805</ele>
        <time>0001-01-01T09:45:00Z</time>
      </trkpt>
      <trkpt lat="45.22131" lon="6.13634">
        <ele>1787</ele>
        <time>0001-01-01T09:45:00Z</time>
      </trkpt>
      <trkpt lat="45.22139" lon="6.13639">
        <ele>1787</ele>
        <time>0001-01-01T09:45:00Z</time>
      </trkpt>
      <trkpt lat="45.22155" lon="6.13648">
        <ele>1787</ele>
        <time>0001-01-01T09:45:00Z</time>
      </trkpt>
      <trkpt lat="45.22185" lon="6.13667">
        <ele>1787</ele>
        <time>0001-01-01T09:45:00Z</time>
      </trkpt>
      <trkpt lat="45.222" lon="6.13675">
        <ele>1787</ele>
        <time>0001-01-01T09:45:00Z</time>
      </trkpt>
      <trkpt lat="45.22206" lon="6.1368">
        <ele>1787</ele>
        <time>0001-01-01T09:45:00Z</time>
      </trkpt>
      <trkpt lat="45.22217" lon="6.13691">
        <ele>1814</ele>
        <time>0001-01-01T09:45:00Z</time>
      </trkpt>
      <trkpt lat="45.22225" lon="6.13702">
        <ele>1814</ele>
        <time>0001-01-01T09:45:00Z</time>
      </trkpt>
      <trkpt lat="45.22233" lon="6.13717">
        <ele>1787</ele>
        <time>0001-01-01T09:45:00Z</time>
      </trkpt>
      <trkpt lat="45.22242" lon="6.13737">
        <ele>1787</ele>
        <time>0001-01-01T09:45:00Z</time>
      </trkpt>
      <trkpt lat="45.22258" lon="6.13776">
        <ele>1787</ele>
        <time>0001-01-01T09:45:00Z</time>
      </trkpt>
      <trkpt lat="45.22271" lon="6.13811">
        <ele>1766</ele>
        <time>0001-01-01T09:45:00Z</time>
      </trkpt>
      <trkpt lat="45.22281" lon="6.13834">
        <ele>1766</ele>
        <time>0001-01-01T09:45:00Z</time>
      </trkpt>
      <trkpt lat="45.22286" lon="6.13846">
        <ele>1766</ele>
        <time>0001-01-01T09:45:00Z</time>
      </trkpt>
      <trkpt lat="45.22293" lon="6.13858">
        <ele>1785</ele>
        <time>0001-01-01T09:45:00Z</time>
      </trkpt>
      <trkpt lat="45.22298" lon="6.13864">
        <ele>1785</ele>
        <time>0001-01-01T09:45:00Z</time>
      </trkpt>
      <trkpt lat="45.22303" lon="6.1387">
        <ele>1785</ele>
        <time>0001-01-01T09:45:00Z</time>
      </trkpt>
      <trkpt lat="45.22309" lon="6.13874">
        <ele>1785</ele>
        <time>0001-01-01T09:45:00Z</time>
      </trkpt>
      <trkpt lat="45.22314" lon="6.13878">
        <ele>1762</ele>
        <time>0001-01-01T09:45:00Z</time>
      </trkpt>
      <trkpt lat="45.22318" lon="6.1388">
        <ele>1762</ele>
        <time>0001-01-01T09:45:00Z</time>
      </trkpt>
      <trkpt lat="45.22322" lon="6.13881">
        <ele>1762</ele>
        <time>0001-01-01T09:45:00Z</time>
      </trkpt>
      <trkpt lat="45.22329" lon="6.13882">
        <ele>1762</ele>
        <time>0001-01-01T09:45:00Z</time>
      </trkpt>
      <trkpt lat="45.22335" lon="6.13883">
        <ele>1762</ele>
        <time>0001-01-01T09:45:00Z</time>
      </trkpt>
      <trkpt lat="45.22341" lon="6.13882">
        <ele>1762</ele>
        <time>0001-01-01T09:45:00Z</time>
      </trkpt>
      <trkpt lat="45.22348" lon="6.13881">
        <ele>1762</ele>
        <time>0001-01-01T09:45:00Z</time>
      </trkpt>
      <trkpt lat="45.22354" lon="6.13879">
        <ele>1762</ele>
        <time>0001-01-01T09:45:00Z</time>
      </trkpt>
      <trkpt lat="45.22368" lon="6.1387">
        <ele>1785</ele>
        <time>0001-01-01T09:45:00Z</time>
      </trkpt>
      <trkpt lat="45.22384" lon="6.1386">
        <ele>1778</ele>
        <time>0001-01-01T09:45:00Z</time>
      </trkpt>
      <trkpt lat="45.22388" lon="6.13858">
        <ele>1778</ele>
        <time>0001-01-01T09:45:00Z</time>
      </trkpt>
      <trkpt lat="45.22394" lon="6.13856">
        <ele>1778</ele>
        <time>0001-01-01T09:45:00Z</time>
      </trkpt>
      <trkpt lat="45.22397" lon="6.13856">
        <ele>1778</ele>
        <time>0001-01-01T09:45:00Z</time>
      </trkpt>
      <trkpt lat="45.22402" lon="6.13856">
        <ele>1778</ele>
        <time>0001-01-01T09:45:00Z</time>
      </trkpt>
      <trkpt lat="45.22408" lon="6.13857">
        <ele>1778</ele>
        <time>0001-01-01T09:45:00Z</time>
      </trkpt>
      <trkpt lat="45.22413" lon="6.13859">
        <ele>1778</ele>
        <time>0001-01-01T09:45:00Z</time>
      </trkpt>
      <trkpt lat="45.22417" lon="6.13862">
        <ele>1778</ele>
        <time>0001-01-01T09:45:00Z</time>
      </trkpt>
      <trkpt lat="45.22421" lon="6.13866">
        <ele>1778</ele>
        <time>0001-01-01T09:45:00Z</time>
      </trkpt>
      <trkpt lat="45.22426" lon="6.13871">
        <ele>1778</ele>
        <time>0001-01-01T09:45:00Z</time>
      </trkpt>
      <trkpt lat="45.22432" lon="6.13882">
        <ele>1763</ele>
        <time>0001-01-01T09:45:00Z</time>
      </trkpt>
      <trkpt lat="45.22432" lon="6.13884">
        <ele>1763</ele>
        <time>0001-01-01T09:45:00Z</time>
      </trkpt>
      <trkpt lat="45.22438" lon="6.13896">
        <ele>1763</ele>
        <time>0001-01-01T09:45:00Z</time>
      </trkpt>
      <trkpt lat="45.22443" lon="6.13908">
        <ele>1763</ele>
        <time>0001-01-01T09:45:00Z</time>
      </trkpt>
      <trkpt lat="45.2245" lon="6.13924">
        <ele>1763</ele>
        <time>0001-01-01T09:45:00Z</time>
      </trkpt>
      <trkpt lat="45.2248" lon="6.13991">
        <ele>1777</ele>
        <time>0001-01-01T09:45:00Z</time>
      </trkpt>
      <trkpt lat="45.22495" lon="6.14036">
        <ele>1777</ele>
        <time>0001-01-01T09:45:00Z</time>
      </trkpt>
      <trkpt lat="45.22503" lon="6.14077">
        <ele>1767</ele>
        <time>0001-01-01T09:45:00Z</time>
      </trkpt>
      <trkpt lat="45.22513" lon="6.14131">
        <ele>1755</ele>
        <time>0001-01-01T09:45:00Z</time>
      </trkpt>
      <trkpt lat="45.22521" lon="6.14164">
        <ele>1755</ele>
        <time>0001-01-01T09:45:00Z</time>
      </trkpt>
      <trkpt lat="45.22536" lon="6.14208">
        <ele>1755</ele>
        <time>0001-01-01T09:45:00Z</time>
      </trkpt>
      <trkpt lat="45.22558" lon="6.14263">
        <ele>1769</ele>
        <time>0001-01-01T09:45:00Z</time>
      </trkpt>
      <trkpt lat="45.22569" lon="6.14289">
        <ele>1769</ele>
        <time>0001-01-01T09:45:00Z</time>
      </trkpt>
      <trkpt lat="45.22579" lon="6.14316">
        <ele>1757</ele>
        <time>0001-01-01T09:45:00Z</time>
      </trkpt>
      <trkpt lat="45.22595" lon="6.14357">
        <ele>1757</ele>
        <time>0001-01-01T09:45:00Z</time>
      </trkpt>
      <trkpt lat="45.22608" lon="6.14397">
        <ele>1743</ele>
        <time>0001-01-01T09:45:00Z</time>
      </trkpt>
      <trkpt lat="45.22614" lon="6.14421">
        <ele>1743</ele>
        <time>0001-01-01T09:45:00Z</time>
      </trkpt>
      <trkpt lat="45.2262" lon="6.14438">
        <ele>1743</ele>
        <time>0001-01-01T09:45:00Z</time>
      </trkpt>
      <trkpt lat="45.22627" lon="6.14456">
        <ele>1775</ele>
        <time>0001-01-01T09:45:00Z</time>
      </trkpt>
      <trkpt lat="45.22628" lon="6.1446">
        <ele>1765</ele>
        <time>0001-01-01T09:45:00Z</time>
      </trkpt>
      <trkpt lat="45.22641" lon="6.14497">
        <ele>1765</ele>
        <time>0001-01-01T09:45:00Z</time>
      </trkpt>
      <trkpt lat="45.22648" lon="6.14526">
        <ele>1765</ele>
        <time>0001-01-01T09:45:00Z</time>
      </trkpt>
      <trkpt lat="45.22653" lon="6.14558">
        <ele>1752</ele>
        <time>0001-01-01T09:45:00Z</time>
      </trkpt>
      <trkpt lat="45.22658" lon="6.14604">
        <ele>1752</ele>
        <time>0001-01-01T09:45:00Z</time>
      </trkpt>
      <trkpt lat="45.22663" lon="6.14672">
        <ele>1745</ele>
        <time>0001-01-01T09:45:00Z</time>
      </trkpt>
      <trkpt lat="45.22667" lon="6.14718">
        <ele>1740</ele>
        <time>0001-01-01T09:45:00Z</time>
      </trkpt>
      <trkpt lat="45.22668" lon="6.14733">
        <ele>1740</ele>
        <time>0001-01-01T09:45:00Z</time>
      </trkpt>
      <trkpt lat="45.22669" lon="6.14748">
        <ele>1740</ele>
        <time>0001-01-01T09:45:00Z</time>
      </trkpt>
      <trkpt lat="45.22671" lon="6.14768">
        <ele>1740</ele>
        <time>0001-01-01T09:45:00Z</time>
      </trkpt>
      <trkpt lat="45.22671" lon="6.14797">
        <ele>1735</ele>
        <time>0001-01-01T09:45:00Z</time>
      </trkpt>
      <trkpt lat="45.2267" lon="6.14829">
        <ele>1735</ele>
        <time>0001-01-01T09:45:00Z</time>
      </trkpt>
      <trkpt lat="45.22668" lon="6.14855">
        <ele>1735</ele>
        <time>0001-01-01T09:45:00Z</time>
      </trkpt>
      <trkpt lat="45.22667" lon="6.14871">
        <ele>1735</ele>
        <time>0001-01-01T09:45:00Z</time>
      </trkpt>
      <trkpt lat="45.22667" lon="6.14885">
        <ele>1728</ele>
        <time>0001-01-01T09:45:00Z</time>
      </trkpt>
      <trkpt lat="45.2267" lon="6.14901">
        <ele>1728</ele>
        <time>0001-01-01T09:45:00Z</time>
      </trkpt>
      <trkpt lat="45.22674" lon="6.14915">
        <ele>1728</ele>
        <time>0001-01-01T09:45:00Z</time>
      </trkpt>
      <trkpt lat="45.22683" lon="6.14935">
        <ele>1728</ele>
        <time>0001-01-01T09:45:00Z</time>
      </trkpt>
      <trkpt lat="45.22698" lon="6.14953">
        <ele>1728</ele>
        <time>0001-01-01T09:45:00Z</time>
      </trkpt>
      <trkpt lat="45.22717" lon="6.14974">
        <ele>1739</ele>
        <time>0001-01-01T09:45:00Z</time>
      </trkpt>
      <trkpt lat="45.22726" lon="6.1499">
        <ele>1739</ele>
        <time>0001-01-01T09:45:00Z</time>
      </trkpt>
      <trkpt lat="45.22734" lon="6.15008">
        <ele>1739</ele>
        <time>0001-01-01T09:45:00Z</time>
      </trkpt>
      <trkpt lat="45.22737" lon="6.15024">
        <ele>1739</ele>
        <time>0001-01-01T09:45:00Z</time>
      </trkpt>
      <trkpt lat="45.22739" lon="6.15049">
        <ele>1727</ele>
        <time>0001-01-01T09:45:00Z</time>
      </trkpt>
      <trkpt lat="45.22742" lon="6.15074">
        <ele>1727</ele>
        <time>0001-01-01T09:45:00Z</time>
      </trkpt>
      <trkpt lat="45.22744" lon="6.15098">
        <ele>1727</ele>
        <time>0001-01-01T09:45:00Z</time>
      </trkpt>
      <trkpt lat="45.22748" lon="6.15116">
        <ele>1727</ele>
        <time>0001-01-01T09:45:00Z</time>
      </trkpt>
      <trkpt lat="45.22757" lon="6.15129">
        <ele>1721</ele>
        <time>0001-01-01T09:45:00Z</time>
      </trkpt>
      <trkpt lat="45.22766" lon="6.15139">
        <ele>1721</ele>
        <time>0001-01-01T09:45:00Z</time>
      </trkpt>
      <trkpt lat="45.22778" lon="6.15152">
        <ele>1721</ele>
        <time>0001-01-01T09:45:00Z</time>
      </trkpt>
      <trkpt lat="45.22785" lon="6.15162">
        <ele>1721</ele>
        <time>0001-01-01T09:45:00Z</time>
      </trkpt>
      <trkpt lat="45.22792" lon="6.15179">
        <ele>1749</ele>
        <time>0001-01-01T09:45:00Z</time>
      </trkpt>
      <trkpt lat="45.22795" lon="6.15203">
        <ele>1749</ele>
        <time>0001-01-01T09:45:00Z</time>
      </trkpt>
      <trkpt lat="45.22799" lon="6.15229">
        <ele>1739</ele>
        <time>0001-01-01T09:45:00Z</time>
      </trkpt>
      <trkpt lat="45.22803" lon="6.15247">
        <ele>1739</ele>
        <time>0001-01-01T09:45:00Z</time>
      </trkpt>
      <trkpt lat="45.2281" lon="6.15265">
        <ele>1739</ele>
        <time>0001-01-01T09:45:00Z</time>
      </trkpt>
      <trkpt lat="45.22818" lon="6.15283">
        <ele>1739</ele>
        <time>0001-01-01T09:45:00Z</time>
      </trkpt>
      <trkpt lat="45.22823" lon="6.15295">
        <ele>1728</ele>
        <time>0001-01-01T09:45:00Z</time>
      </trkpt>
      <trkpt lat="45.2283" lon="6.1531">
        <ele>1728</ele>
        <time>0001-01-01T09:45:00Z</time>
      </trkpt>
      <trkpt lat="45.22839" lon="6.15343">
        <ele>1728</ele>
        <time>0001-01-01T09:45:00Z</time>
      </trkpt>
      <trkpt lat="45.22849" lon="6.15383">
        <ele>1731</ele>
        <time>0001-01-01T09:45:00Z</time>
      </trkpt>
      <trkpt lat="45.22857" lon="6.15412">
        <ele>1731</ele>
        <time>0001-01-01T09:45:00Z</time>
      </trkpt>
      <trkpt lat="45.22858" lon="6.15424">
        <ele>1731</ele>
        <time>0001-01-01T09:45:00Z</time>
      </trkpt>
      <trkpt lat="45.22857" lon="6.15434">
        <ele>1731</ele>
        <time>0001-01-01T09:45:00Z</time>
      </trkpt>
      <trkpt lat="45.22854" lon="6.15444">
        <ele>1731</ele>
        <time>0001-01-01T09:45:00Z</time>
      </trkpt>
      <trkpt lat="45.2285" lon="6.15458">
        <ele>1731</ele>
        <time>0001-01-01T09:45:00Z</time>
      </trkpt>
      <trkpt lat="45.22849" lon="6.15469">
        <ele>1734</ele>
        <time>0001-01-01T09:45:00Z</time>
      </trkpt>
      <trkpt lat="45.22846" lon="6.15481">
        <ele>1734</ele>
        <time>0001-01-01T09:45:00Z</time>
      </trkpt>
      <trkpt lat="45.22844" lon="6.15506">
        <ele>1734</ele>
        <time>0001-01-01T09:45:00Z</time>
      </trkpt>
      <trkpt lat="45.22845" lon="6.15523">
        <ele>1734</ele>
        <time>0001-01-01T09:45:00Z</time>
      </trkpt>
      <trkpt lat="45.2285" lon="6.1554">
        <ele>1734</ele>
        <time>0001-01-01T09:45:00Z</time>
      </trkpt>
      <trkpt lat="45.22859" lon="6.15556">
        <ele>1735</ele>
        <time>0001-01-01T09:45:00Z</time>
      </trkpt>
      <trkpt lat="45.22872" lon="6.15583">
        <ele>1735</ele>
        <time>0001-01-01T09:45:00Z</time>
      </trkpt>
      <trkpt lat="45.22885" lon="6.15612">
        <ele>1756</ele>
        <time>0001-01-01T09:45:00Z</time>
      </trkpt>
      <trkpt lat="45.22905" lon="6.15646">
        <ele>1752</ele>
        <time>0001-01-01T09:45:00Z</time>
      </trkpt>
      <trkpt lat="45.22927" lon="6.15683">
        <ele>1752</ele>
        <time>0001-01-01T09:45:00Z</time>
      </trkpt>
      <trkpt lat="45.22946" lon="6.15712">
        <ele>1747</ele>
        <time>0001-01-01T09:45:00Z</time>
      </trkpt>
      <trkpt lat="45.22961" lon="6.15734">
        <ele>1772</ele>
        <time>0001-01-01T09:45:00Z</time>
      </trkpt>
      <trkpt lat="45.22968" lon="6.15756">
        <ele>1772</ele>
        <time>0001-01-01T09:45:00Z</time>
      </trkpt>
      <trkpt lat="45.22973" lon="6.15773">
        <ele>1772</ele>
        <time>0001-01-01T09:45:00Z</time>
      </trkpt>
      <trkpt lat="45.22976" lon="6.15796">
        <ele>1765</ele>
        <time>0001-01-01T09:45:00Z</time>
      </trkpt>
      <trkpt lat="45.22977" lon="6.15806">
        <ele>1765</ele>
        <time>0001-01-01T09:45:00Z</time>
      </trkpt>
      <trkpt lat="45.22984" lon="6.15832">
        <ele>1765</ele>
        <time>0001-01-01T09:45:00Z</time>
      </trkpt>
      <trkpt lat="45.22993" lon="6.15854">
        <ele>1765</ele>
        <time>0001-01-01T09:45:00Z</time>
      </trkpt>
      <trkpt lat="45.23001" lon="6.15879">
        <ele>1762</ele>
        <time>0001-01-01T09:45:00Z</time>
      </trkpt>
      <trkpt lat="45.23009" lon="6.15905">
        <ele>1762</ele>
        <time>0001-01-01T09:45:00Z</time>
      </trkpt>
      <trkpt lat="45.23012" lon="6.15912">
        <ele>1762</ele>
        <time>0001-01-01T09:45:00Z</time>
      </trkpt>
      <trkpt lat="45.23018" lon="6.15922">
        <ele>1762</ele>
        <time>0001-01-01T09:45:00Z</time>
      </trkpt>
      <trkpt lat="45.23032" lon="6.15934">
        <ele>1762</ele>
        <time>0001-01-01T09:45:00Z</time>
      </trkpt>
      <trkpt lat="45.23048" lon="6.15949">
        <ele>1782</ele>
        <time>0001-01-01T09:45:00Z</time>
      </trkpt>
      <trkpt lat="45.23056" lon="6.15955">
        <ele>1782</ele>
        <time>0001-01-01T09:45:00Z</time>
      </trkpt>
      <trkpt lat="45.23063" lon="6.15968">
        <ele>1774</ele>
        <time>0001-01-01T09:45:00Z</time>
      </trkpt>
      <trkpt lat="45.23071" lon="6.15984">
        <ele>1774</ele>
        <time>0001-01-01T09:45:00Z</time>
      </trkpt>
      <trkpt lat="45.23079" lon="6.16002">
        <ele>1774</ele>
        <time>0001-01-01T09:45:00Z</time>
      </trkpt>
      <trkpt lat="45.23091" lon="6.16025">
        <ele>1774</ele>
        <time>0001-01-01T09:45:00Z</time>
      </trkpt>
      <trkpt lat="45.23104" lon="6.16044">
        <ele>1770</ele>
        <time>0001-01-01T09:45:00Z</time>
      </trkpt>
      <trkpt lat="45.23115" lon="6.16061">
        <ele>1770</ele>
        <time>0001-01-01T09:45:00Z</time>
      </trkpt>
      <trkpt lat="45.23119" lon="6.16074">
        <ele>1770</ele>
        <time>0001-01-01T09:45:00Z</time>
      </trkpt>
      <trkpt lat="45.23122" lon="6.16085">
        <ele>1770</ele>
        <time>0001-01-01T09:45:00Z</time>
      </trkpt>
      <trkpt lat="45.23126" lon="6.16094">
        <ele>1800</ele>
        <time>0001-01-01T09:45:00Z</time>
      </trkpt>
      <trkpt lat="45.23129" lon="6.16103">
        <ele>1800</ele>
        <time>0001-01-01T09:45:00Z</time>
      </trkpt>
      <trkpt lat="45.23138" lon="6.16117">
        <ele>1800</ele>
        <time>0001-01-01T09:45:00Z</time>
      </trkpt>
      <trkpt lat="45.23144" lon="6.16121">
        <ele>1800</ele>
        <time>0001-01-01T09:45:00Z</time>
      </trkpt>
      <trkpt lat="45.23159" lon="6.16135">
        <ele>1785</ele>
        <time>0001-01-01T09:45:00Z</time>
      </trkpt>
      <trkpt lat="45.23169" lon="6.16152">
        <ele>1785</ele>
        <time>0001-01-01T09:45:00Z</time>
      </trkpt>
      <trkpt lat="45.2318" lon="6.16183">
        <ele>1785</ele>
        <time>0001-01-01T09:45:00Z</time>
      </trkpt>
      <trkpt lat="45.2319" lon="6.16207">
        <ele>1785</ele>
        <time>0001-01-01T09:45:00Z</time>
      </trkpt>
      <trkpt lat="45.23192" lon="6.16217">
        <ele>1785</ele>
        <time>0001-01-01T09:45:00Z</time>
      </trkpt>
      <trkpt lat="45.23195" lon="6.16233">
        <ele>1785</ele>
        <time>0001-01-01T09:45:00Z</time>
      </trkpt>
      <trkpt lat="45.23202" lon="6.16279">
        <ele>1785</ele>
        <time>0001-01-01T09:45:00Z</time>
      </trkpt>
      <trkpt lat="45.23203" lon="6.16284">
        <ele>1785</ele>
        <time>0001-01-01T09:45:00Z</time>
      </trkpt>
      <trkpt lat="45.2321" lon="6.16321">
        <ele>1813</ele>
        <time>0001-01-01T09:45:00Z</time>
      </trkpt>
      <trkpt lat="45.23215" lon="6.16353">
        <ele>1813</ele>
        <time>0001-01-01T09:45:00Z</time>
      </trkpt>
      <trkpt lat="45.23223" lon="6.16388">
        <ele>1808</ele>
        <time>0001-01-01T09:45:00Z</time>
      </trkpt>
      <trkpt lat="45.23232" lon="6.16422">
        <ele>1808</ele>
        <time>0001-01-01T09:45:00Z</time>
      </trkpt>
      <trkpt lat="45.23246" lon="6.16464">
        <ele>1804</ele>
        <time>0001-01-01T09:45:00Z</time>
      </trkpt>
      <trkpt lat="45.23256" lon="6.16496">
        <ele>1804</ele>
        <time>0001-01-01T09:45:00Z</time>
      </trkpt>
      <trkpt lat="45.23266" lon="6.16533">
        <ele>1804</ele>
        <time>0001-01-01T09:45:00Z</time>
      </trkpt>
      <trkpt lat="45.23272" lon="6.16564">
        <ele>1801</ele>
        <time>0001-01-01T09:45:00Z</time>
      </trkpt>
      <trkpt lat="45.2328" lon="6.1659">
        <ele>1801</ele>
        <time>0001-01-01T09:45:00Z</time>
      </trkpt>
      <trkpt lat="45.23291" lon="6.16619">
        <ele>1801</ele>
        <time>0001-01-01T09:45:00Z</time>
      </trkpt>
      <trkpt lat="45.233" lon="6.16641">
        <ele>1828</ele>
        <time>0001-01-01T09:45:00Z</time>
      </trkpt>
      <trkpt lat="45.23303" lon="6.16653">
        <ele>1828</ele>
        <time>0001-01-01T09:45:00Z</time>
      </trkpt>
      <trkpt lat="45.23304" lon="6.16669">
        <ele>1828</ele>
        <time>0001-01-01T09:45:00Z</time>
      </trkpt>
      <trkpt lat="45.23307" lon="6.16696">
        <ele>1828</ele>
        <time>0001-01-01T09:45:00Z</time>
      </trkpt>
      <trkpt lat="45.23313" lon="6.1672">
        <ele>1827</ele>
        <time>0001-01-01T09:45:00Z</time>
      </trkpt>
      <trkpt lat="45.23319" lon="6.16741">
        <ele>1827</ele>
        <time>0001-01-01T09:45:00Z</time>
      </trkpt>
      <trkpt lat="45.23326" lon="6.16767">
        <ele>1827</ele>
        <time>0001-01-01T09:45:00Z</time>
      </trkpt>
      <trkpt lat="45.23332" lon="6.16779">
        <ele>1827</ele>
        <time>0001-01-01T09:45:00Z</time>
      </trkpt>
      <trkpt lat="45.23337" lon="6.1679">
        <ele>1827</ele>
        <time>0001-01-01T09:45:00Z</time>
      </trkpt>
      <trkpt lat="45.23344" lon="6.16806">
        <ele>1823</ele>
        <time>0001-01-01T09:45:00Z</time>
      </trkpt>
      <trkpt lat="45.23349" lon="6.16821">
        <ele>1823</ele>
        <time>0001-01-01T09:45:00Z</time>
      </trkpt>
      <trkpt lat="45.23352" lon="6.16838">
        <ele>1823</ele>
        <time>0001-01-01T09:45:00Z</time>
      </trkpt>
      <trkpt lat="45.23354" lon="6.16853">
        <ele>1823</ele>
        <time>0001-01-01T09:45:00Z</time>
      </trkpt>
      <trkpt lat="45.23356" lon="6.16865">
        <ele>1823</ele>
        <time>0001-01-01T09:45:00Z</time>
      </trkpt>
      <trkpt lat="45.23359" lon="6.16877">
        <ele>1820</ele>
        <time>0001-01-01T09:45:00Z</time>
      </trkpt>
      <trkpt lat="45.23362" lon="6.16887">
        <ele>1820</ele>
        <time>0001-01-01T09:45:00Z</time>
      </trkpt>
      <trkpt lat="45.23373" lon="6.16914">
        <ele>1820</ele>
        <time>0001-01-01T09:45:00Z</time>
      </trkpt>
      <trkpt lat="45.2338" lon="6.16933">
        <ele>1841</ele>
        <time>0001-01-01T09:45:00Z</time>
      </trkpt>
      <trkpt lat="45.23391" lon="6.16952">
        <ele>1841</ele>
        <time>0001-01-01T09:45:00Z</time>
      </trkpt>
      <trkpt lat="45.23404" lon="6.16972">
        <ele>1838</ele>
        <time>0001-01-01T09:45:00Z</time>
      </trkpt>
      <trkpt lat="45.23411" lon="6.16989">
        <ele>1838</ele>
        <time>0001-01-01T09:45:00Z</time>
      </trkpt>
      <trkpt lat="45.23416" lon="6.17007">
        <ele>1838</ele>
        <time>0001-01-01T09:45:00Z</time>
      </trkpt>
      <trkpt lat="45.23421" lon="6.17029">
        <ele>1838</ele>
        <time>0001-01-01T09:45:00Z</time>
      </trkpt>
      <trkpt lat="45.23429" lon="6.17062">
        <ele>1835</ele>
        <time>0001-01-01T09:45:00Z</time>
      </trkpt>
      <trkpt lat="45.23437" lon="6.17091">
        <ele>1835</ele>
        <time>0001-01-01T09:45:00Z</time>
      </trkpt>
      <trkpt lat="45.23444" lon="6.1711">
        <ele>1835</ele>
        <time>0001-01-01T09:45:00Z</time>
      </trkpt>
      <trkpt lat="45.23454" lon="6.17134">
        <ele>1831</ele>
        <time>0001-01-01T09:45:00Z</time>
      </trkpt>
      <trkpt lat="45.2347" lon="6.17168">
        <ele>1853</ele>
        <time>0001-01-01T09:45:00Z</time>
      </trkpt>
      <trkpt lat="45.23479" lon="6.1719">
        <ele>1853</ele>
        <time>0001-01-01T09:45:00Z</time>
      </trkpt>
      <trkpt lat="45.23485" lon="6.172">
        <ele>1853</ele>
        <time>0001-01-01T09:45:00Z</time>
      </trkpt>
      <trkpt lat="45.23493" lon="6.17211">
        <ele>1847</ele>
        <time>0001-01-01T09:45:00Z</time>
      </trkpt>
      <trkpt lat="45.23501" lon="6.17218">
        <ele>1847</ele>
        <time>0001-01-01T09:45:00Z</time>
      </trkpt>
      <trkpt lat="45.23519" lon="6.17226">
        <ele>1847</ele>
        <time>0001-01-01T09:45:00Z</time>
      </trkpt>
      <trkpt lat="45.23538" lon="6.17236">
        <ele>1847</ele>
        <time>0001-01-01T09:45:00Z</time>
      </trkpt>
      <trkpt lat="45.2355" lon="6.17246">
        <ele>1864</ele>
        <time>0001-01-01T09:45:00Z</time>
      </trkpt>
      <trkpt lat="45.23558" lon="6.17253">
        <ele>1864</ele>
        <time>0001-01-01T09:45:00Z</time>
      </trkpt>
      <trkpt lat="45.23565" lon="6.17262">
        <ele>1864</ele>
        <time>0001-01-01T09:45:00Z</time>
      </trkpt>
      <trkpt lat="45.23572" lon="6.17275">
        <ele>1864</ele>
        <time>0001-01-01T09:45:00Z</time>
      </trkpt>
      <trkpt lat="45.2358" lon="6.17288">
        <ele>1864</ele>
        <time>0001-01-01T09:45:00Z</time>
      </trkpt>
      <trkpt lat="45.23589" lon="6.17312">
        <ele>1860</ele>
        <time>0001-01-01T09:45:00Z</time>
      </trkpt>
      <trkpt lat="45.23596" lon="6.17326">
        <ele>1860</ele>
        <time>0001-01-01T09:45:00Z</time>
      </trkpt>
      <trkpt lat="45.23602" lon="6.17336">
        <ele>1860</ele>
        <time>0001-01-01T09:45:00Z</time>
      </trkpt>
      <trkpt lat="45.2361" lon="6.17344">
        <ele>1860</ele>
        <time>0001-01-01T09:45:00Z</time>
      </trkpt>
      <trkpt lat="45.23622" lon="6.17353">
        <ele>1860</ele>
        <time>0001-01-01T09:45:00Z</time>
      </trkpt>
      <trkpt lat="45.23636" lon="6.17359">
        <ele>1879</ele>
        <time>0001-01-01T09:45:00Z</time>
      </trkpt>
      <trkpt lat="45.2364" lon="6.17366">
        <ele>1879</ele>
        <time>0001-01-01T09:45:00Z</time>
      </trkpt>
      <trkpt lat="45.23645" lon="6.17378">
        <ele>1876</ele>
        <time>0001-01-01T09:45:00Z</time>
      </trkpt>
      <trkpt lat="45.2365" lon="6.17397">
        <ele>1876</ele>
        <time>0001-01-01T09:45:00Z</time>
      </trkpt>
      <trkpt lat="45.23655" lon="6.17417">
        <ele>1876</ele>
        <time>0001-01-01T09:45:00Z</time>
      </trkpt>
      <trkpt lat="45.23661" lon="6.17434">
        <ele>1876</ele>
        <time>0001-01-01T09:45:00Z</time>
      </trkpt>
      <trkpt lat="45.23671" lon="6.17453">
        <ele>1876</ele>
        <time>0001-01-01T09:45:00Z</time>
      </trkpt>
      <trkpt lat="45.23681" lon="6.17466">
        <ele>1867</ele>
        <time>0001-01-01T09:45:00Z</time>
      </trkpt>
      <trkpt lat="45.23692" lon="6.17476">
        <ele>1867</ele>
        <time>0001-01-01T09:45:00Z</time>
      </trkpt>
      <trkpt lat="45.23704" lon="6.17479">
        <ele>1867</ele>
        <time>0001-01-01T09:45:00Z</time>
      </trkpt>
      <trkpt lat="45.23717" lon="6.17484">
        <ele>1887</ele>
        <time>0001-01-01T09:45:00Z</time>
      </trkpt>
      <trkpt lat="45.23726" lon="6.1749">
        <ele>1887</ele>
        <time>0001-01-01T09:45:00Z</time>
      </trkpt>
      <trkpt lat="45.23735" lon="6.175">
        <ele>1887</ele>
        <time>0001-01-01T09:45:00Z</time>
      </trkpt>
      <trkpt lat="45.23744" lon="6.17506">
        <ele>1887</ele>
        <time>0001-01-01T09:45:00Z</time>
      </trkpt>
      <trkpt lat="45.23753" lon="6.17512">
        <ele>1887</ele>
        <time>0001-01-01T09:45:00Z</time>
      </trkpt>
      <trkpt lat="45.23764" lon="6.17517">
        <ele>1887</ele>
        <time>0001-01-01T09:45:00Z</time>
      </trkpt>
      <trkpt lat="45.23788" lon="6.17524">
        <ele>1887</ele>
        <time>0001-01-01T09:45:00Z</time>
      </trkpt>
      <trkpt lat="45.23812" lon="6.17539">
        <ele>1907</ele>
        <time>0001-01-01T09:45:00Z</time>
      </trkpt>
      <trkpt lat="45.23816" lon="6.17542">
        <ele>1895</ele>
        <time>0001-01-01T09:45:00Z</time>
      </trkpt>
      <trkpt lat="45.23834" lon="6.17557">
        <ele>1895</ele>
        <time>0001-01-01T09:45:00Z</time>
      </trkpt>
      <trkpt lat="45.23843" lon="6.17569">
        <ele>1895</ele>
        <time>0001-01-01T09:45:00Z</time>
      </trkpt>
      <trkpt lat="45.23848" lon="6.17579">
        <ele>1895</ele>
        <time>0001-01-01T09:45:00Z</time>
      </trkpt>
      <trkpt lat="45.2385" lon="6.17588">
        <ele>1895</ele>
        <time>0001-01-01T09:45:00Z</time>
      </trkpt>
      <trkpt lat="45.23851" lon="6.176">
        <ele>1895</ele>
        <time>0001-01-01T09:45:00Z</time>
      </trkpt>
      <trkpt lat="45.2385" lon="6.1761">
        <ele>1895</ele>
        <time>0001-01-01T09:45:00Z</time>
      </trkpt>
      <trkpt lat="45.23851" lon="6.17636">
        <ele>1894</ele>
        <time>0001-01-01T09:45:00Z</time>
      </trkpt>
      <trkpt lat="45.23857" lon="6.17662">
        <ele>1894</ele>
        <time>0001-01-01T09:45:00Z</time>
      </trkpt>
      <trkpt lat="45.23863" lon="6.17685">
        <ele>1894</ele>
        <time>0001-01-01T09:45:00Z</time>
      </trkpt>
      <trkpt lat="45.2387" lon="6.17707">
        <ele>1894</ele>
        <time>0001-01-01T09:45:00Z</time>
      </trkpt>
      <trkpt lat="45.23873" lon="6.1772">
        <ele>1891</ele>
        <time>0001-01-01T09:45:00Z</time>
      </trkpt>
      <trkpt lat="45.23873" lon="6.17727">
        <ele>1891</ele>
        <time>0001-01-01T09:45:00Z</time>
      </trkpt>
      <trkpt lat="45.23874" lon="6.17738">
        <ele>1891</ele>
        <time>0001-01-01T09:45:00Z</time>
      </trkpt>
      <trkpt lat="45.23872" lon="6.17751">
        <ele>1891</ele>
        <time>0001-01-01T09:45:00Z</time>
      </trkpt>
      <trkpt lat="45.2387" lon="6.17769">
        <ele>1891</ele>
        <time>0001-01-01T09:45:00Z</time>
      </trkpt>
      <trkpt lat="45.23872" lon="6.17779">
        <ele>1891</ele>
        <time>0001-01-01T09:45:00Z</time>
      </trkpt>
      <trkpt lat="45.23874" lon="6.17786">
        <ele>1891</ele>
        <time>0001-01-01T09:45:00Z</time>
      </trkpt>
      <trkpt lat="45.23877" lon="6.17789">
        <ele>1930</ele>
        <time>0001-01-01T09:45:00Z</time>
      </trkpt>
      <trkpt lat="45.23879" lon="6.17788">
        <ele>1930</ele>
        <time>0001-01-01T09:45:00Z</time>
      </trkpt>
      <trkpt lat="45.23882" lon="6.17783">
        <ele>1930</ele>
        <time>0001-01-01T09:45:00Z</time>
      </trkpt>
      <trkpt lat="45.23888" lon="6.17773">
        <ele>1930</ele>
        <time>0001-01-01T09:45:00Z</time>
      </trkpt>
      <trkpt lat="45.23892" lon="6.17753">
        <ele>1930</ele>
        <time>0001-01-01T09:45:00Z</time>
      </trkpt>
      <trkpt lat="45.23898" lon="6.17733">
        <ele>1930</ele>
        <time>0001-01-01T09:45:00Z</time>
      </trkpt>
      <trkpt lat="45.239" lon="6.17709">
        <ele>1930</ele>
        <time>0001-01-01T09:45:00Z</time>
      </trkpt>
      <trkpt lat="45.23899" lon="6.17686">
        <ele>1920</ele>
        <time>0001-01-01T09:45:00Z</time>
      </trkpt>
      <trkpt lat="45.239" lon="6.17674">
        <ele>1920</ele>
        <time>0001-01-01T09:45:00Z</time>
      </trkpt>
      <trkpt lat="45.23902" lon="6.17664">
        <ele>1920</ele>
        <time>0001-01-01T09:45:00Z</time>
      </trkpt>
      <trkpt lat="45.23907" lon="6.17652">
        <ele>1920</ele>
        <time>0001-01-01T09:45:00Z</time>
      </trkpt>
      <trkpt lat="45.23919" lon="6.17635">
        <ele>1920</ele>
        <time>0001-01-01T09:45:00Z</time>
      </trkpt>
      <trkpt lat="45.2393" lon="6.17618">
        <ele>1917</ele>
        <time>0001-01-01T09:45:00Z</time>
      </trkpt>
      <trkpt lat="45.23937" lon="6.17601">
        <ele>1917</ele>
        <time>0001-01-01T09:45:00Z</time>
      </trkpt>
      <trkpt lat="45.23942" lon="6.17573">
        <ele>1917</ele>
        <time>0001-01-01T09:45:00Z</time>
      </trkpt>
      <trkpt lat="45.23945" lon="6.17564">
        <ele>1917</ele>
        <time>0001-01-01T09:45:00Z</time>
      </trkpt>
      <trkpt lat="45.23948" lon="6.17559">
        <ele>1917</ele>
        <time>0001-01-01T09:45:00Z</time>
      </trkpt>
      <trkpt lat="45.23957" lon="6.17556">
        <ele>1917</ele>
        <time>0001-01-01T09:45:00Z</time>
      </trkpt>
      <trkpt lat="45.23964" lon="6.17557">
        <ele>1918</ele>
        <time>0001-01-01T09:45:00Z</time>
      </trkpt>
      <trkpt lat="45.23977" lon="6.17557">
        <ele>1918</ele>
        <time>0001-01-01T09:45:00Z</time>
      </trkpt>
      <trkpt lat="45.23964" lon="6.17557">
        <ele>1918</ele>
        <time>0001-01-01T09:45:00Z</time>
      </trkpt>
      <trkpt lat="45.23957" lon="6.17556">
        <ele>1917</ele>
        <time>0001-01-01T09:45:00Z</time>
      </trkpt>
      <trkpt lat="45.23948" lon="6.17559">
        <ele>1917</ele>
        <time>0001-01-01T09:45:00Z</time>
      </trkpt>
      <trkpt lat="45.23945" lon="6.17564">
        <ele>1917</ele>
        <time>0001-01-01T09:45:00Z</time>
      </trkpt>
      <trkpt lat="45.23942" lon="6.17573">
        <ele>1917</ele>
        <time>0001-01-01T09:45:00Z</time>
      </trkpt>
      <trkpt lat="45.23937" lon="6.17601">
        <ele>1917</ele>
        <time>0001-01-01T09:45:00Z</time>
      </trkpt>
      <trkpt lat="45.2393" lon="6.17618">
        <ele>1917</ele>
        <time>0001-01-01T09:45:00Z</time>
      </trkpt>
      <trkpt lat="45.23919" lon="6.17635">
        <ele>1920</ele>
        <time>0001-01-01T09:45:00Z</time>
      </trkpt>
      <trkpt lat="45.23907" lon="6.17652">
        <ele>1920</ele>
        <time>0001-01-01T09:45:00Z</time>
      </trkpt>
      <trkpt lat="45.23902" lon="6.17664">
        <ele>1920</ele>
        <time>0001-01-01T09:45:00Z</time>
      </trkpt>
      <trkpt lat="45.239" lon="6.17674">
        <ele>1920</ele>
        <time>0001-01-01T09:45:00Z</time>
      </trkpt>
      <trkpt lat="45.23899" lon="6.17686">
        <ele>1920</ele>
        <time>0001-01-01T09:45:00Z</time>
      </trkpt>
      <trkpt lat="45.239" lon="6.17709">
        <ele>1930</ele>
        <time>0001-01-01T09:45:00Z</time>
      </trkpt>
      <trkpt lat="45.23898" lon="6.17733">
        <ele>1930</ele>
        <time>0001-01-01T09:45:00Z</time>
      </trkpt>
      <trkpt lat="45.23892" lon="6.17753">
        <ele>1930</ele>
        <time>0001-01-01T09:45:00Z</time>
      </trkpt>
      <trkpt lat="45.23888" lon="6.17773">
        <ele>1930</ele>
        <time>0001-01-01T09:45:00Z</time>
      </trkpt>
      <trkpt lat="45.23882" lon="6.17783">
        <ele>1930</ele>
        <time>0001-01-01T09:45:00Z</time>
      </trkpt>
      <trkpt lat="45.23879" lon="6.17788">
        <ele>1930</ele>
        <time>0001-01-01T09:45:00Z</time>
      </trkpt>
      <trkpt lat="45.23877" lon="6.17789">
        <ele>1930</ele>
        <time>0001-01-01T09:45:00Z</time>
      </trkpt>
      <trkpt lat="45.23878" lon="6.17801">
        <ele>1935</ele>
        <time>0001-01-01T09:45:00Z</time>
      </trkpt>
      <trkpt lat="45.2388" lon="6.17813">
        <ele>1935</ele>
        <time>0001-01-01T09:45:00Z</time>
      </trkpt>
      <trkpt lat="45.23881" lon="6.17832">
        <ele>1935</ele>
        <time>0001-01-01T09:45:00Z</time>
      </trkpt>
      <trkpt lat="45.23884" lon="6.17848">
        <ele>1935</ele>
        <time>0001-01-01T09:45:00Z</time>
      </trkpt>
      <trkpt lat="45.23888" lon="6.17867">
        <ele>1935</ele>
        <time>0001-01-01T09:45:00Z</time>
      </trkpt>
      <trkpt lat="45.23893" lon="6.17888">
        <ele>1932</ele>
        <time>0001-01-01T09:45:00Z</time>
      </trkpt>
      <trkpt lat="45.23897" lon="6.17911">
        <ele>1932</ele>
        <time>0001-01-01T09:45:00Z</time>
      </trkpt>
      <trkpt lat="45.23899" lon="6.17934">
        <ele>1932</ele>
        <time>0001-01-01T09:45:00Z</time>
      </trkpt>
      <trkpt lat="45.239" lon="6.17956">
        <ele>1932</ele>
        <time>0001-01-01T09:45:00Z</time>
      </trkpt>
      <trkpt lat="45.239" lon="6.17979">
        <ele>1930</ele>
        <time>0001-01-01T09:45:00Z</time>
      </trkpt>
      <trkpt lat="45.23902" lon="6.18005">
        <ele>1930</ele>
        <time>0001-01-01T09:45:00Z</time>
      </trkpt>
      <trkpt lat="45.23904" lon="6.18035">
        <ele>1930</ele>
        <time>0001-01-01T09:45:00Z</time>
      </trkpt>
      <trkpt lat="45.23909" lon="6.1806">
        <ele>1931</ele>
        <time>0001-01-01T09:45:00Z</time>
      </trkpt>
      <trkpt lat="45.23911" lon="6.18074">
        <ele>1931</ele>
        <time>0001-01-01T09:45:00Z</time>
      </trkpt>
      <trkpt lat="45.23911" lon="6.18085">
        <ele>1931</ele>
        <time>0001-01-01T09:45:00Z</time>
      </trkpt>
      <trkpt lat="45.23911" lon="6.18098">
        <ele>1931</ele>
        <time>0001-01-01T09:45:00Z</time>
      </trkpt>
      <trkpt lat="45.23909" lon="6.18108">
        <ele>1931</ele>
        <time>0001-01-01T09:45:00Z</time>
      </trkpt>
      <trkpt lat="45.23909" lon="6.18117">
        <ele>1931</ele>
        <time>0001-01-01T09:45:00Z</time>
      </trkpt>
      <trkpt lat="45.23909" lon="6.18131">
        <ele>1936</ele>
        <time>0001-01-01T09:45:00Z</time>
      </trkpt>
      <trkpt lat="45.2391" lon="6.18137">
        <ele>1936</ele>
        <time>0001-01-01T09:45:00Z</time>
      </trkpt>
      <trkpt lat="45.2391" lon="6.18152">
        <ele>1936</ele>
        <time>0001-01-01T09:45:00Z</time>
      </trkpt>
      <trkpt lat="45.23909" lon="6.18162">
        <ele>1936</ele>
        <time>0001-01-01T09:45:00Z</time>
      </trkpt>
      <trkpt lat="45.23905" lon="6.18178">
        <ele>1936</ele>
        <time>0001-01-01T09:45:00Z</time>
      </trkpt>
      <trkpt lat="45.23901" lon="6.1819">
        <ele>1936</ele>
        <time>0001-01-01T09:45:00Z</time>
      </trkpt>
      <trkpt lat="45.23896" lon="6.18216">
        <ele>1942</ele>
        <time>0001-01-01T09:45:00Z</time>
      </trkpt>
      <trkpt lat="45.23893" lon="6.18243">
        <ele>1942</ele>
        <time>0001-01-01T09:45:00Z</time>
      </trkpt>
      <trkpt lat="45.23893" lon="6.18277">
        <ele>1942</ele>
        <time>0001-01-01T09:45:00Z</time>
      </trkpt>
      <trkpt lat="45.23896" lon="6.18318">
        <ele>1945</ele>
        <time>0001-01-01T09:45:00Z</time>
      </trkpt>
      <trkpt lat="45.23897" lon="6.1834">
        <ele>1945</ele>
        <time>0001-01-01T09:45:00Z</time>
      </trkpt>
      <trkpt lat="45.23897" lon="6.18362">
        <ele>1945</ele>
        <time>0001-01-01T09:45:00Z</time>
      </trkpt>
      <trkpt lat="45.23893" lon="6.184">
        <ele>1947</ele>
        <time>0001-01-01T09:45:00Z</time>
      </trkpt>
      <trkpt lat="45.23889" lon="6.1842">
        <ele>1947</ele>
        <time>0001-01-01T09:45:00Z</time>
      </trkpt>
      <trkpt lat="45.23889" lon="6.18435">
        <ele>1947</ele>
        <time>0001-01-01T09:45:00Z</time>
      </trkpt>
      <trkpt lat="45.23892" lon="6.18451">
        <ele>1947</ele>
        <time>0001-01-01T09:45:00Z</time>
      </trkpt>
      <trkpt lat="45.239" lon="6.18469">
        <ele>1947</ele>
        <time>0001-01-01T09:45:00Z</time>
      </trkpt>
      <trkpt lat="45.23917" lon="6.18493">
        <ele>1947</ele>
        <time>0001-01-01T09:45:00Z</time>
      </trkpt>
      <trkpt lat="45.23925" lon="6.1851">
        <ele>1947</ele>
        <time>0001-01-01T09:45:00Z</time>
      </trkpt>
      <trkpt lat="45.23927" lon="6.18525">
        <ele>1947</ele>
        <time>0001-01-01T09:45:00Z</time>
      </trkpt>
      <trkpt lat="45.23926" lon="6.18541">
        <ele>1947</ele>
        <time>0001-01-01T09:45:00Z</time>
      </trkpt>
      <trkpt lat="45.23922" lon="6.18557">
        <ele>1956</ele>
        <time>0001-01-01T09:45:00Z</time>
      </trkpt>
      <trkpt lat="45.23915" lon="6.18565">
        <ele>1956</ele>
        <time>0001-01-01T09:45:00Z</time>
      </trkpt>
      <trkpt lat="45.23906" lon="6.18569">
        <ele>1956</ele>
        <time>0001-01-01T09:45:00Z</time>
      </trkpt>
      <trkpt lat="45.23896" lon="6.18572">
        <ele>1956</ele>
        <time>0001-01-01T09:45:00Z</time>
      </trkpt>
      <trkpt lat="45.23881" lon="6.18575">
        <ele>1956</ele>
        <time>0001-01-01T09:45:00Z</time>
      </trkpt>
      <trkpt lat="45.23868" lon="6.18586">
        <ele>1944</ele>
        <time>0001-01-01T09:45:00Z</time>
      </trkpt>
      <trkpt lat="45.23857" lon="6.18598">
        <ele>1944</ele>
        <time>0001-01-01T09:45:00Z</time>
      </trkpt>
      <trkpt lat="45.23845" lon="6.18615">
        <ele>1944</ele>
        <time>0001-01-01T09:45:00Z</time>
      </trkpt>
      <trkpt lat="45.2384" lon="6.18629">
        <ele>1959</ele>
        <time>0001-01-01T09:45:00Z</time>
      </trkpt>
      <trkpt lat="45.23831" lon="6.18652">
        <ele>1959</ele>
        <time>0001-01-01T09:45:00Z</time>
      </trkpt>
      <trkpt lat="45.23817" lon="6.18686">
        <ele>1959</ele>
        <time>0001-01-01T09:45:00Z</time>
      </trkpt>
      <trkpt lat="45.23805" lon="6.18718">
        <ele>1974</ele>
        <time>0001-01-01T09:45:00Z</time>
      </trkpt>
      <trkpt lat="45.23796" lon="6.18741">
        <ele>1974</ele>
        <time>0001-01-01T09:45:00Z</time>
      </trkpt>
      <trkpt lat="45.23787" lon="6.18761">
        <ele>1943</ele>
        <time>0001-01-01T09:45:00Z</time>
      </trkpt>
      <trkpt lat="45.23776" lon="6.18779">
        <ele>1943</ele>
        <time>0001-01-01T09:45:00Z</time>
      </trkpt>
      <trkpt lat="45.23767" lon="6.18801">
        <ele>1962</ele>
        <time>0001-01-01T09:45:00Z</time>
      </trkpt>
      <trkpt lat="45.23763" lon="6.18815">
        <ele>1962</ele>
        <time>0001-01-01T09:45:00Z</time>
      </trkpt>
      <trkpt lat="45.23761" lon="6.18826">
        <ele>1962</ele>
        <time>0001-01-01T09:45:00Z</time>
      </trkpt>
      <trkpt lat="45.23754" lon="6.18866">
        <ele>1962</ele>
        <time>0001-01-01T09:45:00Z</time>
      </trkpt>
      <trkpt lat="45.23751" lon="6.18874">
        <ele>1962</ele>
        <time>0001-01-01T09:45:00Z</time>
      </trkpt>
      <trkpt lat="45.23746" lon="6.18891">
        <ele>1980</ele>
        <time>0001-01-01T09:45:00Z</time>
      </trkpt>
      <trkpt lat="45.23736" lon="6.18918">
        <ele>1980</ele>
        <time>0001-01-01T09:45:00Z</time>
      </trkpt>
      <trkpt lat="45.23728" lon="6.18941">
        <ele>1980</ele>
        <time>0001-01-01T09:45:00Z</time>
      </trkpt>
      <trkpt lat="45.23721" lon="6.18966">
        <ele>1992</ele>
        <time>0001-01-01T09:45:00Z</time>
      </trkpt>
      <trkpt lat="45.23716" lon="6.18989">
        <ele>1992</ele>
        <time>0001-01-01T09:45:00Z</time>
      </trkpt>
      <trkpt lat="45.23709" lon="6.1902">
        <ele>1992</ele>
        <time>0001-01-01T09:45:00Z</time>
      </trkpt>
      <trkpt lat="45.23702" lon="6.19044">
        <ele>1973</ele>
        <time>0001-01-01T09:45:00Z</time>
      </trkpt>
      <trkpt lat="45.23699" lon="6.19056">
        <ele>1973</ele>
        <time>0001-01-01T09:45:00Z</time>
      </trkpt>
      <trkpt lat="45.23698" lon="6.19064">
        <ele>1973</ele>
        <time>0001-01-01T09:45:00Z</time>
      </trkpt>
      <trkpt lat="45.23695" lon="6.19074">
        <ele>1973</ele>
        <time>0001-01-01T09:45:00Z</time>
      </trkpt>
      <trkpt lat="45.23689" lon="6.19088">
        <ele>1973</ele>
        <time>0001-01-01T09:45:00Z</time>
      </trkpt>
      <trkpt lat="45.23668" lon="6.19122">
        <ele>1973</ele>
        <time>0001-01-01T09:45:00Z</time>
      </trkpt>
      <trkpt lat="45.23649" lon="6.19152">
        <ele>1998</ele>
        <time>0001-01-01T09:45:00Z</time>
      </trkpt>
      <trkpt lat="45.23616" lon="6.19195">
        <ele>1964</ele>
        <time>0001-01-01T09:45:00Z</time>
      </trkpt>
      <trkpt lat="45.23597" lon="6.19224">
        <ele>1998</ele>
        <time>0001-01-01T09:45:00Z</time>
      </trkpt>
      <trkpt lat="45.23572" lon="6.19261">
        <ele>1998</ele>
        <time>0001-01-01T09:45:00Z</time>
      </trkpt>
      <trkpt lat="45.23562" lon="6.19273">
        <ele>1998</ele>
        <time>0001-01-01T09:45:00Z</time>
      </trkpt>
      <trkpt lat="45.23553" lon="6.19282">
        <ele>1998</ele>
        <time>0001-01-01T09:45:00Z</time>
      </trkpt>
      <trkpt lat="45.23531" lon="6.19294">
        <ele>2010</ele>
        <time>0001-01-01T09:45:00Z</time>
      </trkpt>
      <trkpt lat="45.23489" lon="6.19314">
        <ele>2010</ele>
        <time>0001-01-01T09:45:00Z</time>
      </trkpt>
      <trkpt lat="45.23479" lon="6.19318">
        <ele>2010</ele>
        <time>0001-01-01T09:45:00Z</time>
      </trkpt>
      <trkpt lat="45.23461" lon="6.1932">
        <ele>2010</ele>
        <time>0001-01-01T09:45:00Z</time>
      </trkpt>
      <trkpt lat="45.23436" lon="6.19322">
        <ele>1995</ele>
        <time>0001-01-01T09:45:00Z</time>
      </trkpt>
      <trkpt lat="45.23424" lon="6.19324">
        <ele>1995</ele>
        <time>0001-01-01T09:45:00Z</time>
      </trkpt>
      <trkpt lat="45.23417" lon="6.19331">
        <ele>1995</ele>
        <time>0001-01-01T09:45:00Z</time>
      </trkpt>
      <trkpt lat="45.23412" lon="6.19343">
        <ele>1995</ele>
        <time>0001-01-01T09:45:00Z</time>
      </trkpt>
      <trkpt lat="45.23409" lon="6.19349">
        <ele>1995</ele>
        <time>0001-01-01T09:45:00Z</time>
      </trkpt>
      <trkpt lat="45.23408" lon="6.19351">
        <ele>1995</ele>
        <time>0001-01-01T09:45:00Z</time>
      </trkpt>
      <trkpt lat="45.23401" lon="6.19374">
        <ele>1995</ele>
        <time>0001-01-01T09:45:00Z</time>
      </trkpt>
      <trkpt lat="45.2339" lon="6.19404">
        <ele>2005</ele>
        <time>0001-01-01T09:45:00Z</time>
      </trkpt>
      <trkpt lat="45.23382" lon="6.19427">
        <ele>2005</ele>
        <time>0001-01-01T09:45:00Z</time>
      </trkpt>
      <trkpt lat="45.23372" lon="6.19454">
        <ele>1990</ele>
        <time>0001-01-01T09:45:00Z</time>
      </trkpt>
      <trkpt lat="45.23368" lon="6.19464">
        <ele>2000</ele>
        <time>0001-01-01T09:45:00Z</time>
      </trkpt>
      <trkpt lat="45.23362" lon="6.19474">
        <ele>2000</ele>
        <time>0001-01-01T09:45:00Z</time>
      </trkpt>
      <trkpt lat="45.23357" lon="6.19484">
        <ele>2000</ele>
        <time>0001-01-01T09:45:00Z</time>
      </trkpt>
      <trkpt lat="45.23351" lon="6.19494">
        <ele>2000</ele>
        <time>0001-01-01T09:45:00Z</time>
      </trkpt>
      <trkpt lat="45.23346" lon="6.19505">
        <ele>2000</ele>
        <time>0001-01-01T09:45:00Z</time>
      </trkpt>
      <trkpt lat="45.23341" lon="6.19518">
        <ele>2000</ele>
        <time>0001-01-01T09:45:00Z</time>
      </trkpt>
      <trkpt lat="45.23338" lon="6.19533">
        <ele>2000</ele>
        <time>0001-01-01T09:45:00Z</time>
      </trkpt>
      <trkpt lat="45.23336" lon="6.19541">
        <ele>2000</ele>
        <time>0001-01-01T09:45:00Z</time>
      </trkpt>
      <trkpt lat="45.23334" lon="6.19552">
        <ele>2011</ele>
        <time>0001-01-01T09:45:00Z</time>
      </trkpt>
      <trkpt lat="45.23332" lon="6.19564">
        <ele>2011</ele>
        <time>0001-01-01T09:45:00Z</time>
      </trkpt>
      <trkpt lat="45.23329" lon="6.1959">
        <ele>2011</ele>
        <time>0001-01-01T09:45:00Z</time>
      </trkpt>
      <trkpt lat="45.23328" lon="6.19604">
        <ele>2011</ele>
        <time>0001-01-01T09:45:00Z</time>
      </trkpt>
      <trkpt lat="45.23327" lon="6.19611">
        <ele>2011</ele>
        <time>0001-01-01T09:45:00Z</time>
      </trkpt>
      <trkpt lat="45.23326" lon="6.19616">
        <ele>2011</ele>
        <time>0001-01-01T09:45:00Z</time>
      </trkpt>
      <trkpt lat="45.23325" lon="6.19622">
        <ele>2011</ele>
        <time>0001-01-01T09:45:00Z</time>
      </trkpt>
      <trkpt lat="45.23324" lon="6.19628">
        <ele>2029</ele>
        <time>0001-01-01T09:45:00Z</time>
      </trkpt>
      <trkpt lat="45.23319" lon="6.1964">
        <ele>2029</ele>
        <time>0001-01-01T09:45:00Z</time>
      </trkpt>
      <trkpt lat="45.23313" lon="6.19654">
        <ele>2029</ele>
        <time>0001-01-01T09:45:00Z</time>
      </trkpt>
      <trkpt lat="45.23307" lon="6.19666">
        <ele>2029</ele>
        <time>0001-01-01T09:45:00Z</time>
      </trkpt>
      <trkpt lat="45.23287" lon="6.19702">
        <ele>1999</ele>
        <time>0001-01-01T09:45:00Z</time>
      </trkpt>
      <trkpt lat="45.23279" lon="6.19717">
        <ele>2023</ele>
        <time>0001-01-01T09:45:00Z</time>
      </trkpt>
      <trkpt lat="45.23274" lon="6.19726">
        <ele>2023</ele>
        <time>0001-01-01T09:45:00Z</time>
      </trkpt>
      <trkpt lat="45.23271" lon="6.1973">
        <ele>2023</ele>
        <time>0001-01-01T09:45:00Z</time>
      </trkpt>
      <trkpt lat="45.23267" lon="6.19736">
        <ele>2023</ele>
        <time>0001-01-01T09:45:00Z</time>
      </trkpt>
      <trkpt lat="45.23264" lon="6.1974">
        <ele>2023</ele>
        <time>0001-01-01T09:45:00Z</time>
      </trkpt>
      <trkpt lat="45.2326" lon="6.19743">
        <ele>2023</ele>
        <time>0001-01-01T09:45:00Z</time>
      </trkpt>
      <trkpt lat="45.23247" lon="6.19753">
        <ele>2023</ele>
        <time>0001-01-01T09:45:00Z</time>
      </trkpt>
      <trkpt lat="45.23238" lon="6.19763">
        <ele>2023</ele>
        <time>0001-01-01T09:45:00Z</time>
      </trkpt>
      <trkpt lat="45.23234" lon="6.19768">
        <ele>2023</ele>
        <time>0001-01-01T09:45:00Z</time>
      </trkpt>
      <trkpt lat="45.23227" lon="6.19777">
        <ele>2023</ele>
        <time>0001-01-01T09:45:00Z</time>
      </trkpt>
      <trkpt lat="45.23223" lon="6.19782">
        <ele>2023</ele>
        <time>0001-01-01T09:45:00Z</time>
      </trkpt>
      <trkpt lat="45.23215" lon="6.19792">
        <ele>2051</ele>
        <time>0001-01-01T09:45:00Z</time>
      </trkpt>
      <trkpt lat="45.23198" lon="6.19815">
        <ele>2018</ele>
        <time>0001-01-01T09:45:00Z</time>
      </trkpt>
      <trkpt lat="45.23185" lon="6.1983">
        <ele>2018</ele>
        <time>0001-01-01T09:45:00Z</time>
      </trkpt>
      <trkpt lat="45.2318" lon="6.19838">
        <ele>2018</ele>
        <time>0001-01-01T09:45:00Z</time>
      </trkpt>
      <trkpt lat="45.23172" lon="6.1985">
        <ele>2018</ele>
        <time>0001-01-01T09:45:00Z</time>
      </trkpt>
      <trkpt lat="45.23168" lon="6.19858">
        <ele>2018</ele>
        <time>0001-01-01T09:45:00Z</time>
      </trkpt>
      <trkpt lat="45.23156" lon="6.19885">
        <ele>2046</ele>
        <time>0001-01-01T09:45:00Z</time>
      </trkpt>
      <trkpt lat="45.23143" lon="6.19915">
        <ele>2046</ele>
        <time>0001-01-01T09:45:00Z</time>
      </trkpt>
      <trkpt lat="45.23134" lon="6.19934">
        <ele>2046</ele>
        <time>0001-01-01T09:45:00Z</time>
      </trkpt>
      <trkpt lat="45.23122" lon="6.19963">
        <ele>2027</ele>
        <time>0001-01-01T09:45:00Z</time>
      </trkpt>
      <trkpt lat="45.23116" lon="6.19976">
        <ele>2027</ele>
        <time>0001-01-01T09:45:00Z</time>
      </trkpt>
      <trkpt lat="45.2311" lon="6.19989">
        <ele>2027</ele>
        <time>0001-01-01T09:45:00Z</time>
      </trkpt>
      <trkpt lat="45.23102" lon="6.20003">
        <ele>2027</ele>
        <time>0001-01-01T09:45:00Z</time>
      </trkpt>
      <trkpt lat="45.23085" lon="6.20034">
        <ele>2027</ele>
        <time>0001-01-01T09:45:00Z</time>
      </trkpt>
      <trkpt lat="45.23056" lon="6.20085">
        <ele>2059</ele>
        <time>0001-01-01T09:45:00Z</time>
      </trkpt>
      <trkpt lat="45.23025" lon="6.20132">
        <ele>2054</ele>
        <time>0001-01-01T09:45:00Z</time>
      </trkpt>
      <trkpt lat="45.22996" lon="6.20171">
        <ele>2054</ele>
        <time>0001-01-01T09:45:00Z</time>
      </trkpt>
      <trkpt lat="45.22984" lon="6.20188">
        <ele>2054</ele>
        <time>0001-01-01T09:45:00Z</time>
      </trkpt>
      <trkpt lat="45.22977" lon="6.20198">
        <ele>2054</ele>
        <time>0001-01-01T09:45:00Z</time>
      </trkpt>
      <trkpt lat="45.2297" lon="6.20206">
        <ele>2054</ele>
        <time>0001-01-01T09:45:00Z</time>
      </trkpt>
      <trkpt lat="45.22965" lon="6.20212">
        <ele>2083</ele>
        <time>0001-01-01T09:45:00Z</time>
      </trkpt>
      <trkpt lat="45.22961" lon="6.20215">
        <ele>2083</ele>
        <time>0001-01-01T09:45:00Z</time>
      </trkpt>
      <trkpt lat="45.22952" lon="6.20221">
        <ele>2070</ele>
        <time>0001-01-01T09:45:00Z</time>
      </trkpt>
      <trkpt lat="45.22945" lon="6.20224">
        <ele>2070</ele>
        <time>0001-01-01T09:45:00Z</time>
      </trkpt>
      <trkpt lat="45.22926" lon="6.20226">
        <ele>2070</ele>
        <time>0001-01-01T09:45:00Z</time>
      </trkpt>
      <trkpt lat="45.22903" lon="6.20229">
        <ele>2070</ele>
        <time>0001-01-01T09:45:00Z</time>
      </trkpt>
      <trkpt lat="45.2288" lon="6.20234">
        <ele>2070</ele>
        <time>0001-01-01T09:45:00Z</time>
      </trkpt>
      <trkpt lat="45.2285" lon="6.20243">
        <ele>2062</ele>
        <time>0001-01-01T09:45:00Z</time>
      </trkpt>
      <trkpt lat="45.22831" lon="6.20249">
        <ele>2062</ele>
        <time>0001-01-01T09:45:00Z</time>
      </trkpt>
      <trkpt lat="45.2282" lon="6.20254">
        <ele>2062</ele>
        <time>0001-01-01T09:45:00Z</time>
      </trkpt>
      <trkpt lat="45.22811" lon="6.20257">
        <ele>2062</ele>
        <time>0001-01-01T09:45:00Z</time>
      </trkpt>
      <trkpt lat="45.22782" lon="6.2027">
        <ele>2061</ele>
        <time>0001-01-01T09:45:00Z</time>
      </trkpt>
      <trkpt lat="45.22774" lon="6.20274">
        <ele>2061</ele>
        <time>0001-01-01T09:45:00Z</time>
      </trkpt>
      <trkpt lat="45.22763" lon="6.20288">
        <ele>2061</ele>
        <time>0001-01-01T09:45:00Z</time>
      </trkpt>
      <trkpt lat="45.22756" lon="6.20302">
        <ele>2067</ele>
        <time>0001-01-01T09:45:00Z</time>
      </trkpt>
      <trkpt lat="45.22754" lon="6.20308">
        <ele>2067</ele>
        <time>0001-01-01T09:45:00Z</time>
      </trkpt>
      <trkpt lat="45.22752" lon="6.20316">
        <ele>2067</ele>
        <time>0001-01-01T09:45:00Z</time>
      </trkpt>
      <trkpt lat="45.2275" lon="6.20327">
        <ele>2067</ele>
        <time>0001-01-01T09:45:00Z</time>
      </trkpt>
      <trkpt lat="45.22749" lon="6.20336">
        <ele>2067</ele>
        <time>0001-01-01T09:45:00Z</time>
      </trkpt>
      <trkpt lat="45.22749" lon="6.20348">
        <ele>2067</ele>
        <time>0001-01-01T09:45:00Z</time>
      </trkpt>
      <trkpt lat="45.22749" lon="6.20372">
        <ele>2067</ele>
        <time>0001-01-01T09:45:00Z</time>
      </trkpt>
      <trkpt lat="45.22751" lon="6.20396">
        <ele>2059</ele>
        <time>0001-01-01T09:45:00Z</time>
      </trkpt>
      <trkpt lat="45.22749" lon="6.20372">
        <ele>2067</ele>
        <time>0001-01-01T09:45:00Z</time>
      </trkpt>
      <trkpt lat="45.22749" lon="6.20348">
        <ele>2067</ele>
        <time>0001-01-01T09:45:00Z</time>
      </trkpt>
      <trkpt lat="45.22749" lon="6.20336">
        <ele>2067</ele>
        <time>0001-01-01T09:45:00Z</time>
      </trkpt>
      <trkpt lat="45.2275" lon="6.20327">
        <ele>2067</ele>
        <time>0001-01-01T09:45:00Z</time>
      </trkpt>
      <trkpt lat="45.22752" lon="6.20316">
        <ele>2067</ele>
        <time>0001-01-01T09:45:00Z</time>
      </trkpt>
      <trkpt lat="45.22754" lon="6.20308">
        <ele>2067</ele>
        <time>0001-01-01T09:45:00Z</time>
      </trkpt>
      <trkpt lat="45.22756" lon="6.20302">
        <ele>2067</ele>
        <time>0001-01-01T09:45:00Z</time>
      </trkpt>
      <trkpt lat="45.22763" lon="6.20288">
        <ele>2061</ele>
        <time>0001-01-01T09:45:00Z</time>
      </trkpt>
      <trkpt lat="45.22774" lon="6.20274">
        <ele>2061</ele>
        <time>0001-01-01T09:45:00Z</time>
      </trkpt>
      <trkpt lat="45.22782" lon="6.2027">
        <ele>2061</ele>
        <time>0001-01-01T09:45:00Z</time>
      </trkpt>
      <trkpt lat="45.22811" lon="6.20257">
        <ele>2062</ele>
        <time>0001-01-01T09:45:00Z</time>
      </trkpt>
      <trkpt lat="45.2282" lon="6.20254">
        <ele>2062</ele>
        <time>0001-01-01T09:45:00Z</time>
      </trkpt>
      <trkpt lat="45.22831" lon="6.20249">
        <ele>2062</ele>
        <time>0001-01-01T09:45:00Z</time>
      </trkpt>
      <trkpt lat="45.2285" lon="6.20243">
        <ele>2062</ele>
        <time>0001-01-01T09:45:00Z</time>
      </trkpt>
      <trkpt lat="45.2288" lon="6.20234">
        <ele>2070</ele>
        <time>0001-01-01T09:45:00Z</time>
      </trkpt>
      <trkpt lat="45.22903" lon="6.20229">
        <ele>2070</ele>
        <time>0001-01-01T09:45:00Z</time>
      </trkpt>
      <trkpt lat="45.22926" lon="6.20226">
        <ele>2070</ele>
        <time>0001-01-01T09:45:00Z</time>
      </trkpt>
      <trkpt lat="45.22945" lon="6.20224">
        <ele>2070</ele>
        <time>0001-01-01T09:45:00Z</time>
      </trkpt>
      <trkpt lat="45.22952" lon="6.20221">
        <ele>2070</ele>
        <time>0001-01-01T09:45:00Z</time>
      </trkpt>
      <trkpt lat="45.22961" lon="6.20215">
        <ele>2083</ele>
        <time>0001-01-01T09:45:00Z</time>
      </trkpt>
      <trkpt lat="45.22965" lon="6.20212">
        <ele>2083</ele>
        <time>0001-01-01T09:45:00Z</time>
      </trkpt>
      <trkpt lat="45.2297" lon="6.20206">
        <ele>2054</ele>
        <time>0001-01-01T09:45:00Z</time>
      </trkpt>
      <trkpt lat="45.22977" lon="6.20198">
        <ele>2054</ele>
        <time>0001-01-01T09:45:00Z</time>
      </trkpt>
      <trkpt lat="45.22984" lon="6.20188">
        <ele>2054</ele>
        <time>0001-01-01T09:45:00Z</time>
      </trkpt>
      <trkpt lat="45.22996" lon="6.20171">
        <ele>2054</ele>
        <time>0001-01-01T09:45:00Z</time>
      </trkpt>
      <trkpt lat="45.23025" lon="6.20132">
        <ele>2054</ele>
        <time>0001-01-01T09:45:00Z</time>
      </trkpt>
      <trkpt lat="45.23056" lon="6.20085">
        <ele>2059</ele>
        <time>0001-01-01T09:45:00Z</time>
      </trkpt>
      <trkpt lat="45.23085" lon="6.20034">
        <ele>2027</ele>
        <time>0001-01-01T09:45:00Z</time>
      </trkpt>
      <trkpt lat="45.23102" lon="6.20003">
        <ele>2027</ele>
        <time>0001-01-01T09:45:00Z</time>
      </trkpt>
      <trkpt lat="45.2311" lon="6.19989">
        <ele>2027</ele>
        <time>0001-01-01T09:45:00Z</time>
      </trkpt>
      <trkpt lat="45.23116" lon="6.19976">
        <ele>2027</ele>
        <time>0001-01-01T09:45:00Z</time>
      </trkpt>
      <trkpt lat="45.23122" lon="6.19963">
        <ele>2027</ele>
        <time>0001-01-01T09:45:00Z</time>
      </trkpt>
      <trkpt lat="45.23134" lon="6.19934">
        <ele>2046</ele>
        <time>0001-01-01T09:45:00Z</time>
      </trkpt>
      <trkpt lat="45.23143" lon="6.19915">
        <ele>2046</ele>
        <time>0001-01-01T09:45:00Z</time>
      </trkpt>
      <trkpt lat="45.23156" lon="6.19885">
        <ele>2046</ele>
        <time>0001-01-01T09:45:00Z</time>
      </trkpt>
      <trkpt lat="45.23168" lon="6.19858">
        <ele>2018</ele>
        <time>0001-01-01T09:45:00Z</time>
      </trkpt>
      <trkpt lat="45.23172" lon="6.1985">
        <ele>2018</ele>
        <time>0001-01-01T09:45:00Z</time>
      </trkpt>
      <trkpt lat="45.2318" lon="6.19838">
        <ele>2018</ele>
        <time>0001-01-01T09:45:00Z</time>
      </trkpt>
      <trkpt lat="45.23185" lon="6.1983">
        <ele>2018</ele>
        <time>0001-01-01T09:45:00Z</time>
      </trkpt>
      <trkpt lat="45.23198" lon="6.19815">
        <ele>2018</ele>
        <time>0001-01-01T09:45:00Z</time>
      </trkpt>
      <trkpt lat="45.23215" lon="6.19792">
        <ele>2051</ele>
        <time>0001-01-01T09:45:00Z</time>
      </trkpt>
      <trkpt lat="45.23223" lon="6.19782">
        <ele>2023</ele>
        <time>0001-01-01T09:45:00Z</time>
      </trkpt>
      <trkpt lat="45.23227" lon="6.19777">
        <ele>2023</ele>
        <time>0001-01-01T09:45:00Z</time>
      </trkpt>
      <trkpt lat="45.23234" lon="6.19768">
        <ele>2023</ele>
        <time>0001-01-01T09:45:00Z</time>
      </trkpt>
      <trkpt lat="45.23238" lon="6.19763">
        <ele>2023</ele>
        <time>0001-01-01T09:45:00Z</time>
      </trkpt>
      <trkpt lat="45.23247" lon="6.19753">
        <ele>2023</ele>
        <time>0001-01-01T09:45:00Z</time>
      </trkpt>
      <trkpt lat="45.2326" lon="6.19743">
        <ele>2023</ele>
        <time>0001-01-01T09:45:00Z</time>
      </trkpt>
      <trkpt lat="45.23264" lon="6.1974">
        <ele>2023</ele>
        <time>0001-01-01T09:45:00Z</time>
      </trkpt>
      <trkpt lat="45.23267" lon="6.19736">
        <ele>2023</ele>
        <time>0001-01-01T09:45:00Z</time>
      </trkpt>
      <trkpt lat="45.23271" lon="6.1973">
        <ele>2023</ele>
        <time>0001-01-01T09:45:00Z</time>
      </trkpt>
      <trkpt lat="45.23274" lon="6.19726">
        <ele>2023</ele>
        <time>0001-01-01T09:45:00Z</time>
      </trkpt>
      <trkpt lat="45.23279" lon="6.19717">
        <ele>2023</ele>
        <time>0001-01-01T09:45:00Z</time>
      </trkpt>
      <trkpt lat="45.23287" lon="6.19702">
        <ele>1999</ele>
        <time>0001-01-01T09:45:00Z</time>
      </trkpt>
      <trkpt lat="45.23307" lon="6.19666">
        <ele>2029</ele>
        <time>0001-01-01T09:45:00Z</time>
      </trkpt>
      <trkpt lat="45.23313" lon="6.19654">
        <ele>2029</ele>
        <time>0001-01-01T09:45:00Z</time>
      </trkpt>
      <trkpt lat="45.23319" lon="6.1964">
        <ele>2029</ele>
        <time>0001-01-01T09:45:00Z</time>
      </trkpt>
      <trkpt lat="45.23324" lon="6.19628">
        <ele>2029</ele>
        <time>0001-01-01T09:45:00Z</time>
      </trkpt>
      <trkpt lat="45.23325" lon="6.19622">
        <ele>2011</ele>
        <time>0001-01-01T09:45:00Z</time>
      </trkpt>
      <trkpt lat="45.23326" lon="6.19616">
        <ele>2011</ele>
        <time>0001-01-01T09:45:00Z</time>
      </trkpt>
      <trkpt lat="45.23327" lon="6.19611">
        <ele>2011</ele>
        <time>0001-01-01T09:45:00Z</time>
      </trkpt>
      <trkpt lat="45.23328" lon="6.19604">
        <ele>2011</ele>
        <time>0001-01-01T09:45:00Z</time>
      </trkpt>
      <trkpt lat="45.23329" lon="6.1959">
        <ele>2011</ele>
        <time>0001-01-01T09:45:00Z</time>
      </trkpt>
      <trkpt lat="45.23332" lon="6.19564">
        <ele>2011</ele>
        <time>0001-01-01T09:45:00Z</time>
      </trkpt>
      <trkpt lat="45.23334" lon="6.19552">
        <ele>2011</ele>
        <time>0001-01-01T09:45:00Z</time>
      </trkpt>
      <trkpt lat="45.23336" lon="6.19541">
        <ele>2000</ele>
        <time>0001-01-01T09:45:00Z</time>
      </trkpt>
      <trkpt lat="45.23338" lon="6.19533">
        <ele>2000</ele>
        <time>0001-01-01T09:45:00Z</time>
      </trkpt>
      <trkpt lat="45.23341" lon="6.19518">
        <ele>2000</ele>
        <time>0001-01-01T09:45:00Z</time>
      </trkpt>
      <trkpt lat="45.23346" lon="6.19505">
        <ele>2000</ele>
        <time>0001-01-01T09:45:00Z</time>
      </trkpt>
      <trkpt lat="45.23351" lon="6.19494">
        <ele>2000</ele>
        <time>0001-01-01T09:45:00Z</time>
      </trkpt>
      <trkpt lat="45.23357" lon="6.19484">
        <ele>2000</ele>
        <time>0001-01-01T09:45:00Z</time>
      </trkpt>
      <trkpt lat="45.23362" lon="6.19474">
        <ele>2000</ele>
        <time>0001-01-01T09:45:00Z</time>
      </trkpt>
      <trkpt lat="45.23368" lon="6.19464">
        <ele>2000</ele>
        <time>0001-01-01T09:45:00Z</time>
      </trkpt>
      <trkpt lat="45.23372" lon="6.19454">
        <ele>1990</ele>
        <time>0001-01-01T09:45:00Z</time>
      </trkpt>
      <trkpt lat="45.23382" lon="6.19427">
        <ele>2005</ele>
        <time>0001-01-01T09:45:00Z</time>
      </trkpt>
      <trkpt lat="45.2339" lon="6.19404">
        <ele>2005</ele>
        <time>0001-01-01T09:45:00Z</time>
      </trkpt>
      <trkpt lat="45.23401" lon="6.19374">
        <ele>1995</ele>
        <time>0001-01-01T09:45:00Z</time>
      </trkpt>
      <trkpt lat="45.23408" lon="6.19351">
        <ele>1995</ele>
        <time>0001-01-01T09:45:00Z</time>
      </trkpt>
      <trkpt lat="45.23409" lon="6.19349">
        <ele>1995</ele>
        <time>0001-01-01T09:45:00Z</time>
      </trkpt>
      <trkpt lat="45.23412" lon="6.19343">
        <ele>1995</ele>
        <time>0001-01-01T09:45:00Z</time>
      </trkpt>
      <trkpt lat="45.23417" lon="6.19331">
        <ele>1995</ele>
        <time>0001-01-01T09:45:00Z</time>
      </trkpt>
      <trkpt lat="45.23424" lon="6.19324">
        <ele>1995</ele>
        <time>0001-01-01T09:45:00Z</time>
      </trkpt>
      <trkpt lat="45.23436" lon="6.19322">
        <ele>1995</ele>
        <time>0001-01-01T09:45:00Z</time>
      </trkpt>
      <trkpt lat="45.23461" lon="6.1932">
        <ele>2010</ele>
        <time>0001-01-01T09:45:00Z</time>
      </trkpt>
      <trkpt lat="45.23479" lon="6.19318">
        <ele>2010</ele>
        <time>0001-01-01T09:45:00Z</time>
      </trkpt>
      <trkpt lat="45.23489" lon="6.19314">
        <ele>2010</ele>
        <time>0001-01-01T09:45:00Z</time>
      </trkpt>
      <trkpt lat="45.23531" lon="6.19294">
        <ele>2010</ele>
        <time>0001-01-01T09:45:00Z</time>
      </trkpt>
      <trkpt lat="45.23553" lon="6.19282">
        <ele>1998</ele>
        <time>0001-01-01T09:45:00Z</time>
      </trkpt>
      <trkpt lat="45.23562" lon="6.19273">
        <ele>1998</ele>
        <time>0001-01-01T09:45:00Z</time>
      </trkpt>
      <trkpt lat="45.23572" lon="6.19261">
        <ele>1998</ele>
        <time>0001-01-01T09:45:00Z</time>
      </trkpt>
      <trkpt lat="45.23597" lon="6.19224">
        <ele>1998</ele>
        <time>0001-01-01T09:45:00Z</time>
      </trkpt>
      <trkpt lat="45.23616" lon="6.19195">
        <ele>1964</ele>
        <time>0001-01-01T09:45:00Z</time>
      </trkpt>
      <trkpt lat="45.23649" lon="6.19152">
        <ele>1998</ele>
        <time>0001-01-01T09:45:00Z</time>
      </trkpt>
      <trkpt lat="45.23668" lon="6.19122">
        <ele>1973</ele>
        <time>0001-01-01T09:45:00Z</time>
      </trkpt>
      <trkpt lat="45.23689" lon="6.19088">
        <ele>1973</ele>
        <time>0001-01-01T09:45:00Z</time>
      </trkpt>
      <trkpt lat="45.23695" lon="6.19074">
        <ele>1973</ele>
        <time>0001-01-01T09:45:00Z</time>
      </trkpt>
      <trkpt lat="45.23698" lon="6.19064">
        <ele>1973</ele>
        <time>0001-01-01T09:45:00Z</time>
      </trkpt>
      <trkpt lat="45.23699" lon="6.19056">
        <ele>1973</ele>
        <time>0001-01-01T09:45:00Z</time>
      </trkpt>
      <trkpt lat="45.23702" lon="6.19044">
        <ele>1973</ele>
        <time>0001-01-01T09:45:00Z</time>
      </trkpt>
      <trkpt lat="45.23709" lon="6.1902">
        <ele>1992</ele>
        <time>0001-01-01T09:45:00Z</time>
      </trkpt>
      <trkpt lat="45.23716" lon="6.18989">
        <ele>1992</ele>
        <time>0001-01-01T09:45:00Z</time>
      </trkpt>
      <trkpt lat="45.23721" lon="6.18966">
        <ele>1992</ele>
        <time>0001-01-01T09:45:00Z</time>
      </trkpt>
      <trkpt lat="45.23728" lon="6.18941">
        <ele>1980</ele>
        <time>0001-01-01T09:45:00Z</time>
      </trkpt>
      <trkpt lat="45.23736" lon="6.18918">
        <ele>1980</ele>
        <time>0001-01-01T09:45:00Z</time>
      </trkpt>
      <trkpt lat="45.23746" lon="6.18891">
        <ele>1980</ele>
        <time>0001-01-01T09:45:00Z</time>
      </trkpt>
      <trkpt lat="45.23751" lon="6.18874">
        <ele>1962</ele>
        <time>0001-01-01T09:45:00Z</time>
      </trkpt>
      <trkpt lat="45.23754" lon="6.18866">
        <ele>1962</ele>
        <time>0001-01-01T09:45:00Z</time>
      </trkpt>
      <trkpt lat="45.23761" lon="6.18826">
        <ele>1962</ele>
        <time>0001-01-01T09:45:00Z</time>
      </trkpt>
      <trkpt lat="45.23763" lon="6.18815">
        <ele>1962</ele>
        <time>0001-01-01T09:45:00Z</time>
      </trkpt>
      <trkpt lat="45.23767" lon="6.18801">
        <ele>1962</ele>
        <time>0001-01-01T09:45:00Z</time>
      </trkpt>
      <trkpt lat="45.23776" lon="6.18779">
        <ele>1943</ele>
        <time>0001-01-01T09:45:00Z</time>
      </trkpt>
      <trkpt lat="45.23787" lon="6.18761">
        <ele>1943</ele>
        <time>0001-01-01T09:45:00Z</time>
      </trkpt>
      <trkpt lat="45.23796" lon="6.18741">
        <ele>1974</ele>
        <time>0001-01-01T09:45:00Z</time>
      </trkpt>
      <trkpt lat="45.23805" lon="6.18718">
        <ele>1974</ele>
        <time>0001-01-01T09:45:00Z</time>
      </trkpt>
      <trkpt lat="45.23817" lon="6.18686">
        <ele>1959</ele>
        <time>0001-01-01T09:45:00Z</time>
      </trkpt>
      <trkpt lat="45.23831" lon="6.18652">
        <ele>1959</ele>
        <time>0001-01-01T09:45:00Z</time>
      </trkpt>
      <trkpt lat="45.2384" lon="6.18629">
        <ele>1959</ele>
        <time>0001-01-01T09:45:00Z</time>
      </trkpt>
      <trkpt lat="45.23845" lon="6.18615">
        <ele>1944</ele>
        <time>0001-01-01T09:45:00Z</time>
      </trkpt>
      <trkpt lat="45.23857" lon="6.18598">
        <ele>1944</ele>
        <time>0001-01-01T09:45:00Z</time>
      </trkpt>
      <trkpt lat="45.23868" lon="6.18586">
        <ele>1944</ele>
        <time>0001-01-01T09:45:00Z</time>
      </trkpt>
      <trkpt lat="45.23881" lon="6.18575">
        <ele>1956</ele>
        <time>0001-01-01T09:45:00Z</time>
      </trkpt>
      <trkpt lat="45.23896" lon="6.18572">
        <ele>1956</ele>
        <time>0001-01-01T09:45:00Z</time>
      </trkpt>
      <trkpt lat="45.23906" lon="6.18569">
        <ele>1956</ele>
        <time>0001-01-01T09:45:00Z</time>
      </trkpt>
      <trkpt lat="45.23915" lon="6.18565">
        <ele>1956</ele>
        <time>0001-01-01T09:45:00Z</time>
      </trkpt>
      <trkpt lat="45.23922" lon="6.18557">
        <ele>1956</ele>
        <time>0001-01-01T09:45:00Z</time>
      </trkpt>
      <trkpt lat="45.23926" lon="6.18541">
        <ele>1947</ele>
        <time>0001-01-01T09:45:00Z</time>
      </trkpt>
      <trkpt lat="45.23927" lon="6.18525">
        <ele>1947</ele>
        <time>0001-01-01T09:45:00Z</time>
      </trkpt>
      <trkpt lat="45.23925" lon="6.1851">
        <ele>1947</ele>
        <time>0001-01-01T09:45:00Z</time>
      </trkpt>
      <trkpt lat="45.23917" lon="6.18493">
        <ele>1947</ele>
        <time>0001-01-01T09:45:00Z</time>
      </trkpt>
      <trkpt lat="45.239" lon="6.18469">
        <ele>1947</ele>
        <time>0001-01-01T09:45:00Z</time>
      </trkpt>
      <trkpt lat="45.23892" lon="6.18451">
        <ele>1947</ele>
        <time>0001-01-01T09:45:00Z</time>
      </trkpt>
      <trkpt lat="45.23889" lon="6.18435">
        <ele>1947</ele>
        <time>0001-01-01T09:45:00Z</time>
      </trkpt>
      <trkpt lat="45.23889" lon="6.1842">
        <ele>1947</ele>
        <time>0001-01-01T09:45:00Z</time>
      </trkpt>
      <trkpt lat="45.23893" lon="6.184">
        <ele>1947</ele>
        <time>0001-01-01T09:45:00Z</time>
      </trkpt>
      <trkpt lat="45.23897" lon="6.18362">
        <ele>1945</ele>
        <time>0001-01-01T09:45:00Z</time>
      </trkpt>
      <trkpt lat="45.23897" lon="6.1834">
        <ele>1945</ele>
        <time>0001-01-01T09:45:00Z</time>
      </trkpt>
      <trkpt lat="45.23896" lon="6.18318">
        <ele>1945</ele>
        <time>0001-01-01T09:45:00Z</time>
      </trkpt>
      <trkpt lat="45.23893" lon="6.18277">
        <ele>1942</ele>
        <time>0001-01-01T09:45:00Z</time>
      </trkpt>
      <trkpt lat="45.23893" lon="6.18243">
        <ele>1942</ele>
        <time>0001-01-01T09:45:00Z</time>
      </trkpt>
      <trkpt lat="45.23896" lon="6.18216">
        <ele>1942</ele>
        <time>0001-01-01T09:45:00Z</time>
      </trkpt>
      <trkpt lat="45.23901" lon="6.1819">
        <ele>1936</ele>
        <time>0001-01-01T09:45:00Z</time>
      </trkpt>
      <trkpt lat="45.23905" lon="6.18178">
        <ele>1936</ele>
        <time>0001-01-01T09:45:00Z</time>
      </trkpt>
      <trkpt lat="45.23909" lon="6.18162">
        <ele>1936</ele>
        <time>0001-01-01T09:45:00Z</time>
      </trkpt>
      <trkpt lat="45.2391" lon="6.18152">
        <ele>1936</ele>
        <time>0001-01-01T09:45:00Z</time>
      </trkpt>
      <trkpt lat="45.2391" lon="6.18137">
        <ele>1936</ele>
        <time>0001-01-01T09:45:00Z</time>
      </trkpt>
      <trkpt lat="45.23909" lon="6.18131">
        <ele>1936</ele>
        <time>0001-01-01T09:45:00Z</time>
      </trkpt>
      <trkpt lat="45.23909" lon="6.18117">
        <ele>1931</ele>
        <time>0001-01-01T09:45:00Z</time>
      </trkpt>
      <trkpt lat="45.23909" lon="6.18108">
        <ele>1931</ele>
        <time>0001-01-01T09:45:00Z</time>
      </trkpt>
      <trkpt lat="45.23911" lon="6.18098">
        <ele>1931</ele>
        <time>0001-01-01T09:45:00Z</time>
      </trkpt>
      <trkpt lat="45.23911" lon="6.18085">
        <ele>1931</ele>
        <time>0001-01-01T09:45:00Z</time>
      </trkpt>
      <trkpt lat="45.23911" lon="6.18074">
        <ele>1931</ele>
        <time>0001-01-01T09:45:00Z</time>
      </trkpt>
      <trkpt lat="45.23909" lon="6.1806">
        <ele>1931</ele>
        <time>0001-01-01T09:45:00Z</time>
      </trkpt>
      <trkpt lat="45.23904" lon="6.18035">
        <ele>1930</ele>
        <time>0001-01-01T09:45:00Z</time>
      </trkpt>
      <trkpt lat="45.23902" lon="6.18005">
        <ele>1930</ele>
        <time>0001-01-01T09:45:00Z</time>
      </trkpt>
      <trkpt lat="45.239" lon="6.17979">
        <ele>1930</ele>
        <time>0001-01-01T09:45:00Z</time>
      </trkpt>
      <trkpt lat="45.239" lon="6.17956">
        <ele>1932</ele>
        <time>0001-01-01T09:45:00Z</time>
      </trkpt>
      <trkpt lat="45.23899" lon="6.17934">
        <ele>1932</ele>
        <time>0001-01-01T09:45:00Z</time>
      </trkpt>
      <trkpt lat="45.23897" lon="6.17911">
        <ele>1932</ele>
        <time>0001-01-01T09:45:00Z</time>
      </trkpt>
      <trkpt lat="45.23893" lon="6.17888">
        <ele>1932</ele>
        <time>0001-01-01T09:45:00Z</time>
      </trkpt>
      <trkpt lat="45.23888" lon="6.17867">
        <ele>1935</ele>
        <time>0001-01-01T09:45:00Z</time>
      </trkpt>
      <trkpt lat="45.23884" lon="6.17848">
        <ele>1935</ele>
        <time>0001-01-01T09:45:00Z</time>
      </trkpt>
      <trkpt lat="45.23881" lon="6.17832">
        <ele>1935</ele>
        <time>0001-01-01T09:45:00Z</time>
      </trkpt>
      <trkpt lat="45.2388" lon="6.17813">
        <ele>1935</ele>
        <time>0001-01-01T09:45:00Z</time>
      </trkpt>
      <trkpt lat="45.23878" lon="6.17801">
        <ele>1935</ele>
        <time>0001-01-01T09:45:00Z</time>
      </trkpt>
      <trkpt lat="45.23877" lon="6.17789">
        <ele>1930</ele>
        <time>0001-01-01T09:45:00Z</time>
      </trkpt>
      <trkpt lat="45.23874" lon="6.17786">
        <ele>1891</ele>
        <time>0001-01-01T09:45:00Z</time>
      </trkpt>
      <trkpt lat="45.23872" lon="6.17779">
        <ele>1891</ele>
        <time>0001-01-01T09:45:00Z</time>
      </trkpt>
      <trkpt lat="45.2387" lon="6.17769">
        <ele>1891</ele>
        <time>0001-01-01T09:45:00Z</time>
      </trkpt>
      <trkpt lat="45.23872" lon="6.17751">
        <ele>1891</ele>
        <time>0001-01-01T09:45:00Z</time>
      </trkpt>
      <trkpt lat="45.23874" lon="6.17738">
        <ele>1891</ele>
        <time>0001-01-01T09:45:00Z</time>
      </trkpt>
      <trkpt lat="45.23873" lon="6.17727">
        <ele>1891</ele>
        <time>0001-01-01T09:45:00Z</time>
      </trkpt>
      <trkpt lat="45.23873" lon="6.1772">
        <ele>1891</ele>
        <time>0001-01-01T09:45:00Z</time>
      </trkpt>
      <trkpt lat="45.2387" lon="6.17707">
        <ele>1894</ele>
        <time>0001-01-01T09:45:00Z</time>
      </trkpt>
      <trkpt lat="45.23863" lon="6.17685">
        <ele>1894</ele>
        <time>0001-01-01T09:45:00Z</time>
      </trkpt>
      <trkpt lat="45.23857" lon="6.17662">
        <ele>1894</ele>
        <time>0001-01-01T09:45:00Z</time>
      </trkpt>
      <trkpt lat="45.23851" lon="6.17636">
        <ele>1894</ele>
        <time>0001-01-01T09:45:00Z</time>
      </trkpt>
      <trkpt lat="45.2385" lon="6.1761">
        <ele>1895</ele>
        <time>0001-01-01T09:45:00Z</time>
      </trkpt>
      <trkpt lat="45.23851" lon="6.176">
        <ele>1895</ele>
        <time>0001-01-01T09:45:00Z</time>
      </trkpt>
      <trkpt lat="45.2385" lon="6.17588">
        <ele>1895</ele>
        <time>0001-01-01T09:45:00Z</time>
      </trkpt>
      <trkpt lat="45.23848" lon="6.17579">
        <ele>1895</ele>
        <time>0001-01-01T09:45:00Z</time>
      </trkpt>
      <trkpt lat="45.23843" lon="6.17569">
        <ele>1895</ele>
        <time>0001-01-01T09:45:00Z</time>
      </trkpt>
      <trkpt lat="45.23834" lon="6.17557">
        <ele>1895</ele>
        <time>0001-01-01T09:45:00Z</time>
      </trkpt>
      <trkpt lat="45.23816" lon="6.17542">
        <ele>1895</ele>
        <time>0001-01-01T09:45:00Z</time>
      </trkpt>
      <trkpt lat="45.23812" lon="6.17539">
        <ele>1907</ele>
        <time>0001-01-01T09:45:00Z</time>
      </trkpt>
      <trkpt lat="45.23788" lon="6.17524">
        <ele>1887</ele>
        <time>0001-01-01T09:45:00Z</time>
      </trkpt>
      <trkpt lat="45.23764" lon="6.17517">
        <ele>1887</ele>
        <time>0001-01-01T09:45:00Z</time>
      </trkpt>
      <trkpt lat="45.23753" lon="6.17512">
        <ele>1887</ele>
        <time>0001-01-01T09:45:00Z</time>
      </trkpt>
      <trkpt lat="45.23744" lon="6.17506">
        <ele>1887</ele>
        <time>0001-01-01T09:45:00Z</time>
      </trkpt>
      <trkpt lat="45.23735" lon="6.175">
        <ele>1887</ele>
        <time>0001-01-01T09:45:00Z</time>
      </trkpt>
      <trkpt lat="45.23726" lon="6.1749">
        <ele>1887</ele>
        <time>0001-01-01T09:45:00Z</time>
      </trkpt>
      <trkpt lat="45.23717" lon="6.17484">
        <ele>1887</ele>
        <time>0001-01-01T09:45:00Z</time>
      </trkpt>
      <trkpt lat="45.23704" lon="6.17479">
        <ele>1867</ele>
        <time>0001-01-01T09:45:00Z</time>
      </trkpt>
      <trkpt lat="45.23692" lon="6.17476">
        <ele>1867</ele>
        <time>0001-01-01T09:45:00Z</time>
      </trkpt>
      <trkpt lat="45.23681" lon="6.17466">
        <ele>1867</ele>
        <time>0001-01-01T09:45:00Z</time>
      </trkpt>
      <trkpt lat="45.23671" lon="6.17453">
        <ele>1876</ele>
        <time>0001-01-01T09:45:00Z</time>
      </trkpt>
      <trkpt lat="45.23661" lon="6.17434">
        <ele>1876</ele>
        <time>0001-01-01T09:45:00Z</time>
      </trkpt>
      <trkpt lat="45.23655" lon="6.17417">
        <ele>1876</ele>
        <time>0001-01-01T09:45:00Z</time>
      </trkpt>
      <trkpt lat="45.2365" lon="6.17397">
        <ele>1876</ele>
        <time>0001-01-01T09:45:00Z</time>
      </trkpt>
      <trkpt lat="45.23645" lon="6.17378">
        <ele>1876</ele>
        <time>0001-01-01T09:45:00Z</time>
      </trkpt>
      <trkpt lat="45.2364" lon="6.17366">
        <ele>1879</ele>
        <time>0001-01-01T09:45:00Z</time>
      </trkpt>
      <trkpt lat="45.23636" lon="6.17359">
        <ele>1879</ele>
        <time>0001-01-01T09:45:00Z</time>
      </trkpt>
      <trkpt lat="45.23622" lon="6.17353">
        <ele>1860</ele>
        <time>0001-01-01T09:45:00Z</time>
      </trkpt>
      <trkpt lat="45.2361" lon="6.17344">
        <ele>1860</ele>
        <time>0001-01-01T09:45:00Z</time>
      </trkpt>
      <trkpt lat="45.23602" lon="6.17336">
        <ele>1860</ele>
        <time>0001-01-01T09:45:00Z</time>
      </trkpt>
      <trkpt lat="45.23596" lon="6.17326">
        <ele>1860</ele>
        <time>0001-01-01T09:45:00Z</time>
      </trkpt>
      <trkpt lat="45.23589" lon="6.17312">
        <ele>1860</ele>
        <time>0001-01-01T09:45:00Z</time>
      </trkpt>
      <trkpt lat="45.2358" lon="6.17288">
        <ele>1864</ele>
        <time>0001-01-01T09:45:00Z</time>
      </trkpt>
      <trkpt lat="45.23572" lon="6.17275">
        <ele>1864</ele>
        <time>0001-01-01T09:45:00Z</time>
      </trkpt>
      <trkpt lat="45.23565" lon="6.17262">
        <ele>1864</ele>
        <time>0001-01-01T09:45:00Z</time>
      </trkpt>
      <trkpt lat="45.23558" lon="6.17253">
        <ele>1864</ele>
        <time>0001-01-01T09:45:00Z</time>
      </trkpt>
      <trkpt lat="45.2355" lon="6.17246">
        <ele>1864</ele>
        <time>0001-01-01T09:45:00Z</time>
      </trkpt>
      <trkpt lat="45.23538" lon="6.17236">
        <ele>1847</ele>
        <time>0001-01-01T09:45:00Z</time>
      </trkpt>
      <trkpt lat="45.23519" lon="6.17226">
        <ele>1847</ele>
        <time>0001-01-01T09:45:00Z</time>
      </trkpt>
      <trkpt lat="45.23501" lon="6.17218">
        <ele>1847</ele>
        <time>0001-01-01T09:45:00Z</time>
      </trkpt>
      <trkpt lat="45.23493" lon="6.17211">
        <ele>1847</ele>
        <time>0001-01-01T09:45:00Z</time>
      </trkpt>
      <trkpt lat="45.23485" lon="6.172">
        <ele>1853</ele>
        <time>0001-01-01T09:45:00Z</time>
      </trkpt>
      <trkpt lat="45.23479" lon="6.1719">
        <ele>1853</ele>
        <time>0001-01-01T09:45:00Z</time>
      </trkpt>
      <trkpt lat="45.2347" lon="6.17168">
        <ele>1853</ele>
        <time>0001-01-01T09:45:00Z</time>
      </trkpt>
      <trkpt lat="45.23454" lon="6.17134">
        <ele>1831</ele>
        <time>0001-01-01T09:45:00Z</time>
      </trkpt>
      <trkpt lat="45.23444" lon="6.1711">
        <ele>1835</ele>
        <time>0001-01-01T09:45:00Z</time>
      </trkpt>
      <trkpt lat="45.23437" lon="6.17091">
        <ele>1835</ele>
        <time>0001-01-01T09:45:00Z</time>
      </trkpt>
      <trkpt lat="45.23429" lon="6.17062">
        <ele>1835</ele>
        <time>0001-01-01T09:45:00Z</time>
      </trkpt>
      <trkpt lat="45.23421" lon="6.17029">
        <ele>1838</ele>
        <time>0001-01-01T09:45:00Z</time>
      </trkpt>
      <trkpt lat="45.23416" lon="6.17007">
        <ele>1838</ele>
        <time>0001-01-01T09:45:00Z</time>
      </trkpt>
      <trkpt lat="45.23411" lon="6.16989">
        <ele>1838</ele>
        <time>0001-01-01T09:45:00Z</time>
      </trkpt>
      <trkpt lat="45.23404" lon="6.16972">
        <ele>1838</ele>
        <time>0001-01-01T09:45:00Z</time>
      </trkpt>
      <trkpt lat="45.23391" lon="6.16952">
        <ele>1841</ele>
        <time>0001-01-01T09:45:00Z</time>
      </trkpt>
      <trkpt lat="45.2338" lon="6.16933">
        <ele>1841</ele>
        <time>0001-01-01T09:45:00Z</time>
      </trkpt>
      <trkpt lat="45.23373" lon="6.16914">
        <ele>1820</ele>
        <time>0001-01-01T09:45:00Z</time>
      </trkpt>
      <trkpt lat="45.23362" lon="6.16887">
        <ele>1820</ele>
        <time>0001-01-01T09:45:00Z</time>
      </trkpt>
      <trkpt lat="45.23359" lon="6.16877">
        <ele>1820</ele>
        <time>0001-01-01T09:45:00Z</time>
      </trkpt>
      <trkpt lat="45.23356" lon="6.16865">
        <ele>1823</ele>
        <time>0001-01-01T09:45:00Z</time>
      </trkpt>
      <trkpt lat="45.23354" lon="6.16853">
        <ele>1823</ele>
        <time>0001-01-01T09:45:00Z</time>
      </trkpt>
      <trkpt lat="45.23352" lon="6.16838">
        <ele>1823</ele>
        <time>0001-01-01T09:45:00Z</time>
      </trkpt>
      <trkpt lat="45.23349" lon="6.16821">
        <ele>1823</ele>
        <time>0001-01-01T09:45:00Z</time>
      </trkpt>
      <trkpt lat="45.23344" lon="6.16806">
        <ele>1823</ele>
        <time>0001-01-01T09:45:00Z</time>
      </trkpt>
      <trkpt lat="45.23337" lon="6.1679">
        <ele>1827</ele>
        <time>0001-01-01T09:45:00Z</time>
      </trkpt>
      <trkpt lat="45.23332" lon="6.16779">
        <ele>1827</ele>
        <time>0001-01-01T09:45:00Z</time>
      </trkpt>
      <trkpt lat="45.23326" lon="6.16767">
        <ele>1827</ele>
        <time>0001-01-01T09:45:00Z</time>
      </trkpt>
      <trkpt lat="45.23319" lon="6.16741">
        <ele>1827</ele>
        <time>0001-01-01T09:45:00Z</time>
      </trkpt>
      <trkpt lat="45.23313" lon="6.1672">
        <ele>1827</ele>
        <time>0001-01-01T09:45:00Z</time>
      </trkpt>
      <trkpt lat="45.23307" lon="6.16696">
        <ele>1828</ele>
        <time>0001-01-01T09:45:00Z</time>
      </trkpt>
      <trkpt lat="45.23304" lon="6.16669">
        <ele>1828</ele>
        <time>0001-01-01T09:45:00Z</time>
      </trkpt>
      <trkpt lat="45.23303" lon="6.16653">
        <ele>1828</ele>
        <time>0001-01-01T09:45:00Z</time>
      </trkpt>
      <trkpt lat="45.233" lon="6.16641">
        <ele>1828</ele>
        <time>0001-01-01T09:45:00Z</time>
      </trkpt>
      <trkpt lat="45.23291" lon="6.16619">
        <ele>1801</ele>
        <time>0001-01-01T09:45:00Z</time>
      </trkpt>
      <trkpt lat="45.2328" lon="6.1659">
        <ele>1801</ele>
        <time>0001-01-01T09:45:00Z</time>
      </trkpt>
      <trkpt lat="45.23272" lon="6.16564">
        <ele>1801</ele>
        <time>0001-01-01T09:45:00Z</time>
      </trkpt>
      <trkpt lat="45.23266" lon="6.16533">
        <ele>1804</ele>
        <time>0001-01-01T09:45:00Z</time>
      </trkpt>
      <trkpt lat="45.23256" lon="6.16496">
        <ele>1804</ele>
        <time>0001-01-01T09:45:00Z</time>
      </trkpt>
      <trkpt lat="45.23246" lon="6.16464">
        <ele>1804</ele>
        <time>0001-01-01T09:45:00Z</time>
      </trkpt>
      <trkpt lat="45.23232" lon="6.16422">
        <ele>1808</ele>
        <time>0001-01-01T09:45:00Z</time>
      </trkpt>
      <trkpt lat="45.23223" lon="6.16388">
        <ele>1808</ele>
        <time>0001-01-01T09:45:00Z</time>
      </trkpt>
      <trkpt lat="45.23215" lon="6.16353">
        <ele>1813</ele>
        <time>0001-01-01T09:45:00Z</time>
      </trkpt>
      <trkpt lat="45.2321" lon="6.16321">
        <ele>1813</ele>
        <time>0001-01-01T09:45:00Z</time>
      </trkpt>
      <trkpt lat="45.23203" lon="6.16284">
        <ele>1785</ele>
        <time>0001-01-01T09:45:00Z</time>
      </trkpt>
      <trkpt lat="45.23202" lon="6.16279">
        <ele>1785</ele>
        <time>0001-01-01T09:45:00Z</time>
      </trkpt>
      <trkpt lat="45.23195" lon="6.16233">
        <ele>1785</ele>
        <time>0001-01-01T09:45:00Z</time>
      </trkpt>
      <trkpt lat="45.23192" lon="6.16217">
        <ele>1785</ele>
        <time>0001-01-01T09:45:00Z</time>
      </trkpt>
      <trkpt lat="45.2319" lon="6.16207">
        <ele>1785</ele>
        <time>0001-01-01T09:45:00Z</time>
      </trkpt>
      <trkpt lat="45.2318" lon="6.16183">
        <ele>1785</ele>
        <time>0001-01-01T09:45:00Z</time>
      </trkpt>
      <trkpt lat="45.23169" lon="6.16152">
        <ele>1785</ele>
        <time>0001-01-01T09:45:00Z</time>
      </trkpt>
      <trkpt lat="45.23159" lon="6.16135">
        <ele>1785</ele>
        <time>0001-01-01T09:45:00Z</time>
      </trkpt>
      <trkpt lat="45.23144" lon="6.16121">
        <ele>1800</ele>
        <time>0001-01-01T09:45:00Z</time>
      </trkpt>
      <trkpt lat="45.23138" lon="6.16117">
        <ele>1800</ele>
        <time>0001-01-01T09:45:00Z</time>
      </trkpt>
      <trkpt lat="45.23129" lon="6.16103">
        <ele>1800</ele>
        <time>0001-01-01T09:45:00Z</time>
      </trkpt>
      <trkpt lat="45.23126" lon="6.16094">
        <ele>1800</ele>
        <time>0001-01-01T09:45:00Z</time>
      </trkpt>
      <trkpt lat="45.23122" lon="6.16085">
        <ele>1770</ele>
        <time>0001-01-01T09:45:00Z</time>
      </trkpt>
      <trkpt lat="45.23119" lon="6.16074">
        <ele>1770</ele>
        <time>0001-01-01T09:45:00Z</time>
      </trkpt>
      <trkpt lat="45.23115" lon="6.16061">
        <ele>1770</ele>
        <time>0001-01-01T09:45:00Z</time>
      </trkpt>
      <trkpt lat="45.23104" lon="6.16044">
        <ele>1770</ele>
        <time>0001-01-01T09:45:00Z</time>
      </trkpt>
      <trkpt lat="45.23091" lon="6.16025">
        <ele>1774</ele>
        <time>0001-01-01T09:45:00Z</time>
      </trkpt>
      <trkpt lat="45.23079" lon="6.16002">
        <ele>1774</ele>
        <time>0001-01-01T09:45:00Z</time>
      </trkpt>
      <trkpt lat="45.23071" lon="6.15984">
        <ele>1774</ele>
        <time>0001-01-01T09:45:00Z</time>
      </trkpt>
      <trkpt lat="45.23063" lon="6.15968">
        <ele>1774</ele>
        <time>0001-01-01T09:45:00Z</time>
      </trkpt>
      <trkpt lat="45.23056" lon="6.15955">
        <ele>1782</ele>
        <time>0001-01-01T09:45:00Z</time>
      </trkpt>
      <trkpt lat="45.23048" lon="6.15949">
        <ele>1782</ele>
        <time>0001-01-01T09:45:00Z</time>
      </trkpt>
      <trkpt lat="45.23032" lon="6.15934">
        <ele>1762</ele>
        <time>0001-01-01T09:45:00Z</time>
      </trkpt>
      <trkpt lat="45.23018" lon="6.15922">
        <ele>1762</ele>
        <time>0001-01-01T09:45:00Z</time>
      </trkpt>
      <trkpt lat="45.23012" lon="6.15912">
        <ele>1762</ele>
        <time>0001-01-01T09:45:00Z</time>
      </trkpt>
      <trkpt lat="45.23009" lon="6.15905">
        <ele>1762</ele>
        <time>0001-01-01T09:45:00Z</time>
      </trkpt>
      <trkpt lat="45.23001" lon="6.15879">
        <ele>1762</ele>
        <time>0001-01-01T09:45:00Z</time>
      </trkpt>
      <trkpt lat="45.22993" lon="6.15854">
        <ele>1765</ele>
        <time>0001-01-01T09:45:00Z</time>
      </trkpt>
      <trkpt lat="45.22984" lon="6.15832">
        <ele>1765</ele>
        <time>0001-01-01T09:45:00Z</time>
      </trkpt>
      <trkpt lat="45.22977" lon="6.15806">
        <ele>1765</ele>
        <time>0001-01-01T09:45:00Z</time>
      </trkpt>
      <trkpt lat="45.22976" lon="6.15796">
        <ele>1765</ele>
        <time>0001-01-01T09:45:00Z</time>
      </trkpt>
      <trkpt lat="45.22973" lon="6.15773">
        <ele>1772</ele>
        <time>0001-01-01T09:45:00Z</time>
      </trkpt>
      <trkpt lat="45.22968" lon="6.15756">
        <ele>1772</ele>
        <time>0001-01-01T09:45:00Z</time>
      </trkpt>
      <trkpt lat="45.22961" lon="6.15734">
        <ele>1772</ele>
        <time>0001-01-01T09:45:00Z</time>
      </trkpt>
      <trkpt lat="45.22946" lon="6.15712">
        <ele>1747</ele>
        <time>0001-01-01T09:45:00Z</time>
      </trkpt>
      <trkpt lat="45.22927" lon="6.15683">
        <ele>1752</ele>
        <time>0001-01-01T09:45:00Z</time>
      </trkpt>
      <trkpt lat="45.22905" lon="6.15646">
        <ele>1752</ele>
        <time>0001-01-01T09:45:00Z</time>
      </trkpt>
      <trkpt lat="45.22885" lon="6.15612">
        <ele>1756</ele>
        <time>0001-01-01T09:45:00Z</time>
      </trkpt>
      <trkpt lat="45.22872" lon="6.15583">
        <ele>1735</ele>
        <time>0001-01-01T09:45:00Z</time>
      </trkpt>
      <trkpt lat="45.22859" lon="6.15556">
        <ele>1735</ele>
        <time>0001-01-01T09:45:00Z</time>
      </trkpt>
      <trkpt lat="45.2285" lon="6.1554">
        <ele>1734</ele>
        <time>0001-01-01T09:45:00Z</time>
      </trkpt>
      <trkpt lat="45.22845" lon="6.15523">
        <ele>1734</ele>
        <time>0001-01-01T09:45:00Z</time>
      </trkpt>
      <trkpt lat="45.22844" lon="6.15506">
        <ele>1734</ele>
        <time>0001-01-01T09:45:00Z</time>
      </trkpt>
      <trkpt lat="45.22846" lon="6.15481">
        <ele>1734</ele>
        <time>0001-01-01T09:45:00Z</time>
      </trkpt>
      <trkpt lat="45.22849" lon="6.15469">
        <ele>1734</ele>
        <time>0001-01-01T09:45:00Z</time>
      </trkpt>
      <trkpt lat="45.2285" lon="6.15458">
        <ele>1731</ele>
        <time>0001-01-01T09:45:00Z</time>
      </trkpt>
      <trkpt lat="45.22854" lon="6.15444">
        <ele>1731</ele>
        <time>0001-01-01T09:45:00Z</time>
      </trkpt>
      <trkpt lat="45.22857" lon="6.15434">
        <ele>1731</ele>
        <time>0001-01-01T09:45:00Z</time>
      </trkpt>
      <trkpt lat="45.22858" lon="6.15424">
        <ele>1731</ele>
        <time>0001-01-01T09:45:00Z</time>
      </trkpt>
      <trkpt lat="45.22857" lon="6.15412">
        <ele>1731</ele>
        <time>0001-01-01T09:45:00Z</time>
      </trkpt>
      <trkpt lat="45.22849" lon="6.15383">
        <ele>1731</ele>
        <time>0001-01-01T09:45:00Z</time>
      </trkpt>
      <trkpt lat="45.22839" lon="6.15343">
        <ele>1728</ele>
        <time>0001-01-01T09:45:00Z</time>
      </trkpt>
      <trkpt lat="45.2283" lon="6.1531">
        <ele>1728</ele>
        <time>0001-01-01T09:45:00Z</time>
      </trkpt>
      <trkpt lat="45.22823" lon="6.15295">
        <ele>1728</ele>
        <time>0001-01-01T09:45:00Z</time>
      </trkpt>
      <trkpt lat="45.22818" lon="6.15283">
        <ele>1739</ele>
        <time>0001-01-01T09:45:00Z</time>
      </trkpt>
      <trkpt lat="45.2281" lon="6.15265">
        <ele>1739</ele>
        <time>0001-01-01T09:45:00Z</time>
      </trkpt>
      <trkpt lat="45.22803" lon="6.15247">
        <ele>1739</ele>
        <time>0001-01-01T09:45:00Z</time>
      </trkpt>
      <trkpt lat="45.22799" lon="6.15229">
        <ele>1739</ele>
        <time>0001-01-01T09:45:00Z</time>
      </trkpt>
      <trkpt lat="45.22795" lon="6.15203">
        <ele>1749</ele>
        <time>0001-01-01T09:45:00Z</time>
      </trkpt>
      <trkpt lat="45.22792" lon="6.15179">
        <ele>1749</ele>
        <time>0001-01-01T09:45:00Z</time>
      </trkpt>
      <trkpt lat="45.22785" lon="6.15162">
        <ele>1721</ele>
        <time>0001-01-01T09:45:00Z</time>
      </trkpt>
      <trkpt lat="45.22778" lon="6.15152">
        <ele>1721</ele>
        <time>0001-01-01T09:45:00Z</time>
      </trkpt>
      <trkpt lat="45.22766" lon="6.15139">
        <ele>1721</ele>
        <time>0001-01-01T09:45:00Z</time>
      </trkpt>
      <trkpt lat="45.22757" lon="6.15129">
        <ele>1721</ele>
        <time>0001-01-01T09:45:00Z</time>
      </trkpt>
      <trkpt lat="45.22748" lon="6.15116">
        <ele>1727</ele>
        <time>0001-01-01T09:45:00Z</time>
      </trkpt>
      <trkpt lat="45.22744" lon="6.15098">
        <ele>1727</ele>
        <time>0001-01-01T09:45:00Z</time>
      </trkpt>
      <trkpt lat="45.22742" lon="6.15074">
        <ele>1727</ele>
        <time>0001-01-01T09:45:00Z</time>
      </trkpt>
      <trkpt lat="45.22739" lon="6.15049">
        <ele>1727</ele>
        <time>0001-01-01T09:45:00Z</time>
      </trkpt>
      <trkpt lat="45.22737" lon="6.15024">
        <ele>1739</ele>
        <time>0001-01-01T09:45:00Z</time>
      </trkpt>
      <trkpt lat="45.22734" lon="6.15008">
        <ele>1739</ele>
        <time>0001-01-01T09:45:00Z</time>
      </trkpt>
      <trkpt lat="45.22726" lon="6.1499">
        <ele>1739</ele>
        <time>0001-01-01T09:45:00Z</time>
      </trkpt>
      <trkpt lat="45.22717" lon="6.14974">
        <ele>1739</ele>
        <time>0001-01-01T09:45:00Z</time>
      </trkpt>
      <trkpt lat="45.22698" lon="6.14953">
        <ele>1728</ele>
        <time>0001-01-01T09:45:00Z</time>
      </trkpt>
      <trkpt lat="45.22683" lon="6.14935">
        <ele>1728</ele>
        <time>0001-01-01T09:45:00Z</time>
      </trkpt>
      <trkpt lat="45.22674" lon="6.14915">
        <ele>1728</ele>
        <time>0001-01-01T09:45:00Z</time>
      </trkpt>
      <trkpt lat="45.2267" lon="6.14901">
        <ele>1728</ele>
        <time>0001-01-01T09:45:00Z</time>
      </trkpt>
      <trkpt lat="45.22667" lon="6.14885">
        <ele>1728</ele>
        <time>0001-01-01T09:45:00Z</time>
      </trkpt>
      <trkpt lat="45.22667" lon="6.14871">
        <ele>1735</ele>
        <time>0001-01-01T09:45:00Z</time>
      </trkpt>
      <trkpt lat="45.22668" lon="6.14855">
        <ele>1735</ele>
        <time>0001-01-01T09:45:00Z</time>
      </trkpt>
      <trkpt lat="45.2267" lon="6.14829">
        <ele>1735</ele>
        <time>0001-01-01T09:45:00Z</time>
      </trkpt>
      <trkpt lat="45.22671" lon="6.14797">
        <ele>1735</ele>
        <time>0001-01-01T09:45:00Z</time>
      </trkpt>
      <trkpt lat="45.22671" lon="6.14768">
        <ele>1740</ele>
        <time>0001-01-01T09:45:00Z</time>
      </trkpt>
      <trkpt lat="45.22669" lon="6.14748">
        <ele>1740</ele>
        <time>0001-01-01T09:45:00Z</time>
      </trkpt>
      <trkpt lat="45.22668" lon="6.14733">
        <ele>1740</ele>
        <time>0001-01-01T09:45:00Z</time>
      </trkpt>
      <trkpt lat="45.22667" lon="6.14718">
        <ele>1740</ele>
        <time>0001-01-01T09:45:00Z</time>
      </trkpt>
      <trkpt lat="45.22663" lon="6.14672">
        <ele>1745</ele>
        <time>0001-01-01T09:45:00Z</time>
      </trkpt>
      <trkpt lat="45.22658" lon="6.14604">
        <ele>1752</ele>
        <time>0001-01-01T09:45:00Z</time>
      </trkpt>
      <trkpt lat="45.22653" lon="6.14558">
        <ele>1752</ele>
        <time>0001-01-01T09:45:00Z</time>
      </trkpt>
      <trkpt lat="45.22648" lon="6.14526">
        <ele>1765</ele>
        <time>0001-01-01T09:45:00Z</time>
      </trkpt>
      <trkpt lat="45.22641" lon="6.14497">
        <ele>1765</ele>
        <time>0001-01-01T09:45:00Z</time>
      </trkpt>
      <trkpt lat="45.22628" lon="6.1446">
        <ele>1765</ele>
        <time>0001-01-01T09:45:00Z</time>
      </trkpt>
      <trkpt lat="45.22627" lon="6.14456">
        <ele>1775</ele>
        <time>0001-01-01T09:45:00Z</time>
      </trkpt>
      <trkpt lat="45.2262" lon="6.14438">
        <ele>1743</ele>
        <time>0001-01-01T09:45:00Z</time>
      </trkpt>
      <trkpt lat="45.22614" lon="6.14421">
        <ele>1743</ele>
        <time>0001-01-01T09:45:00Z</time>
      </trkpt>
      <trkpt lat="45.22608" lon="6.14397">
        <ele>1743</ele>
        <time>0001-01-01T09:45:00Z</time>
      </trkpt>
      <trkpt lat="45.22595" lon="6.14357">
        <ele>1757</ele>
        <time>0001-01-01T09:45:00Z</time>
      </trkpt>
      <trkpt lat="45.22579" lon="6.14316">
        <ele>1757</ele>
        <time>0001-01-01T09:45:00Z</time>
      </trkpt>
      <trkpt lat="45.22569" lon="6.14289">
        <ele>1769</ele>
        <time>0001-01-01T09:45:00Z</time>
      </trkpt>
      <trkpt lat="45.22558" lon="6.14263">
        <ele>1769</ele>
        <time>0001-01-01T09:45:00Z</time>
      </trkpt>
      <trkpt lat="45.22536" lon="6.14208">
        <ele>1755</ele>
        <time>0001-01-01T09:45:00Z</time>
      </trkpt>
      <trkpt lat="45.22521" lon="6.14164">
        <ele>1755</ele>
        <time>0001-01-01T09:45:00Z</time>
      </trkpt>
      <trkpt lat="45.22513" lon="6.14131">
        <ele>1755</ele>
        <time>0001-01-01T09:45:00Z</time>
      </trkpt>
      <trkpt lat="45.22503" lon="6.14077">
        <ele>1767</ele>
        <time>0001-01-01T09:45:00Z</time>
      </trkpt>
      <trkpt lat="45.22495" lon="6.14036">
        <ele>1777</ele>
        <time>0001-01-01T09:45:00Z</time>
      </trkpt>
      <trkpt lat="45.2248" lon="6.13991">
        <ele>1777</ele>
        <time>0001-01-01T09:45:00Z</time>
      </trkpt>
      <trkpt lat="45.2245" lon="6.13924">
        <ele>1763</ele>
        <time>0001-01-01T09:45:00Z</time>
      </trkpt>
      <trkpt lat="45.22443" lon="6.13908">
        <ele>1763</ele>
        <time>0001-01-01T09:45:00Z</time>
      </trkpt>
      <trkpt lat="45.22438" lon="6.13896">
        <ele>1763</ele>
        <time>0001-01-01T09:45:00Z</time>
      </trkpt>
      <trkpt lat="45.22432" lon="6.13884">
        <ele>1763</ele>
        <time>0001-01-01T09:45:00Z</time>
      </trkpt>
      <trkpt lat="45.22432" lon="6.13882">
        <ele>1763</ele>
        <time>0001-01-01T09:45:00Z</time>
      </trkpt>
      <trkpt lat="45.22426" lon="6.13871">
        <ele>1778</ele>
        <time>0001-01-01T09:45:00Z</time>
      </trkpt>
      <trkpt lat="45.22421" lon="6.13866">
        <ele>1778</ele>
        <time>0001-01-01T09:45:00Z</time>
      </trkpt>
      <trkpt lat="45.22417" lon="6.13862">
        <ele>1778</ele>
        <time>0001-01-01T09:45:00Z</time>
      </trkpt>
      <trkpt lat="45.22413" lon="6.13859">
        <ele>1778</ele>
        <time>0001-01-01T09:45:00Z</time>
      </trkpt>
      <trkpt lat="45.22408" lon="6.13857">
        <ele>1778</ele>
        <time>0001-01-01T09:45:00Z</time>
      </trkpt>
      <trkpt lat="45.22402" lon="6.13856">
        <ele>1778</ele>
        <time>0001-01-01T09:45:00Z</time>
      </trkpt>
      <trkpt lat="45.22397" lon="6.13856">
        <ele>1778</ele>
        <time>0001-01-01T09:45:00Z</time>
      </trkpt>
      <trkpt lat="45.22394" lon="6.13856">
        <ele>1778</ele>
        <time>0001-01-01T09:45:00Z</time>
      </trkpt>
      <trkpt lat="45.22388" lon="6.13858">
        <ele>1778</ele>
        <time>0001-01-01T09:45:00Z</time>
      </trkpt>
      <trkpt lat="45.22384" lon="6.1386">
        <ele>1778</ele>
        <time>0001-01-01T09:45:00Z</time>
      </trkpt>
      <trkpt lat="45.22368" lon="6.1387">
        <ele>1785</ele>
        <time>0001-01-01T09:45:00Z</time>
      </trkpt>
      <trkpt lat="45.22354" lon="6.13879">
        <ele>1762</ele>
        <time>0001-01-01T09:45:00Z</time>
      </trkpt>
      <trkpt lat="45.22348" lon="6.13881">
        <ele>1762</ele>
        <time>0001-01-01T09:45:00Z</time>
      </trkpt>
      <trkpt lat="45.22341" lon="6.13882">
        <ele>1762</ele>
        <time>0001-01-01T09:45:00Z</time>
      </trkpt>
      <trkpt lat="45.22335" lon="6.13883">
        <ele>1762</ele>
        <time>0001-01-01T09:45:00Z</time>
      </trkpt>
      <trkpt lat="45.22329" lon="6.13882">
        <ele>1762</ele>
        <time>0001-01-01T09:45:00Z</time>
      </trkpt>
      <trkpt lat="45.22322" lon="6.13881">
        <ele>1762</ele>
        <time>0001-01-01T09:45:00Z</time>
      </trkpt>
      <trkpt lat="45.22318" lon="6.1388">
        <ele>1762</ele>
        <time>0001-01-01T09:45:00Z</time>
      </trkpt>
      <trkpt lat="45.22314" lon="6.13878">
        <ele>1762</ele>
        <time>0001-01-01T09:45:00Z</time>
      </trkpt>
      <trkpt lat="45.22309" lon="6.13874">
        <ele>1785</ele>
        <time>0001-01-01T09:45:00Z</time>
      </trkpt>
      <trkpt lat="45.22303" lon="6.1387">
        <ele>1785</ele>
        <time>0001-01-01T09:45:00Z</time>
      </trkpt>
      <trkpt lat="45.22298" lon="6.13864">
        <ele>1785</ele>
        <time>0001-01-01T09:45:00Z</time>
      </trkpt>
      <trkpt lat="45.22293" lon="6.13858">
        <ele>1785</ele>
        <time>0001-01-01T09:45:00Z</time>
      </trkpt>
      <trkpt lat="45.22286" lon="6.13846">
        <ele>1766</ele>
        <time>0001-01-01T09:45:00Z</time>
      </trkpt>
      <trkpt lat="45.22281" lon="6.13834">
        <ele>1766</ele>
        <time>0001-01-01T09:45:00Z</time>
      </trkpt>
      <trkpt lat="45.22271" lon="6.13811">
        <ele>1766</ele>
        <time>0001-01-01T09:45:00Z</time>
      </trkpt>
      <trkpt lat="45.22258" lon="6.13776">
        <ele>1787</ele>
        <time>0001-01-01T09:45:00Z</time>
      </trkpt>
      <trkpt lat="45.22242" lon="6.13737">
        <ele>1787</ele>
        <time>0001-01-01T09:45:00Z</time>
      </trkpt>
      <trkpt lat="45.22233" lon="6.13717">
        <ele>1787</ele>
        <time>0001-01-01T09:45:00Z</time>
      </trkpt>
      <trkpt lat="45.22225" lon="6.13702">
        <ele>1814</ele>
        <time>0001-01-01T09:45:00Z</time>
      </trkpt>
      <trkpt lat="45.22217" lon="6.13691">
        <ele>1814</ele>
        <time>0001-01-01T09:45:00Z</time>
      </trkpt>
      <trkpt lat="45.22206" lon="6.1368">
        <ele>1787</ele>
        <time>0001-01-01T09:45:00Z</time>
      </trkpt>
      <trkpt lat="45.222" lon="6.13675">
        <ele>1787</ele>
        <time>0001-01-01T09:45:00Z</time>
      </trkpt>
      <trkpt lat="45.22185" lon="6.13667">
        <ele>1787</ele>
        <time>0001-01-01T09:45:00Z</time>
      </trkpt>
      <trkpt lat="45.22155" lon="6.13648">
        <ele>1787</ele>
        <time>0001-01-01T09:45:00Z</time>
      </trkpt>
      <trkpt lat="45.22139" lon="6.13639">
        <ele>1787</ele>
        <time>0001-01-01T09:45:00Z</time>
      </trkpt>
      <trkpt lat="45.22131" lon="6.13634">
        <ele>1787</ele>
        <time>0001-01-01T09:45:00Z</time>
      </trkpt>
      <trkpt lat="45.22116" lon="6.1362">
        <ele>1805</ele>
        <time>0001-01-01T09:45:00Z</time>
      </trkpt>
      <trkpt lat="45.22096" lon="6.13602">
        <ele>1805</ele>
        <time>0001-01-01T09:45:00Z</time>
      </trkpt>
      <trkpt lat="45.2207" lon="6.13585">
        <ele>1805</ele>
        <time>0001-01-01T09:45:00Z</time>
      </trkpt>
      <trkpt lat="45.22038" lon="6.13568">
        <ele>1773</ele>
        <time>0001-01-01T09:45:00Z</time>
      </trkpt>
      <trkpt lat="45.22022" lon="6.13561">
        <ele>1773</ele>
        <time>0001-01-01T09:45:00Z</time>
      </trkpt>
      <trkpt lat="45.2201" lon="6.13553">
        <ele>1773</ele>
        <time>0001-01-01T09:45:00Z</time>
      </trkpt>
      <trkpt lat="45.21994" lon="6.13539">
        <ele>1810</ele>
        <time>0001-01-01T09:45:00Z</time>
      </trkpt>
      <trkpt lat="45.21969" lon="6.13514">
        <ele>1810</ele>
        <time>0001-01-01T09:45:00Z</time>
      </trkpt>
      <trkpt lat="45.21938" lon="6.13485">
        <ele>1772</ele>
        <time>0001-01-01T09:45:00Z</time>
      </trkpt>
      <trkpt lat="45.21907" lon="6.13455">
        <ele>1815</ele>
        <time>0001-01-01T09:45:00Z</time>
      </trkpt>
      <trkpt lat="45.21877" lon="6.13428">
        <ele>1815</ele>
        <time>0001-01-01T09:45:00Z</time>
      </trkpt>
      <trkpt lat="45.21845" lon="6.13403">
        <ele>1775</ele>
        <time>0001-01-01T09:45:00Z</time>
      </trkpt>
      <trkpt lat="45.21817" lon="6.13381">
        <ele>1775</ele>
        <time>0001-01-01T09:45:00Z</time>
      </trkpt>
      <trkpt lat="45.21783" lon="6.13357">
        <ele>1777</ele>
        <time>0001-01-01T09:45:00Z</time>
      </trkpt>
      <trkpt lat="45.21747" lon="6.13331">
        <ele>1777</ele>
        <time>0001-01-01T09:45:00Z</time>
      </trkpt>
      <trkpt lat="45.21726" lon="6.13314">
        <ele>1777</ele>
        <time>0001-01-01T09:45:00Z</time>
      </trkpt>
      <trkpt lat="45.21715" lon="6.13302">
        <ele>1777</ele>
        <time>0001-01-01T09:45:00Z</time>
      </trkpt>
      <trkpt lat="45.21698" lon="6.13285">
        <ele>1783</ele>
        <time>0001-01-01T09:45:00Z</time>
      </trkpt>
      <trkpt lat="45.21689" lon="6.13276">
        <ele>1783</ele>
        <time>0001-01-01T09:45:00Z</time>
      </trkpt>
      <trkpt lat="45.21651" lon="6.13241">
        <ele>1783</ele>
        <time>0001-01-01T09:45:00Z</time>
      </trkpt>
      <trkpt lat="45.21574" lon="6.13185">
        <ele>1780</ele>
        <time>0001-01-01T09:45:00Z</time>
      </trkpt>
      <trkpt lat="45.21537" lon="6.13159">
        <ele>1753</ele>
        <time>0001-01-01T09:45:00Z</time>
      </trkpt>
      <trkpt lat="45.21511" lon="6.13146">
        <ele>1753</ele>
        <time>0001-01-01T09:45:00Z</time>
      </trkpt>
      <trkpt lat="45.21475" lon="6.13127">
        <ele>1753</ele>
        <time>0001-01-01T09:45:00Z</time>
      </trkpt>
      <trkpt lat="45.21455" lon="6.13118">
        <ele>1751</ele>
        <time>0001-01-01T09:45:00Z</time>
      </trkpt>
      <trkpt lat="45.21451" lon="6.13116">
        <ele>1751</ele>
        <time>0001-01-01T09:45:00Z</time>
      </trkpt>
      <trkpt lat="45.21442" lon="6.1311">
        <ele>1751</ele>
        <time>0001-01-01T09:45:00Z</time>
      </trkpt>
      <trkpt lat="45.21435" lon="6.13102">
        <ele>1751</ele>
        <time>0001-01-01T09:45:00Z</time>
      </trkpt>
      <trkpt lat="45.21417" lon="6.13077">
        <ele>1751</ele>
        <time>0001-01-01T09:45:00Z</time>
      </trkpt>
      <trkpt lat="45.21406" lon="6.13064">
        <ele>1751</ele>
        <time>0001-01-01T09:45:00Z</time>
      </trkpt>
      <trkpt lat="45.21397" lon="6.13053">
        <ele>1751</ele>
        <time>0001-01-01T09:45:00Z</time>
      </trkpt>
      <trkpt lat="45.21373" lon="6.13032">
        <ele>1750</ele>
        <time>0001-01-01T09:45:00Z</time>
      </trkpt>
      <trkpt lat="45.21349" lon="6.13009">
        <ele>1750</ele>
        <time>0001-01-01T09:45:00Z</time>
      </trkpt>
      <trkpt lat="45.21319" lon="6.12978">
        <ele>1750</ele>
        <time>0001-01-01T09:45:00Z</time>
      </trkpt>
      <trkpt lat="45.21296" lon="6.12954">
        <ele>1783</ele>
        <time>0001-01-01T09:45:00Z</time>
      </trkpt>
      <trkpt lat="45.21269" lon="6.12923">
        <ele>1743</ele>
        <time>0001-01-01T09:45:00Z</time>
      </trkpt>
      <trkpt lat="45.21246" lon="6.12895">
        <ele>1743</ele>
        <time>0001-01-01T09:45:00Z</time>
      </trkpt>
      <trkpt lat="45.21226" lon="6.12873">
        <ele>1766</ele>
        <time>0001-01-01T09:45:00Z</time>
      </trkpt>
      <trkpt lat="45.21217" lon="6.12861">
        <ele>1766</ele>
        <time>0001-01-01T09:45:00Z</time>
      </trkpt>
      <trkpt lat="45.21212" lon="6.1285">
        <ele>1766</ele>
        <time>0001-01-01T09:45:00Z</time>
      </trkpt>
      <trkpt lat="45.21198" lon="6.12818">
        <ele>1722</ele>
        <time>0001-01-01T09:45:00Z</time>
      </trkpt>
      <trkpt lat="45.21192" lon="6.12804">
        <ele>1722</ele>
        <time>0001-01-01T09:45:00Z</time>
      </trkpt>
      <trkpt lat="45.21186" lon="6.12794">
        <ele>1722</ele>
        <time>0001-01-01T09:45:00Z</time>
      </trkpt>
      <trkpt lat="45.2118" lon="6.12784">
        <ele>1755</ele>
        <time>0001-01-01T09:45:00Z</time>
      </trkpt>
      <trkpt lat="45.21174" lon="6.12777">
        <ele>1755</ele>
        <time>0001-01-01T09:45:00Z</time>
      </trkpt>
      <trkpt lat="45.21166" lon="6.12771">
        <ele>1755</ele>
        <time>0001-01-01T09:45:00Z</time>
      </trkpt>
      <trkpt lat="45.21155" lon="6.12766">
        <ele>1755</ele>
        <time>0001-01-01T09:45:00Z</time>
      </trkpt>
      <trkpt lat="45.21146" lon="6.12762">
        <ele>1755</ele>
        <time>0001-01-01T09:45:00Z</time>
      </trkpt>
      <trkpt lat="45.21137" lon="6.1276">
        <ele>1755</ele>
        <time>0001-01-01T09:45:00Z</time>
      </trkpt>
      <trkpt lat="45.21128" lon="6.12755">
        <ele>1755</ele>
        <time>0001-01-01T09:45:00Z</time>
      </trkpt>
      <trkpt lat="45.21121" lon="6.12748">
        <ele>1714</ele>
        <time>0001-01-01T09:45:00Z</time>
      </trkpt>
      <trkpt lat="45.2111" lon="6.12737">
        <ele>1714</ele>
        <time>0001-01-01T09:45:00Z</time>
      </trkpt>
      <trkpt lat="45.21105" lon="6.12729">
        <ele>1714</ele>
        <time>0001-01-01T09:45:00Z</time>
      </trkpt>
      <trkpt lat="45.21087" lon="6.12694">
        <ele>1742</ele>
        <time>0001-01-01T09:45:00Z</time>
      </trkpt>
      <trkpt lat="45.2106" lon="6.12641">
        <ele>1742</ele>
        <time>0001-01-01T09:45:00Z</time>
      </trkpt>
      <trkpt lat="45.2105" lon="6.1262">
        <ele>1771</ele>
        <time>0001-01-01T09:45:00Z</time>
      </trkpt>
      <trkpt lat="45.2104" lon="6.126">
        <ele>1701</ele>
        <time>0001-01-01T09:45:00Z</time>
      </trkpt>
      <trkpt lat="45.21032" lon="6.12578">
        <ele>1701</ele>
        <time>0001-01-01T09:45:00Z</time>
      </trkpt>
      <trkpt lat="45.21028" lon="6.12565">
        <ele>1701</ele>
        <time>0001-01-01T09:45:00Z</time>
      </trkpt>
      <trkpt lat="45.21026" lon="6.12557">
        <ele>1701</ele>
        <time>0001-01-01T09:45:00Z</time>
      </trkpt>
      <trkpt lat="45.21021" lon="6.12541">
        <ele>1718</ele>
        <time>0001-01-01T09:45:00Z</time>
      </trkpt>
      <trkpt lat="45.21017" lon="6.12519">
        <ele>1718</ele>
        <time>0001-01-01T09:45:00Z</time>
      </trkpt>
      <trkpt lat="45.21013" lon="6.12501">
        <ele>1718</ele>
        <time>0001-01-01T09:45:00Z</time>
      </trkpt>
      <trkpt lat="45.21009" lon="6.12479">
        <ele>1718</ele>
        <time>0001-01-01T09:45:00Z</time>
      </trkpt>
      <trkpt lat="45.21004" lon="6.12465">
        <ele>1718</ele>
        <time>0001-01-01T09:45:00Z</time>
      </trkpt>
      <trkpt lat="45.2099" lon="6.12414">
        <ele>1736</ele>
        <time>0001-01-01T09:45:00Z</time>
      </trkpt>
      <trkpt lat="45.20971" lon="6.12366">
        <ele>1759</ele>
        <time>0001-01-01T09:45:00Z</time>
      </trkpt>
      <trkpt lat="45.20968" lon="6.12356">
        <ele>1759</ele>
        <time>0001-01-01T09:45:00Z</time>
      </trkpt>
      <trkpt lat="45.2095" lon="6.12313">
        <ele>1690</ele>
        <time>0001-01-01T09:45:00Z</time>
      </trkpt>
      <trkpt lat="45.20934" lon="6.12272">
        <ele>1706</ele>
        <time>0001-01-01T09:45:00Z</time>
      </trkpt>
      <trkpt lat="45.20922" lon="6.12245">
        <ele>1706</ele>
        <time>0001-01-01T09:45:00Z</time>
      </trkpt>
      <trkpt lat="45.2092" lon="6.1224">
        <ele>1706</ele>
        <time>0001-01-01T09:45:00Z</time>
      </trkpt>
      <trkpt lat="45.2091" lon="6.12219">
        <ele>1706</ele>
        <time>0001-01-01T09:45:00Z</time>
      </trkpt>
      <trkpt lat="45.20896" lon="6.12185">
        <ele>1728</ele>
        <time>0001-01-01T09:45:00Z</time>
      </trkpt>
      <trkpt lat="45.20883" lon="6.12133">
        <ele>1728</ele>
        <time>0001-01-01T09:45:00Z</time>
      </trkpt>
      <trkpt lat="45.20873" lon="6.12093">
        <ele>1683</ele>
        <time>0001-01-01T09:45:00Z</time>
      </trkpt>
      <trkpt lat="45.20864" lon="6.12053">
        <ele>1683</ele>
        <time>0001-01-01T09:45:00Z</time>
      </trkpt>
      <trkpt lat="45.2086" lon="6.12024">
        <ele>1689</ele>
        <time>0001-01-01T09:45:00Z</time>
      </trkpt>
      <trkpt lat="45.20858" lon="6.12005">
        <ele>1689</ele>
        <time>0001-01-01T09:45:00Z</time>
      </trkpt>
      <trkpt lat="45.20859" lon="6.11976">
        <ele>1689</ele>
        <time>0001-01-01T09:45:00Z</time>
      </trkpt>
      <trkpt lat="45.2086" lon="6.1195">
        <ele>1687</ele>
        <time>0001-01-01T09:45:00Z</time>
      </trkpt>
      <trkpt lat="45.20863" lon="6.1192">
        <ele>1687</ele>
        <time>0001-01-01T09:45:00Z</time>
      </trkpt>
      <trkpt lat="45.20863" lon="6.11904">
        <ele>1687</ele>
        <time>0001-01-01T09:45:00Z</time>
      </trkpt>
      <trkpt lat="45.20862" lon="6.11891">
        <ele>1687</ele>
        <time>0001-01-01T09:45:00Z</time>
      </trkpt>
      <trkpt lat="45.20858" lon="6.11878">
        <ele>1687</ele>
        <time>0001-01-01T09:45:00Z</time>
      </trkpt>
      <trkpt lat="45.2085" lon="6.11858">
        <ele>1704</ele>
        <time>0001-01-01T09:45:00Z</time>
      </trkpt>
      <trkpt lat="45.20845" lon="6.11835">
        <ele>1704</ele>
        <time>0001-01-01T09:45:00Z</time>
      </trkpt>
      <trkpt lat="45.20844" lon="6.11815">
        <ele>1704</ele>
        <time>0001-01-01T09:45:00Z</time>
      </trkpt>
      <trkpt lat="45.20847" lon="6.1178">
        <ele>1716</ele>
        <time>0001-01-01T09:45:00Z</time>
      </trkpt>
      <trkpt lat="45.2085" lon="6.11742">
        <ele>1716</ele>
        <time>0001-01-01T09:45:00Z</time>
      </trkpt>
      <trkpt lat="45.20851" lon="6.1171">
        <ele>1716</ele>
        <time>0001-01-01T09:45:00Z</time>
      </trkpt>
      <trkpt lat="45.20851" lon="6.11694">
        <ele>1723</ele>
        <time>0001-01-01T09:45:00Z</time>
      </trkpt>
      <trkpt lat="45.2085" lon="6.11683">
        <ele>1723</ele>
        <time>0001-01-01T09:45:00Z</time>
      </trkpt>
      <trkpt lat="45.20849" lon="6.11671">
        <ele>1723</ele>
        <time>0001-01-01T09:45:00Z</time>
      </trkpt>
      <trkpt lat="45.20846" lon="6.11631">
        <ele>1723</ele>
        <time>0001-01-01T09:45:00Z</time>
      </trkpt>
      <trkpt lat="45.20845" lon="6.11618">
        <ele>1735</ele>
        <time>0001-01-01T09:45:00Z</time>
      </trkpt>
      <trkpt lat="45.20842" lon="6.11595">
        <ele>1735</ele>
        <time>0001-01-01T09:45:00Z</time>
      </trkpt>
      <trkpt lat="45.20837" lon="6.1156">
        <ele>1735</ele>
        <time>0001-01-01T09:45:00Z</time>
      </trkpt>
      <trkpt lat="45.20834" lon="6.11546">
        <ele>1735</ele>
        <time>0001-01-01T09:45:00Z</time>
      </trkpt>
      <trkpt lat="45.20831" lon="6.11531">
        <ele>1735</ele>
        <time>0001-01-01T09:45:00Z</time>
      </trkpt>
      <trkpt lat="45.20822" lon="6.11501">
        <ele>1735</ele>
        <time>0001-01-01T09:45:00Z</time>
      </trkpt>
      <trkpt lat="45.20819" lon="6.11494">
        <ele>1735</ele>
        <time>0001-01-01T09:45:00Z</time>
      </trkpt>
      <trkpt lat="45.20812" lon="6.11478">
        <ele>1735</ele>
        <time>0001-01-01T09:45:00Z</time>
      </trkpt>
      <trkpt lat="45.20808" lon="6.11465">
        <ele>1735</ele>
        <time>0001-01-01T09:45:00Z</time>
      </trkpt>
      <trkpt lat="45.20806" lon="6.11454">
        <ele>1735</ele>
        <time>0001-01-01T09:45:00Z</time>
      </trkpt>
      <trkpt lat="45.20804" lon="6.11435">
        <ele>1735</ele>
        <time>0001-01-01T09:45:00Z</time>
      </trkpt>
      <trkpt lat="45.20801" lon="6.11417">
        <ele>1735</ele>
        <time>0001-01-01T09:45:00Z</time>
      </trkpt>
      <trkpt lat="45.20795" lon="6.11398">
        <ele>1735</ele>
        <time>0001-01-01T09:45:00Z</time>
      </trkpt>
      <trkpt lat="45.20789" lon="6.11375">
        <ele>1633</ele>
        <time>0001-01-01T09:45:00Z</time>
      </trkpt>
      <trkpt lat="45.20786" lon="6.1136">
        <ele>1633</ele>
        <time>0001-01-01T09:45:00Z</time>
      </trkpt>
      <trkpt lat="45.20786" lon="6.11349">
        <ele>1633</ele>
        <time>0001-01-01T09:45:00Z</time>
      </trkpt>
      <trkpt lat="45.20787" lon="6.11338">
        <ele>1633</ele>
        <time>0001-01-01T09:45:00Z</time>
      </trkpt>
      <trkpt lat="45.20789" lon="6.11326">
        <ele>1633</ele>
        <time>0001-01-01T09:45:00Z</time>
      </trkpt>
      <trkpt lat="45.20793" lon="6.1131">
        <ele>1633</ele>
        <time>0001-01-01T09:45:00Z</time>
      </trkpt>
      <trkpt lat="45.20793" lon="6.11293">
        <ele>1633</ele>
        <time>0001-01-01T09:45:00Z</time>
      </trkpt>
      <trkpt lat="45.20793" lon="6.11285">
        <ele>1633</ele>
        <time>0001-01-01T09:45:00Z</time>
      </trkpt>
      <trkpt lat="45.2079" lon="6.11267">
        <ele>1628</ele>
        <time>0001-01-01T09:45:00Z</time>
      </trkpt>
      <trkpt lat="45.20783" lon="6.11236">
        <ele>1628</ele>
        <time>0001-01-01T09:45:00Z</time>
      </trkpt>
      <trkpt lat="45.20776" lon="6.11198">
        <ele>1650</ele>
        <time>0001-01-01T09:45:00Z</time>
      </trkpt>
      <trkpt lat="45.20774" lon="6.11181">
        <ele>1650</ele>
        <time>0001-01-01T09:45:00Z</time>
      </trkpt>
      <trkpt lat="45.20775" lon="6.11164">
        <ele>1650</ele>
        <time>0001-01-01T09:45:00Z</time>
      </trkpt>
      <trkpt lat="45.20775" lon="6.11146">
        <ele>1650</ele>
        <time>0001-01-01T09:45:00Z</time>
      </trkpt>
      <trkpt lat="45.20778" lon="6.11126">
        <ele>1650</ele>
        <time>0001-01-01T09:45:00Z</time>
      </trkpt>
      <trkpt lat="45.20781" lon="6.111">
        <ele>1646</ele>
        <time>0001-01-01T09:45:00Z</time>
      </trkpt>
      <trkpt lat="45.20784" lon="6.11074">
        <ele>1646</ele>
        <time>0001-01-01T09:45:00Z</time>
      </trkpt>
      <trkpt lat="45.20783" lon="6.11038">
        <ele>1652</ele>
        <time>0001-01-01T09:45:00Z</time>
      </trkpt>
      <trkpt lat="45.20784" lon="6.11014">
        <ele>1652</ele>
        <time>0001-01-01T09:45:00Z</time>
      </trkpt>
      <trkpt lat="45.20785" lon="6.11001">
        <ele>1652</ele>
        <time>0001-01-01T09:45:00Z</time>
      </trkpt>
      <trkpt lat="45.20787" lon="6.10984">
        <ele>1652</ele>
        <time>0001-01-01T09:45:00Z</time>
      </trkpt>
      <trkpt lat="45.2079" lon="6.10969">
        <ele>1652</ele>
        <time>0001-01-01T09:45:00Z</time>
      </trkpt>
      <trkpt lat="45.20791" lon="6.1095">
        <ele>1647</ele>
        <time>0001-01-01T09:45:00Z</time>
      </trkpt>
      <trkpt lat="45.2079" lon="6.10938">
        <ele>1647</ele>
        <time>0001-01-01T09:45:00Z</time>
      </trkpt>
      <trkpt lat="45.20788" lon="6.10926">
        <ele>1647</ele>
        <time>0001-01-01T09:45:00Z</time>
      </trkpt>
      <trkpt lat="45.20786" lon="6.10917">
        <ele>1647</ele>
        <time>0001-01-01T09:45:00Z</time>
      </trkpt>
      <trkpt lat="45.20782" lon="6.109">
        <ele>1647</ele>
        <time>0001-01-01T09:45:00Z</time>
      </trkpt>
      <trkpt lat="45.20775" lon="6.10876">
        <ele>1647</ele>
        <time>0001-01-01T09:45:00Z</time>
      </trkpt>
      <trkpt lat="45.20769" lon="6.10857">
        <ele>1648</ele>
        <time>0001-01-01T09:45:00Z</time>
      </trkpt>
      <trkpt lat="45.20763" lon="6.10838">
        <ele>1648</ele>
        <time>0001-01-01T09:45:00Z</time>
      </trkpt>
      <trkpt lat="45.20757" lon="6.10822">
        <ele>1648</ele>
        <time>0001-01-01T09:45:00Z</time>
      </trkpt>
      <trkpt lat="45.20753" lon="6.10803">
        <ele>1648</ele>
        <time>0001-01-01T09:45:00Z</time>
      </trkpt>
      <trkpt lat="45.20751" lon="6.10789">
        <ele>1677</ele>
        <time>0001-01-01T09:45:00Z</time>
      </trkpt>
      <trkpt lat="45.2075" lon="6.10776">
        <ele>1677</ele>
        <time>0001-01-01T09:45:00Z</time>
      </trkpt>
      <trkpt lat="45.20748" lon="6.10755">
        <ele>1677</ele>
        <time>0001-01-01T09:45:00Z</time>
      </trkpt>
      <trkpt lat="45.20745" lon="6.10734">
        <ele>1677</ele>
        <time>0001-01-01T09:45:00Z</time>
      </trkpt>
      <trkpt lat="45.20742" lon="6.10724">
        <ele>1677</ele>
        <time>0001-01-01T09:45:00Z</time>
      </trkpt>
      <trkpt lat="45.20738" lon="6.1071">
        <ele>1677</ele>
        <time>0001-01-01T09:45:00Z</time>
      </trkpt>
      <trkpt lat="45.20725" lon="6.10679">
        <ele>1706</ele>
        <time>0001-01-01T09:45:00Z</time>
      </trkpt>
      <trkpt lat="45.20715" lon="6.10657">
        <ele>1706</ele>
        <time>0001-01-01T09:45:00Z</time>
      </trkpt>
      <trkpt lat="45.20708" lon="6.10635">
        <ele>1631</ele>
        <time>0001-01-01T09:45:00Z</time>
      </trkpt>
      <trkpt lat="45.20704" lon="6.10621">
        <ele>1648</ele>
        <time>0001-01-01T09:45:00Z</time>
      </trkpt>
      <trkpt lat="45.20698" lon="6.10598">
        <ele>1648</ele>
        <time>0001-01-01T09:45:00Z</time>
      </trkpt>
      <trkpt lat="45.20692" lon="6.10578">
        <ele>1648</ele>
        <time>0001-01-01T09:45:00Z</time>
      </trkpt>
      <trkpt lat="45.20688" lon="6.10567">
        <ele>1648</ele>
        <time>0001-01-01T09:45:00Z</time>
      </trkpt>
      <trkpt lat="45.20683" lon="6.10553">
        <ele>1648</ele>
        <time>0001-01-01T09:45:00Z</time>
      </trkpt>
      <trkpt lat="45.20681" lon="6.10546">
        <ele>1648</ele>
        <time>0001-01-01T09:45:00Z</time>
      </trkpt>
      <trkpt lat="45.20672" lon="6.10532">
        <ele>1667</ele>
        <time>0001-01-01T09:45:00Z</time>
      </trkpt>
      <trkpt lat="45.20665" lon="6.10522">
        <ele>1667</ele>
        <time>0001-01-01T09:45:00Z</time>
      </trkpt>
      <trkpt lat="45.20656" lon="6.10508">
        <ele>1667</ele>
        <time>0001-01-01T09:45:00Z</time>
      </trkpt>
      <trkpt lat="45.20647" lon="6.10495">
        <ele>1667</ele>
        <time>0001-01-01T09:45:00Z</time>
      </trkpt>
      <trkpt lat="45.20641" lon="6.10486">
        <ele>1667</ele>
        <time>0001-01-01T09:45:00Z</time>
      </trkpt>
      <trkpt lat="45.20633" lon="6.10469">
        <ele>1667</ele>
        <time>0001-01-01T09:45:00Z</time>
      </trkpt>
      <trkpt lat="45.20629" lon="6.10456">
        <ele>1694</ele>
        <time>0001-01-01T09:45:00Z</time>
      </trkpt>
      <trkpt lat="45.20624" lon="6.10439">
        <ele>1615</ele>
        <time>0001-01-01T09:45:00Z</time>
      </trkpt>
      <trkpt lat="45.20618" lon="6.10423">
        <ele>1615</ele>
        <time>0001-01-01T09:45:00Z</time>
      </trkpt>
      <trkpt lat="45.2061" lon="6.10405">
        <ele>1615</ele>
        <time>0001-01-01T09:45:00Z</time>
      </trkpt>
      <trkpt lat="45.206" lon="6.10386">
        <ele>1615</ele>
        <time>0001-01-01T09:45:00Z</time>
      </trkpt>
      <trkpt lat="45.20596" lon="6.10377">
        <ele>1615</ele>
        <time>0001-01-01T09:45:00Z</time>
      </trkpt>
      <trkpt lat="45.20591" lon="6.10366">
        <ele>1636</ele>
        <time>0001-01-01T09:45:00Z</time>
      </trkpt>
      <trkpt lat="45.20587" lon="6.10353">
        <ele>1636</ele>
        <time>0001-01-01T09:45:00Z</time>
      </trkpt>
      <trkpt lat="45.20586" lon="6.10344">
        <ele>1636</ele>
        <time>0001-01-01T09:45:00Z</time>
      </trkpt>
      <trkpt lat="45.20586" lon="6.10332">
        <ele>1636</ele>
        <time>0001-01-01T09:45:00Z</time>
      </trkpt>
      <trkpt lat="45.20585" lon="6.10324">
        <ele>1636</ele>
        <time>0001-01-01T09:45:00Z</time>
      </trkpt>
      <trkpt lat="45.20582" lon="6.10318">
        <ele>1636</ele>
        <time>0001-01-01T09:45:00Z</time>
      </trkpt>
      <trkpt lat="45.20579" lon="6.10315">
        <ele>1636</ele>
        <time>0001-01-01T09:45:00Z</time>
      </trkpt>
      <trkpt lat="45.20576" lon="6.10315">
        <ele>1636</ele>
        <time>0001-01-01T09:45:00Z</time>
      </trkpt>
      <trkpt lat="45.20573" lon="6.10315">
        <ele>1636</ele>
        <time>0001-01-01T09:45:00Z</time>
      </trkpt>
      <trkpt lat="45.20569" lon="6.10318">
        <ele>1636</ele>
        <time>0001-01-01T09:45:00Z</time>
      </trkpt>
      <trkpt lat="45.20567" lon="6.10323">
        <ele>1636</ele>
        <time>0001-01-01T09:45:00Z</time>
      </trkpt>
      <trkpt lat="45.20566" lon="6.10326">
        <ele>1636</ele>
        <time>0001-01-01T09:45:00Z</time>
      </trkpt>
      <trkpt lat="45.20565" lon="6.10329">
        <ele>1636</ele>
        <time>0001-01-01T09:45:00Z</time>
      </trkpt>
      <trkpt lat="45.20566" lon="6.10332">
        <ele>1636</ele>
        <time>0001-01-01T09:45:00Z</time>
      </trkpt>
      <trkpt lat="45.20567" lon="6.10337">
        <ele>1636</ele>
        <time>0001-01-01T09:45:00Z</time>
      </trkpt>
      <trkpt lat="45.20576" lon="6.10355">
        <ele>1636</ele>
        <time>0001-01-01T09:45:00Z</time>
      </trkpt>
      <trkpt lat="45.20585" lon="6.10373">
        <ele>1636</ele>
        <time>0001-01-01T09:45:00Z</time>
      </trkpt>
      <trkpt lat="45.20594" lon="6.10388">
        <ele>1615</ele>
        <time>0001-01-01T09:45:00Z</time>
      </trkpt>
      <trkpt lat="45.206" lon="6.10399">
        <ele>1615</ele>
        <time>0001-01-01T09:45:00Z</time>
      </trkpt>
      <trkpt lat="45.20604" lon="6.10409">
        <ele>1615</ele>
        <time>0001-01-01T09:45:00Z</time>
      </trkpt>
      <trkpt lat="45.20608" lon="6.10425">
        <ele>1615</ele>
        <time>0001-01-01T09:45:00Z</time>
      </trkpt>
      <trkpt lat="45.2061" lon="6.10432">
        <ele>1615</ele>
        <time>0001-01-01T09:45:00Z</time>
      </trkpt>
      <trkpt lat="45.20612" lon="6.10447">
        <ele>1615</ele>
        <time>0001-01-01T09:45:00Z</time>
      </trkpt>
      <trkpt lat="45.20615" lon="6.10461">
        <ele>1602</ele>
        <time>0001-01-01T09:45:00Z</time>
      </trkpt>
      <trkpt lat="45.20618" lon="6.1048">
        <ele>1602</ele>
        <time>0001-01-01T09:45:00Z</time>
      </trkpt>
      <trkpt lat="45.20623" lon="6.105">
        <ele>1602</ele>
        <time>0001-01-01T09:45:00Z</time>
      </trkpt>
      <trkpt lat="45.20625" lon="6.10508">
        <ele>1602</ele>
        <time>0001-01-01T09:45:00Z</time>
      </trkpt>
      <trkpt lat="45.2063" lon="6.1052">
        <ele>1667</ele>
        <time>0001-01-01T09:45:00Z</time>
      </trkpt>
      <trkpt lat="45.20635" lon="6.1053">
        <ele>1667</ele>
        <time>0001-01-01T09:45:00Z</time>
      </trkpt>
      <trkpt lat="45.20642" lon="6.10544">
        <ele>1648</ele>
        <time>0001-01-01T09:45:00Z</time>
      </trkpt>
      <trkpt lat="45.20644" lon="6.10549">
        <ele>1648</ele>
        <time>0001-01-01T09:45:00Z</time>
      </trkpt>
      <trkpt lat="45.20648" lon="6.10562">
        <ele>1648</ele>
        <time>0001-01-01T09:45:00Z</time>
      </trkpt>
      <trkpt lat="45.2065" lon="6.10578">
        <ele>1648</ele>
        <time>0001-01-01T09:45:00Z</time>
      </trkpt>
      <trkpt lat="45.20651" lon="6.10588">
        <ele>1648</ele>
        <time>0001-01-01T09:45:00Z</time>
      </trkpt>
      <trkpt lat="45.20651" lon="6.10598">
        <ele>1648</ele>
        <time>0001-01-01T09:45:00Z</time>
      </trkpt>
      <trkpt lat="45.20652" lon="6.10618">
        <ele>1648</ele>
        <time>0001-01-01T09:45:00Z</time>
      </trkpt>
      <trkpt lat="45.20654" lon="6.10631">
        <ele>1631</ele>
        <time>0001-01-01T09:45:00Z</time>
      </trkpt>
      <trkpt lat="45.20656" lon="6.1064">
        <ele>1631</ele>
        <time>0001-01-01T09:45:00Z</time>
      </trkpt>
      <trkpt lat="45.20659" lon="6.10658">
        <ele>1631</ele>
        <time>0001-01-01T09:45:00Z</time>
      </trkpt>
      <trkpt lat="45.2067" lon="6.10718">
        <ele>1617</ele>
        <time>0001-01-01T09:45:00Z</time>
      </trkpt>
      <trkpt lat="45.20672" lon="6.10735">
        <ele>1617</ele>
        <time>0001-01-01T09:45:00Z</time>
      </trkpt>
      <trkpt lat="45.20674" lon="6.10754">
        <ele>1617</ele>
        <time>0001-01-01T09:45:00Z</time>
      </trkpt>
      <trkpt lat="45.20674" lon="6.10775">
        <ele>1617</ele>
        <time>0001-01-01T09:45:00Z</time>
      </trkpt>
      <trkpt lat="45.20677" lon="6.10801">
        <ele>1603</ele>
        <time>0001-01-01T09:45:00Z</time>
      </trkpt>
      <trkpt lat="45.20681" lon="6.10823">
        <ele>1603</ele>
        <time>0001-01-01T09:45:00Z</time>
      </trkpt>
      <trkpt lat="45.20687" lon="6.10852">
        <ele>1603</ele>
        <time>0001-01-01T09:45:00Z</time>
      </trkpt>
      <trkpt lat="45.2069" lon="6.10862">
        <ele>1603</ele>
        <time>0001-01-01T09:45:00Z</time>
      </trkpt>
      <trkpt lat="45.20692" lon="6.10869">
        <ele>1603</ele>
        <time>0001-01-01T09:45:00Z</time>
      </trkpt>
      <trkpt lat="45.20693" lon="6.10876">
        <ele>1600</ele>
        <time>0001-01-01T09:45:00Z</time>
      </trkpt>
      <trkpt lat="45.20694" lon="6.10882">
        <ele>1600</ele>
        <time>0001-01-01T09:45:00Z</time>
      </trkpt>
      <trkpt lat="45.20692" lon="6.10888">
        <ele>1600</ele>
        <time>0001-01-01T09:45:00Z</time>
      </trkpt>
      <trkpt lat="45.20691" lon="6.10891">
        <ele>1600</ele>
        <time>0001-01-01T09:45:00Z</time>
      </trkpt>
      <trkpt lat="45.20689" lon="6.10893">
        <ele>1600</ele>
        <time>0001-01-01T09:45:00Z</time>
      </trkpt>
      <trkpt lat="45.20686" lon="6.10894">
        <ele>1600</ele>
        <time>0001-01-01T09:45:00Z</time>
      </trkpt>
      <trkpt lat="45.20683" lon="6.10893">
        <ele>1600</ele>
        <time>0001-01-01T09:45:00Z</time>
      </trkpt>
      <trkpt lat="45.2068" lon="6.10892">
        <ele>1600</ele>
        <time>0001-01-01T09:45:00Z</time>
      </trkpt>
      <trkpt lat="45.20677" lon="6.10889">
        <ele>1600</ele>
        <time>0001-01-01T09:45:00Z</time>
      </trkpt>
      <trkpt lat="45.20676" lon="6.10883">
        <ele>1600</ele>
        <time>0001-01-01T09:45:00Z</time>
      </trkpt>
      <trkpt lat="45.20675" lon="6.10875">
        <ele>1600</ele>
        <time>0001-01-01T09:45:00Z</time>
      </trkpt>
      <trkpt lat="45.20675" lon="6.10864">
        <ele>1603</ele>
        <time>0001-01-01T09:45:00Z</time>
      </trkpt>
      <trkpt lat="45.20675" lon="6.10844">
        <ele>1603</ele>
        <time>0001-01-01T09:45:00Z</time>
      </trkpt>
      <trkpt lat="45.20675" lon="6.10834">
        <ele>1603</ele>
        <time>0001-01-01T09:45:00Z</time>
      </trkpt>
      <trkpt lat="45.20674" lon="6.10822">
        <ele>1603</ele>
        <time>0001-01-01T09:45:00Z</time>
      </trkpt>
      <trkpt lat="45.2067" lon="6.10806">
        <ele>1603</ele>
        <time>0001-01-01T09:45:00Z</time>
      </trkpt>
      <trkpt lat="45.20667" lon="6.10791">
        <ele>1617</ele>
        <time>0001-01-01T09:45:00Z</time>
      </trkpt>
      <trkpt lat="45.2066" lon="6.10769">
        <ele>1617</ele>
        <time>0001-01-01T09:45:00Z</time>
      </trkpt>
      <trkpt lat="45.20658" lon="6.10757">
        <ele>1617</ele>
        <time>0001-01-01T09:45:00Z</time>
      </trkpt>
      <trkpt lat="45.20649" lon="6.10729">
        <ele>1617</ele>
        <time>0001-01-01T09:45:00Z</time>
      </trkpt>
      <trkpt lat="45.20642" lon="6.10708">
        <ele>1631</ele>
        <time>0001-01-01T09:45:00Z</time>
      </trkpt>
      <trkpt lat="45.20636" lon="6.10694">
        <ele>1631</ele>
        <time>0001-01-01T09:45:00Z</time>
      </trkpt>
      <trkpt lat="45.20628" lon="6.10675">
        <ele>1631</ele>
        <time>0001-01-01T09:45:00Z</time>
      </trkpt>
      <trkpt lat="45.20612" lon="6.1064">
        <ele>1578</ele>
        <time>0001-01-01T09:45:00Z</time>
      </trkpt>
      <trkpt lat="45.20601" lon="6.10614">
        <ele>1590</ele>
        <time>0001-01-01T09:45:00Z</time>
      </trkpt>
      <trkpt lat="45.20589" lon="6.10583">
        <ele>1590</ele>
        <time>0001-01-01T09:45:00Z</time>
      </trkpt>
      <trkpt lat="45.20578" lon="6.10557">
        <ele>1590</ele>
        <time>0001-01-01T09:45:00Z</time>
      </trkpt>
      <trkpt lat="45.20571" lon="6.10538">
        <ele>1602</ele>
        <time>0001-01-01T09:45:00Z</time>
      </trkpt>
      <trkpt lat="45.20562" lon="6.10515">
        <ele>1602</ele>
        <time>0001-01-01T09:45:00Z</time>
      </trkpt>
      <trkpt lat="45.20556" lon="6.10495">
        <ele>1602</ele>
        <time>0001-01-01T09:45:00Z</time>
      </trkpt>
      <trkpt lat="45.2055" lon="6.10471">
        <ele>1602</ele>
        <time>0001-01-01T09:45:00Z</time>
      </trkpt>
      <trkpt lat="45.20541" lon="6.10429">
        <ele>1561</ele>
        <time>0001-01-01T09:45:00Z</time>
      </trkpt>
      <trkpt lat="45.20536" lon="6.10408">
        <ele>1561</ele>
        <time>0001-01-01T09:45:00Z</time>
      </trkpt>
      <trkpt lat="45.2053" lon="6.10386">
        <ele>1561</ele>
        <time>0001-01-01T09:45:00Z</time>
      </trkpt>
      <trkpt lat="45.20521" lon="6.10355">
        <ele>1575</ele>
        <time>0001-01-01T09:45:00Z</time>
      </trkpt>
      <trkpt lat="45.2051" lon="6.10323">
        <ele>1575</ele>
        <time>0001-01-01T09:45:00Z</time>
      </trkpt>
      <trkpt lat="45.20504" lon="6.10305">
        <ele>1575</ele>
        <time>0001-01-01T09:45:00Z</time>
      </trkpt>
      <trkpt lat="45.20501" lon="6.10294">
        <ele>1575</ele>
        <time>0001-01-01T09:45:00Z</time>
      </trkpt>
      <trkpt lat="45.20496" lon="6.1028">
        <ele>1578</ele>
        <time>0001-01-01T09:45:00Z</time>
      </trkpt>
      <trkpt lat="45.20488" lon="6.10265">
        <ele>1578</ele>
        <time>0001-01-01T09:45:00Z</time>
      </trkpt>
      <trkpt lat="45.20481" lon="6.10248">
        <ele>1578</ele>
        <time>0001-01-01T09:45:00Z</time>
      </trkpt>
      <trkpt lat="45.20471" lon="6.10229">
        <ele>1578</ele>
        <time>0001-01-01T09:45:00Z</time>
      </trkpt>
      <trkpt lat="45.20463" lon="6.1021">
        <ele>1578</ele>
        <time>0001-01-01T09:45:00Z</time>
      </trkpt>
      <trkpt lat="45.20459" lon="6.102">
        <ele>1578</ele>
        <time>0001-01-01T09:45:00Z</time>
      </trkpt>
      <trkpt lat="45.20454" lon="6.10177">
        <ele>1556</ele>
        <time>0001-01-01T09:45:00Z</time>
      </trkpt>
      <trkpt lat="45.20453" lon="6.1017">
        <ele>1556</ele>
        <time>0001-01-01T09:45:00Z</time>
      </trkpt>
      <trkpt lat="45.20451" lon="6.1015">
        <ele>1556</ele>
        <time>0001-01-01T09:45:00Z</time>
      </trkpt>
      <trkpt lat="45.20451" lon="6.10135">
        <ele>1556</ele>
        <time>0001-01-01T09:45:00Z</time>
      </trkpt>
      <trkpt lat="45.20447" lon="6.10081">
        <ele>1554</ele>
        <time>0001-01-01T09:45:00Z</time>
      </trkpt>
      <trkpt lat="45.20442" lon="6.10009">
        <ele>1553</ele>
        <time>0001-01-01T09:45:00Z</time>
      </trkpt>
      <trkpt lat="45.20438" lon="6.09946">
        <ele>1544</ele>
        <time>0001-01-01T09:45:00Z</time>
      </trkpt>
      <trkpt lat="45.20434" lon="6.09894">
        <ele>1544</ele>
        <time>0001-01-01T09:45:00Z</time>
      </trkpt>
      <trkpt lat="45.20434" lon="6.09866">
        <ele>1537</ele>
        <time>0001-01-01T09:45:00Z</time>
      </trkpt>
      <trkpt lat="45.20436" lon="6.09842">
        <ele>1537</ele>
        <time>0001-01-01T09:45:00Z</time>
      </trkpt>
      <trkpt lat="45.20445" lon="6.09798">
        <ele>1537</ele>
        <time>0001-01-01T09:45:00Z</time>
      </trkpt>
      <trkpt lat="45.20456" lon="6.09757">
        <ele>1527</ele>
        <time>0001-01-01T09:45:00Z</time>
      </trkpt>
      <trkpt lat="45.20459" lon="6.09735">
        <ele>1549</ele>
        <time>0001-01-01T09:45:00Z</time>
      </trkpt>
      <trkpt lat="45.20459" lon="6.09723">
        <ele>1549</ele>
        <time>0001-01-01T09:45:00Z</time>
      </trkpt>
      <trkpt lat="45.20456" lon="6.097">
        <ele>1513</ele>
        <time>0001-01-01T09:45:00Z</time>
      </trkpt>
      <trkpt lat="45.20453" lon="6.09672">
        <ele>1513</ele>
        <time>0001-01-01T09:45:00Z</time>
      </trkpt>
      <trkpt lat="45.20452" lon="6.09653">
        <ele>1513</ele>
        <time>0001-01-01T09:45:00Z</time>
      </trkpt>
      <trkpt lat="45.20456" lon="6.09612">
        <ele>1502</ele>
        <time>0001-01-01T09:45:00Z</time>
      </trkpt>
      <trkpt lat="45.20464" lon="6.09548">
        <ele>1534</ele>
        <time>0001-01-01T09:45:00Z</time>
      </trkpt>
      <trkpt lat="45.2047" lon="6.09484">
        <ele>1527</ele>
        <time>0001-01-01T09:45:00Z</time>
      </trkpt>
      <trkpt lat="45.20471" lon="6.0946">
        <ele>1527</ele>
        <time>0001-01-01T09:45:00Z</time>
      </trkpt>
      <trkpt lat="45.2047" lon="6.09438">
        <ele>1525</ele>
        <time>0001-01-01T09:45:00Z</time>
      </trkpt>
      <trkpt lat="45.20468" lon="6.09423">
        <ele>1525</ele>
        <time>0001-01-01T09:45:00Z</time>
      </trkpt>
      <trkpt lat="45.20466" lon="6.09407">
        <ele>1525</ele>
        <time>0001-01-01T09:45:00Z</time>
      </trkpt>
      <trkpt lat="45.20461" lon="6.09374">
        <ele>1530</ele>
        <time>0001-01-01T09:45:00Z</time>
      </trkpt>
      <trkpt lat="45.20459" lon="6.09365">
        <ele>1530</ele>
        <time>0001-01-01T09:45:00Z</time>
      </trkpt>
      <trkpt lat="45.20455" lon="6.09348">
        <ele>1485</ele>
        <time>0001-01-01T09:45:00Z</time>
      </trkpt>
      <trkpt lat="45.20446" lon="6.09322">
        <ele>1485</ele>
        <time>0001-01-01T09:45:00Z</time>
      </trkpt>
      <trkpt lat="45.20442" lon="6.0931">
        <ele>1485</ele>
        <time>0001-01-01T09:45:00Z</time>
      </trkpt>
      <trkpt lat="45.20434" lon="6.09288">
        <ele>1494</ele>
        <time>0001-01-01T09:45:00Z</time>
      </trkpt>
      <trkpt lat="45.20432" lon="6.09281">
        <ele>1494</ele>
        <time>0001-01-01T09:45:00Z</time>
      </trkpt>
      <trkpt lat="45.20429" lon="6.09271">
        <ele>1494</ele>
        <time>0001-01-01T09:45:00Z</time>
      </trkpt>
      <trkpt lat="45.20426" lon="6.09259">
        <ele>1494</ele>
        <time>0001-01-01T09:45:00Z</time>
      </trkpt>
      <trkpt lat="45.20423" lon="6.09248">
        <ele>1494</ele>
        <time>0001-01-01T09:45:00Z</time>
      </trkpt>
      <trkpt lat="45.20415" lon="6.09215">
        <ele>1494</ele>
        <time>0001-01-01T09:45:00Z</time>
      </trkpt>
      <trkpt lat="45.20411" lon="6.092">
        <ele>1496</ele>
        <time>0001-01-01T09:45:00Z</time>
      </trkpt>
      <trkpt lat="45.20408" lon="6.09184">
        <ele>1496</ele>
        <time>0001-01-01T09:45:00Z</time>
      </trkpt>
      <trkpt lat="45.20405" lon="6.09164">
        <ele>1496</ele>
        <time>0001-01-01T09:45:00Z</time>
      </trkpt>
      <trkpt lat="45.20403" lon="6.09145">
        <ele>1496</ele>
        <time>0001-01-01T09:45:00Z</time>
      </trkpt>
      <trkpt lat="45.20401" lon="6.09134">
        <ele>1496</ele>
        <time>0001-01-01T09:45:00Z</time>
      </trkpt>
      <trkpt lat="45.20399" lon="6.09127">
        <ele>1496</ele>
        <time>0001-01-01T09:45:00Z</time>
      </trkpt>
      <trkpt lat="45.20396" lon="6.09118">
        <ele>1512</ele>
        <time>0001-01-01T09:45:00Z</time>
      </trkpt>
      <trkpt lat="45.20393" lon="6.09111">
        <ele>1512</ele>
        <time>0001-01-01T09:45:00Z</time>
      </trkpt>
      <trkpt lat="45.20388" lon="6.09103">
        <ele>1512</ele>
        <time>0001-01-01T09:45:00Z</time>
      </trkpt>
      <trkpt lat="45.20382" lon="6.09092">
        <ele>1512</ele>
        <time>0001-01-01T09:45:00Z</time>
      </trkpt>
      <trkpt lat="45.20378" lon="6.09083">
        <ele>1512</ele>
        <time>0001-01-01T09:45:00Z</time>
      </trkpt>
      <trkpt lat="45.20376" lon="6.09077">
        <ele>1512</ele>
        <time>0001-01-01T09:45:00Z</time>
      </trkpt>
      <trkpt lat="45.20375" lon="6.09072">
        <ele>1467</ele>
        <time>0001-01-01T09:45:00Z</time>
      </trkpt>
      <trkpt lat="45.20373" lon="6.09064">
        <ele>1467</ele>
        <time>0001-01-01T09:45:00Z</time>
      </trkpt>
      <trkpt lat="45.20372" lon="6.09056">
        <ele>1467</ele>
        <time>0001-01-01T09:45:00Z</time>
      </trkpt>
      <trkpt lat="45.20371" lon="6.09042">
        <ele>1467</ele>
        <time>0001-01-01T09:45:00Z</time>
      </trkpt>
      <trkpt lat="45.20371" lon="6.09031">
        <ele>1457</ele>
        <time>0001-01-01T09:45:00Z</time>
      </trkpt>
      <trkpt lat="45.20373" lon="6.09018">
        <ele>1457</ele>
        <time>0001-01-01T09:45:00Z</time>
      </trkpt>
      <trkpt lat="45.20378" lon="6.08998">
        <ele>1501</ele>
        <time>0001-01-01T09:45:00Z</time>
      </trkpt>
      <trkpt lat="45.20381" lon="6.08989">
        <ele>1501</ele>
        <time>0001-01-01T09:45:00Z</time>
      </trkpt>
      <trkpt lat="45.20383" lon="6.08976">
        <ele>1501</ele>
        <time>0001-01-01T09:45:00Z</time>
      </trkpt>
      <trkpt lat="45.20383" lon="6.08967">
        <ele>1501</ele>
        <time>0001-01-01T09:45:00Z</time>
      </trkpt>
      <trkpt lat="45.20382" lon="6.08957">
        <ele>1500</ele>
        <time>0001-01-01T09:45:00Z</time>
      </trkpt>
      <trkpt lat="45.20379" lon="6.08941">
        <ele>1500</ele>
        <time>0001-01-01T09:45:00Z</time>
      </trkpt>
      <trkpt lat="45.20374" lon="6.08923">
        <ele>1452</ele>
        <time>0001-01-01T09:45:00Z</time>
      </trkpt>
      <trkpt lat="45.20364" lon="6.08887">
        <ele>1452</ele>
        <time>0001-01-01T09:45:00Z</time>
      </trkpt>
      <trkpt lat="45.20363" lon="6.08882">
        <ele>1452</ele>
        <time>0001-01-01T09:45:00Z</time>
      </trkpt>
      <trkpt lat="45.20351" lon="6.08845">
        <ele>1461</ele>
        <time>0001-01-01T09:45:00Z</time>
      </trkpt>
      <trkpt lat="45.2034" lon="6.08819">
        <ele>1461</ele>
        <time>0001-01-01T09:45:00Z</time>
      </trkpt>
      <trkpt lat="45.20336" lon="6.08812">
        <ele>1461</ele>
        <time>0001-01-01T09:45:00Z</time>
      </trkpt>
      <trkpt lat="45.20322" lon="6.08791">
        <ele>1497</ele>
        <time>0001-01-01T09:45:00Z</time>
      </trkpt>
      <trkpt lat="45.20309" lon="6.08773">
        <ele>1497</ele>
        <time>0001-01-01T09:45:00Z</time>
      </trkpt>
      <trkpt lat="45.20288" lon="6.0875">
        <ele>1451</ele>
        <time>0001-01-01T09:45:00Z</time>
      </trkpt>
      <trkpt lat="45.20264" lon="6.08725">
        <ele>1451</ele>
        <time>0001-01-01T09:45:00Z</time>
      </trkpt>
      <trkpt lat="45.20238" lon="6.08696">
        <ele>1482</ele>
        <time>0001-01-01T09:45:00Z</time>
      </trkpt>
      <trkpt lat="45.20208" lon="6.08663">
        <ele>1431</ele>
        <time>0001-01-01T09:45:00Z</time>
      </trkpt>
      <trkpt lat="45.20184" lon="6.08634">
        <ele>1431</ele>
        <time>0001-01-01T09:45:00Z</time>
      </trkpt>
      <trkpt lat="45.20168" lon="6.08609">
        <ele>1442</ele>
        <time>0001-01-01T09:45:00Z</time>
      </trkpt>
      <trkpt lat="45.20152" lon="6.08579">
        <ele>1442</ele>
        <time>0001-01-01T09:45:00Z</time>
      </trkpt>
      <trkpt lat="45.20138" lon="6.08554">
        <ele>1442</ele>
        <time>0001-01-01T09:45:00Z</time>
      </trkpt>
      <trkpt lat="45.20127" lon="6.08532">
        <ele>1510</ele>
        <time>0001-01-01T09:45:00Z</time>
      </trkpt>
      <trkpt lat="45.20118" lon="6.08506">
        <ele>1442</ele>
        <time>0001-01-01T09:45:00Z</time>
      </trkpt>
      <trkpt lat="45.20112" lon="6.08484">
        <ele>1442</ele>
        <time>0001-01-01T09:45:00Z</time>
      </trkpt>
      <trkpt lat="45.20105" lon="6.0846">
        <ele>1442</ele>
        <time>0001-01-01T09:45:00Z</time>
      </trkpt>
      <trkpt lat="45.20102" lon="6.08453">
        <ele>1439</ele>
        <time>0001-01-01T09:45:00Z</time>
      </trkpt>
      <trkpt lat="45.20101" lon="6.08442">
        <ele>1439</ele>
        <time>0001-01-01T09:45:00Z</time>
      </trkpt>
      <trkpt lat="45.201" lon="6.08438">
        <ele>1439</ele>
        <time>0001-01-01T09:45:00Z</time>
      </trkpt>
      <trkpt lat="45.201" lon="6.08432">
        <ele>1439</ele>
        <time>0001-01-01T09:45:00Z</time>
      </trkpt>
      <trkpt lat="45.20102" lon="6.08421">
        <ele>1439</ele>
        <time>0001-01-01T09:45:00Z</time>
      </trkpt>
      <trkpt lat="45.20103" lon="6.08407">
        <ele>1439</ele>
        <time>0001-01-01T09:45:00Z</time>
      </trkpt>
      <trkpt lat="45.20105" lon="6.08394">
        <ele>1439</ele>
        <time>0001-01-01T09:45:00Z</time>
      </trkpt>
      <trkpt lat="45.20107" lon="6.0838">
        <ele>1439</ele>
        <time>0001-01-01T09:45:00Z</time>
      </trkpt>
      <trkpt lat="45.20111" lon="6.08365">
        <ele>1429</ele>
        <time>0001-01-01T09:45:00Z</time>
      </trkpt>
      <trkpt lat="45.20115" lon="6.08356">
        <ele>1429</ele>
        <time>0001-01-01T09:45:00Z</time>
      </trkpt>
      <trkpt lat="45.2012" lon="6.08344">
        <ele>1429</ele>
        <time>0001-01-01T09:45:00Z</time>
      </trkpt>
      <trkpt lat="45.20125" lon="6.08329">
        <ele>1490</ele>
        <time>0001-01-01T09:45:00Z</time>
      </trkpt>
      <trkpt lat="45.20128" lon="6.08321">
        <ele>1490</ele>
        <time>0001-01-01T09:45:00Z</time>
      </trkpt>
      <trkpt lat="45.20129" lon="6.08313">
        <ele>1490</ele>
        <time>0001-01-01T09:45:00Z</time>
      </trkpt>
      <trkpt lat="45.2013" lon="6.08297">
        <ele>1490</ele>
        <time>0001-01-01T09:45:00Z</time>
      </trkpt>
      <trkpt lat="45.20129" lon="6.08291">
        <ele>1468</ele>
        <time>0001-01-01T09:45:00Z</time>
      </trkpt>
      <trkpt lat="45.20129" lon="6.08266">
        <ele>1468</ele>
        <time>0001-01-01T09:45:00Z</time>
      </trkpt>
      <trkpt lat="45.20129" lon="6.08253">
        <ele>1468</ele>
        <time>0001-01-01T09:45:00Z</time>
      </trkpt>
      <trkpt lat="45.20125" lon="6.08223">
        <ele>1468</ele>
        <time>0001-01-01T09:45:00Z</time>
      </trkpt>
      <trkpt lat="45.20123" lon="6.08206">
        <ele>1404</ele>
        <time>0001-01-01T09:45:00Z</time>
      </trkpt>
      <trkpt lat="45.20118" lon="6.08172">
        <ele>1404</ele>
        <time>0001-01-01T09:45:00Z</time>
      </trkpt>
      <trkpt lat="45.20117" lon="6.08155">
        <ele>1404</ele>
        <time>0001-01-01T09:45:00Z</time>
      </trkpt>
      <trkpt lat="45.20116" lon="6.08139">
        <ele>1404</ele>
        <time>0001-01-01T09:45:00Z</time>
      </trkpt>
      <trkpt lat="45.20116" lon="6.08127">
        <ele>1404</ele>
        <time>0001-01-01T09:45:00Z</time>
      </trkpt>
      <trkpt lat="45.20117" lon="6.08113">
        <ele>1399</ele>
        <time>0001-01-01T09:45:00Z</time>
      </trkpt>
      <trkpt lat="45.20119" lon="6.08096">
        <ele>1399</ele>
        <time>0001-01-01T09:45:00Z</time>
      </trkpt>
      <trkpt lat="45.20123" lon="6.08076">
        <ele>1399</ele>
        <time>0001-01-01T09:45:00Z</time>
      </trkpt>
      <trkpt lat="45.20127" lon="6.08056">
        <ele>1477</ele>
        <time>0001-01-01T09:45:00Z</time>
      </trkpt>
      <trkpt lat="45.20137" lon="6.08015">
        <ele>1456</ele>
        <time>0001-01-01T09:45:00Z</time>
      </trkpt>
      <trkpt lat="45.20139" lon="6.08004">
        <ele>1456</ele>
        <time>0001-01-01T09:45:00Z</time>
      </trkpt>
      <trkpt lat="45.20141" lon="6.07987">
        <ele>1456</ele>
        <time>0001-01-01T09:45:00Z</time>
      </trkpt>
      <trkpt lat="45.20143" lon="6.07964">
        <ele>1456</ele>
        <time>0001-01-01T09:45:00Z</time>
      </trkpt>
      <trkpt lat="45.20145" lon="6.07942">
        <ele>1434</ele>
        <time>0001-01-01T09:45:00Z</time>
      </trkpt>
      <trkpt lat="45.20145" lon="6.07923">
        <ele>1434</ele>
        <time>0001-01-01T09:45:00Z</time>
      </trkpt>
      <trkpt lat="45.20147" lon="6.07903">
        <ele>1434</ele>
        <time>0001-01-01T09:45:00Z</time>
      </trkpt>
      <trkpt lat="45.2015" lon="6.07893">
        <ele>1434</ele>
        <time>0001-01-01T09:45:00Z</time>
      </trkpt>
      <trkpt lat="45.20152" lon="6.07885">
        <ele>1434</ele>
        <time>0001-01-01T09:45:00Z</time>
      </trkpt>
      <trkpt lat="45.20156" lon="6.07877">
        <ele>1434</ele>
        <time>0001-01-01T09:45:00Z</time>
      </trkpt>
      <trkpt lat="45.20159" lon="6.07871">
        <ele>1386</ele>
        <time>0001-01-01T09:45:00Z</time>
      </trkpt>
      <trkpt lat="45.20167" lon="6.07864">
        <ele>1386</ele>
        <time>0001-01-01T09:45:00Z</time>
      </trkpt>
      <trkpt lat="45.20176" lon="6.07856">
        <ele>1386</ele>
        <time>0001-01-01T09:45:00Z</time>
      </trkpt>
      <trkpt lat="45.20196" lon="6.07838">
        <ele>1386</ele>
        <time>0001-01-01T09:45:00Z</time>
      </trkpt>
      <trkpt lat="45.20213" lon="6.0782">
        <ele>1422</ele>
        <time>0001-01-01T09:45:00Z</time>
      </trkpt>
      <trkpt lat="45.20236" lon="6.07796">
        <ele>1422</ele>
        <time>0001-01-01T09:45:00Z</time>
      </trkpt>
      <trkpt lat="45.20262" lon="6.07769">
        <ele>1372</ele>
        <time>0001-01-01T09:45:00Z</time>
      </trkpt>
      <trkpt lat="45.20277" lon="6.07751">
        <ele>1372</ele>
        <time>0001-01-01T09:45:00Z</time>
      </trkpt>
      <trkpt lat="45.20289" lon="6.07739">
        <ele>1372</ele>
        <time>0001-01-01T09:45:00Z</time>
      </trkpt>
      <trkpt lat="45.20312" lon="6.07714">
        <ele>1406</ele>
        <time>0001-01-01T09:45:00Z</time>
      </trkpt>
      <trkpt lat="45.20345" lon="6.07677">
        <ele>1370</ele>
        <time>0001-01-01T09:45:00Z</time>
      </trkpt>
      <trkpt lat="45.20368" lon="6.07655">
        <ele>1370</ele>
        <time>0001-01-01T09:45:00Z</time>
      </trkpt>
      <trkpt lat="45.20374" lon="6.07649">
        <ele>1370</ele>
        <time>0001-01-01T09:45:00Z</time>
      </trkpt>
      <trkpt lat="45.20376" lon="6.07642">
        <ele>1415</ele>
        <time>0001-01-01T09:45:00Z</time>
      </trkpt>
      <trkpt lat="45.20377" lon="6.07633">
        <ele>1415</ele>
        <time>0001-01-01T09:45:00Z</time>
      </trkpt>
      <trkpt lat="45.20373" lon="6.0763">
        <ele>1370</ele>
        <time>0001-01-01T09:45:00Z</time>
      </trkpt>
      <trkpt lat="45.20371" lon="6.07629">
        <ele>1370</ele>
        <time>0001-01-01T09:45:00Z</time>
      </trkpt>
      <trkpt lat="45.20368" lon="6.0763">
        <ele>1370</ele>
        <time>0001-01-01T09:45:00Z</time>
      </trkpt>
      <trkpt lat="45.20364" lon="6.07632">
        <ele>1370</ele>
        <time>0001-01-01T09:45:00Z</time>
      </trkpt>
      <trkpt lat="45.20355" lon="6.07638">
        <ele>1370</ele>
        <time>0001-01-01T09:45:00Z</time>
      </trkpt>
      <trkpt lat="45.20342" lon="6.0765">
        <ele>1370</ele>
        <time>0001-01-01T09:45:00Z</time>
      </trkpt>
      <trkpt lat="45.20324" lon="6.07662">
        <ele>1370</ele>
        <time>0001-01-01T09:45:00Z</time>
      </trkpt>
      <trkpt lat="45.20302" lon="6.07675">
        <ele>1370</ele>
        <time>0001-01-01T09:45:00Z</time>
      </trkpt>
      <trkpt lat="45.20282" lon="6.07686">
        <ele>1348</ele>
        <time>0001-01-01T09:45:00Z</time>
      </trkpt>
      <trkpt lat="45.20266" lon="6.07697">
        <ele>1348</ele>
        <time>0001-01-01T09:45:00Z</time>
      </trkpt>
      <trkpt lat="45.20256" lon="6.07702">
        <ele>1348</ele>
        <time>0001-01-01T09:45:00Z</time>
      </trkpt>
      <trkpt lat="45.20244" lon="6.07707">
        <ele>1348</ele>
        <time>0001-01-01T09:45:00Z</time>
      </trkpt>
      <trkpt lat="45.20235" lon="6.07709">
        <ele>1372</ele>
        <time>0001-01-01T09:45:00Z</time>
      </trkpt>
      <trkpt lat="45.20225" lon="6.07708">
        <ele>1348</ele>
        <time>0001-01-01T09:45:00Z</time>
      </trkpt>
      <trkpt lat="45.20217" lon="6.07705">
        <ele>1348</ele>
        <time>0001-01-01T09:45:00Z</time>
      </trkpt>
      <trkpt lat="45.20209" lon="6.077">
        <ele>1348</ele>
        <time>0001-01-01T09:45:00Z</time>
      </trkpt>
      <trkpt lat="45.20196" lon="6.07691">
        <ele>1345</ele>
        <time>0001-01-01T09:45:00Z</time>
      </trkpt>
      <trkpt lat="45.2019" lon="6.07685">
        <ele>1345</ele>
        <time>0001-01-01T09:45:00Z</time>
      </trkpt>
      <trkpt lat="45.20187" lon="6.07681">
        <ele>1345</ele>
        <time>0001-01-01T09:45:00Z</time>
      </trkpt>
      <trkpt lat="45.20186" lon="6.07677">
        <ele>1345</ele>
        <time>0001-01-01T09:45:00Z</time>
      </trkpt>
      <trkpt lat="45.20186" lon="6.07674">
        <ele>1345</ele>
        <time>0001-01-01T09:45:00Z</time>
      </trkpt>
      <trkpt lat="45.20186" lon="6.07672">
        <ele>1345</ele>
        <time>0001-01-01T09:45:00Z</time>
      </trkpt>
      <trkpt lat="45.20187" lon="6.0767">
        <ele>1345</ele>
        <time>0001-01-01T09:45:00Z</time>
      </trkpt>
      <trkpt lat="45.20188" lon="6.07668">
        <ele>1345</ele>
        <time>0001-01-01T09:45:00Z</time>
      </trkpt>
      <trkpt lat="45.20189" lon="6.07666">
        <ele>1345</ele>
        <time>0001-01-01T09:45:00Z</time>
      </trkpt>
      <trkpt lat="45.20193" lon="6.07665">
        <ele>1345</ele>
        <time>0001-01-01T09:45:00Z</time>
      </trkpt>
      <trkpt lat="45.20198" lon="6.07666">
        <ele>1345</ele>
        <time>0001-01-01T09:45:00Z</time>
      </trkpt>
      <trkpt lat="45.20206" lon="6.07669">
        <ele>1345</ele>
        <time>0001-01-01T09:45:00Z</time>
      </trkpt>
      <trkpt lat="45.20215" lon="6.07672">
        <ele>1348</ele>
        <time>0001-01-01T09:45:00Z</time>
      </trkpt>
      <trkpt lat="45.20219" lon="6.07672">
        <ele>1348</ele>
        <time>0001-01-01T09:45:00Z</time>
      </trkpt>
      <trkpt lat="45.20226" lon="6.07672">
        <ele>1348</ele>
        <time>0001-01-01T09:45:00Z</time>
      </trkpt>
      <trkpt lat="45.2023" lon="6.0767">
        <ele>1348</ele>
        <time>0001-01-01T09:45:00Z</time>
      </trkpt>
      <trkpt lat="45.20237" lon="6.07666">
        <ele>1348</ele>
        <time>0001-01-01T09:45:00Z</time>
      </trkpt>
      <trkpt lat="45.20243" lon="6.07661">
        <ele>1348</ele>
        <time>0001-01-01T09:45:00Z</time>
      </trkpt>
      <trkpt lat="45.20249" lon="6.07654">
        <ele>1348</ele>
        <time>0001-01-01T09:45:00Z</time>
      </trkpt>
      <trkpt lat="45.20259" lon="6.0764">
        <ele>1348</ele>
        <time>0001-01-01T09:45:00Z</time>
      </trkpt>
      <trkpt lat="45.20263" lon="6.07632">
        <ele>1348</ele>
        <time>0001-01-01T09:45:00Z</time>
      </trkpt>
      <trkpt lat="45.20272" lon="6.07616">
        <ele>1334</ele>
        <time>0001-01-01T09:45:00Z</time>
      </trkpt>
      <trkpt lat="45.20277" lon="6.07607">
        <ele>1334</ele>
        <time>0001-01-01T09:45:00Z</time>
      </trkpt>
      <trkpt lat="45.20284" lon="6.07599">
        <ele>1334</ele>
        <time>0001-01-01T09:45:00Z</time>
      </trkpt>
      <trkpt lat="45.20291" lon="6.07592">
        <ele>1334</ele>
        <time>0001-01-01T09:45:00Z</time>
      </trkpt>
      <trkpt lat="45.20305" lon="6.07581">
        <ele>1339</ele>
        <time>0001-01-01T09:45:00Z</time>
      </trkpt>
      <trkpt lat="45.20331" lon="6.07554">
        <ele>1339</ele>
        <time>0001-01-01T09:45:00Z</time>
      </trkpt>
      <trkpt lat="45.20354" lon="6.07531">
        <ele>1321</ele>
        <time>0001-01-01T09:45:00Z</time>
      </trkpt>
      <trkpt lat="45.20369" lon="6.07509">
        <ele>1321</ele>
        <time>0001-01-01T09:45:00Z</time>
      </trkpt>
      <trkpt lat="45.20374" lon="6.07497">
        <ele>1321</ele>
        <time>0001-01-01T09:45:00Z</time>
      </trkpt>
      <trkpt lat="45.20376" lon="6.0749">
        <ele>1340</ele>
        <time>0001-01-01T09:45:00Z</time>
      </trkpt>
      <trkpt lat="45.20378" lon="6.07481">
        <ele>1340</ele>
        <time>0001-01-01T09:45:00Z</time>
      </trkpt>
      <trkpt lat="45.20378" lon="6.07474">
        <ele>1340</ele>
        <time>0001-01-01T09:45:00Z</time>
      </trkpt>
      <trkpt lat="45.2038" lon="6.07461">
        <ele>1340</ele>
        <time>0001-01-01T09:45:00Z</time>
      </trkpt>
      <trkpt lat="45.20382" lon="6.07449">
        <ele>1313</ele>
        <time>0001-01-01T09:45:00Z</time>
      </trkpt>
      <trkpt lat="45.20383" lon="6.07443">
        <ele>1313</ele>
        <time>0001-01-01T09:45:00Z</time>
      </trkpt>
      <trkpt lat="45.20386" lon="6.07437">
        <ele>1313</ele>
        <time>0001-01-01T09:45:00Z</time>
      </trkpt>
      <trkpt lat="45.20392" lon="6.07427">
        <ele>1313</ele>
        <time>0001-01-01T09:45:00Z</time>
      </trkpt>
      <trkpt lat="45.20399" lon="6.07416">
        <ele>1313</ele>
        <time>0001-01-01T09:45:00Z</time>
      </trkpt>
      <trkpt lat="45.20415" lon="6.07391">
        <ele>1313</ele>
        <time>0001-01-01T09:45:00Z</time>
      </trkpt>
      <trkpt lat="45.20429" lon="6.07367">
        <ele>1300</ele>
        <time>0001-01-01T09:45:00Z</time>
      </trkpt>
      <trkpt lat="45.20437" lon="6.07351">
        <ele>1300</ele>
        <time>0001-01-01T09:45:00Z</time>
      </trkpt>
      <trkpt lat="45.20439" lon="6.07345">
        <ele>1300</ele>
        <time>0001-01-01T09:45:00Z</time>
      </trkpt>
      <trkpt lat="45.2044" lon="6.07339">
        <ele>1300</ele>
        <time>0001-01-01T09:45:00Z</time>
      </trkpt>
      <trkpt lat="45.2044" lon="6.07333">
        <ele>1300</ele>
        <time>0001-01-01T09:45:00Z</time>
      </trkpt>
      <trkpt lat="45.20439" lon="6.07326">
        <ele>1300</ele>
        <time>0001-01-01T09:45:00Z</time>
      </trkpt>
      <trkpt lat="45.20433" lon="6.07306">
        <ele>1300</ele>
        <time>0001-01-01T09:45:00Z</time>
      </trkpt>
      <trkpt lat="45.2043" lon="6.07298">
        <ele>1300</ele>
        <time>0001-01-01T09:45:00Z</time>
      </trkpt>
      <trkpt lat="45.20428" lon="6.07291">
        <ele>1313</ele>
        <time>0001-01-01T09:45:00Z</time>
      </trkpt>
      <trkpt lat="45.20427" lon="6.07284">
        <ele>1313</ele>
        <time>0001-01-01T09:45:00Z</time>
      </trkpt>
      <trkpt lat="45.20425" lon="6.07274">
        <ele>1313</ele>
        <time>0001-01-01T09:45:00Z</time>
      </trkpt>
      <trkpt lat="45.2043" lon="6.07261">
        <ele>1313</ele>
        <time>0001-01-01T09:45:00Z</time>
      </trkpt>
      <trkpt lat="45.20443" lon="6.07237">
        <ele>1313</ele>
        <time>0001-01-01T09:45:00Z</time>
      </trkpt>
      <trkpt lat="45.20455" lon="6.07217">
        <ele>1313</ele>
        <time>0001-01-01T09:45:00Z</time>
      </trkpt>
      <trkpt lat="45.20459" lon="6.07209">
        <ele>1293</ele>
        <time>0001-01-01T09:45:00Z</time>
      </trkpt>
      <trkpt lat="45.20463" lon="6.07198">
        <ele>1291</ele>
        <time>0001-01-01T09:45:00Z</time>
      </trkpt>
      <trkpt lat="45.20467" lon="6.07186">
        <ele>1291</ele>
        <time>0001-01-01T09:45:00Z</time>
      </trkpt>
      <trkpt lat="45.2047" lon="6.07172">
        <ele>1291</ele>
        <time>0001-01-01T09:45:00Z</time>
      </trkpt>
      <trkpt lat="45.20472" lon="6.07158">
        <ele>1291</ele>
        <time>0001-01-01T09:45:00Z</time>
      </trkpt>
      <trkpt lat="45.20473" lon="6.07145">
        <ele>1291</ele>
        <time>0001-01-01T09:45:00Z</time>
      </trkpt>
      <trkpt lat="45.20475" lon="6.07134">
        <ele>1291</ele>
        <time>0001-01-01T09:45:00Z</time>
      </trkpt>
      <trkpt lat="45.20477" lon="6.07127">
        <ele>1291</ele>
        <time>0001-01-01T09:45:00Z</time>
      </trkpt>
      <trkpt lat="45.20481" lon="6.07116">
        <ele>1304</ele>
        <time>0001-01-01T09:45:00Z</time>
      </trkpt>
      <trkpt lat="45.20491" lon="6.07092">
        <ele>1304</ele>
        <time>0001-01-01T09:45:00Z</time>
      </trkpt>
      <trkpt lat="45.20506" lon="6.07053">
        <ele>1304</ele>
        <time>0001-01-01T09:45:00Z</time>
      </trkpt>
      <trkpt lat="45.20519" lon="6.07017">
        <ele>1324</ele>
        <time>0001-01-01T09:45:00Z</time>
      </trkpt>
      <trkpt lat="45.20529" lon="6.0699">
        <ele>1324</ele>
        <time>0001-01-01T09:45:00Z</time>
      </trkpt>
      <trkpt lat="45.20545" lon="6.06948">
        <ele>1290</ele>
        <time>0001-01-01T09:45:00Z</time>
      </trkpt>
      <trkpt lat="45.20567" lon="6.0689">
        <ele>1290</ele>
        <time>0001-01-01T09:45:00Z</time>
      </trkpt>
      <trkpt lat="45.20572" lon="6.06874">
        <ele>1299</ele>
        <time>0001-01-01T09:45:00Z</time>
      </trkpt>
      <trkpt lat="45.20575" lon="6.06863">
        <ele>1299</ele>
        <time>0001-01-01T09:45:00Z</time>
      </trkpt>
      <trkpt lat="45.20576" lon="6.06852">
        <ele>1299</ele>
        <time>0001-01-01T09:45:00Z</time>
      </trkpt>
      <trkpt lat="45.20578" lon="6.0684">
        <ele>1299</ele>
        <time>0001-01-01T09:45:00Z</time>
      </trkpt>
      <trkpt lat="45.2058" lon="6.06827">
        <ele>1299</ele>
        <time>0001-01-01T09:45:00Z</time>
      </trkpt>
      <trkpt lat="45.20583" lon="6.06816">
        <ele>1299</ele>
        <time>0001-01-01T09:45:00Z</time>
      </trkpt>
      <trkpt lat="45.20586" lon="6.06806">
        <ele>1299</ele>
        <time>0001-01-01T09:45:00Z</time>
      </trkpt>
      <trkpt lat="45.20589" lon="6.06798">
        <ele>1299</ele>
        <time>0001-01-01T09:45:00Z</time>
      </trkpt>
      <trkpt lat="45.20599" lon="6.06778">
        <ele>1314</ele>
        <time>0001-01-01T09:45:00Z</time>
      </trkpt>
      <trkpt lat="45.20612" lon="6.06754">
        <ele>1314</ele>
        <time>0001-01-01T09:45:00Z</time>
      </trkpt>
      <trkpt lat="45.20624" lon="6.0673">
        <ele>1314</ele>
        <time>0001-01-01T09:45:00Z</time>
      </trkpt>
      <trkpt lat="45.20638" lon="6.06705">
        <ele>1277</ele>
        <time>0001-01-01T09:45:00Z</time>
      </trkpt>
      <trkpt lat="45.20651" lon="6.06678">
        <ele>1277</ele>
        <time>0001-01-01T09:45:00Z</time>
      </trkpt>
      <trkpt lat="45.20667" lon="6.06646">
        <ele>1277</ele>
        <time>0001-01-01T09:45:00Z</time>
      </trkpt>
      <trkpt lat="45.20684" lon="6.06616">
        <ele>1310</ele>
        <time>0001-01-01T09:45:00Z</time>
      </trkpt>
      <trkpt lat="45.20706" lon="6.06582">
        <ele>1310</ele>
        <time>0001-01-01T09:45:00Z</time>
      </trkpt>
      <trkpt lat="45.20719" lon="6.06557">
        <ele>1239</ele>
        <time>0001-01-01T09:45:00Z</time>
      </trkpt>
      <trkpt lat="45.20724" lon="6.06547">
        <ele>1239</ele>
        <time>0001-01-01T09:45:00Z</time>
      </trkpt>
      <trkpt lat="45.2073" lon="6.06528">
        <ele>1261</ele>
        <time>0001-01-01T09:45:00Z</time>
      </trkpt>
      <trkpt lat="45.20735" lon="6.06511">
        <ele>1261</ele>
        <time>0001-01-01T09:45:00Z</time>
      </trkpt>
      <trkpt lat="45.20738" lon="6.06504">
        <ele>1261</ele>
        <time>0001-01-01T09:45:00Z</time>
      </trkpt>
      <trkpt lat="45.20742" lon="6.06497">
        <ele>1261</ele>
        <time>0001-01-01T09:45:00Z</time>
      </trkpt>
      <trkpt lat="45.20747" lon="6.0649">
        <ele>1261</ele>
        <time>0001-01-01T09:45:00Z</time>
      </trkpt>
      <trkpt lat="45.20753" lon="6.06482">
        <ele>1261</ele>
        <time>0001-01-01T09:45:00Z</time>
      </trkpt>
      <trkpt lat="45.20757" lon="6.06476">
        <ele>1261</ele>
        <time>0001-01-01T09:45:00Z</time>
      </trkpt>
      <trkpt lat="45.20759" lon="6.06469">
        <ele>1261</ele>
        <time>0001-01-01T09:45:00Z</time>
      </trkpt>
      <trkpt lat="45.20763" lon="6.06458">
        <ele>1280</ele>
        <time>0001-01-01T09:45:00Z</time>
      </trkpt>
      <trkpt lat="45.20772" lon="6.06433">
        <ele>1280</ele>
        <time>0001-01-01T09:45:00Z</time>
      </trkpt>
      <trkpt lat="45.20778" lon="6.06415">
        <ele>1280</ele>
        <time>0001-01-01T09:45:00Z</time>
      </trkpt>
      <trkpt lat="45.20783" lon="6.06398">
        <ele>1280</ele>
        <time>0001-01-01T09:45:00Z</time>
      </trkpt>
      <trkpt lat="45.20786" lon="6.06384">
        <ele>1280</ele>
        <time>0001-01-01T09:45:00Z</time>
      </trkpt>
      <trkpt lat="45.20787" lon="6.06377">
        <ele>1280</ele>
        <time>0001-01-01T09:45:00Z</time>
      </trkpt>
      <trkpt lat="45.20787" lon="6.06367">
        <ele>1296</ele>
        <time>0001-01-01T09:45:00Z</time>
      </trkpt>
      <trkpt lat="45.20787" lon="6.06354">
        <ele>1296</ele>
        <time>0001-01-01T09:45:00Z</time>
      </trkpt>
      <trkpt lat="45.20788" lon="6.06329">
        <ele>1296</ele>
        <time>0001-01-01T09:45:00Z</time>
      </trkpt>
      <trkpt lat="45.20789" lon="6.06309">
        <ele>1296</ele>
        <time>0001-01-01T09:45:00Z</time>
      </trkpt>
      <trkpt lat="45.20791" lon="6.06293">
        <ele>1296</ele>
        <time>0001-01-01T09:45:00Z</time>
      </trkpt>
      <trkpt lat="45.20792" lon="6.06284">
        <ele>1202</ele>
        <time>0001-01-01T09:45:00Z</time>
      </trkpt>
      <trkpt lat="45.20797" lon="6.06238">
        <ele>1202</ele>
        <time>0001-01-01T09:45:00Z</time>
      </trkpt>
      <trkpt lat="45.20803" lon="6.06193">
        <ele>1217</ele>
        <time>0001-01-01T09:45:00Z</time>
      </trkpt>
      <trkpt lat="45.2081" lon="6.06145">
        <ele>1217</ele>
        <time>0001-01-01T09:45:00Z</time>
      </trkpt>
      <trkpt lat="45.20815" lon="6.0612">
        <ele>1246</ele>
        <time>0001-01-01T09:45:00Z</time>
      </trkpt>
      <trkpt lat="45.20821" lon="6.06082">
        <ele>1246</ele>
        <time>0001-01-01T09:45:00Z</time>
      </trkpt>
      <trkpt lat="45.20827" lon="6.0605">
        <ele>1246</ele>
        <time>0001-01-01T09:45:00Z</time>
      </trkpt>
      <trkpt lat="45.20834" lon="6.06007">
        <ele>1251</ele>
        <time>0001-01-01T09:45:00Z</time>
      </trkpt>
      <trkpt lat="45.20836" lon="6.05997">
        <ele>1251</ele>
        <time>0001-01-01T09:45:00Z</time>
      </trkpt>
      <trkpt lat="45.20839" lon="6.05979">
        <ele>1251</ele>
        <time>0001-01-01T09:45:00Z</time>
      </trkpt>
      <trkpt lat="45.20845" lon="6.05943">
        <ele>1235</ele>
        <time>0001-01-01T09:45:00Z</time>
      </trkpt>
      <trkpt lat="45.20849" lon="6.05917">
        <ele>1235</ele>
        <time>0001-01-01T09:45:00Z</time>
      </trkpt>
      <trkpt lat="45.20854" lon="6.05886">
        <ele>1235</ele>
        <time>0001-01-01T09:45:00Z</time>
      </trkpt>
      <trkpt lat="45.20859" lon="6.0586">
        <ele>1238</ele>
        <time>0001-01-01T09:45:00Z</time>
      </trkpt>
      <trkpt lat="45.20867" lon="6.0583">
        <ele>1238</ele>
        <time>0001-01-01T09:45:00Z</time>
      </trkpt>
      <trkpt lat="45.20876" lon="6.05798">
        <ele>1185</ele>
        <time>0001-01-01T09:45:00Z</time>
      </trkpt>
      <trkpt lat="45.20881" lon="6.05781">
        <ele>1183</ele>
        <time>0001-01-01T09:45:00Z</time>
      </trkpt>
      <trkpt lat="45.20888" lon="6.0577">
        <ele>1183</ele>
        <time>0001-01-01T09:45:00Z</time>
      </trkpt>
      <trkpt lat="45.209" lon="6.05762">
        <ele>1183</ele>
        <time>0001-01-01T09:45:00Z</time>
      </trkpt>
      <trkpt lat="45.20903" lon="6.05761">
        <ele>1183</ele>
        <time>0001-01-01T09:45:00Z</time>
      </trkpt>
      <trkpt lat="45.20906" lon="6.0576">
        <ele>1183</ele>
        <time>0001-01-01T09:45:00Z</time>
      </trkpt>
      <trkpt lat="45.20909" lon="6.05759">
        <ele>1183</ele>
        <time>0001-01-01T09:45:00Z</time>
      </trkpt>
      <trkpt lat="45.20912" lon="6.05759">
        <ele>1183</ele>
        <time>0001-01-01T09:45:00Z</time>
      </trkpt>
      <trkpt lat="45.20915" lon="6.05757">
        <ele>1183</ele>
        <time>0001-01-01T09:45:00Z</time>
      </trkpt>
      <trkpt lat="45.20916" lon="6.05755">
        <ele>1183</ele>
        <time>0001-01-01T09:45:00Z</time>
      </trkpt>
      <trkpt lat="45.20918" lon="6.05753">
        <ele>1183</ele>
        <time>0001-01-01T09:45:00Z</time>
      </trkpt>
      <trkpt lat="45.2092" lon="6.0575">
        <ele>1183</ele>
        <time>0001-01-01T09:45:00Z</time>
      </trkpt>
      <trkpt lat="45.20923" lon="6.05742">
        <ele>1183</ele>
        <time>0001-01-01T09:45:00Z</time>
      </trkpt>
      <trkpt lat="45.20925" lon="6.05738">
        <ele>1183</ele>
        <time>0001-01-01T09:45:00Z</time>
      </trkpt>
      <trkpt lat="45.20927" lon="6.05734">
        <ele>1183</ele>
        <time>0001-01-01T09:45:00Z</time>
      </trkpt>
      <trkpt lat="45.20929" lon="6.05724">
        <ele>1183</ele>
        <time>0001-01-01T09:45:00Z</time>
      </trkpt>
      <trkpt lat="45.20931" lon="6.05718">
        <ele>1183</ele>
        <time>0001-01-01T09:45:00Z</time>
      </trkpt>
      <trkpt lat="45.20932" lon="6.05711">
        <ele>1183</ele>
        <time>0001-01-01T09:45:00Z</time>
      </trkpt>
      <trkpt lat="45.20933" lon="6.05704">
        <ele>1183</ele>
        <time>0001-01-01T09:45:00Z</time>
      </trkpt>
      <trkpt lat="45.20936" lon="6.05681">
        <ele>1183</ele>
        <time>0001-01-01T09:45:00Z</time>
      </trkpt>
      <trkpt lat="45.20937" lon="6.05661">
        <ele>1183</ele>
        <time>0001-01-01T09:45:00Z</time>
      </trkpt>
      <trkpt lat="45.20941" lon="6.05632">
        <ele>1183</ele>
        <time>0001-01-01T09:45:00Z</time>
      </trkpt>
      <trkpt lat="45.20947" lon="6.05588">
        <ele>1183</ele>
        <time>0001-01-01T09:45:00Z</time>
      </trkpt>
      <trkpt lat="45.20949" lon="6.05574">
        <ele>1183</ele>
        <time>0001-01-01T09:45:00Z</time>
      </trkpt>
      <trkpt lat="45.20954" lon="6.05553">
        <ele>1183</ele>
        <time>0001-01-01T09:45:00Z</time>
      </trkpt>
      <trkpt lat="45.20966" lon="6.05519">
        <ele>1207</ele>
        <time>0001-01-01T09:45:00Z</time>
      </trkpt>
      <trkpt lat="45.20967" lon="6.05517">
        <ele>1207</ele>
        <time>0001-01-01T09:45:00Z</time>
      </trkpt>
      <trkpt lat="45.20968" lon="6.05514">
        <ele>1207</ele>
        <time>0001-01-01T09:45:00Z</time>
      </trkpt>
      <trkpt lat="45.2097" lon="6.05512">
        <ele>1207</ele>
        <time>0001-01-01T09:45:00Z</time>
      </trkpt>
      <trkpt lat="45.20971" lon="6.05511">
        <ele>1207</ele>
        <time>0001-01-01T09:45:00Z</time>
      </trkpt>
      <trkpt lat="45.20972" lon="6.0551">
        <ele>1207</ele>
        <time>0001-01-01T09:45:00Z</time>
      </trkpt>
      <trkpt lat="45.20973" lon="6.0551">
        <ele>1207</ele>
        <time>0001-01-01T09:45:00Z</time>
      </trkpt>
      <trkpt lat="45.20974" lon="6.0551">
        <ele>1207</ele>
        <time>0001-01-01T09:45:00Z</time>
      </trkpt>
      <trkpt lat="45.20976" lon="6.0551">
        <ele>1207</ele>
        <time>0001-01-01T09:45:00Z</time>
      </trkpt>
      <trkpt lat="45.20977" lon="6.0551">
        <ele>1207</ele>
        <time>0001-01-01T09:45:00Z</time>
      </trkpt>
      <trkpt lat="45.20978" lon="6.05511">
        <ele>1207</ele>
        <time>0001-01-01T09:45:00Z</time>
      </trkpt>
      <trkpt lat="45.20979" lon="6.05512">
        <ele>1207</ele>
        <time>0001-01-01T09:45:00Z</time>
      </trkpt>
      <trkpt lat="45.2098" lon="6.05514">
        <ele>1207</ele>
        <time>0001-01-01T09:45:00Z</time>
      </trkpt>
      <trkpt lat="45.20981" lon="6.05515">
        <ele>1207</ele>
        <time>0001-01-01T09:45:00Z</time>
      </trkpt>
      <trkpt lat="45.20981" lon="6.05518">
        <ele>1207</ele>
        <time>0001-01-01T09:45:00Z</time>
      </trkpt>
      <trkpt lat="45.20981" lon="6.0552">
        <ele>1207</ele>
        <time>0001-01-01T09:45:00Z</time>
      </trkpt>
      <trkpt lat="45.20981" lon="6.05523">
        <ele>1207</ele>
        <time>0001-01-01T09:45:00Z</time>
      </trkpt>
      <trkpt lat="45.20981" lon="6.05527">
        <ele>1207</ele>
        <time>0001-01-01T09:45:00Z</time>
      </trkpt>
      <trkpt lat="45.20978" lon="6.05539">
        <ele>1207</ele>
        <time>0001-01-01T09:45:00Z</time>
      </trkpt>
      <trkpt lat="45.20975" lon="6.05554">
        <ele>1211</ele>
        <time>0001-01-01T09:45:00Z</time>
      </trkpt>
      <trkpt lat="45.20974" lon="6.05559">
        <ele>1211</ele>
        <time>0001-01-01T09:45:00Z</time>
      </trkpt>
      <trkpt lat="45.20974" lon="6.05564">
        <ele>1211</ele>
        <time>0001-01-01T09:45:00Z</time>
      </trkpt>
      <trkpt lat="45.20974" lon="6.05567">
        <ele>1211</ele>
        <time>0001-01-01T09:45:00Z</time>
      </trkpt>
      <trkpt lat="45.20974" lon="6.0558">
        <ele>1211</ele>
        <time>0001-01-01T09:45:00Z</time>
      </trkpt>
      <trkpt lat="45.20974" lon="6.05588">
        <ele>1211</ele>
        <time>0001-01-01T09:45:00Z</time>
      </trkpt>
      <trkpt lat="45.20975" lon="6.05596">
        <ele>1211</ele>
        <time>0001-01-01T09:45:00Z</time>
      </trkpt>
      <trkpt lat="45.20976" lon="6.05603">
        <ele>1211</ele>
        <time>0001-01-01T09:45:00Z</time>
      </trkpt>
      <trkpt lat="45.20979" lon="6.05624">
        <ele>1211</ele>
        <time>0001-01-01T09:45:00Z</time>
      </trkpt>
      <trkpt lat="45.20986" lon="6.0566">
        <ele>1208</ele>
        <time>0001-01-01T09:45:00Z</time>
      </trkpt>
      <trkpt lat="45.2099" lon="6.05682">
        <ele>1208</ele>
        <time>0001-01-01T09:45:00Z</time>
      </trkpt>
      <trkpt lat="45.20993" lon="6.05695">
        <ele>1208</ele>
        <time>0001-01-01T09:45:00Z</time>
      </trkpt>
      <trkpt lat="45.20995" lon="6.057">
        <ele>1208</ele>
        <time>0001-01-01T09:45:00Z</time>
      </trkpt>
      <trkpt lat="45.20997" lon="6.05708">
        <ele>1208</ele>
        <time>0001-01-01T09:45:00Z</time>
      </trkpt>
      <trkpt lat="45.20999" lon="6.05713">
        <ele>1206</ele>
        <time>0001-01-01T09:45:00Z</time>
      </trkpt>
      <trkpt lat="45.21002" lon="6.05722">
        <ele>1206</ele>
        <time>0001-01-01T09:45:00Z</time>
      </trkpt>
      <trkpt lat="45.21004" lon="6.05726">
        <ele>1206</ele>
        <time>0001-01-01T09:45:00Z</time>
      </trkpt>
      <trkpt lat="45.21006" lon="6.05728">
        <ele>1206</ele>
        <time>0001-01-01T09:45:00Z</time>
      </trkpt>
      <trkpt lat="45.21007" lon="6.05729">
        <ele>1206</ele>
        <time>0001-01-01T09:45:00Z</time>
      </trkpt>
      <trkpt lat="45.21009" lon="6.0573">
        <ele>1206</ele>
        <time>0001-01-01T09:45:00Z</time>
      </trkpt>
      <trkpt lat="45.21011" lon="6.05731">
        <ele>1206</ele>
        <time>0001-01-01T09:45:00Z</time>
      </trkpt>
      <trkpt lat="45.21012" lon="6.05731">
        <ele>1206</ele>
        <time>0001-01-01T09:45:00Z</time>
      </trkpt>
      <trkpt lat="45.21014" lon="6.0573">
        <ele>1206</ele>
        <time>0001-01-01T09:45:00Z</time>
      </trkpt>
      <trkpt lat="45.21015" lon="6.05729">
        <ele>1206</ele>
        <time>0001-01-01T09:45:00Z</time>
      </trkpt>
      <trkpt lat="45.21016" lon="6.05727">
        <ele>1206</ele>
        <time>0001-01-01T09:45:00Z</time>
      </trkpt>
      <trkpt lat="45.21017" lon="6.05725">
        <ele>1206</ele>
        <time>0001-01-01T09:45:00Z</time>
      </trkpt>
      <trkpt lat="45.21018" lon="6.05723">
        <ele>1206</ele>
        <time>0001-01-01T09:45:00Z</time>
      </trkpt>
      <trkpt lat="45.21018" lon="6.05721">
        <ele>1206</ele>
        <time>0001-01-01T09:45:00Z</time>
      </trkpt>
      <trkpt lat="45.21018" lon="6.05719">
        <ele>1206</ele>
        <time>0001-01-01T09:45:00Z</time>
      </trkpt>
      <trkpt lat="45.21018" lon="6.05716">
        <ele>1206</ele>
        <time>0001-01-01T09:45:00Z</time>
      </trkpt>
      <trkpt lat="45.21018" lon="6.05713">
        <ele>1206</ele>
        <time>0001-01-01T09:45:00Z</time>
      </trkpt>
      <trkpt lat="45.21017" lon="6.05708">
        <ele>1208</ele>
        <time>0001-01-01T09:45:00Z</time>
      </trkpt>
      <trkpt lat="45.21017" lon="6.05702">
        <ele>1208</ele>
        <time>0001-01-01T09:45:00Z</time>
      </trkpt>
      <trkpt lat="45.21017" lon="6.05694">
        <ele>1208</ele>
        <time>0001-01-01T09:45:00Z</time>
      </trkpt>
      <trkpt lat="45.21018" lon="6.05686">
        <ele>1208</ele>
        <time>0001-01-01T09:45:00Z</time>
      </trkpt>
      <trkpt lat="45.21018" lon="6.05682">
        <ele>1208</ele>
        <time>0001-01-01T09:45:00Z</time>
      </trkpt>
      <trkpt lat="45.21019" lon="6.05676">
        <ele>1208</ele>
        <time>0001-01-01T09:45:00Z</time>
      </trkpt>
      <trkpt lat="45.2102" lon="6.05668">
        <ele>1208</ele>
        <time>0001-01-01T09:45:00Z</time>
      </trkpt>
      <trkpt lat="45.21021" lon="6.05661">
        <ele>1208</ele>
        <time>0001-01-01T09:45:00Z</time>
      </trkpt>
      <trkpt lat="45.21022" lon="6.05654">
        <ele>1208</ele>
        <time>0001-01-01T09:45:00Z</time>
      </trkpt>
      <trkpt lat="45.2103" lon="6.0562">
        <ele>1211</ele>
        <time>0001-01-01T09:45:00Z</time>
      </trkpt>
      <trkpt lat="45.21033" lon="6.05607">
        <ele>1211</ele>
        <time>0001-01-01T09:45:00Z</time>
      </trkpt>
      <trkpt lat="45.21035" lon="6.05596">
        <ele>1211</ele>
        <time>0001-01-01T09:45:00Z</time>
      </trkpt>
      <trkpt lat="45.21037" lon="6.05586">
        <ele>1211</ele>
        <time>0001-01-01T09:45:00Z</time>
      </trkpt>
      <trkpt lat="45.21039" lon="6.05573">
        <ele>1211</ele>
        <time>0001-01-01T09:45:00Z</time>
      </trkpt>
      <trkpt lat="45.2104" lon="6.05566">
        <ele>1211</ele>
        <time>0001-01-01T09:45:00Z</time>
      </trkpt>
      <trkpt lat="45.21041" lon="6.05562">
        <ele>1211</ele>
        <time>0001-01-01T09:45:00Z</time>
      </trkpt>
      <trkpt lat="45.21042" lon="6.05558">
        <ele>1249</ele>
        <time>0001-01-01T09:45:00Z</time>
      </trkpt>
      <trkpt lat="45.21043" lon="6.05554">
        <ele>1249</ele>
        <time>0001-01-01T09:45:00Z</time>
      </trkpt>
      <trkpt lat="45.21044" lon="6.05551">
        <ele>1249</ele>
        <time>0001-01-01T09:45:00Z</time>
      </trkpt>
      <trkpt lat="45.21044" lon="6.0555">
        <ele>1249</ele>
        <time>0001-01-01T09:45:00Z</time>
      </trkpt>
      <trkpt lat="45.21045" lon="6.05549">
        <ele>1249</ele>
        <time>0001-01-01T09:45:00Z</time>
      </trkpt>
      <trkpt lat="45.21046" lon="6.05548">
        <ele>1249</ele>
        <time>0001-01-01T09:45:00Z</time>
      </trkpt>
      <trkpt lat="45.21047" lon="6.05548">
        <ele>1249</ele>
        <time>0001-01-01T09:45:00Z</time>
      </trkpt>
      <trkpt lat="45.21048" lon="6.05547">
        <ele>1249</ele>
        <time>0001-01-01T09:45:00Z</time>
      </trkpt>
      <trkpt lat="45.21049" lon="6.05548">
        <ele>1249</ele>
        <time>0001-01-01T09:45:00Z</time>
      </trkpt>
      <trkpt lat="45.21051" lon="6.05549">
        <ele>1249</ele>
        <time>0001-01-01T09:45:00Z</time>
      </trkpt>
      <trkpt lat="45.21052" lon="6.0555">
        <ele>1249</ele>
        <time>0001-01-01T09:45:00Z</time>
      </trkpt>
      <trkpt lat="45.21053" lon="6.05552">
        <ele>1249</ele>
        <time>0001-01-01T09:45:00Z</time>
      </trkpt>
      <trkpt lat="45.21054" lon="6.05555">
        <ele>1249</ele>
        <time>0001-01-01T09:45:00Z</time>
      </trkpt>
      <trkpt lat="45.21055" lon="6.05558">
        <ele>1249</ele>
        <time>0001-01-01T09:45:00Z</time>
      </trkpt>
      <trkpt lat="45.21055" lon="6.05561">
        <ele>1249</ele>
        <time>0001-01-01T09:45:00Z</time>
      </trkpt>
      <trkpt lat="45.21055" lon="6.05563">
        <ele>1249</ele>
        <time>0001-01-01T09:45:00Z</time>
      </trkpt>
      <trkpt lat="45.21056" lon="6.0557">
        <ele>1249</ele>
        <time>0001-01-01T09:45:00Z</time>
      </trkpt>
      <trkpt lat="45.21056" lon="6.05588">
        <ele>1249</ele>
        <time>0001-01-01T09:45:00Z</time>
      </trkpt>
      <trkpt lat="45.21058" lon="6.05607">
        <ele>1249</ele>
        <time>0001-01-01T09:45:00Z</time>
      </trkpt>
      <trkpt lat="45.21059" lon="6.05615">
        <ele>1249</ele>
        <time>0001-01-01T09:45:00Z</time>
      </trkpt>
      <trkpt lat="45.21064" lon="6.05642">
        <ele>1244</ele>
        <time>0001-01-01T09:45:00Z</time>
      </trkpt>
      <trkpt lat="45.21066" lon="6.05652">
        <ele>1244</ele>
        <time>0001-01-01T09:45:00Z</time>
      </trkpt>
      <trkpt lat="45.21067" lon="6.05661">
        <ele>1244</ele>
        <time>0001-01-01T09:45:00Z</time>
      </trkpt>
      <trkpt lat="45.21068" lon="6.05667">
        <ele>1244</ele>
        <time>0001-01-01T09:45:00Z</time>
      </trkpt>
      <trkpt lat="45.21068" lon="6.05672">
        <ele>1244</ele>
        <time>0001-01-01T09:45:00Z</time>
      </trkpt>
      <trkpt lat="45.21069" lon="6.05678">
        <ele>1244</ele>
        <time>0001-01-01T09:45:00Z</time>
      </trkpt>
      <trkpt lat="45.2107" lon="6.05684">
        <ele>1244</ele>
        <time>0001-01-01T09:45:00Z</time>
      </trkpt>
      <trkpt lat="45.21071" lon="6.05688">
        <ele>1244</ele>
        <time>0001-01-01T09:45:00Z</time>
      </trkpt>
      <trkpt lat="45.21072" lon="6.0569">
        <ele>1244</ele>
        <time>0001-01-01T09:45:00Z</time>
      </trkpt>
      <trkpt lat="45.21073" lon="6.05691">
        <ele>1244</ele>
        <time>0001-01-01T09:45:00Z</time>
      </trkpt>
      <trkpt lat="45.21074" lon="6.05692">
        <ele>1244</ele>
        <time>0001-01-01T09:45:00Z</time>
      </trkpt>
      <trkpt lat="45.21075" lon="6.05693">
        <ele>1244</ele>
        <time>0001-01-01T09:45:00Z</time>
      </trkpt>
      <trkpt lat="45.21077" lon="6.05693">
        <ele>1244</ele>
        <time>0001-01-01T09:45:00Z</time>
      </trkpt>
      <trkpt lat="45.21079" lon="6.05692">
        <ele>1244</ele>
        <time>0001-01-01T09:45:00Z</time>
      </trkpt>
      <trkpt lat="45.2108" lon="6.05692">
        <ele>1244</ele>
        <time>0001-01-01T09:45:00Z</time>
      </trkpt>
      <trkpt lat="45.21082" lon="6.0569">
        <ele>1244</ele>
        <time>0001-01-01T09:45:00Z</time>
      </trkpt>
      <trkpt lat="45.21083" lon="6.05687">
        <ele>1244</ele>
        <time>0001-01-01T09:45:00Z</time>
      </trkpt>
      <trkpt lat="45.21083" lon="6.05684">
        <ele>1244</ele>
        <time>0001-01-01T09:45:00Z</time>
      </trkpt>
      <trkpt lat="45.21084" lon="6.05682">
        <ele>1244</ele>
        <time>0001-01-01T09:45:00Z</time>
      </trkpt>
      <trkpt lat="45.21084" lon="6.0568">
        <ele>1244</ele>
        <time>0001-01-01T09:45:00Z</time>
      </trkpt>
      <trkpt lat="45.21083" lon="6.05669">
        <ele>1244</ele>
        <time>0001-01-01T09:45:00Z</time>
      </trkpt>
      <trkpt lat="45.21083" lon="6.05645">
        <ele>1244</ele>
        <time>0001-01-01T09:45:00Z</time>
      </trkpt>
      <trkpt lat="45.21083" lon="6.0563">
        <ele>1244</ele>
        <time>0001-01-01T09:45:00Z</time>
      </trkpt>
      <trkpt lat="45.21083" lon="6.0562">
        <ele>1249</ele>
        <time>0001-01-01T09:45:00Z</time>
      </trkpt>
      <trkpt lat="45.21084" lon="6.05613">
        <ele>1249</ele>
        <time>0001-01-01T09:45:00Z</time>
      </trkpt>
      <trkpt lat="45.21086" lon="6.05592">
        <ele>1249</ele>
        <time>0001-01-01T09:45:00Z</time>
      </trkpt>
      <trkpt lat="45.21088" lon="6.05572">
        <ele>1249</ele>
        <time>0001-01-01T09:45:00Z</time>
      </trkpt>
      <trkpt lat="45.21088" lon="6.05565">
        <ele>1249</ele>
        <time>0001-01-01T09:45:00Z</time>
      </trkpt>
      <trkpt lat="45.21089" lon="6.0554">
        <ele>1254</ele>
        <time>0001-01-01T09:45:00Z</time>
      </trkpt>
      <trkpt lat="45.21084" lon="6.05524">
        <ele>1254</ele>
        <time>0001-01-01T09:45:00Z</time>
      </trkpt>
      <trkpt lat="45.21081" lon="6.05507">
        <ele>1254</ele>
        <time>0001-01-01T09:45:00Z</time>
      </trkpt>
      <trkpt lat="45.21081" lon="6.05492">
        <ele>1254</ele>
        <time>0001-01-01T09:45:00Z</time>
      </trkpt>
      <trkpt lat="45.21082" lon="6.05471">
        <ele>1254</ele>
        <time>0001-01-01T09:45:00Z</time>
      </trkpt>
      <trkpt lat="45.21086" lon="6.05415">
        <ele>1255</ele>
        <time>0001-01-01T09:45:00Z</time>
      </trkpt>
      <trkpt lat="45.21091" lon="6.05344">
        <ele>1255</ele>
        <time>0001-01-01T09:45:00Z</time>
      </trkpt>
      <trkpt lat="45.21093" lon="6.05307">
        <ele>1255</ele>
        <time>0001-01-01T09:45:00Z</time>
      </trkpt>
      <trkpt lat="45.21093" lon="6.05279">
        <ele>1257</ele>
        <time>0001-01-01T09:45:00Z</time>
      </trkpt>
      <trkpt lat="45.21093" lon="6.05267">
        <ele>1257</ele>
        <time>0001-01-01T09:45:00Z</time>
      </trkpt>
      <trkpt lat="45.21092" lon="6.05252">
        <ele>1257</ele>
        <time>0001-01-01T09:45:00Z</time>
      </trkpt>
      <trkpt lat="45.21086" lon="6.0522">
        <ele>1257</ele>
        <time>0001-01-01T09:45:00Z</time>
      </trkpt>
      <trkpt lat="45.2108" lon="6.05182">
        <ele>1265</ele>
        <time>0001-01-01T09:45:00Z</time>
      </trkpt>
      <trkpt lat="45.21076" lon="6.05148">
        <ele>1265</ele>
        <time>0001-01-01T09:45:00Z</time>
      </trkpt>
      <trkpt lat="45.21076" lon="6.05128">
        <ele>1265</ele>
        <time>0001-01-01T09:45:00Z</time>
      </trkpt>
      <trkpt lat="45.21076" lon="6.05123">
        <ele>1260</ele>
        <time>0001-01-01T09:45:00Z</time>
      </trkpt>
      <trkpt lat="45.21077" lon="6.05117">
        <ele>1260</ele>
        <time>0001-01-01T09:45:00Z</time>
      </trkpt>
      <trkpt lat="45.21078" lon="6.05112">
        <ele>1260</ele>
        <time>0001-01-01T09:45:00Z</time>
      </trkpt>
      <trkpt lat="45.2108" lon="6.05108">
        <ele>1260</ele>
        <time>0001-01-01T09:45:00Z</time>
      </trkpt>
      <trkpt lat="45.21082" lon="6.05104">
        <ele>1260</ele>
        <time>0001-01-01T09:45:00Z</time>
      </trkpt>
      <trkpt lat="45.21087" lon="6.05097">
        <ele>1260</ele>
        <time>0001-01-01T09:45:00Z</time>
      </trkpt>
      <trkpt lat="45.21103" lon="6.05082">
        <ele>1260</ele>
        <time>0001-01-01T09:45:00Z</time>
      </trkpt>
      <trkpt lat="45.21109" lon="6.05073">
        <ele>1260</ele>
        <time>0001-01-01T09:45:00Z</time>
      </trkpt>
      <trkpt lat="45.21111" lon="6.05067">
        <ele>1260</ele>
        <time>0001-01-01T09:45:00Z</time>
      </trkpt>
      <trkpt lat="45.21114" lon="6.05062">
        <ele>1260</ele>
        <time>0001-01-01T09:45:00Z</time>
      </trkpt>
      <trkpt lat="45.21116" lon="6.05056">
        <ele>1260</ele>
        <time>0001-01-01T09:45:00Z</time>
      </trkpt>
      <trkpt lat="45.21117" lon="6.05052">
        <ele>1260</ele>
        <time>0001-01-01T09:45:00Z</time>
      </trkpt>
      <trkpt lat="45.21117" lon="6.05045">
        <ele>1260</ele>
        <time>0001-01-01T09:45:00Z</time>
      </trkpt>
      <trkpt lat="45.21117" lon="6.0504">
        <ele>1261</ele>
        <time>0001-01-01T09:45:00Z</time>
      </trkpt>
      <trkpt lat="45.21117" lon="6.05035">
        <ele>1261</ele>
        <time>0001-01-01T09:45:00Z</time>
      </trkpt>
      <trkpt lat="45.21115" lon="6.05025">
        <ele>1261</ele>
        <time>0001-01-01T09:45:00Z</time>
      </trkpt>
      <trkpt lat="45.21114" lon="6.05022">
        <ele>1261</ele>
        <time>0001-01-01T09:45:00Z</time>
      </trkpt>
      <trkpt lat="45.21113" lon="6.05017">
        <ele>1261</ele>
        <time>0001-01-01T09:45:00Z</time>
      </trkpt>
      <trkpt lat="45.21108" lon="6.05007">
        <ele>1261</ele>
        <time>0001-01-01T09:45:00Z</time>
      </trkpt>
      <trkpt lat="45.21092" lon="6.04986">
        <ele>1261</ele>
        <time>0001-01-01T09:45:00Z</time>
      </trkpt>
      <trkpt lat="45.21081" lon="6.0497">
        <ele>1261</ele>
        <time>0001-01-01T09:45:00Z</time>
      </trkpt>
      <trkpt lat="45.21079" lon="6.04966">
        <ele>1261</ele>
        <time>0001-01-01T09:45:00Z</time>
      </trkpt>
      <trkpt lat="45.21076" lon="6.0496">
        <ele>1261</ele>
        <time>0001-01-01T09:45:00Z</time>
      </trkpt>
      <trkpt lat="45.21074" lon="6.04954">
        <ele>1273</ele>
        <time>0001-01-01T09:45:00Z</time>
      </trkpt>
      <trkpt lat="45.21074" lon="6.0495">
        <ele>1273</ele>
        <time>0001-01-01T09:45:00Z</time>
      </trkpt>
      <trkpt lat="45.21073" lon="6.04947">
        <ele>1273</ele>
        <time>0001-01-01T09:45:00Z</time>
      </trkpt>
      <trkpt lat="45.21073" lon="6.04942">
        <ele>1273</ele>
        <time>0001-01-01T09:45:00Z</time>
      </trkpt>
      <trkpt lat="45.21073" lon="6.04939">
        <ele>1273</ele>
        <time>0001-01-01T09:45:00Z</time>
      </trkpt>
      <trkpt lat="45.21073" lon="6.04933">
        <ele>1273</ele>
        <time>0001-01-01T09:45:00Z</time>
      </trkpt>
      <trkpt lat="45.21078" lon="6.04892">
        <ele>1273</ele>
        <time>0001-01-01T09:45:00Z</time>
      </trkpt>
      <trkpt lat="45.21081" lon="6.04862">
        <ele>1261</ele>
        <time>0001-01-01T09:45:00Z</time>
      </trkpt>
      <trkpt lat="45.21083" lon="6.04853">
        <ele>1261</ele>
        <time>0001-01-01T09:45:00Z</time>
      </trkpt>
      <trkpt lat="45.21085" lon="6.04841">
        <ele>1261</ele>
        <time>0001-01-01T09:45:00Z</time>
      </trkpt>
      <trkpt lat="45.21087" lon="6.04837">
        <ele>1261</ele>
        <time>0001-01-01T09:45:00Z</time>
      </trkpt>
      <trkpt lat="45.21088" lon="6.04834">
        <ele>1261</ele>
        <time>0001-01-01T09:45:00Z</time>
      </trkpt>
      <trkpt lat="45.2109" lon="6.04831">
        <ele>1261</ele>
        <time>0001-01-01T09:45:00Z</time>
      </trkpt>
      <trkpt lat="45.21093" lon="6.04826">
        <ele>1261</ele>
        <time>0001-01-01T09:45:00Z</time>
      </trkpt>
      <trkpt lat="45.21096" lon="6.04823">
        <ele>1261</ele>
        <time>0001-01-01T09:45:00Z</time>
      </trkpt>
      <trkpt lat="45.21106" lon="6.04814">
        <ele>1261</ele>
        <time>0001-01-01T09:45:00Z</time>
      </trkpt>
      <trkpt lat="45.21111" lon="6.04809">
        <ele>1261</ele>
        <time>0001-01-01T09:45:00Z</time>
      </trkpt>
      <trkpt lat="45.21113" lon="6.04806">
        <ele>1261</ele>
        <time>0001-01-01T09:45:00Z</time>
      </trkpt>
      <trkpt lat="45.21119" lon="6.04798">
        <ele>1261</ele>
        <time>0001-01-01T09:45:00Z</time>
      </trkpt>
      <trkpt lat="45.21122" lon="6.04793">
        <ele>1261</ele>
        <time>0001-01-01T09:45:00Z</time>
      </trkpt>
      <trkpt lat="45.21124" lon="6.04789">
        <ele>1272</ele>
        <time>0001-01-01T09:45:00Z</time>
      </trkpt>
      <trkpt lat="45.21125" lon="6.04784">
        <ele>1272</ele>
        <time>0001-01-01T09:45:00Z</time>
      </trkpt>
      <trkpt lat="45.21126" lon="6.04781">
        <ele>1308</ele>
        <time>0001-01-01T09:45:00Z</time>
      </trkpt>
      <trkpt lat="45.21126" lon="6.04776">
        <ele>1308</ele>
        <time>0001-01-01T09:45:00Z</time>
      </trkpt>
      <trkpt lat="45.21126" lon="6.04772">
        <ele>1308</ele>
        <time>0001-01-01T09:45:00Z</time>
      </trkpt>
      <trkpt lat="45.21126" lon="6.04767">
        <ele>1308</ele>
        <time>0001-01-01T09:45:00Z</time>
      </trkpt>
      <trkpt lat="45.21125" lon="6.04762">
        <ele>1272</ele>
        <time>0001-01-01T09:45:00Z</time>
      </trkpt>
      <trkpt lat="45.21123" lon="6.04757">
        <ele>1272</ele>
        <time>0001-01-01T09:45:00Z</time>
      </trkpt>
      <trkpt lat="45.2112" lon="6.04754">
        <ele>1272</ele>
        <time>0001-01-01T09:45:00Z</time>
      </trkpt>
      <trkpt lat="45.21118" lon="6.0475">
        <ele>1272</ele>
        <time>0001-01-01T09:45:00Z</time>
      </trkpt>
      <trkpt lat="45.21102" lon="6.04739">
        <ele>1272</ele>
        <time>0001-01-01T09:45:00Z</time>
      </trkpt>
      <trkpt lat="45.21087" lon="6.04729">
        <ele>1272</ele>
        <time>0001-01-01T09:45:00Z</time>
      </trkpt>
      <trkpt lat="45.21074" lon="6.04719">
        <ele>1272</ele>
        <time>0001-01-01T09:45:00Z</time>
      </trkpt>
      <trkpt lat="45.21063" lon="6.04712">
        <ele>1272</ele>
        <time>0001-01-01T09:45:00Z</time>
      </trkpt>
      <trkpt lat="45.21055" lon="6.04709">
        <ele>1272</ele>
        <time>0001-01-01T09:45:00Z</time>
      </trkpt>
      <trkpt lat="45.21045" lon="6.04707">
        <ele>1314</ele>
        <time>0001-01-01T09:45:00Z</time>
      </trkpt>
      <trkpt lat="45.21036" lon="6.04702">
        <ele>1289</ele>
        <time>0001-01-01T09:45:00Z</time>
      </trkpt>
      <trkpt lat="45.21025" lon="6.04695">
        <ele>1289</ele>
        <time>0001-01-01T09:45:00Z</time>
      </trkpt>
      <trkpt lat="45.21015" lon="6.04681">
        <ele>1289</ele>
        <time>0001-01-01T09:45:00Z</time>
      </trkpt>
      <trkpt lat="45.21006" lon="6.04666">
        <ele>1289</ele>
        <time>0001-01-01T09:45:00Z</time>
      </trkpt>
      <trkpt lat="45.20999" lon="6.0466">
        <ele>1289</ele>
        <time>0001-01-01T09:45:00Z</time>
      </trkpt>
      <trkpt lat="45.20989" lon="6.04658">
        <ele>1289</ele>
        <time>0001-01-01T09:45:00Z</time>
      </trkpt>
      <trkpt lat="45.2097" lon="6.04656">
        <ele>1289</ele>
        <time>0001-01-01T09:45:00Z</time>
      </trkpt>
      <trkpt lat="45.20959" lon="6.04653">
        <ele>1289</ele>
        <time>0001-01-01T09:45:00Z</time>
      </trkpt>
      <trkpt lat="45.20951" lon="6.04647">
        <ele>1260</ele>
        <time>0001-01-01T09:45:00Z</time>
      </trkpt>
      <trkpt lat="45.20947" lon="6.04639">
        <ele>1260</ele>
        <time>0001-01-01T09:45:00Z</time>
      </trkpt>
      <trkpt lat="45.20943" lon="6.04629">
        <ele>1260</ele>
        <time>0001-01-01T09:45:00Z</time>
      </trkpt>
      <trkpt lat="45.20942" lon="6.04616">
        <ele>1280</ele>
        <time>0001-01-01T09:45:00Z</time>
      </trkpt>
      <trkpt lat="45.20944" lon="6.04594">
        <ele>1280</ele>
        <time>0001-01-01T09:45:00Z</time>
      </trkpt>
      <trkpt lat="45.20948" lon="6.04559">
        <ele>1280</ele>
        <time>0001-01-01T09:45:00Z</time>
      </trkpt>
      <trkpt lat="45.20948" lon="6.04548">
        <ele>1280</ele>
        <time>0001-01-01T09:45:00Z</time>
      </trkpt>
      <trkpt lat="45.20947" lon="6.04538">
        <ele>1302</ele>
        <time>0001-01-01T09:45:00Z</time>
      </trkpt>
      <trkpt lat="45.20944" lon="6.0453">
        <ele>1302</ele>
        <time>0001-01-01T09:45:00Z</time>
      </trkpt>
      <trkpt lat="45.20937" lon="6.04523">
        <ele>1302</ele>
        <time>0001-01-01T09:45:00Z</time>
      </trkpt>
      <trkpt lat="45.20929" lon="6.04521">
        <ele>1302</ele>
        <time>0001-01-01T09:45:00Z</time>
      </trkpt>
      <trkpt lat="45.20919" lon="6.04523">
        <ele>1302</ele>
        <time>0001-01-01T09:45:00Z</time>
      </trkpt>
      <trkpt lat="45.20907" lon="6.04531">
        <ele>1302</ele>
        <time>0001-01-01T09:45:00Z</time>
      </trkpt>
      <trkpt lat="45.20884" lon="6.04544">
        <ele>1280</ele>
        <time>0001-01-01T09:45:00Z</time>
      </trkpt>
      <trkpt lat="45.2087" lon="6.04549">
        <ele>1263</ele>
        <time>0001-01-01T09:45:00Z</time>
      </trkpt>
      <trkpt lat="45.20862" lon="6.04549">
        <ele>1263</ele>
        <time>0001-01-01T09:45:00Z</time>
      </trkpt>
      <trkpt lat="45.20856" lon="6.04548">
        <ele>1263</ele>
        <time>0001-01-01T09:45:00Z</time>
      </trkpt>
      <trkpt lat="45.2085" lon="6.04541">
        <ele>1284</ele>
        <time>0001-01-01T09:45:00Z</time>
      </trkpt>
      <trkpt lat="45.20842" lon="6.04532">
        <ele>1284</ele>
        <time>0001-01-01T09:45:00Z</time>
      </trkpt>
      <trkpt lat="45.20833" lon="6.04513">
        <ele>1284</ele>
        <time>0001-01-01T09:45:00Z</time>
      </trkpt>
      <trkpt lat="45.20825" lon="6.04501">
        <ele>1284</ele>
        <time>0001-01-01T09:45:00Z</time>
      </trkpt>
      <trkpt lat="45.20819" lon="6.04491">
        <ele>1284</ele>
        <time>0001-01-01T09:45:00Z</time>
      </trkpt>
      <trkpt lat="45.20811" lon="6.04486">
        <ele>1284</ele>
        <time>0001-01-01T09:45:00Z</time>
      </trkpt>
      <trkpt lat="45.20802" lon="6.04482">
        <ele>1284</ele>
        <time>0001-01-01T09:45:00Z</time>
      </trkpt>
      <trkpt lat="45.20791" lon="6.04481">
        <ele>1270</ele>
        <time>0001-01-01T09:45:00Z</time>
      </trkpt>
      <trkpt lat="45.20776" lon="6.04481">
        <ele>1270</ele>
        <time>0001-01-01T09:45:00Z</time>
      </trkpt>
      <trkpt lat="45.20762" lon="6.04479">
        <ele>1270</ele>
        <time>0001-01-01T09:45:00Z</time>
      </trkpt>
      <trkpt lat="45.2075" lon="6.04478">
        <ele>1270</ele>
        <time>0001-01-01T09:45:00Z</time>
      </trkpt>
      <trkpt lat="45.20736" lon="6.04475">
        <ele>1270</ele>
        <time>0001-01-01T09:45:00Z</time>
      </trkpt>
      <trkpt lat="45.20722" lon="6.04469">
        <ele>1270</ele>
        <time>0001-01-01T09:45:00Z</time>
      </trkpt>
      <trkpt lat="45.20706" lon="6.04461">
        <ele>1253</ele>
        <time>0001-01-01T09:45:00Z</time>
      </trkpt>
      <trkpt lat="45.20689" lon="6.04451">
        <ele>1279</ele>
        <time>0001-01-01T09:45:00Z</time>
      </trkpt>
      <trkpt lat="45.20672" lon="6.04439">
        <ele>1279</ele>
        <time>0001-01-01T09:45:00Z</time>
      </trkpt>
      <trkpt lat="45.20661" lon="6.04427">
        <ele>1279</ele>
        <time>0001-01-01T09:45:00Z</time>
      </trkpt>
      <trkpt lat="45.20638" lon="6.04398">
        <ele>1279</ele>
        <time>0001-01-01T09:45:00Z</time>
      </trkpt>
      <trkpt lat="45.20626" lon="6.04386">
        <ele>1279</ele>
        <time>0001-01-01T09:45:00Z</time>
      </trkpt>
      <trkpt lat="45.20619" lon="6.04382">
        <ele>1266</ele>
        <time>0001-01-01T09:45:00Z</time>
      </trkpt>
      <trkpt lat="45.206" lon="6.04373">
        <ele>1280</ele>
        <time>0001-01-01T09:45:00Z</time>
      </trkpt>
      <trkpt lat="45.20567" lon="6.04363">
        <ele>1280</ele>
        <time>0001-01-01T09:45:00Z</time>
      </trkpt>
      <trkpt lat="45.20542" lon="6.04353">
        <ele>1280</ele>
        <time>0001-01-01T09:45:00Z</time>
      </trkpt>
      <trkpt lat="45.20535" lon="6.04348">
        <ele>1274</ele>
        <time>0001-01-01T09:45:00Z</time>
      </trkpt>
      <trkpt lat="45.20523" lon="6.04338">
        <ele>1274</ele>
        <time>0001-01-01T09:45:00Z</time>
      </trkpt>
      <trkpt lat="45.20516" lon="6.04332">
        <ele>1274</ele>
        <time>0001-01-01T09:45:00Z</time>
      </trkpt>
      <trkpt lat="45.20503" lon="6.04312">
        <ele>1274</ele>
        <time>0001-01-01T09:45:00Z</time>
      </trkpt>
      <trkpt lat="45.205" lon="6.04305">
        <ele>1274</ele>
        <time>0001-01-01T09:45:00Z</time>
      </trkpt>
      <trkpt lat="45.2049" lon="6.04276">
        <ele>1280</ele>
        <time>0001-01-01T09:45:00Z</time>
      </trkpt>
      <trkpt lat="45.20474" lon="6.04234">
        <ele>1280</ele>
        <time>0001-01-01T09:45:00Z</time>
      </trkpt>
      <trkpt lat="45.2046" lon="6.04197">
        <ele>1286</ele>
        <time>0001-01-01T09:45:00Z</time>
      </trkpt>
      <trkpt lat="45.20457" lon="6.04189">
        <ele>1269</ele>
        <time>0001-01-01T09:45:00Z</time>
      </trkpt>
      <trkpt lat="45.20449" lon="6.04178">
        <ele>1269</ele>
        <time>0001-01-01T09:45:00Z</time>
      </trkpt>
      <trkpt lat="45.20439" lon="6.04165">
        <ele>1269</ele>
        <time>0001-01-01T09:45:00Z</time>
      </trkpt>
      <trkpt lat="45.2043" lon="6.04155">
        <ele>1269</ele>
        <time>0001-01-01T09:45:00Z</time>
      </trkpt>
      <trkpt lat="45.20412" lon="6.04137">
        <ele>1269</ele>
        <time>0001-01-01T09:45:00Z</time>
      </trkpt>
      <trkpt lat="45.20394" lon="6.04118">
        <ele>1285</ele>
        <time>0001-01-01T09:45:00Z</time>
      </trkpt>
      <trkpt lat="45.20378" lon="6.04102">
        <ele>1285</ele>
        <time>0001-01-01T09:45:00Z</time>
      </trkpt>
      <trkpt lat="45.20366" lon="6.04089">
        <ele>1273</ele>
        <time>0001-01-01T09:45:00Z</time>
      </trkpt>
      <trkpt lat="45.20359" lon="6.04081">
        <ele>1273</ele>
        <time>0001-01-01T09:45:00Z</time>
      </trkpt>
      <trkpt lat="45.20346" lon="6.04067">
        <ele>1273</ele>
        <time>0001-01-01T09:45:00Z</time>
      </trkpt>
      <trkpt lat="45.20338" lon="6.04056">
        <ele>1273</ele>
        <time>0001-01-01T09:45:00Z</time>
      </trkpt>
      <trkpt lat="45.20336" lon="6.04053">
        <ele>1273</ele>
        <time>0001-01-01T09:45:00Z</time>
      </trkpt>
      <trkpt lat="45.20329" lon="6.04041">
        <ele>1292</ele>
        <time>0001-01-01T09:45:00Z</time>
      </trkpt>
      <trkpt lat="45.20321" lon="6.04031">
        <ele>1292</ele>
        <time>0001-01-01T09:45:00Z</time>
      </trkpt>
      <trkpt lat="45.20312" lon="6.04025">
        <ele>1292</ele>
        <time>0001-01-01T09:45:00Z</time>
      </trkpt>
      <trkpt lat="45.20307" lon="6.04023">
        <ele>1292</ele>
        <time>0001-01-01T09:45:00Z</time>
      </trkpt>
      <trkpt lat="45.20302" lon="6.04022">
        <ele>1292</ele>
        <time>0001-01-01T09:45:00Z</time>
      </trkpt>
      <trkpt lat="45.20293" lon="6.04021">
        <ele>1292</ele>
        <time>0001-01-01T09:45:00Z</time>
      </trkpt>
      <trkpt lat="45.20279" lon="6.04023">
        <ele>1270</ele>
        <time>0001-01-01T09:45:00Z</time>
      </trkpt>
      <trkpt lat="45.20262" lon="6.0403">
        <ele>1270</ele>
        <time>0001-01-01T09:45:00Z</time>
      </trkpt>
      <trkpt lat="45.20252" lon="6.04032">
        <ele>1270</ele>
        <time>0001-01-01T09:45:00Z</time>
      </trkpt>
      <trkpt lat="45.20245" lon="6.04031">
        <ele>1270</ele>
        <time>0001-01-01T09:45:00Z</time>
      </trkpt>
      <trkpt lat="45.20239" lon="6.0403">
        <ele>1270</ele>
        <time>0001-01-01T09:45:00Z</time>
      </trkpt>
      <trkpt lat="45.20236" lon="6.04029">
        <ele>1270</ele>
        <time>0001-01-01T09:45:00Z</time>
      </trkpt>
      <trkpt lat="45.20227" lon="6.04022">
        <ele>1270</ele>
        <time>0001-01-01T09:45:00Z</time>
      </trkpt>
      <trkpt lat="45.20209" lon="6.04007">
        <ele>1270</ele>
        <time>0001-01-01T09:45:00Z</time>
      </trkpt>
      <trkpt lat="45.20198" lon="6.03993">
        <ele>1258</ele>
        <time>0001-01-01T09:45:00Z</time>
      </trkpt>
      <trkpt lat="45.20185" lon="6.03978">
        <ele>1258</ele>
        <time>0001-01-01T09:45:00Z</time>
      </trkpt>
      <trkpt lat="45.20172" lon="6.03963">
        <ele>1258</ele>
        <time>0001-01-01T09:45:00Z</time>
      </trkpt>
      <trkpt lat="45.20165" lon="6.03957">
        <ele>1281</ele>
        <time>0001-01-01T09:45:00Z</time>
      </trkpt>
      <trkpt lat="45.20157" lon="6.03953">
        <ele>1281</ele>
        <time>0001-01-01T09:45:00Z</time>
      </trkpt>
      <trkpt lat="45.2015" lon="6.03951">
        <ele>1281</ele>
        <time>0001-01-01T09:45:00Z</time>
      </trkpt>
      <trkpt lat="45.20146" lon="6.0395">
        <ele>1281</ele>
        <time>0001-01-01T09:45:00Z</time>
      </trkpt>
      <trkpt lat="45.20128" lon="6.0395">
        <ele>1281</ele>
        <time>0001-01-01T09:45:00Z</time>
      </trkpt>
      <trkpt lat="45.20112" lon="6.03949">
        <ele>1268</ele>
        <time>0001-01-01T09:45:00Z</time>
      </trkpt>
      <trkpt lat="45.20098" lon="6.03948">
        <ele>1268</ele>
        <time>0001-01-01T09:45:00Z</time>
      </trkpt>
      <trkpt lat="45.20087" lon="6.03945">
        <ele>1268</ele>
        <time>0001-01-01T09:45:00Z</time>
      </trkpt>
      <trkpt lat="45.20071" lon="6.03938">
        <ele>1268</ele>
        <time>0001-01-01T09:45:00Z</time>
      </trkpt>
      <trkpt lat="45.2005" lon="6.03928">
        <ele>1268</ele>
        <time>0001-01-01T09:45:00Z</time>
      </trkpt>
      <trkpt lat="45.20029" lon="6.0392">
        <ele>1262</ele>
        <time>0001-01-01T09:45:00Z</time>
      </trkpt>
      <trkpt lat="45.20011" lon="6.03914">
        <ele>1262</ele>
        <time>0001-01-01T09:45:00Z</time>
      </trkpt>
      <trkpt lat="45.1999" lon="6.0391">
        <ele>1262</ele>
        <time>0001-01-01T09:45:00Z</time>
      </trkpt>
      <trkpt lat="45.1997" lon="6.03908">
        <ele>1262</ele>
        <time>0001-01-01T09:45:00Z</time>
      </trkpt>
      <trkpt lat="45.19957" lon="6.03911">
        <ele>1263</ele>
        <time>0001-01-01T09:45:00Z</time>
      </trkpt>
      <trkpt lat="45.19944" lon="6.03916">
        <ele>1263</ele>
        <time>0001-01-01T09:45:00Z</time>
      </trkpt>
      <trkpt lat="45.19931" lon="6.03921">
        <ele>1263</ele>
        <time>0001-01-01T09:45:00Z</time>
      </trkpt>
      <trkpt lat="45.19921" lon="6.03922">
        <ele>1263</ele>
        <time>0001-01-01T09:45:00Z</time>
      </trkpt>
      <trkpt lat="45.19916" lon="6.03923">
        <ele>1263</ele>
        <time>0001-01-01T09:45:00Z</time>
      </trkpt>
      <trkpt lat="45.1991" lon="6.03924">
        <ele>1263</ele>
        <time>0001-01-01T09:45:00Z</time>
      </trkpt>
      <trkpt lat="45.19906" lon="6.03925">
        <ele>1263</ele>
        <time>0001-01-01T09:45:00Z</time>
      </trkpt>
      <trkpt lat="45.19904" lon="6.03926">
        <ele>1263</ele>
        <time>0001-01-01T09:45:00Z</time>
      </trkpt>
      <trkpt lat="45.19898" lon="6.03928">
        <ele>1263</ele>
        <time>0001-01-01T09:45:00Z</time>
      </trkpt>
      <trkpt lat="45.19888" lon="6.03934">
        <ele>1263</ele>
        <time>0001-01-01T09:45:00Z</time>
      </trkpt>
      <trkpt lat="45.19881" lon="6.03937">
        <ele>1263</ele>
        <time>0001-01-01T09:45:00Z</time>
      </trkpt>
      <trkpt lat="45.19874" lon="6.03936">
        <ele>1262</ele>
        <time>0001-01-01T09:45:00Z</time>
      </trkpt>
      <trkpt lat="45.19864" lon="6.03934">
        <ele>1262</ele>
        <time>0001-01-01T09:45:00Z</time>
      </trkpt>
      <trkpt lat="45.19845" lon="6.03926">
        <ele>1262</ele>
        <time>0001-01-01T09:45:00Z</time>
      </trkpt>
      <trkpt lat="45.19824" lon="6.03917">
        <ele>1262</ele>
        <time>0001-01-01T09:45:00Z</time>
      </trkpt>
      <trkpt lat="45.19804" lon="6.03912">
        <ele>1262</ele>
        <time>0001-01-01T09:45:00Z</time>
      </trkpt>
      <trkpt lat="45.19785" lon="6.03908">
        <ele>1245</ele>
        <time>0001-01-01T09:45:00Z</time>
      </trkpt>
      <trkpt lat="45.19768" lon="6.03902">
        <ele>1245</ele>
        <time>0001-01-01T09:45:00Z</time>
      </trkpt>
      <trkpt lat="45.19751" lon="6.03895">
        <ele>1245</ele>
        <time>0001-01-01T09:45:00Z</time>
      </trkpt>
      <trkpt lat="45.19737" lon="6.03892">
        <ele>1245</ele>
        <time>0001-01-01T09:45:00Z</time>
      </trkpt>
      <trkpt lat="45.19715" lon="6.0389">
        <ele>1245</ele>
        <time>0001-01-01T09:45:00Z</time>
      </trkpt>
      <trkpt lat="45.19687" lon="6.03885">
        <ele>1227</ele>
        <time>0001-01-01T09:45:00Z</time>
      </trkpt>
      <trkpt lat="45.19653" lon="6.0388">
        <ele>1227</ele>
        <time>0001-01-01T09:45:00Z</time>
      </trkpt>
      <trkpt lat="45.19623" lon="6.03875">
        <ele>1207</ele>
        <time>0001-01-01T09:45:00Z</time>
      </trkpt>
      <trkpt lat="45.19611" lon="6.03872">
        <ele>1245</ele>
        <time>0001-01-01T09:45:00Z</time>
      </trkpt>
      <trkpt lat="45.19604" lon="6.03868">
        <ele>1245</ele>
        <time>0001-01-01T09:45:00Z</time>
      </trkpt>
      <trkpt lat="45.19591" lon="6.03858">
        <ele>1245</ele>
        <time>0001-01-01T09:45:00Z</time>
      </trkpt>
      <trkpt lat="45.19571" lon="6.03841">
        <ele>1245</ele>
        <time>0001-01-01T09:45:00Z</time>
      </trkpt>
      <trkpt lat="45.19548" lon="6.03823">
        <ele>1245</ele>
        <time>0001-01-01T09:45:00Z</time>
      </trkpt>
      <trkpt lat="45.1953" lon="6.03809">
        <ele>1214</ele>
        <time>0001-01-01T09:45:00Z</time>
      </trkpt>
      <trkpt lat="45.19519" lon="6.03802">
        <ele>1214</ele>
        <time>0001-01-01T09:45:00Z</time>
      </trkpt>
      <trkpt lat="45.19507" lon="6.03799">
        <ele>1214</ele>
        <time>0001-01-01T09:45:00Z</time>
      </trkpt>
      <trkpt lat="45.19493" lon="6.03798">
        <ele>1214</ele>
        <time>0001-01-01T09:45:00Z</time>
      </trkpt>
      <trkpt lat="45.19473" lon="6.03793">
        <ele>1214</ele>
        <time>0001-01-01T09:45:00Z</time>
      </trkpt>
      <trkpt lat="45.19452" lon="6.03788">
        <ele>1229</ele>
        <time>0001-01-01T09:45:00Z</time>
      </trkpt>
      <trkpt lat="45.19432" lon="6.03779">
        <ele>1229</ele>
        <time>0001-01-01T09:45:00Z</time>
      </trkpt>
      <trkpt lat="45.19411" lon="6.03768">
        <ele>1229</ele>
        <time>0001-01-01T09:45:00Z</time>
      </trkpt>
      <trkpt lat="45.19384" lon="6.03752">
        <ele>1229</ele>
        <time>0001-01-01T09:45:00Z</time>
      </trkpt>
      <trkpt lat="45.19368" lon="6.03739">
        <ele>1190</ele>
        <time>0001-01-01T09:45:00Z</time>
      </trkpt>
      <trkpt lat="45.19352" lon="6.03725">
        <ele>1190</ele>
        <time>0001-01-01T09:45:00Z</time>
      </trkpt>
      <trkpt lat="45.19334" lon="6.03703">
        <ele>1227</ele>
        <time>0001-01-01T09:45:00Z</time>
      </trkpt>
      <trkpt lat="45.19318" lon="6.03685">
        <ele>1227</ele>
        <time>0001-01-01T09:45:00Z</time>
      </trkpt>
      <trkpt lat="45.19301" lon="6.0367">
        <ele>1227</ele>
        <time>0001-01-01T09:45:00Z</time>
      </trkpt>
      <trkpt lat="45.19288" lon="6.03661">
        <ele>1193</ele>
        <time>0001-01-01T09:45:00Z</time>
      </trkpt>
      <trkpt lat="45.19274" lon="6.03653">
        <ele>1193</ele>
        <time>0001-01-01T09:45:00Z</time>
      </trkpt>
      <trkpt lat="45.19257" lon="6.03649">
        <ele>1193</ele>
        <time>0001-01-01T09:45:00Z</time>
      </trkpt>
      <trkpt lat="45.19242" lon="6.0365">
        <ele>1193</ele>
        <time>0001-01-01T09:45:00Z</time>
      </trkpt>
      <trkpt lat="45.19229" lon="6.03649">
        <ele>1193</ele>
        <time>0001-01-01T09:45:00Z</time>
      </trkpt>
      <trkpt lat="45.19218" lon="6.03644">
        <ele>1193</ele>
        <time>0001-01-01T09:45:00Z</time>
      </trkpt>
      <trkpt lat="45.19203" lon="6.03634">
        <ele>1166</ele>
        <time>0001-01-01T09:45:00Z</time>
      </trkpt>
      <trkpt lat="45.1919" lon="6.03624">
        <ele>1208</ele>
        <time>0001-01-01T09:45:00Z</time>
      </trkpt>
      <trkpt lat="45.19175" lon="6.03616">
        <ele>1208</ele>
        <time>0001-01-01T09:45:00Z</time>
      </trkpt>
      <trkpt lat="45.19159" lon="6.03612">
        <ele>1208</ele>
        <time>0001-01-01T09:45:00Z</time>
      </trkpt>
      <trkpt lat="45.19128" lon="6.03605">
        <ele>1208</ele>
        <time>0001-01-01T09:45:00Z</time>
      </trkpt>
      <trkpt lat="45.19104" lon="6.03597">
        <ele>1184</ele>
        <time>0001-01-01T09:45:00Z</time>
      </trkpt>
      <trkpt lat="45.19074" lon="6.03587">
        <ele>1184</ele>
        <time>0001-01-01T09:45:00Z</time>
      </trkpt>
      <trkpt lat="45.19037" lon="6.03574">
        <ele>1158</ele>
        <time>0001-01-01T09:45:00Z</time>
      </trkpt>
      <trkpt lat="45.19013" lon="6.03565">
        <ele>1158</ele>
        <time>0001-01-01T09:45:00Z</time>
      </trkpt>
      <trkpt lat="45.19001" lon="6.03556">
        <ele>1158</ele>
        <time>0001-01-01T09:45:00Z</time>
      </trkpt>
      <trkpt lat="45.18987" lon="6.03547">
        <ele>1158</ele>
        <time>0001-01-01T09:45:00Z</time>
      </trkpt>
      <trkpt lat="45.18971" lon="6.03538">
        <ele>1205</ele>
        <time>0001-01-01T09:45:00Z</time>
      </trkpt>
      <trkpt lat="45.18952" lon="6.03531">
        <ele>1169</ele>
        <time>0001-01-01T09:45:00Z</time>
      </trkpt>
      <trkpt lat="45.18925" lon="6.03522">
        <ele>1169</ele>
        <time>0001-01-01T09:45:00Z</time>
      </trkpt>
      <trkpt lat="45.18903" lon="6.03512">
        <ele>1169</ele>
        <time>0001-01-01T09:45:00Z</time>
      </trkpt>
      <trkpt lat="45.18881" lon="6.03499">
        <ele>1169</ele>
        <time>0001-01-01T09:45:00Z</time>
      </trkpt>
      <trkpt lat="45.18861" lon="6.03486">
        <ele>1134</ele>
        <time>0001-01-01T09:45:00Z</time>
      </trkpt>
      <trkpt lat="45.18831" lon="6.03465">
        <ele>1134</ele>
        <time>0001-01-01T09:45:00Z</time>
      </trkpt>
      <trkpt lat="45.18799" lon="6.0344">
        <ele>1171</ele>
        <time>0001-01-01T09:45:00Z</time>
      </trkpt>
      <trkpt lat="45.18773" lon="6.03419">
        <ele>1131</ele>
        <time>0001-01-01T09:45:00Z</time>
      </trkpt>
      <trkpt lat="45.18751" lon="6.03402">
        <ele>1131</ele>
        <time>0001-01-01T09:45:00Z</time>
      </trkpt>
      <trkpt lat="45.18734" lon="6.03388">
        <ele>1131</ele>
        <time>0001-01-01T09:45:00Z</time>
      </trkpt>
      <trkpt lat="45.18725" lon="6.03382">
        <ele>1131</ele>
        <time>0001-01-01T09:45:00Z</time>
      </trkpt>
      <trkpt lat="45.18718" lon="6.03379">
        <ele>1131</ele>
        <time>0001-01-01T09:45:00Z</time>
      </trkpt>
      <trkpt lat="45.18711" lon="6.03377">
        <ele>1131</ele>
        <time>0001-01-01T09:45:00Z</time>
      </trkpt>
      <trkpt lat="45.18703" lon="6.03376">
        <ele>1120</ele>
        <time>0001-01-01T09:45:00Z</time>
      </trkpt>
      <trkpt lat="45.18701" lon="6.03376">
        <ele>1120</ele>
        <time>0001-01-01T09:45:00Z</time>
      </trkpt>
      <trkpt lat="45.1869" lon="6.03378">
        <ele>1120</ele>
        <time>0001-01-01T09:45:00Z</time>
      </trkpt>
      <trkpt lat="45.18675" lon="6.03385">
        <ele>1120</ele>
        <time>0001-01-01T09:45:00Z</time>
      </trkpt>
      <trkpt lat="45.18651" lon="6.03395">
        <ele>1120</ele>
        <time>0001-01-01T09:45:00Z</time>
      </trkpt>
      <trkpt lat="45.18628" lon="6.03405">
        <ele>1120</ele>
        <time>0001-01-01T09:45:00Z</time>
      </trkpt>
      <trkpt lat="45.18606" lon="6.03417">
        <ele>1127</ele>
        <time>0001-01-01T09:45:00Z</time>
      </trkpt>
      <trkpt lat="45.18592" lon="6.03427">
        <ele>1127</ele>
        <time>0001-01-01T09:45:00Z</time>
      </trkpt>
      <trkpt lat="45.1858" lon="6.03434">
        <ele>1127</ele>
        <time>0001-01-01T09:45:00Z</time>
      </trkpt>
      <trkpt lat="45.18565" lon="6.03441">
        <ele>1127</ele>
        <time>0001-01-01T09:45:00Z</time>
      </trkpt>
      <trkpt lat="45.18548" lon="6.03445">
        <ele>1127</ele>
        <time>0001-01-01T09:45:00Z</time>
      </trkpt>
      <trkpt lat="45.18526" lon="6.03447">
        <ele>1129</ele>
        <time>0001-01-01T09:45:00Z</time>
      </trkpt>
      <trkpt lat="45.18507" lon="6.03448">
        <ele>1129</ele>
        <time>0001-01-01T09:45:00Z</time>
      </trkpt>
      <trkpt lat="45.18485" lon="6.03453">
        <ele>1129</ele>
        <time>0001-01-01T09:45:00Z</time>
      </trkpt>
      <trkpt lat="45.1845" lon="6.0346">
        <ele>1088</ele>
        <time>0001-01-01T09:45:00Z</time>
      </trkpt>
      <trkpt lat="45.18406" lon="6.03469">
        <ele>1088</ele>
        <time>0001-01-01T09:45:00Z</time>
      </trkpt>
      <trkpt lat="45.18378" lon="6.03475">
        <ele>1088</ele>
        <time>0001-01-01T09:45:00Z</time>
      </trkpt>
      <trkpt lat="45.18345" lon="6.03483">
        <ele>1084</ele>
        <time>0001-01-01T09:45:00Z</time>
      </trkpt>
      <trkpt lat="45.18311" lon="6.03489">
        <ele>1084</ele>
        <time>0001-01-01T09:45:00Z</time>
      </trkpt>
      <trkpt lat="45.18294" lon="6.03492">
        <ele>1084</ele>
        <time>0001-01-01T09:45:00Z</time>
      </trkpt>
      <trkpt lat="45.18277" lon="6.03492">
        <ele>1087</ele>
        <time>0001-01-01T09:45:00Z</time>
      </trkpt>
      <trkpt lat="45.18259" lon="6.0349">
        <ele>1087</ele>
        <time>0001-01-01T09:45:00Z</time>
      </trkpt>
      <trkpt lat="45.18242" lon="6.0349">
        <ele>1087</ele>
        <time>0001-01-01T09:45:00Z</time>
      </trkpt>
      <trkpt lat="45.18221" lon="6.03492">
        <ele>1087</ele>
        <time>0001-01-01T09:45:00Z</time>
      </trkpt>
      <trkpt lat="45.18192" lon="6.03497">
        <ele>1089</ele>
        <time>0001-01-01T09:45:00Z</time>
      </trkpt>
      <trkpt lat="45.18171" lon="6.03503">
        <ele>1089</ele>
        <time>0001-01-01T09:45:00Z</time>
      </trkpt>
      <trkpt lat="45.18139" lon="6.03517">
        <ele>1089</ele>
        <time>0001-01-01T09:45:00Z</time>
      </trkpt>
      <trkpt lat="45.18112" lon="6.03529">
        <ele>1093</ele>
        <time>0001-01-01T09:45:00Z</time>
      </trkpt>
      <trkpt lat="45.18079" lon="6.03543">
        <ele>1045</ele>
        <time>0001-01-01T09:45:00Z</time>
      </trkpt>
      <trkpt lat="45.1801" lon="6.03574">
        <ele>1054</ele>
        <time>0001-01-01T09:45:00Z</time>
      </trkpt>
      <trkpt lat="45.17993" lon="6.03582">
        <ele>1054</ele>
        <time>0001-01-01T09:45:00Z</time>
      </trkpt>
      <trkpt lat="45.1798" lon="6.03588">
        <ele>1054</ele>
        <time>0001-01-01T09:45:00Z</time>
      </trkpt>
      <trkpt lat="45.17966" lon="6.03598">
        <ele>1054</ele>
        <time>0001-01-01T09:45:00Z</time>
      </trkpt>
      <trkpt lat="45.17951" lon="6.03614">
        <ele>1064</ele>
        <time>0001-01-01T09:45:00Z</time>
      </trkpt>
      <trkpt lat="45.17928" lon="6.03635">
        <ele>1028</ele>
        <time>0001-01-01T09:45:00Z</time>
      </trkpt>
      <trkpt lat="45.1791" lon="6.03648">
        <ele>1028</ele>
        <time>0001-01-01T09:45:00Z</time>
      </trkpt>
      <trkpt lat="45.17893" lon="6.03657">
        <ele>1028</ele>
        <time>0001-01-01T09:45:00Z</time>
      </trkpt>
      <trkpt lat="45.17884" lon="6.0366">
        <ele>1028</ele>
        <time>0001-01-01T09:45:00Z</time>
      </trkpt>
      <trkpt lat="45.17875" lon="6.03662">
        <ele>1028</ele>
        <time>0001-01-01T09:45:00Z</time>
      </trkpt>
      <trkpt lat="45.17863" lon="6.03661">
        <ele>1022</ele>
        <time>0001-01-01T09:45:00Z</time>
      </trkpt>
      <trkpt lat="45.1785" lon="6.03659">
        <ele>1022</ele>
        <time>0001-01-01T09:45:00Z</time>
      </trkpt>
      <trkpt lat="45.17829" lon="6.03657">
        <ele>1022</ele>
        <time>0001-01-01T09:45:00Z</time>
      </trkpt>
      <trkpt lat="45.17819" lon="6.03658">
        <ele>1022</ele>
        <time>0001-01-01T09:45:00Z</time>
      </trkpt>
      <trkpt lat="45.17809" lon="6.03662">
        <ele>1022</ele>
        <time>0001-01-01T09:45:00Z</time>
      </trkpt>
      <trkpt lat="45.17795" lon="6.0367">
        <ele>1022</ele>
        <time>0001-01-01T09:45:00Z</time>
      </trkpt>
      <trkpt lat="45.17785" lon="6.03674">
        <ele>1012</ele>
        <time>0001-01-01T09:45:00Z</time>
      </trkpt>
      <trkpt lat="45.17777" lon="6.03674">
        <ele>1012</ele>
        <time>0001-01-01T09:45:00Z</time>
      </trkpt>
      <trkpt lat="45.17766" lon="6.03668">
        <ele>1012</ele>
        <time>0001-01-01T09:45:00Z</time>
      </trkpt>
      <trkpt lat="45.17752" lon="6.03658">
        <ele>1012</ele>
        <time>0001-01-01T09:45:00Z</time>
      </trkpt>
      <trkpt lat="45.17731" lon="6.0364">
        <ele>1012</ele>
        <time>0001-01-01T09:45:00Z</time>
      </trkpt>
      <trkpt lat="45.17717" lon="6.03628">
        <ele>1012</ele>
        <time>0001-01-01T09:45:00Z</time>
      </trkpt>
      <trkpt lat="45.17708" lon="6.03627">
        <ele>1010</ele>
        <time>0001-01-01T09:45:00Z</time>
      </trkpt>
      <trkpt lat="45.17702" lon="6.03628">
        <ele>1010</ele>
        <time>0001-01-01T09:45:00Z</time>
      </trkpt>
      <trkpt lat="45.17694" lon="6.03634">
        <ele>1010</ele>
        <time>0001-01-01T09:45:00Z</time>
      </trkpt>
      <trkpt lat="45.17683" lon="6.03647">
        <ele>1010</ele>
        <time>0001-01-01T09:45:00Z</time>
      </trkpt>
      <trkpt lat="45.17672" lon="6.03661">
        <ele>1010</ele>
        <time>0001-01-01T09:45:00Z</time>
      </trkpt>
      <trkpt lat="45.1766" lon="6.03673">
        <ele>1010</ele>
        <time>0001-01-01T09:45:00Z</time>
      </trkpt>
      <trkpt lat="45.17643" lon="6.03687">
        <ele>1010</ele>
        <time>0001-01-01T09:45:00Z</time>
      </trkpt>
      <trkpt lat="45.17629" lon="6.03692">
        <ele>1010</ele>
        <time>0001-01-01T09:45:00Z</time>
      </trkpt>
      <trkpt lat="45.1762" lon="6.03695">
        <ele>1017</ele>
        <time>0001-01-01T09:45:00Z</time>
      </trkpt>
      <trkpt lat="45.17607" lon="6.03694">
        <ele>1017</ele>
        <time>0001-01-01T09:45:00Z</time>
      </trkpt>
      <trkpt lat="45.17592" lon="6.03691">
        <ele>1017</ele>
        <time>0001-01-01T09:45:00Z</time>
      </trkpt>
      <trkpt lat="45.17583" lon="6.03689">
        <ele>1017</ele>
        <time>0001-01-01T09:45:00Z</time>
      </trkpt>
      <trkpt lat="45.17573" lon="6.03688">
        <ele>1017</ele>
        <time>0001-01-01T09:45:00Z</time>
      </trkpt>
      <trkpt lat="45.1756" lon="6.03691">
        <ele>1017</ele>
        <time>0001-01-01T09:45:00Z</time>
      </trkpt>
      <trkpt lat="45.17547" lon="6.03698">
        <ele>1017</ele>
        <time>0001-01-01T09:45:00Z</time>
      </trkpt>
      <trkpt lat="45.17534" lon="6.03703">
        <ele>1028</ele>
        <time>0001-01-01T09:45:00Z</time>
      </trkpt>
      <trkpt lat="45.1752" lon="6.03707">
        <ele>1028</ele>
        <time>0001-01-01T09:45:00Z</time>
      </trkpt>
      <trkpt lat="45.17501" lon="6.0371">
        <ele>989</ele>
        <time>0001-01-01T09:45:00Z</time>
      </trkpt>
      <trkpt lat="45.17487" lon="6.03712">
        <ele>989</ele>
        <time>0001-01-01T09:45:00Z</time>
      </trkpt>
      <trkpt lat="45.17466" lon="6.03717">
        <ele>989</ele>
        <time>0001-01-01T09:45:00Z</time>
      </trkpt>
      <trkpt lat="45.17451" lon="6.03723">
        <ele>998</ele>
        <time>0001-01-01T09:45:00Z</time>
      </trkpt>
      <trkpt lat="45.1744" lon="6.03731">
        <ele>998</ele>
        <time>0001-01-01T09:45:00Z</time>
      </trkpt>
      <trkpt lat="45.17427" lon="6.03745">
        <ele>998</ele>
        <time>0001-01-01T09:45:00Z</time>
      </trkpt>
      <trkpt lat="45.17415" lon="6.03757">
        <ele>998</ele>
        <time>0001-01-01T09:45:00Z</time>
      </trkpt>
      <trkpt lat="45.17402" lon="6.03767">
        <ele>998</ele>
        <time>0001-01-01T09:45:00Z</time>
      </trkpt>
      <trkpt lat="45.17382" lon="6.03775">
        <ele>998</ele>
        <time>0001-01-01T09:45:00Z</time>
      </trkpt>
      <trkpt lat="45.17365" lon="6.0378">
        <ele>995</ele>
        <time>0001-01-01T09:45:00Z</time>
      </trkpt>
      <trkpt lat="45.17356" lon="6.03781">
        <ele>995</ele>
        <time>0001-01-01T09:45:00Z</time>
      </trkpt>
      <trkpt lat="45.17346" lon="6.03781">
        <ele>995</ele>
        <time>0001-01-01T09:45:00Z</time>
      </trkpt>
      <trkpt lat="45.1733" lon="6.03782">
        <ele>995</ele>
        <time>0001-01-01T09:45:00Z</time>
      </trkpt>
      <trkpt lat="45.1731" lon="6.03784">
        <ele>995</ele>
        <time>0001-01-01T09:45:00Z</time>
      </trkpt>
      <trkpt lat="45.17302" lon="6.03785">
        <ele>995</ele>
        <time>0001-01-01T09:45:00Z</time>
      </trkpt>
      <trkpt lat="45.17267" lon="6.03796">
        <ele>962</ele>
        <time>0001-01-01T09:45:00Z</time>
      </trkpt>
      <trkpt lat="45.17243" lon="6.03804">
        <ele>962</ele>
        <time>0001-01-01T09:45:00Z</time>
      </trkpt>
      <trkpt lat="45.17213" lon="6.03817">
        <ele>962</ele>
        <time>0001-01-01T09:45:00Z</time>
      </trkpt>
      <trkpt lat="45.17192" lon="6.03828">
        <ele>978</ele>
        <time>0001-01-01T09:45:00Z</time>
      </trkpt>
      <trkpt lat="45.17166" lon="6.03845">
        <ele>978</ele>
        <time>0001-01-01T09:45:00Z</time>
      </trkpt>
      <trkpt lat="45.17141" lon="6.03861">
        <ele>978</ele>
        <time>0001-01-01T09:45:00Z</time>
      </trkpt>
      <trkpt lat="45.17107" lon="6.03882">
        <ele>951</ele>
        <time>0001-01-01T09:45:00Z</time>
      </trkpt>
      <trkpt lat="45.17058" lon="6.03909">
        <ele>951</ele>
        <time>0001-01-01T09:45:00Z</time>
      </trkpt>
      <trkpt lat="45.17027" lon="6.03927">
        <ele>968</ele>
        <time>0001-01-01T09:45:00Z</time>
      </trkpt>
      <trkpt lat="45.1701" lon="6.03942">
        <ele>968</ele>
        <time>0001-01-01T09:45:00Z</time>
      </trkpt>
      <trkpt lat="45.16996" lon="6.03955">
        <ele>968</ele>
        <time>0001-01-01T09:45:00Z</time>
      </trkpt>
      <trkpt lat="45.16978" lon="6.03966">
        <ele>938</ele>
        <time>0001-01-01T09:45:00Z</time>
      </trkpt>
      <trkpt lat="45.1696" lon="6.03971">
        <ele>938</ele>
        <time>0001-01-01T09:45:00Z</time>
      </trkpt>
      <trkpt lat="45.16944" lon="6.03973">
        <ele>945</ele>
        <time>0001-01-01T09:45:00Z</time>
      </trkpt>
      <trkpt lat="45.16938" lon="6.03975">
        <ele>945</ele>
        <time>0001-01-01T09:45:00Z</time>
      </trkpt>
      <trkpt lat="45.16923" lon="6.03979">
        <ele>945</ele>
        <time>0001-01-01T09:45:00Z</time>
      </trkpt>
      <trkpt lat="45.16916" lon="6.03984">
        <ele>945</ele>
        <time>0001-01-01T09:45:00Z</time>
      </trkpt>
      <trkpt lat="45.16898" lon="6.03997">
        <ele>945</ele>
        <time>0001-01-01T09:45:00Z</time>
      </trkpt>
      <trkpt lat="45.16889" lon="6.04007">
        <ele>945</ele>
        <time>0001-01-01T09:45:00Z</time>
      </trkpt>
      <trkpt lat="45.16886" lon="6.04012">
        <ele>945</ele>
        <time>0001-01-01T09:45:00Z</time>
      </trkpt>
      <trkpt lat="45.16879" lon="6.04024">
        <ele>945</ele>
        <time>0001-01-01T09:45:00Z</time>
      </trkpt>
      <trkpt lat="45.16877" lon="6.04027">
        <ele>945</ele>
        <time>0001-01-01T09:45:00Z</time>
      </trkpt>
      <trkpt lat="45.16871" lon="6.04039">
        <ele>972</ele>
        <time>0001-01-01T09:45:00Z</time>
      </trkpt>
      <trkpt lat="45.16857" lon="6.04073">
        <ele>942</ele>
        <time>0001-01-01T09:45:00Z</time>
      </trkpt>
      <trkpt lat="45.16844" lon="6.04096">
        <ele>942</ele>
        <time>0001-01-01T09:45:00Z</time>
      </trkpt>
      <trkpt lat="45.16829" lon="6.04113">
        <ele>942</ele>
        <time>0001-01-01T09:45:00Z</time>
      </trkpt>
      <trkpt lat="45.16815" lon="6.04124">
        <ele>942</ele>
        <time>0001-01-01T09:45:00Z</time>
      </trkpt>
      <trkpt lat="45.16792" lon="6.04135">
        <ele>920</ele>
        <time>0001-01-01T09:45:00Z</time>
      </trkpt>
      <trkpt lat="45.16771" lon="6.04145">
        <ele>924</ele>
        <time>0001-01-01T09:45:00Z</time>
      </trkpt>
      <trkpt lat="45.16767" lon="6.04146">
        <ele>924</ele>
        <time>0001-01-01T09:45:00Z</time>
      </trkpt>
      <trkpt lat="45.16745" lon="6.04157">
        <ele>924</ele>
        <time>0001-01-01T09:45:00Z</time>
      </trkpt>
      <trkpt lat="45.16725" lon="6.04168">
        <ele>924</ele>
        <time>0001-01-01T09:45:00Z</time>
      </trkpt>
      <trkpt lat="45.1671" lon="6.04171">
        <ele>924</ele>
        <time>0001-01-01T09:45:00Z</time>
      </trkpt>
      <trkpt lat="45.16692" lon="6.04174">
        <ele>935</ele>
        <time>0001-01-01T09:45:00Z</time>
      </trkpt>
      <trkpt lat="45.16664" lon="6.0418">
        <ele>935</ele>
        <time>0001-01-01T09:45:00Z</time>
      </trkpt>
      <trkpt lat="45.16641" lon="6.04182">
        <ele>935</ele>
        <time>0001-01-01T09:45:00Z</time>
      </trkpt>
      <trkpt lat="45.16624" lon="6.04181">
        <ele>928</ele>
        <time>0001-01-01T09:45:00Z</time>
      </trkpt>
      <trkpt lat="45.16601" lon="6.0418">
        <ele>928</ele>
        <time>0001-01-01T09:45:00Z</time>
      </trkpt>
      <trkpt lat="45.16588" lon="6.04182">
        <ele>928</ele>
        <time>0001-01-01T09:45:00Z</time>
      </trkpt>
      <trkpt lat="45.16571" lon="6.04189">
        <ele>928</ele>
        <time>0001-01-01T09:45:00Z</time>
      </trkpt>
      <trkpt lat="45.16557" lon="6.04196">
        <ele>928</ele>
        <time>0001-01-01T09:45:00Z</time>
      </trkpt>
      <trkpt lat="45.1654" lon="6.04198">
        <ele>922</ele>
        <time>0001-01-01T09:45:00Z</time>
      </trkpt>
      <trkpt lat="45.16513" lon="6.042">
        <ele>922</ele>
        <time>0001-01-01T09:45:00Z</time>
      </trkpt>
      <trkpt lat="45.16477" lon="6.04201">
        <ele>922</ele>
        <time>0001-01-01T09:45:00Z</time>
      </trkpt>
      <trkpt lat="45.16444" lon="6.04207">
        <ele>919</ele>
        <time>0001-01-01T09:45:00Z</time>
      </trkpt>
      <trkpt lat="45.16415" lon="6.04213">
        <ele>891</ele>
        <time>0001-01-01T09:45:00Z</time>
      </trkpt>
      <trkpt lat="45.16361" lon="6.04213">
        <ele>883</ele>
        <time>0001-01-01T09:45:00Z</time>
      </trkpt>
      <trkpt lat="45.16326" lon="6.04216">
        <ele>883</ele>
        <time>0001-01-01T09:45:00Z</time>
      </trkpt>
      <trkpt lat="45.16306" lon="6.04219">
        <ele>883</ele>
        <time>0001-01-01T09:45:00Z</time>
      </trkpt>
      <trkpt lat="45.16288" lon="6.0422">
        <ele>879</ele>
        <time>0001-01-01T09:45:00Z</time>
      </trkpt>
      <trkpt lat="45.1627" lon="6.04222">
        <ele>879</ele>
        <time>0001-01-01T09:45:00Z</time>
      </trkpt>
      <trkpt lat="45.16249" lon="6.04221">
        <ele>879</ele>
        <time>0001-01-01T09:45:00Z</time>
      </trkpt>
      <trkpt lat="45.16238" lon="6.04221">
        <ele>879</ele>
        <time>0001-01-01T09:45:00Z</time>
      </trkpt>
      <trkpt lat="45.16227" lon="6.04219">
        <ele>879</ele>
        <time>0001-01-01T09:45:00Z</time>
      </trkpt>
      <trkpt lat="45.16215" lon="6.04217">
        <ele>879</ele>
        <time>0001-01-01T09:45:00Z</time>
      </trkpt>
      <trkpt lat="45.16186" lon="6.04211">
        <ele>865</ele>
        <time>0001-01-01T09:45:00Z</time>
      </trkpt>
      <trkpt lat="45.16162" lon="6.04206">
        <ele>904</ele>
        <time>0001-01-01T09:45:00Z</time>
      </trkpt>
      <trkpt lat="45.16145" lon="6.04203">
        <ele>904</ele>
        <time>0001-01-01T09:45:00Z</time>
      </trkpt>
      <trkpt lat="45.16134" lon="6.04201">
        <ele>904</ele>
        <time>0001-01-01T09:45:00Z</time>
      </trkpt>
      <trkpt lat="45.16122" lon="6.04201">
        <ele>912</ele>
        <time>0001-01-01T09:45:00Z</time>
      </trkpt>
      <trkpt lat="45.16108" lon="6.04201">
        <ele>912</ele>
        <time>0001-01-01T09:45:00Z</time>
      </trkpt>
      <trkpt lat="45.16092" lon="6.04201">
        <ele>912</ele>
        <time>0001-01-01T09:45:00Z</time>
      </trkpt>
      <trkpt lat="45.16077" lon="6.04201">
        <ele>912</ele>
        <time>0001-01-01T09:45:00Z</time>
      </trkpt>
      <trkpt lat="45.16065" lon="6.04202">
        <ele>912</ele>
        <time>0001-01-01T09:45:00Z</time>
      </trkpt>
      <trkpt lat="45.16047" lon="6.04209">
        <ele>867</ele>
        <time>0001-01-01T09:45:00Z</time>
      </trkpt>
      <trkpt lat="45.16034" lon="6.04215">
        <ele>878</ele>
        <time>0001-01-01T09:45:00Z</time>
      </trkpt>
      <trkpt lat="45.16017" lon="6.04227">
        <ele>878</ele>
        <time>0001-01-01T09:45:00Z</time>
      </trkpt>
      <trkpt lat="45.15999" lon="6.0424">
        <ele>878</ele>
        <time>0001-01-01T09:45:00Z</time>
      </trkpt>
      <trkpt lat="45.1598" lon="6.04253">
        <ele>878</ele>
        <time>0001-01-01T09:45:00Z</time>
      </trkpt>
      <trkpt lat="45.15973" lon="6.04258">
        <ele>878</ele>
        <time>0001-01-01T09:45:00Z</time>
      </trkpt>
      <trkpt lat="45.15947" lon="6.04271">
        <ele>881</ele>
        <time>0001-01-01T09:45:00Z</time>
      </trkpt>
      <trkpt lat="45.15917" lon="6.04284">
        <ele>881</ele>
        <time>0001-01-01T09:45:00Z</time>
      </trkpt>
      <trkpt lat="45.15905" lon="6.04288">
        <ele>881</ele>
        <time>0001-01-01T09:45:00Z</time>
      </trkpt>
      <trkpt lat="45.15896" lon="6.04291">
        <ele>881</ele>
        <time>0001-01-01T09:45:00Z</time>
      </trkpt>
      <trkpt lat="45.15888" lon="6.04291">
        <ele>881</ele>
        <time>0001-01-01T09:45:00Z</time>
      </trkpt>
      <trkpt lat="45.15885" lon="6.04292">
        <ele>848</ele>
        <time>0001-01-01T09:45:00Z</time>
      </trkpt>
      <trkpt lat="45.1587" lon="6.04292">
        <ele>854</ele>
        <time>0001-01-01T09:45:00Z</time>
      </trkpt>
      <trkpt lat="45.15861" lon="6.04294">
        <ele>854</ele>
        <time>0001-01-01T09:45:00Z</time>
      </trkpt>
      <trkpt lat="45.1585" lon="6.04298">
        <ele>854</ele>
        <time>0001-01-01T09:45:00Z</time>
      </trkpt>
      <trkpt lat="45.15834" lon="6.0431">
        <ele>854</ele>
        <time>0001-01-01T09:45:00Z</time>
      </trkpt>
      <trkpt lat="45.15827" lon="6.04314">
        <ele>854</ele>
        <time>0001-01-01T09:45:00Z</time>
      </trkpt>
      <trkpt lat="45.15813" lon="6.04323">
        <ele>854</ele>
        <time>0001-01-01T09:45:00Z</time>
      </trkpt>
      <trkpt lat="45.15784" lon="6.04333">
        <ele>858</ele>
        <time>0001-01-01T09:45:00Z</time>
      </trkpt>
      <trkpt lat="45.1576" lon="6.04336">
        <ele>858</ele>
        <time>0001-01-01T09:45:00Z</time>
      </trkpt>
      <trkpt lat="45.15736" lon="6.04345">
        <ele>858</ele>
        <time>0001-01-01T09:45:00Z</time>
      </trkpt>
      <trkpt lat="45.15708" lon="6.04364">
        <ele>873</ele>
        <time>0001-01-01T09:45:00Z</time>
      </trkpt>
      <trkpt lat="45.15664" lon="6.04402">
        <ele>839</ele>
        <time>0001-01-01T09:45:00Z</time>
      </trkpt>
      <trkpt lat="45.15643" lon="6.04417">
        <ele>839</ele>
        <time>0001-01-01T09:45:00Z</time>
      </trkpt>
      <trkpt lat="45.15621" lon="6.04429">
        <ele>845</ele>
        <time>0001-01-01T09:45:00Z</time>
      </trkpt>
      <trkpt lat="45.15604" lon="6.0444">
        <ele>845</ele>
        <time>0001-01-01T09:45:00Z</time>
      </trkpt>
      <trkpt lat="45.15584" lon="6.04453">
        <ele>845</ele>
        <time>0001-01-01T09:45:00Z</time>
      </trkpt>
      <trkpt lat="45.1557" lon="6.04468">
        <ele>818</ele>
        <time>0001-01-01T09:45:00Z</time>
      </trkpt>
      <trkpt lat="45.15557" lon="6.04484">
        <ele>818</ele>
        <time>0001-01-01T09:45:00Z</time>
      </trkpt>
      <trkpt lat="45.15547" lon="6.045">
        <ele>818</ele>
        <time>0001-01-01T09:45:00Z</time>
      </trkpt>
      <trkpt lat="45.15532" lon="6.04511">
        <ele>820</ele>
        <time>0001-01-01T09:45:00Z</time>
      </trkpt>
      <trkpt lat="45.15511" lon="6.0452">
        <ele>820</ele>
        <time>0001-01-01T09:45:00Z</time>
      </trkpt>
      <trkpt lat="45.15474" lon="6.04532">
        <ele>820</ele>
        <time>0001-01-01T09:45:00Z</time>
      </trkpt>
      <trkpt lat="45.15438" lon="6.04542">
        <ele>803</ele>
        <time>0001-01-01T09:45:00Z</time>
      </trkpt>
      <trkpt lat="45.154" lon="6.04547">
        <ele>803</ele>
        <time>0001-01-01T09:45:00Z</time>
      </trkpt>
      <trkpt lat="45.15366" lon="6.0455">
        <ele>796</ele>
        <time>0001-01-01T09:45:00Z</time>
      </trkpt>
      <trkpt lat="45.15356" lon="6.04553">
        <ele>796</ele>
        <time>0001-01-01T09:45:00Z</time>
      </trkpt>
      <trkpt lat="45.1535" lon="6.04555">
        <ele>796</ele>
        <time>0001-01-01T09:45:00Z</time>
      </trkpt>
      <trkpt lat="45.15338" lon="6.04563">
        <ele>796</ele>
        <time>0001-01-01T09:45:00Z</time>
      </trkpt>
      <trkpt lat="45.15333" lon="6.04566">
        <ele>796</ele>
        <time>0001-01-01T09:45:00Z</time>
      </trkpt>
      <trkpt lat="45.15323" lon="6.04576">
        <ele>796</ele>
        <time>0001-01-01T09:45:00Z</time>
      </trkpt>
      <trkpt lat="45.15319" lon="6.0458">
        <ele>796</ele>
        <time>0001-01-01T09:45:00Z</time>
      </trkpt>
      <trkpt lat="45.1531" lon="6.0459">
        <ele>796</ele>
        <time>0001-01-01T09:45:00Z</time>
      </trkpt>
      <trkpt lat="45.15309" lon="6.04591">
        <ele>796</ele>
        <time>0001-01-01T09:45:00Z</time>
      </trkpt>
      <trkpt lat="45.15295" lon="6.04604">
        <ele>796</ele>
        <time>0001-01-01T09:45:00Z</time>
      </trkpt>
      <trkpt lat="45.1528" lon="6.04618">
        <ele>791</ele>
        <time>0001-01-01T09:45:00Z</time>
      </trkpt>
      <trkpt lat="45.15263" lon="6.04629">
        <ele>802</ele>
        <time>0001-01-01T09:45:00Z</time>
      </trkpt>
      <trkpt lat="45.15238" lon="6.04638">
        <ele>802</ele>
        <time>0001-01-01T09:45:00Z</time>
      </trkpt>
      <trkpt lat="45.15217" lon="6.04649">
        <ele>802</ele>
        <time>0001-01-01T09:45:00Z</time>
      </trkpt>
      <trkpt lat="45.15209" lon="6.04657">
        <ele>802</ele>
        <time>0001-01-01T09:45:00Z</time>
      </trkpt>
      <trkpt lat="45.1519" lon="6.0468">
        <ele>787</ele>
        <time>0001-01-01T09:45:00Z</time>
      </trkpt>
      <trkpt lat="45.15175" lon="6.04697">
        <ele>787</ele>
        <time>0001-01-01T09:45:00Z</time>
      </trkpt>
      <trkpt lat="45.15158" lon="6.04713">
        <ele>812</ele>
        <time>0001-01-01T09:45:00Z</time>
      </trkpt>
      <trkpt lat="45.15132" lon="6.04731">
        <ele>812</ele>
        <time>0001-01-01T09:45:00Z</time>
      </trkpt>
      <trkpt lat="45.151" lon="6.04753">
        <ele>796</ele>
        <time>0001-01-01T09:45:00Z</time>
      </trkpt>
      <trkpt lat="45.1506" lon="6.04776">
        <ele>796</ele>
        <time>0001-01-01T09:45:00Z</time>
      </trkpt>
      <trkpt lat="45.15038" lon="6.0479">
        <ele>784</ele>
        <time>0001-01-01T09:45:00Z</time>
      </trkpt>
      <trkpt lat="45.15017" lon="6.04804">
        <ele>812</ele>
        <time>0001-01-01T09:45:00Z</time>
      </trkpt>
      <trkpt lat="45.14992" lon="6.0482">
        <ele>812</ele>
        <time>0001-01-01T09:45:00Z</time>
      </trkpt>
      <trkpt lat="45.14974" lon="6.04828">
        <ele>812</ele>
        <time>0001-01-01T09:45:00Z</time>
      </trkpt>
      <trkpt lat="45.14962" lon="6.04832">
        <ele>812</ele>
        <time>0001-01-01T09:45:00Z</time>
      </trkpt>
      <trkpt lat="45.14944" lon="6.04834">
        <ele>800</ele>
        <time>0001-01-01T09:45:00Z</time>
      </trkpt>
      <trkpt lat="45.14929" lon="6.04834">
        <ele>800</ele>
        <time>0001-01-01T09:45:00Z</time>
      </trkpt>
      <trkpt lat="45.14902" lon="6.04838">
        <ele>800</ele>
        <time>0001-01-01T09:45:00Z</time>
      </trkpt>
      <trkpt lat="45.14883" lon="6.04842">
        <ele>800</ele>
        <time>0001-01-01T09:45:00Z</time>
      </trkpt>
      <trkpt lat="45.14858" lon="6.04854">
        <ele>787</ele>
        <time>0001-01-01T09:45:00Z</time>
      </trkpt>
      <trkpt lat="45.14846" lon="6.04861">
        <ele>787</ele>
        <time>0001-01-01T09:45:00Z</time>
      </trkpt>
      <trkpt lat="45.14835" lon="6.04869">
        <ele>787</ele>
        <time>0001-01-01T09:45:00Z</time>
      </trkpt>
      <trkpt lat="45.14832" lon="6.04873">
        <ele>787</ele>
        <time>0001-01-01T09:45:00Z</time>
      </trkpt>
      <trkpt lat="45.14826" lon="6.0488">
        <ele>806</ele>
        <time>0001-01-01T09:45:00Z</time>
      </trkpt>
      <trkpt lat="45.14824" lon="6.04886">
        <ele>806</ele>
        <time>0001-01-01T09:45:00Z</time>
      </trkpt>
      <trkpt lat="45.14822" lon="6.04888">
        <ele>806</ele>
        <time>0001-01-01T09:45:00Z</time>
      </trkpt>
      <trkpt lat="45.14819" lon="6.04898">
        <ele>806</ele>
        <time>0001-01-01T09:45:00Z</time>
      </trkpt>
      <trkpt lat="45.14816" lon="6.04907">
        <ele>806</ele>
        <time>0001-01-01T09:45:00Z</time>
      </trkpt>
      <trkpt lat="45.14813" lon="6.04921">
        <ele>806</ele>
        <time>0001-01-01T09:45:00Z</time>
      </trkpt>
      <trkpt lat="45.14808" lon="6.04945">
        <ele>806</ele>
        <time>0001-01-01T09:45:00Z</time>
      </trkpt>
      <trkpt lat="45.14806" lon="6.04954">
        <ele>806</ele>
        <time>0001-01-01T09:45:00Z</time>
      </trkpt>
      <trkpt lat="45.14803" lon="6.04965">
        <ele>821</ele>
        <time>0001-01-01T09:45:00Z</time>
      </trkpt>
      <trkpt lat="45.14801" lon="6.04972">
        <ele>821</ele>
        <time>0001-01-01T09:45:00Z</time>
      </trkpt>
      <trkpt lat="45.14795" lon="6.04985">
        <ele>821</ele>
        <time>0001-01-01T09:45:00Z</time>
      </trkpt>
      <trkpt lat="45.14767" lon="6.05026">
        <ele>800</ele>
        <time>0001-01-01T09:45:00Z</time>
      </trkpt>
      <trkpt lat="45.14765" lon="6.05031">
        <ele>800</ele>
        <time>0001-01-01T09:45:00Z</time>
      </trkpt>
      <trkpt lat="45.14754" lon="6.05045">
        <ele>821</ele>
        <time>0001-01-01T09:45:00Z</time>
      </trkpt>
      <trkpt lat="45.14744" lon="6.05058">
        <ele>821</ele>
        <time>0001-01-01T09:45:00Z</time>
      </trkpt>
      <trkpt lat="45.14734" lon="6.05068">
        <ele>821</ele>
        <time>0001-01-01T09:45:00Z</time>
      </trkpt>
      <trkpt lat="45.14723" lon="6.05075">
        <ele>821</ele>
        <time>0001-01-01T09:45:00Z</time>
      </trkpt>
      <trkpt lat="45.14714" lon="6.0508">
        <ele>821</ele>
        <time>0001-01-01T09:45:00Z</time>
      </trkpt>
      <trkpt lat="45.14706" lon="6.05081">
        <ele>806</ele>
        <time>0001-01-01T09:45:00Z</time>
      </trkpt>
      <trkpt lat="45.14699" lon="6.05081">
        <ele>806</ele>
        <time>0001-01-01T09:45:00Z</time>
      </trkpt>
      <trkpt lat="45.1469" lon="6.05082">
        <ele>806</ele>
        <time>0001-01-01T09:45:00Z</time>
      </trkpt>
      <trkpt lat="45.14685" lon="6.05082">
        <ele>806</ele>
        <time>0001-01-01T09:45:00Z</time>
      </trkpt>
      <trkpt lat="45.14678" lon="6.05085">
        <ele>806</ele>
        <time>0001-01-01T09:45:00Z</time>
      </trkpt>
      <trkpt lat="45.14672" lon="6.05089">
        <ele>806</ele>
        <time>0001-01-01T09:45:00Z</time>
      </trkpt>
      <trkpt lat="45.14663" lon="6.05098">
        <ele>806</ele>
        <time>0001-01-01T09:45:00Z</time>
      </trkpt>
      <trkpt lat="45.14654" lon="6.05107">
        <ele>806</ele>
        <time>0001-01-01T09:45:00Z</time>
      </trkpt>
      <trkpt lat="45.14636" lon="6.05133">
        <ele>824</ele>
        <time>0001-01-01T09:45:00Z</time>
      </trkpt>
      <trkpt lat="45.1462" lon="6.0515">
        <ele>798</ele>
        <time>0001-01-01T09:45:00Z</time>
      </trkpt>
      <trkpt lat="45.14614" lon="6.05158">
        <ele>798</ele>
        <time>0001-01-01T09:45:00Z</time>
      </trkpt>
      <trkpt lat="45.14608" lon="6.05167">
        <ele>798</ele>
        <time>0001-01-01T09:45:00Z</time>
      </trkpt>
      <trkpt lat="45.14605" lon="6.05173">
        <ele>798</ele>
        <time>0001-01-01T09:45:00Z</time>
      </trkpt>
      <trkpt lat="45.14603" lon="6.05178">
        <ele>798</ele>
        <time>0001-01-01T09:45:00Z</time>
      </trkpt>
      <trkpt lat="45.14598" lon="6.05193">
        <ele>798</ele>
        <time>0001-01-01T09:45:00Z</time>
      </trkpt>
      <trkpt lat="45.14595" lon="6.05212">
        <ele>812</ele>
        <time>0001-01-01T09:45:00Z</time>
      </trkpt>
      <trkpt lat="45.14591" lon="6.05244">
        <ele>812</ele>
        <time>0001-01-01T09:45:00Z</time>
      </trkpt>
      <trkpt lat="45.14588" lon="6.05268">
        <ele>812</ele>
        <time>0001-01-01T09:45:00Z</time>
      </trkpt>
      <trkpt lat="45.14584" lon="6.05307">
        <ele>818</ele>
        <time>0001-01-01T09:45:00Z</time>
      </trkpt>
      <trkpt lat="45.14578" lon="6.05352">
        <ele>818</ele>
        <time>0001-01-01T09:45:00Z</time>
      </trkpt>
      <trkpt lat="45.14576" lon="6.05364">
        <ele>818</ele>
        <time>0001-01-01T09:45:00Z</time>
      </trkpt>
      <trkpt lat="45.14565" lon="6.054">
        <ele>819</ele>
        <time>0001-01-01T09:45:00Z</time>
      </trkpt>
      <trkpt lat="45.14558" lon="6.05411">
        <ele>819</ele>
        <time>0001-01-01T09:45:00Z</time>
      </trkpt>
      <trkpt lat="45.14552" lon="6.05419">
        <ele>819</ele>
        <time>0001-01-01T09:45:00Z</time>
      </trkpt>
      <trkpt lat="45.14549" lon="6.05421">
        <ele>819</ele>
        <time>0001-01-01T09:45:00Z</time>
      </trkpt>
      <trkpt lat="45.14544" lon="6.05426">
        <ele>819</ele>
        <time>0001-01-01T09:45:00Z</time>
      </trkpt>
      <trkpt lat="45.14537" lon="6.05432">
        <ele>805</ele>
        <time>0001-01-01T09:45:00Z</time>
      </trkpt>
      <trkpt lat="45.14531" lon="6.05437">
        <ele>805</ele>
        <time>0001-01-01T09:45:00Z</time>
      </trkpt>
      <trkpt lat="45.14521" lon="6.05441">
        <ele>805</ele>
        <time>0001-01-01T09:45:00Z</time>
      </trkpt>
      <trkpt lat="45.14512" lon="6.05442">
        <ele>805</ele>
        <time>0001-01-01T09:45:00Z</time>
      </trkpt>
      <trkpt lat="45.14498" lon="6.05438">
        <ele>805</ele>
        <time>0001-01-01T09:45:00Z</time>
      </trkpt>
      <trkpt lat="45.14487" lon="6.05434">
        <ele>805</ele>
        <time>0001-01-01T09:45:00Z</time>
      </trkpt>
      <trkpt lat="45.14478" lon="6.05427">
        <ele>805</ele>
        <time>0001-01-01T09:45:00Z</time>
      </trkpt>
      <trkpt lat="45.1447" lon="6.05416">
        <ele>805</ele>
        <time>0001-01-01T09:45:00Z</time>
      </trkpt>
      <trkpt lat="45.14462" lon="6.05402">
        <ele>805</ele>
        <time>0001-01-01T09:45:00Z</time>
      </trkpt>
      <trkpt lat="45.14455" lon="6.05386">
        <ele>850</ele>
        <time>0001-01-01T09:45:00Z</time>
      </trkpt>
      <trkpt lat="45.14451" lon="6.05368">
        <ele>828</ele>
        <time>0001-01-01T09:45:00Z</time>
      </trkpt>
      <trkpt lat="45.14447" lon="6.0534">
        <ele>828</ele>
        <time>0001-01-01T09:45:00Z</time>
      </trkpt>
      <trkpt lat="45.14445" lon="6.05318">
        <ele>828</ele>
        <time>0001-01-01T09:45:00Z</time>
      </trkpt>
      <trkpt lat="45.14443" lon="6.0529">
        <ele>816</ele>
        <time>0001-01-01T09:45:00Z</time>
      </trkpt>
      <trkpt lat="45.14443" lon="6.05274">
        <ele>816</ele>
        <time>0001-01-01T09:45:00Z</time>
      </trkpt>
      <trkpt lat="45.14444" lon="6.05266">
        <ele>816</ele>
        <time>0001-01-01T09:45:00Z</time>
      </trkpt>
      <trkpt lat="45.14445" lon="6.05259">
        <ele>816</ele>
        <time>0001-01-01T09:45:00Z</time>
      </trkpt>
      <trkpt lat="45.1445" lon="6.05245">
        <ele>816</ele>
        <time>0001-01-01T09:45:00Z</time>
      </trkpt>
      <trkpt lat="45.14454" lon="6.05231">
        <ele>816</ele>
        <time>0001-01-01T09:45:00Z</time>
      </trkpt>
      <trkpt lat="45.14458" lon="6.05219">
        <ele>816</ele>
        <time>0001-01-01T09:45:00Z</time>
      </trkpt>
      <trkpt lat="45.1446" lon="6.05209">
        <ele>789</ele>
        <time>0001-01-01T09:45:00Z</time>
      </trkpt>
      <trkpt lat="45.14462" lon="6.05201">
        <ele>787</ele>
        <time>0001-01-01T09:45:00Z</time>
      </trkpt>
      <trkpt lat="45.14462" lon="6.05187">
        <ele>787</ele>
        <time>0001-01-01T09:45:00Z</time>
      </trkpt>
      <trkpt lat="45.14461" lon="6.05173">
        <ele>787</ele>
        <time>0001-01-01T09:45:00Z</time>
      </trkpt>
      <trkpt lat="45.14459" lon="6.05165">
        <ele>787</ele>
        <time>0001-01-01T09:45:00Z</time>
      </trkpt>
      <trkpt lat="45.14454" lon="6.05156">
        <ele>795</ele>
        <time>0001-01-01T09:45:00Z</time>
      </trkpt>
      <trkpt lat="45.14452" lon="6.05153">
        <ele>795</ele>
        <time>0001-01-01T09:45:00Z</time>
      </trkpt>
      <trkpt lat="45.1444" lon="6.05142">
        <ele>795</ele>
        <time>0001-01-01T09:45:00Z</time>
      </trkpt>
      <trkpt lat="45.14423" lon="6.05131">
        <ele>795</ele>
        <time>0001-01-01T09:45:00Z</time>
      </trkpt>
      <trkpt lat="45.14405" lon="6.05121">
        <ele>774</ele>
        <time>0001-01-01T09:45:00Z</time>
      </trkpt>
      <trkpt lat="45.1439" lon="6.0511">
        <ele>774</ele>
        <time>0001-01-01T09:45:00Z</time>
      </trkpt>
      <trkpt lat="45.14379" lon="6.051">
        <ele>774</ele>
        <time>0001-01-01T09:45:00Z</time>
      </trkpt>
      <trkpt lat="45.14365" lon="6.05085">
        <ele>798</ele>
        <time>0001-01-01T09:45:00Z</time>
      </trkpt>
      <trkpt lat="45.14352" lon="6.0507">
        <ele>798</ele>
        <time>0001-01-01T09:45:00Z</time>
      </trkpt>
      <trkpt lat="45.14338" lon="6.05055">
        <ele>798</ele>
        <time>0001-01-01T09:45:00Z</time>
      </trkpt>
      <trkpt lat="45.14327" lon="6.05045">
        <ele>798</ele>
        <time>0001-01-01T09:45:00Z</time>
      </trkpt>
      <trkpt lat="45.14301" lon="6.05026">
        <ele>769</ele>
        <time>0001-01-01T09:45:00Z</time>
      </trkpt>
      <trkpt lat="45.14272" lon="6.05005">
        <ele>795</ele>
        <time>0001-01-01T09:45:00Z</time>
      </trkpt>
      <trkpt lat="45.14215" lon="6.04967">
        <ele>795</ele>
        <time>0001-01-01T09:45:00Z</time>
      </trkpt>
      <trkpt lat="45.14169" lon="6.04942">
        <ele>758</ele>
        <time>0001-01-01T09:45:00Z</time>
      </trkpt>
      <trkpt lat="45.14135" lon="6.04924">
        <ele>758</ele>
        <time>0001-01-01T09:45:00Z</time>
      </trkpt>
      <trkpt lat="45.14113" lon="6.04912">
        <ele>758</ele>
        <time>0001-01-01T09:45:00Z</time>
      </trkpt>
      <trkpt lat="45.14099" lon="6.04907">
        <ele>758</ele>
        <time>0001-01-01T09:45:00Z</time>
      </trkpt>
      <trkpt lat="45.14082" lon="6.04902">
        <ele>758</ele>
        <time>0001-01-01T09:45:00Z</time>
      </trkpt>
      <trkpt lat="45.14054" lon="6.04897">
        <ele>758</ele>
        <time>0001-01-01T09:45:00Z</time>
      </trkpt>
      <trkpt lat="45.14029" lon="6.04892">
        <ele>811</ele>
        <time>0001-01-01T09:45:00Z</time>
      </trkpt>
      <trkpt lat="45.14014" lon="6.04892">
        <ele>811</ele>
        <time>0001-01-01T09:45:00Z</time>
      </trkpt>
      <trkpt lat="45.13996" lon="6.04892">
        <ele>811</ele>
        <time>0001-01-01T09:45:00Z</time>
      </trkpt>
      <trkpt lat="45.13977" lon="6.04894">
        <ele>811</ele>
        <time>0001-01-01T09:45:00Z</time>
      </trkpt>
      <trkpt lat="45.1396" lon="6.04895">
        <ele>811</ele>
        <time>0001-01-01T09:45:00Z</time>
      </trkpt>
      <trkpt lat="45.13942" lon="6.04894">
        <ele>804</ele>
        <time>0001-01-01T09:45:00Z</time>
      </trkpt>
      <trkpt lat="45.13933" lon="6.04892">
        <ele>804</ele>
        <time>0001-01-01T09:45:00Z</time>
      </trkpt>
      <trkpt lat="45.13919" lon="6.04889">
        <ele>804</ele>
        <time>0001-01-01T09:45:00Z</time>
      </trkpt>
      <trkpt lat="45.13915" lon="6.04887">
        <ele>804</ele>
        <time>0001-01-01T09:45:00Z</time>
      </trkpt>
      <trkpt lat="45.13903" lon="6.04881">
        <ele>804</ele>
        <time>0001-01-01T09:45:00Z</time>
      </trkpt>
      <trkpt lat="45.13883" lon="6.04871">
        <ele>758</ele>
        <time>0001-01-01T09:45:00Z</time>
      </trkpt>
      <trkpt lat="45.13878" lon="6.04867">
        <ele>758</ele>
        <time>0001-01-01T09:45:00Z</time>
      </trkpt>
      <trkpt lat="45.13858" lon="6.04854">
        <ele>785</ele>
        <time>0001-01-01T09:45:00Z</time>
      </trkpt>
      <trkpt lat="45.13839" lon="6.04846">
        <ele>785</ele>
        <time>0001-01-01T09:45:00Z</time>
      </trkpt>
      <trkpt lat="45.13822" lon="6.04842">
        <ele>785</ele>
        <time>0001-01-01T09:45:00Z</time>
      </trkpt>
      <trkpt lat="45.13808" lon="6.04842">
        <ele>785</ele>
        <time>0001-01-01T09:45:00Z</time>
      </trkpt>
      <trkpt lat="45.13795" lon="6.04843">
        <ele>785</ele>
        <time>0001-01-01T09:45:00Z</time>
      </trkpt>
      <trkpt lat="45.13781" lon="6.04846">
        <ele>779</ele>
        <time>0001-01-01T09:45:00Z</time>
      </trkpt>
      <trkpt lat="45.13768" lon="6.0485">
        <ele>779</ele>
        <time>0001-01-01T09:45:00Z</time>
      </trkpt>
      <trkpt lat="45.13754" lon="6.04857">
        <ele>779</ele>
        <time>0001-01-01T09:45:00Z</time>
      </trkpt>
      <trkpt lat="45.13738" lon="6.04866">
        <ele>779</ele>
        <time>0001-01-01T09:45:00Z</time>
      </trkpt>
      <trkpt lat="45.13717" lon="6.04883">
        <ele>804</ele>
        <time>0001-01-01T09:45:00Z</time>
      </trkpt>
      <trkpt lat="45.13695" lon="6.04901">
        <ele>784</ele>
        <time>0001-01-01T09:45:00Z</time>
      </trkpt>
      <trkpt lat="45.13646" lon="6.04944">
        <ele>784</ele>
        <time>0001-01-01T09:45:00Z</time>
      </trkpt>
      <trkpt lat="45.13636" lon="6.04949">
        <ele>784</ele>
        <time>0001-01-01T09:45:00Z</time>
      </trkpt>
      <trkpt lat="45.13635" lon="6.0495">
        <ele>784</ele>
        <time>0001-01-01T09:45:00Z</time>
      </trkpt>
      <trkpt lat="45.13625" lon="6.04954">
        <ele>776</ele>
        <time>0001-01-01T09:45:00Z</time>
      </trkpt>
      <trkpt lat="45.13615" lon="6.04957">
        <ele>776</ele>
        <time>0001-01-01T09:45:00Z</time>
      </trkpt>
      <trkpt lat="45.13607" lon="6.04958">
        <ele>776</ele>
        <time>0001-01-01T09:45:00Z</time>
      </trkpt>
      <trkpt lat="45.13601" lon="6.04958">
        <ele>776</ele>
        <time>0001-01-01T09:45:00Z</time>
      </trkpt>
      <trkpt lat="45.13576" lon="6.04953">
        <ele>776</ele>
        <time>0001-01-01T09:45:00Z</time>
      </trkpt>
      <trkpt lat="45.13492" lon="6.04936">
        <ele>763</ele>
        <time>0001-01-01T09:45:00Z</time>
      </trkpt>
      <trkpt lat="45.13478" lon="6.04934">
        <ele>763</ele>
        <time>0001-01-01T09:45:00Z</time>
      </trkpt>
      <trkpt lat="45.13464" lon="6.04932">
        <ele>763</ele>
        <time>0001-01-01T09:45:00Z</time>
      </trkpt>
      <trkpt lat="45.13427" lon="6.04924">
        <ele>764</ele>
        <time>0001-01-01T09:45:00Z</time>
      </trkpt>
      <trkpt lat="45.13289" lon="6.04888">
        <ele>778</ele>
        <time>0001-01-01T09:45:00Z</time>
      </trkpt>
      <trkpt lat="45.13275" lon="6.04884">
        <ele>778</ele>
        <time>0001-01-01T09:45:00Z</time>
      </trkpt>
      <trkpt lat="45.13227" lon="6.0487">
        <ele>758</ele>
        <time>0001-01-01T09:45:00Z</time>
      </trkpt>
      <trkpt lat="45.13137" lon="6.0484">
        <ele>783</ele>
        <time>0001-01-01T09:45:00Z</time>
      </trkpt>
      <trkpt lat="45.13051" lon="6.04808">
        <ele>805</ele>
        <time>0001-01-01T09:45:00Z</time>
      </trkpt>
      <trkpt lat="45.13037" lon="6.04803">
        <ele>814</ele>
        <time>0001-01-01T09:45:00Z</time>
      </trkpt>
      <trkpt lat="45.13016" lon="6.04796">
        <ele>814</ele>
        <time>0001-01-01T09:45:00Z</time>
      </trkpt>
      <trkpt lat="45.12994" lon="6.0479">
        <ele>775</ele>
        <time>0001-01-01T09:45:00Z</time>
      </trkpt>
      <trkpt lat="45.12968" lon="6.04783">
        <ele>775</ele>
        <time>0001-01-01T09:45:00Z</time>
      </trkpt>
      <trkpt lat="45.12958" lon="6.04779">
        <ele>788</ele>
        <time>0001-01-01T09:45:00Z</time>
      </trkpt>
      <trkpt lat="45.12947" lon="6.04771">
        <ele>788</ele>
        <time>0001-01-01T09:45:00Z</time>
      </trkpt>
      <trkpt lat="45.12941" lon="6.04765">
        <ele>788</ele>
        <time>0001-01-01T09:45:00Z</time>
      </trkpt>
      <trkpt lat="45.12929" lon="6.04746">
        <ele>788</ele>
        <time>0001-01-01T09:45:00Z</time>
      </trkpt>
      <trkpt lat="45.12901" lon="6.04702">
        <ele>758</ele>
        <time>0001-01-01T09:45:00Z</time>
      </trkpt>
      <trkpt lat="45.12873" lon="6.04657">
        <ele>809</ele>
        <time>0001-01-01T09:45:00Z</time>
      </trkpt>
      <trkpt lat="45.12846" lon="6.04615">
        <ele>785</ele>
        <time>0001-01-01T09:45:00Z</time>
      </trkpt>
      <trkpt lat="45.12815" lon="6.04566">
        <ele>785</ele>
        <time>0001-01-01T09:45:00Z</time>
      </trkpt>
      <trkpt lat="45.12805" lon="6.04547">
        <ele>785</ele>
        <time>0001-01-01T09:45:00Z</time>
      </trkpt>
      <trkpt lat="45.12821" lon="6.04521">
        <ele>766</ele>
        <time>0001-01-01T09:45:00Z</time>
      </trkpt>
      <trkpt lat="45.1286" lon="6.04457">
        <ele>752</ele>
        <time>0001-01-01T09:45:00Z</time>
      </trkpt>
      <trkpt lat="45.12873" lon="6.04437">
        <ele>752</ele>
        <time>0001-01-01T09:45:00Z</time>
      </trkpt>
      <trkpt lat="45.12947" lon="6.04316">
        <ele>762</ele>
        <time>0001-01-01T09:45:00Z</time>
      </trkpt>
      <trkpt lat="45.13012" lon="6.0421">
        <ele>764</ele>
        <time>0001-01-01T09:45:00Z</time>
      </trkpt>
      <trkpt lat="45.13059" lon="6.04134">
        <ele>768</ele>
        <time>0001-01-01T09:45:00Z</time>
      </trkpt>
      <trkpt lat="45.13071" lon="6.04114">
        <ele>775</ele>
        <time>0001-01-01T09:45:00Z</time>
      </trkpt>
      <trkpt lat="45.13075" lon="6.04105">
        <ele>775</ele>
        <time>0001-01-01T09:45:00Z</time>
      </trkpt>
      <trkpt lat="45.13077" lon="6.04099">
        <ele>775</ele>
        <time>0001-01-01T09:45:00Z</time>
      </trkpt>
      <trkpt lat="45.13076" lon="6.0409">
        <ele>775</ele>
        <time>0001-01-01T09:45:00Z</time>
      </trkpt>
      <trkpt lat="45.13073" lon="6.04082">
        <ele>775</ele>
        <time>0001-01-01T09:45:00Z</time>
      </trkpt>
      <trkpt lat="45.13069" lon="6.04079">
        <ele>775</ele>
        <time>0001-01-01T09:45:00Z</time>
      </trkpt>
      <trkpt lat="45.13064" lon="6.04077">
        <ele>775</ele>
        <time>0001-01-01T09:45:00Z</time>
      </trkpt>
      <trkpt lat="45.13058" lon="6.04078">
        <ele>775</ele>
        <time>0001-01-01T09:45:00Z</time>
      </trkpt>
      <trkpt lat="45.13054" lon="6.04081">
        <ele>775</ele>
        <time>0001-01-01T09:45:00Z</time>
      </trkpt>
      <trkpt lat="45.13051" lon="6.04085">
        <ele>775</ele>
        <time>0001-01-01T09:45:00Z</time>
      </trkpt>
      <trkpt lat="45.13047" lon="6.04096">
        <ele>775</ele>
        <time>0001-01-01T09:45:00Z</time>
      </trkpt>
      <trkpt lat="45.13041" lon="6.04118">
        <ele>757</ele>
        <time>0001-01-01T09:45:00Z</time>
      </trkpt>
      <trkpt lat="45.13036" lon="6.04136">
        <ele>758</ele>
        <time>0001-01-01T09:45:00Z</time>
      </trkpt>
      <trkpt lat="45.13033" lon="6.04142">
        <ele>758</ele>
        <time>0001-01-01T09:45:00Z</time>
      </trkpt>
      <trkpt lat="45.13028" lon="6.04149">
        <ele>758</ele>
        <time>0001-01-01T09:45:00Z</time>
      </trkpt>
      <trkpt lat="45.13008" lon="6.04174">
        <ele>758</ele>
        <time>0001-01-01T09:45:00Z</time>
      </trkpt>
      <trkpt lat="45.12965" lon="6.04229">
        <ele>764</ele>
        <time>0001-01-01T09:45:00Z</time>
      </trkpt>
      <trkpt lat="45.12834" lon="6.04394">
        <ele>752</ele>
        <time>0001-01-01T09:45:00Z</time>
      </trkpt>
      <trkpt lat="45.12821" lon="6.0441">
        <ele>752</ele>
        <time>0001-01-01T09:45:00Z</time>
      </trkpt>
      <trkpt lat="45.12819" lon="6.04412">
        <ele>752</ele>
        <time>0001-01-01T09:45:00Z</time>
      </trkpt>
      <trkpt lat="45.12816" lon="6.04413">
        <ele>752</ele>
        <time>0001-01-01T09:45:00Z</time>
      </trkpt>
      <trkpt lat="45.12812" lon="6.04414">
        <ele>752</ele>
        <time>0001-01-01T09:45:00Z</time>
      </trkpt>
      <trkpt lat="45.12809" lon="6.04414">
        <ele>752</ele>
        <time>0001-01-01T09:45:00Z</time>
      </trkpt>
      <trkpt lat="45.12807" lon="6.04413">
        <ele>752</ele>
        <time>0001-01-01T09:45:00Z</time>
      </trkpt>
      <trkpt lat="45.12805" lon="6.04412">
        <ele>752</ele>
        <time>0001-01-01T09:45:00Z</time>
      </trkpt>
      <trkpt lat="45.12803" lon="6.0441">
        <ele>752</ele>
        <time>0001-01-01T09:45:00Z</time>
      </trkpt>
      <trkpt lat="45.12802" lon="6.04408">
        <ele>752</ele>
        <time>0001-01-01T09:45:00Z</time>
      </trkpt>
      <trkpt lat="45.12801" lon="6.04405">
        <ele>752</ele>
        <time>0001-01-01T09:45:00Z</time>
      </trkpt>
      <trkpt lat="45.128" lon="6.04402">
        <ele>752</ele>
        <time>0001-01-01T09:45:00Z</time>
      </trkpt>
      <trkpt lat="45.12799" lon="6.04399">
        <ele>752</ele>
        <time>0001-01-01T09:45:00Z</time>
      </trkpt>
      <trkpt lat="45.12799" lon="6.04396">
        <ele>752</ele>
        <time>0001-01-01T09:45:00Z</time>
      </trkpt>
      <trkpt lat="45.12799" lon="6.04393">
        <ele>752</ele>
        <time>0001-01-01T09:45:00Z</time>
      </trkpt>
      <trkpt lat="45.12799" lon="6.04391">
        <ele>752</ele>
        <time>0001-01-01T09:45:00Z</time>
      </trkpt>
      <trkpt lat="45.128" lon="6.04388">
        <ele>752</ele>
        <time>0001-01-01T09:45:00Z</time>
      </trkpt>
      <trkpt lat="45.12801" lon="6.04384">
        <ele>752</ele>
        <time>0001-01-01T09:45:00Z</time>
      </trkpt>
      <trkpt lat="45.12803" lon="6.04382">
        <ele>752</ele>
        <time>0001-01-01T09:45:00Z</time>
      </trkpt>
      <trkpt lat="45.12807" lon="6.04379">
        <ele>752</ele>
        <time>0001-01-01T09:45:00Z</time>
      </trkpt>
      <trkpt lat="45.12814" lon="6.04375">
        <ele>752</ele>
        <time>0001-01-01T09:45:00Z</time>
      </trkpt>
      <trkpt lat="45.1282" lon="6.04372">
        <ele>744</ele>
        <time>0001-01-01T09:45:00Z</time>
      </trkpt>
      <trkpt lat="45.12827" lon="6.04366">
        <ele>744</ele>
        <time>0001-01-01T09:45:00Z</time>
      </trkpt>
      <trkpt lat="45.1283" lon="6.04362">
        <ele>744</ele>
        <time>0001-01-01T09:45:00Z</time>
      </trkpt>
      <trkpt lat="45.12839" lon="6.0435">
        <ele>744</ele>
        <time>0001-01-01T09:45:00Z</time>
      </trkpt>
      <trkpt lat="45.12859" lon="6.04307">
        <ele>744</ele>
        <time>0001-01-01T09:45:00Z</time>
      </trkpt>
      <trkpt lat="45.12909" lon="6.04206">
        <ele>736</ele>
        <time>0001-01-01T09:45:00Z</time>
      </trkpt>
      <trkpt lat="45.12918" lon="6.04188">
        <ele>736</ele>
        <time>0001-01-01T09:45:00Z</time>
      </trkpt>
      <trkpt lat="45.12922" lon="6.04178">
        <ele>736</ele>
        <time>0001-01-01T09:45:00Z</time>
      </trkpt>
      <trkpt lat="45.12924" lon="6.04168">
        <ele>736</ele>
        <time>0001-01-01T09:45:00Z</time>
      </trkpt>
      <trkpt lat="45.12924" lon="6.0416">
        <ele>736</ele>
        <time>0001-01-01T09:45:00Z</time>
      </trkpt>
      <trkpt lat="45.12924" lon="6.04152">
        <ele>736</ele>
        <time>0001-01-01T09:45:00Z</time>
      </trkpt>
      <trkpt lat="45.12924" lon="6.04143">
        <ele>736</ele>
        <time>0001-01-01T09:45:00Z</time>
      </trkpt>
      <trkpt lat="45.12921" lon="6.04133">
        <ele>736</ele>
        <time>0001-01-01T09:45:00Z</time>
      </trkpt>
      <trkpt lat="45.12916" lon="6.04118">
        <ele>734</ele>
        <time>0001-01-01T09:45:00Z</time>
      </trkpt>
      <trkpt lat="45.12905" lon="6.04091">
        <ele>734</ele>
        <time>0001-01-01T09:45:00Z</time>
      </trkpt>
      <trkpt lat="45.12896" lon="6.04069">
        <ele>734</ele>
        <time>0001-01-01T09:45:00Z</time>
      </trkpt>
      <trkpt lat="45.12893" lon="6.04063">
        <ele>734</ele>
        <time>0001-01-01T09:45:00Z</time>
      </trkpt>
      <trkpt lat="45.12884" lon="6.04042">
        <ele>734</ele>
        <time>0001-01-01T09:45:00Z</time>
      </trkpt>
      <trkpt lat="45.1285" lon="6.03971">
        <ele>729</ele>
        <time>0001-01-01T09:45:00Z</time>
      </trkpt>
      <trkpt lat="45.12825" lon="6.03919">
        <ele>729</ele>
        <time>0001-01-01T09:45:00Z</time>
      </trkpt>
      <trkpt lat="45.12824" lon="6.03915">
        <ele>729</ele>
        <time>0001-01-01T09:45:00Z</time>
      </trkpt>
      <trkpt lat="45.12795" lon="6.03844">
        <ele>732</ele>
        <time>0001-01-01T09:45:00Z</time>
      </trkpt>
      <trkpt lat="45.1279" lon="6.03831">
        <ele>726</ele>
        <time>0001-01-01T09:45:00Z</time>
      </trkpt>
      <trkpt lat="45.12788" lon="6.03824">
        <ele>726</ele>
        <time>0001-01-01T09:45:00Z</time>
      </trkpt>
      <trkpt lat="45.12787" lon="6.03817">
        <ele>726</ele>
        <time>0001-01-01T09:45:00Z</time>
      </trkpt>
      <trkpt lat="45.12787" lon="6.03803">
        <ele>726</ele>
        <time>0001-01-01T09:45:00Z</time>
      </trkpt>
      <trkpt lat="45.12788" lon="6.03795">
        <ele>726</ele>
        <time>0001-01-01T09:45:00Z</time>
      </trkpt>
      <trkpt lat="45.12791" lon="6.03778">
        <ele>729</ele>
        <time>0001-01-01T09:45:00Z</time>
      </trkpt>
      <trkpt lat="45.12793" lon="6.03765">
        <ele>740</ele>
        <time>0001-01-01T09:45:00Z</time>
      </trkpt>
      <trkpt lat="45.12793" lon="6.03754">
        <ele>740</ele>
        <time>0001-01-01T09:45:00Z</time>
      </trkpt>
      <trkpt lat="45.12787" lon="6.03735">
        <ele>729</ele>
        <time>0001-01-01T09:45:00Z</time>
      </trkpt>
      <trkpt lat="45.12719" lon="6.03563">
        <ele>730</ele>
        <time>0001-01-01T09:45:00Z</time>
      </trkpt>
      <trkpt lat="45.12696" lon="6.03505">
        <ele>725</ele>
        <time>0001-01-01T09:45:00Z</time>
      </trkpt>
      <trkpt lat="45.12669" lon="6.03435">
        <ele>726</ele>
        <time>0001-01-01T09:45:00Z</time>
      </trkpt>
      <trkpt lat="45.12666" lon="6.03428">
        <ele>726</ele>
        <time>0001-01-01T09:45:00Z</time>
      </trkpt>
      <trkpt lat="45.12578" lon="6.03213">
        <ele>724</ele>
        <time>0001-01-01T09:45:00Z</time>
      </trkpt>
      <trkpt lat="45.1253" lon="6.03098">
        <ele>722</ele>
        <time>0001-01-01T09:45:00Z</time>
      </trkpt>
      <trkpt lat="45.12477" lon="6.02965">
        <ele>723</ele>
        <time>0001-01-01T09:45:00Z</time>
      </trkpt>
      <trkpt lat="45.12443" lon="6.02882">
        <ele>721</ele>
        <time>0001-01-01T09:45:00Z</time>
      </trkpt>
      <trkpt lat="45.12395" lon="6.02763">
        <ele>723</ele>
        <time>0001-01-01T09:45:00Z</time>
      </trkpt>
      <trkpt lat="45.12388" lon="6.02749">
        <ele>723</ele>
        <time>0001-01-01T09:45:00Z</time>
      </trkpt>
      <trkpt lat="45.12381" lon="6.02729">
        <ele>723</ele>
        <time>0001-01-01T09:45:00Z</time>
      </trkpt>
      <trkpt lat="45.1229" lon="6.02501">
        <ele>718</ele>
        <time>0001-01-01T09:45:00Z</time>
      </trkpt>
      <trkpt lat="45.12267" lon="6.02444">
        <ele>716</ele>
        <time>0001-01-01T09:45:00Z</time>
      </trkpt>
      <trkpt lat="45.12256" lon="6.02415">
        <ele>716</ele>
        <time>0001-01-01T09:45:00Z</time>
      </trkpt>
      <trkpt lat="45.12251" lon="6.02398">
        <ele>716</ele>
        <time>0001-01-01T09:45:00Z</time>
      </trkpt>
      <trkpt lat="45.12247" lon="6.02381">
        <ele>716</ele>
        <time>0001-01-01T09:45:00Z</time>
      </trkpt>
      <trkpt lat="45.12242" lon="6.02358">
        <ele>723</ele>
        <time>0001-01-01T09:45:00Z</time>
      </trkpt>
      <trkpt lat="45.12238" lon="6.0234">
        <ele>723</ele>
        <time>0001-01-01T09:45:00Z</time>
      </trkpt>
      <trkpt lat="45.12232" lon="6.0232">
        <ele>723</ele>
        <time>0001-01-01T09:45:00Z</time>
      </trkpt>
      <trkpt lat="45.12227" lon="6.0231">
        <ele>723</ele>
        <time>0001-01-01T09:45:00Z</time>
      </trkpt>
      <trkpt lat="45.12224" lon="6.02302">
        <ele>723</ele>
        <time>0001-01-01T09:45:00Z</time>
      </trkpt>
      <trkpt lat="45.12218" lon="6.02293">
        <ele>723</ele>
        <time>0001-01-01T09:45:00Z</time>
      </trkpt>
      <trkpt lat="45.12212" lon="6.02288">
        <ele>744</ele>
        <time>0001-01-01T09:45:00Z</time>
      </trkpt>
      <trkpt lat="45.12203" lon="6.02279">
        <ele>719</ele>
        <time>0001-01-01T09:45:00Z</time>
      </trkpt>
      <trkpt lat="45.12201" lon="6.02279">
        <ele>719</ele>
        <time>0001-01-01T09:45:00Z</time>
      </trkpt>
      <trkpt lat="45.12197" lon="6.02277">
        <ele>719</ele>
        <time>0001-01-01T09:45:00Z</time>
      </trkpt>
      <trkpt lat="45.12189" lon="6.02275">
        <ele>719</ele>
        <time>0001-01-01T09:45:00Z</time>
      </trkpt>
      <trkpt lat="45.12186" lon="6.02274">
        <ele>719</ele>
        <time>0001-01-01T09:45:00Z</time>
      </trkpt>
      <trkpt lat="45.12176" lon="6.02271">
        <ele>719</ele>
        <time>0001-01-01T09:45:00Z</time>
      </trkpt>
      <trkpt lat="45.12163" lon="6.02266">
        <ele>719</ele>
        <time>0001-01-01T09:45:00Z</time>
      </trkpt>
      <trkpt lat="45.12156" lon="6.02264">
        <ele>719</ele>
        <time>0001-01-01T09:45:00Z</time>
      </trkpt>
      <trkpt lat="45.1215" lon="6.0226">
        <ele>719</ele>
        <time>0001-01-01T09:45:00Z</time>
      </trkpt>
      <trkpt lat="45.12145" lon="6.02257">
        <ele>719</ele>
        <time>0001-01-01T09:45:00Z</time>
      </trkpt>
      <trkpt lat="45.12136" lon="6.02248">
        <ele>719</ele>
        <time>0001-01-01T09:45:00Z</time>
      </trkpt>
      <trkpt lat="45.12129" lon="6.0224">
        <ele>719</ele>
        <time>0001-01-01T09:45:00Z</time>
      </trkpt>
      <trkpt lat="45.12121" lon="6.02229">
        <ele>717</ele>
        <time>0001-01-01T09:45:00Z</time>
      </trkpt>
      <trkpt lat="45.12112" lon="6.02212">
        <ele>717</ele>
        <time>0001-01-01T09:45:00Z</time>
      </trkpt>
      <trkpt lat="45.12107" lon="6.02198">
        <ele>717</ele>
        <time>0001-01-01T09:45:00Z</time>
      </trkpt>
      <trkpt lat="45.121" lon="6.02174">
        <ele>717</ele>
        <time>0001-01-01T09:45:00Z</time>
      </trkpt>
      <trkpt lat="45.12095" lon="6.02145">
        <ele>717</ele>
        <time>0001-01-01T09:45:00Z</time>
      </trkpt>
      <trkpt lat="45.12089" lon="6.02113">
        <ele>720</ele>
        <time>0001-01-01T09:45:00Z</time>
      </trkpt>
      <trkpt lat="45.12086" lon="6.02101">
        <ele>720</ele>
        <time>0001-01-01T09:45:00Z</time>
      </trkpt>
      <trkpt lat="45.12076" lon="6.02073">
        <ele>720</ele>
        <time>0001-01-01T09:45:00Z</time>
      </trkpt>
      <trkpt lat="45.12066" lon="6.0205">
        <ele>720</ele>
        <time>0001-01-01T09:45:00Z</time>
      </trkpt>
      <trkpt lat="45.12057" lon="6.02029">
        <ele>721</ele>
        <time>0001-01-01T09:45:00Z</time>
      </trkpt>
      <trkpt lat="45.12052" lon="6.02018">
        <ele>721</ele>
        <time>0001-01-01T09:45:00Z</time>
      </trkpt>
      <trkpt lat="45.12022" lon="6.01947">
        <ele>714</ele>
        <time>0001-01-01T09:45:00Z</time>
      </trkpt>
      <trkpt lat="45.11996" lon="6.0188">
        <ele>714</ele>
        <time>0001-01-01T09:45:00Z</time>
      </trkpt>
      <trkpt lat="45.11975" lon="6.01834">
        <ele>715</ele>
        <time>0001-01-01T09:45:00Z</time>
      </trkpt>
      <trkpt lat="45.11958" lon="6.01803">
        <ele>715</ele>
        <time>0001-01-01T09:45:00Z</time>
      </trkpt>
      <trkpt lat="45.11945" lon="6.01779">
        <ele>713</ele>
        <time>0001-01-01T09:45:00Z</time>
      </trkpt>
      <trkpt lat="45.11938" lon="6.01767">
        <ele>713</ele>
        <time>0001-01-01T09:45:00Z</time>
      </trkpt>
      <trkpt lat="45.11928" lon="6.01752">
        <ele>713</ele>
        <time>0001-01-01T09:45:00Z</time>
      </trkpt>
      <trkpt lat="45.11914" lon="6.01732">
        <ele>713</ele>
        <time>0001-01-01T09:45:00Z</time>
      </trkpt>
      <trkpt lat="45.11899" lon="6.01713">
        <ele>713</ele>
        <time>0001-01-01T09:45:00Z</time>
      </trkpt>
      <trkpt lat="45.11887" lon="6.01698">
        <ele>715</ele>
        <time>0001-01-01T09:45:00Z</time>
      </trkpt>
      <trkpt lat="45.11805" lon="6.01599">
        <ele>716</ele>
        <time>0001-01-01T09:45:00Z</time>
      </trkpt>
      <trkpt lat="45.11772" lon="6.01559">
        <ele>716</ele>
        <time>0001-01-01T09:45:00Z</time>
      </trkpt>
      <trkpt lat="45.11722" lon="6.01502">
        <ele>714</ele>
        <time>0001-01-01T09:45:00Z</time>
      </trkpt>
      <trkpt lat="45.11714" lon="6.0149">
        <ele>714</ele>
        <time>0001-01-01T09:45:00Z</time>
      </trkpt>
      <trkpt lat="45.11699" lon="6.01469">
        <ele>713</ele>
        <time>0001-01-01T09:45:00Z</time>
      </trkpt>
      <trkpt lat="45.11639" lon="6.01402">
        <ele>711</ele>
        <time>0001-01-01T09:45:00Z</time>
      </trkpt>
      <trkpt lat="45.11597" lon="6.01358">
        <ele>711</ele>
        <time>0001-01-01T09:45:00Z</time>
      </trkpt>
      <trkpt lat="45.11594" lon="6.01354">
        <ele>711</ele>
        <time>0001-01-01T09:45:00Z</time>
      </trkpt>
      <trkpt lat="45.11573" lon="6.01332">
        <ele>711</ele>
        <time>0001-01-01T09:45:00Z</time>
      </trkpt>
      <trkpt lat="45.11557" lon="6.01315">
        <ele>711</ele>
        <time>0001-01-01T09:45:00Z</time>
      </trkpt>
      <trkpt lat="45.1155" lon="6.01308">
        <ele>711</ele>
        <time>0001-01-01T09:45:00Z</time>
      </trkpt>
      <trkpt lat="45.11536" lon="6.01291">
        <ele>715</ele>
        <time>0001-01-01T09:45:00Z</time>
      </trkpt>
      <trkpt lat="45.11534" lon="6.01288">
        <ele>715</ele>
        <time>0001-01-01T09:45:00Z</time>
      </trkpt>
      <trkpt lat="45.11522" lon="6.01269">
        <ele>715</ele>
        <time>0001-01-01T09:45:00Z</time>
      </trkpt>
      <trkpt lat="45.11513" lon="6.01251">
        <ele>715</ele>
        <time>0001-01-01T09:45:00Z</time>
      </trkpt>
      <trkpt lat="45.11509" lon="6.0124">
        <ele>715</ele>
        <time>0001-01-01T09:45:00Z</time>
      </trkpt>
      <trkpt lat="45.11502" lon="6.01218">
        <ele>715</ele>
        <time>0001-01-01T09:45:00Z</time>
      </trkpt>
      <trkpt lat="45.11498" lon="6.01198">
        <ele>714</ele>
        <time>0001-01-01T09:45:00Z</time>
      </trkpt>
      <trkpt lat="45.11494" lon="6.01166">
        <ele>714</ele>
        <time>0001-01-01T09:45:00Z</time>
      </trkpt>
      <trkpt lat="45.11486" lon="6.01094">
        <ele>715</ele>
        <time>0001-01-01T09:45:00Z</time>
      </trkpt>
      <trkpt lat="45.11465" lon="6.00886">
        <ele>711</ele>
        <time>0001-01-01T09:45:00Z</time>
      </trkpt>
      <trkpt lat="45.1146" lon="6.00835">
        <ele>712</ele>
        <time>0001-01-01T09:45:00Z</time>
      </trkpt>
      <trkpt lat="45.11456" lon="6.00799">
        <ele>714</ele>
        <time>0001-01-01T09:45:00Z</time>
      </trkpt>
      <trkpt lat="45.11446" lon="6.00696">
        <ele>713</ele>
        <time>0001-01-01T09:45:00Z</time>
      </trkpt>
      <trkpt lat="45.11441" lon="6.00648">
        <ele>713</ele>
        <time>0001-01-01T09:45:00Z</time>
      </trkpt>
      <trkpt lat="45.11438" lon="6.00623">
        <ele>712</ele>
        <time>0001-01-01T09:45:00Z</time>
      </trkpt>
      <trkpt lat="45.11439" lon="6.00613">
        <ele>712</ele>
        <time>0001-01-01T09:45:00Z</time>
      </trkpt>
      <trkpt lat="45.11437" lon="6.00602">
        <ele>712</ele>
        <time>0001-01-01T09:45:00Z</time>
      </trkpt>
      <trkpt lat="45.11433" lon="6.00578">
        <ele>712</ele>
        <time>0001-01-01T09:45:00Z</time>
      </trkpt>
      <trkpt lat="45.11432" lon="6.00573">
        <ele>712</ele>
        <time>0001-01-01T09:45:00Z</time>
      </trkpt>
      <trkpt lat="45.11427" lon="6.00555">
        <ele>712</ele>
        <time>0001-01-01T09:45:00Z</time>
      </trkpt>
      <trkpt lat="45.11423" lon="6.0056">
        <ele>712</ele>
        <time>0001-01-01T09:45:00Z</time>
      </trkpt>
      <trkpt lat="45.11418" lon="6.00564">
        <ele>712</ele>
        <time>0001-01-01T09:45:00Z</time>
      </trkpt>
      <trkpt lat="45.11401" lon="6.00577">
        <ele>712</ele>
        <time>0001-01-01T09:45:00Z</time>
      </trkpt>
      <trkpt lat="45.11387" lon="6.00584">
        <ele>712</ele>
        <time>0001-01-01T09:45:00Z</time>
      </trkpt>
      <trkpt lat="45.11362" lon="6.00592">
        <ele>724</ele>
        <time>0001-01-01T09:45:00Z</time>
      </trkpt>
      <trkpt lat="45.11341" lon="6.00599">
        <ele>724</ele>
        <time>0001-01-01T09:45:00Z</time>
      </trkpt>
      <trkpt lat="45.11322" lon="6.00604">
        <ele>724</ele>
        <time>0001-01-01T09:45:00Z</time>
      </trkpt>
      <trkpt lat="45.11242" lon="6.00621">
        <ele>715</ele>
        <time>0001-01-01T09:45:00Z</time>
      </trkpt>
      <trkpt lat="45.11053" lon="6.00669">
        <ele>712</ele>
        <time>0001-01-01T09:45:00Z</time>
      </trkpt>
      <trkpt lat="45.11004" lon="6.0068">
        <ele>712</ele>
        <time>0001-01-01T09:45:00Z</time>
      </trkpt>
      <trkpt lat="45.10957" lon="6.00692">
        <ele>712</ele>
        <time>0001-01-01T09:45:00Z</time>
      </trkpt>
      <trkpt lat="45.10909" lon="6.00703">
        <ele>712</ele>
        <time>0001-01-01T09:45:00Z</time>
      </trkpt>
      <trkpt lat="45.10861" lon="6.00715">
        <ele>710</ele>
        <time>0001-01-01T09:45:00Z</time>
      </trkpt>
      <trkpt lat="45.10765" lon="6.00737">
        <ele>711</ele>
        <time>0001-01-01T09:45:00Z</time>
      </trkpt>
      <trkpt lat="45.1067" lon="6.00759">
        <ele>711</ele>
        <time>0001-01-01T09:45:00Z</time>
      </trkpt>
      <trkpt lat="45.10574" lon="6.00782">
        <ele>712</ele>
        <time>0001-01-01T09:45:00Z</time>
      </trkpt>
      <trkpt lat="45.10481" lon="6.00803">
        <ele>712</ele>
        <time>0001-01-01T09:45:00Z</time>
      </trkpt>
      <trkpt lat="45.10291" lon="6.00848">
        <ele>710</ele>
        <time>0001-01-01T09:45:00Z</time>
      </trkpt>
      <trkpt lat="45.10142" lon="6.00884">
        <ele>712</ele>
        <time>0001-01-01T09:45:00Z</time>
      </trkpt>
      <trkpt lat="45.101" lon="6.00894">
        <ele>713</ele>
        <time>0001-01-01T09:45:00Z</time>
      </trkpt>
      <trkpt lat="45.0994" lon="6.00932">
        <ele>714</ele>
        <time>0001-01-01T09:45:00Z</time>
      </trkpt>
      <trkpt lat="45.09911" lon="6.00939">
        <ele>714</ele>
        <time>0001-01-01T09:45:00Z</time>
      </trkpt>
      <trkpt lat="45.09837" lon="6.00957">
        <ele>715</ele>
        <time>0001-01-01T09:45:00Z</time>
      </trkpt>
      <trkpt lat="45.09835" lon="6.00957">
        <ele>715</ele>
        <time>0001-01-01T09:45:00Z</time>
      </trkpt>
      <trkpt lat="45.09824" lon="6.00954">
        <ele>715</ele>
        <time>0001-01-01T09:45:00Z</time>
      </trkpt>
      <trkpt lat="45.09812" lon="6.00954">
        <ele>715</ele>
        <time>0001-01-01T09:45:00Z</time>
      </trkpt>
      <trkpt lat="45.09799" lon="6.00953">
        <ele>715</ele>
        <time>0001-01-01T09:45:00Z</time>
      </trkpt>
      <trkpt lat="45.09792" lon="6.00951">
        <ele>715</ele>
        <time>0001-01-01T09:45:00Z</time>
      </trkpt>
      <trkpt lat="45.09788" lon="6.00949">
        <ele>715</ele>
        <time>0001-01-01T09:45:00Z</time>
      </trkpt>
      <trkpt lat="45.09783" lon="6.00948">
        <ele>715</ele>
        <time>0001-01-01T09:45:00Z</time>
      </trkpt>
      <trkpt lat="45.09771" lon="6.00947">
        <ele>715</ele>
        <time>0001-01-01T09:45:00Z</time>
      </trkpt>
      <trkpt lat="45.09764" lon="6.00948">
        <ele>715</ele>
        <time>0001-01-01T09:45:00Z</time>
      </trkpt>
      <trkpt lat="45.0976" lon="6.00949">
        <ele>715</ele>
        <time>0001-01-01T09:45:00Z</time>
      </trkpt>
      <trkpt lat="45.09752" lon="6.00952">
        <ele>715</ele>
        <time>0001-01-01T09:45:00Z</time>
      </trkpt>
      <trkpt lat="45.09744" lon="6.00957">
        <ele>715</ele>
        <time>0001-01-01T09:45:00Z</time>
      </trkpt>
      <trkpt lat="45.09742" lon="6.00957">
        <ele>715</ele>
        <time>0001-01-01T09:45:00Z</time>
      </trkpt>
      <trkpt lat="45.09727" lon="6.00968">
        <ele>712</ele>
        <time>0001-01-01T09:45:00Z</time>
      </trkpt>
      <trkpt lat="45.0972" lon="6.00974">
        <ele>712</ele>
        <time>0001-01-01T09:45:00Z</time>
      </trkpt>
      <trkpt lat="45.09707" lon="6.00982">
        <ele>712</ele>
        <time>0001-01-01T09:45:00Z</time>
      </trkpt>
      <trkpt lat="45.097" lon="6.00985">
        <ele>712</ele>
        <time>0001-01-01T09:45:00Z</time>
      </trkpt>
      <trkpt lat="45.09697" lon="6.00986">
        <ele>712</ele>
        <time>0001-01-01T09:45:00Z</time>
      </trkpt>
      <trkpt lat="45.09691" lon="6.0099">
        <ele>712</ele>
        <time>0001-01-01T09:45:00Z</time>
      </trkpt>
      <trkpt lat="45.09587" lon="6.01013">
        <ele>712</ele>
        <time>0001-01-01T09:45:00Z</time>
      </trkpt>
      <trkpt lat="45.09529" lon="6.01027">
        <ele>713</ele>
        <time>0001-01-01T09:45:00Z</time>
      </trkpt>
      <trkpt lat="45.094" lon="6.01058">
        <ele>714</ele>
        <time>0001-01-01T09:45:00Z</time>
      </trkpt>
      <trkpt lat="45.09341" lon="6.01072">
        <ele>712</ele>
        <time>0001-01-01T09:45:00Z</time>
      </trkpt>
      <trkpt lat="45.09241" lon="6.01094">
        <ele>714</ele>
        <time>0001-01-01T09:45:00Z</time>
      </trkpt>
      <trkpt lat="45.09232" lon="6.01097">
        <ele>714</ele>
        <time>0001-01-01T09:45:00Z</time>
      </trkpt>
      <trkpt lat="45.09111" lon="6.01126">
        <ele>714</ele>
        <time>0001-01-01T09:45:00Z</time>
      </trkpt>
      <trkpt lat="45.09094" lon="6.0113">
        <ele>714</ele>
        <time>0001-01-01T09:45:00Z</time>
      </trkpt>
      <trkpt lat="45.09083" lon="6.01131">
        <ele>714</ele>
        <time>0001-01-01T09:45:00Z</time>
      </trkpt>
      <trkpt lat="45.0907" lon="6.01135">
        <ele>714</ele>
        <time>0001-01-01T09:45:00Z</time>
      </trkpt>
      <trkpt lat="45.09061" lon="6.01138">
        <ele>714</ele>
        <time>0001-01-01T09:45:00Z</time>
      </trkpt>
      <trkpt lat="45.09051" lon="6.01145">
        <ele>714</ele>
        <time>0001-01-01T09:45:00Z</time>
      </trkpt>
      <trkpt lat="45.09044" lon="6.01148">
        <ele>714</ele>
        <time>0001-01-01T09:45:00Z</time>
      </trkpt>
      <trkpt lat="45.09034" lon="6.01152">
        <ele>714</ele>
        <time>0001-01-01T09:45:00Z</time>
      </trkpt>
      <trkpt lat="45.09024" lon="6.01153">
        <ele>714</ele>
        <time>0001-01-01T09:45:00Z</time>
      </trkpt>
      <trkpt lat="45.0901" lon="6.01152">
        <ele>714</ele>
        <time>0001-01-01T09:45:00Z</time>
      </trkpt>
      <trkpt lat="45.08997" lon="6.01152">
        <ele>714</ele>
        <time>0001-01-01T09:45:00Z</time>
      </trkpt>
      <trkpt lat="45.08993" lon="6.01153">
        <ele>714</ele>
        <time>0001-01-01T09:45:00Z</time>
      </trkpt>
      <trkpt lat="45.08983" lon="6.01154">
        <ele>714</ele>
        <time>0001-01-01T09:45:00Z</time>
      </trkpt>
      <trkpt lat="45.08974" lon="6.01157">
        <ele>714</ele>
        <time>0001-01-01T09:45:00Z</time>
      </trkpt>
      <trkpt lat="45.08963" lon="6.01162">
        <ele>714</ele>
        <time>0001-01-01T09:45:00Z</time>
      </trkpt>
      <trkpt lat="45.08897" lon="6.01177">
        <ele>714</ele>
        <time>0001-01-01T09:45:00Z</time>
      </trkpt>
      <trkpt lat="45.08749" lon="6.01212">
        <ele>716</ele>
        <time>0001-01-01T09:45:00Z</time>
      </trkpt>
      <trkpt lat="45.08567" lon="6.01255">
        <ele>715</ele>
        <time>0001-01-01T09:45:00Z</time>
      </trkpt>
      <trkpt lat="45.08456" lon="6.01282">
        <ele>714</ele>
        <time>0001-01-01T09:45:00Z</time>
      </trkpt>
      <trkpt lat="45.0841" lon="6.01292">
        <ele>713</ele>
        <time>0001-01-01T09:45:00Z</time>
      </trkpt>
      <trkpt lat="45.08216" lon="6.01338">
        <ele>717</ele>
        <time>0001-01-01T09:45:00Z</time>
      </trkpt>
      <trkpt lat="45.08174" lon="6.01349">
        <ele>717</ele>
        <time>0001-01-01T09:45:00Z</time>
      </trkpt>
      <trkpt lat="45.08038" lon="6.01381">
        <ele>713</ele>
        <time>0001-01-01T09:45:00Z</time>
      </trkpt>
      <trkpt lat="45.07936" lon="6.01406">
        <ele>714</ele>
        <time>0001-01-01T09:45:00Z</time>
      </trkpt>
      <trkpt lat="45.07893" lon="6.01415">
        <ele>714</ele>
        <time>0001-01-01T09:45:00Z</time>
      </trkpt>
      <trkpt lat="45.0784" lon="6.01428">
        <ele>717</ele>
        <time>0001-01-01T09:45:00Z</time>
      </trkpt>
      <trkpt lat="45.07743" lon="6.01451">
        <ele>720</ele>
        <time>0001-01-01T09:45:00Z</time>
      </trkpt>
      <trkpt lat="45.07698" lon="6.01462">
        <ele>722</ele>
        <time>0001-01-01T09:45:00Z</time>
      </trkpt>
      <trkpt lat="45.07681" lon="6.01466">
        <ele>722</ele>
        <time>0001-01-01T09:45:00Z</time>
      </trkpt>
      <trkpt lat="45.07649" lon="6.01474">
        <ele>722</ele>
        <time>0001-01-01T09:45:00Z</time>
      </trkpt>
      <trkpt lat="45.07635" lon="6.0148">
        <ele>722</ele>
        <time>0001-01-01T09:45:00Z</time>
      </trkpt>
      <trkpt lat="45.07627" lon="6.01483">
        <ele>722</ele>
        <time>0001-01-01T09:45:00Z</time>
      </trkpt>
      <trkpt lat="45.07621" lon="6.01486">
        <ele>725</ele>
        <time>0001-01-01T09:45:00Z</time>
      </trkpt>
      <trkpt lat="45.07609" lon="6.01494">
        <ele>725</ele>
        <time>0001-01-01T09:45:00Z</time>
      </trkpt>
      <trkpt lat="45.0759" lon="6.01508">
        <ele>725</ele>
        <time>0001-01-01T09:45:00Z</time>
      </trkpt>
      <trkpt lat="45.0752" lon="6.01563">
        <ele>729</ele>
        <time>0001-01-01T09:45:00Z</time>
      </trkpt>
      <trkpt lat="45.07448" lon="6.0162">
        <ele>728</ele>
        <time>0001-01-01T09:45:00Z</time>
      </trkpt>
      <trkpt lat="45.07409" lon="6.0165">
        <ele>728</ele>
        <time>0001-01-01T09:45:00Z</time>
      </trkpt>
      <trkpt lat="45.07399" lon="6.01658">
        <ele>728</ele>
        <time>0001-01-01T09:45:00Z</time>
      </trkpt>
      <trkpt lat="45.07354" lon="6.01692">
        <ele>727</ele>
        <time>0001-01-01T09:45:00Z</time>
      </trkpt>
      <trkpt lat="45.07333" lon="6.01705">
        <ele>727</ele>
        <time>0001-01-01T09:45:00Z</time>
      </trkpt>
      <trkpt lat="45.07309" lon="6.01723">
        <ele>723</ele>
        <time>0001-01-01T09:45:00Z</time>
      </trkpt>
      <trkpt lat="45.07283" lon="6.01742">
        <ele>725</ele>
        <time>0001-01-01T09:45:00Z</time>
      </trkpt>
      <trkpt lat="45.07279" lon="6.01745">
        <ele>725</ele>
        <time>0001-01-01T09:45:00Z</time>
      </trkpt>
      <trkpt lat="45.07258" lon="6.01759">
        <ele>725</ele>
        <time>0001-01-01T09:45:00Z</time>
      </trkpt>
      <trkpt lat="45.07223" lon="6.01783">
        <ele>725</ele>
        <time>0001-01-01T09:45:00Z</time>
      </trkpt>
      <trkpt lat="45.07209" lon="6.01792">
        <ele>721</ele>
        <time>0001-01-01T09:45:00Z</time>
      </trkpt>
      <trkpt lat="45.07166" lon="6.0183">
        <ele>733</ele>
        <time>0001-01-01T09:45:00Z</time>
      </trkpt>
      <trkpt lat="45.07119" lon="6.01868">
        <ele>797</ele>
        <time>0001-01-01T09:45:00Z</time>
      </trkpt>
      <trkpt lat="45.07086" lon="6.01892">
        <ele>731</ele>
        <time>0001-01-01T09:45:00Z</time>
      </trkpt>
      <trkpt lat="45.07072" lon="6.01903">
        <ele>731</ele>
        <time>0001-01-01T09:45:00Z</time>
      </trkpt>
      <trkpt lat="45.07062" lon="6.01912">
        <ele>731</ele>
        <time>0001-01-01T09:45:00Z</time>
      </trkpt>
      <trkpt lat="45.07053" lon="6.01919">
        <ele>731</ele>
        <time>0001-01-01T09:45:00Z</time>
      </trkpt>
      <trkpt lat="45.07014" lon="6.01948">
        <ele>736</ele>
        <time>0001-01-01T09:45:00Z</time>
      </trkpt>
      <trkpt lat="45.06972" lon="6.0198">
        <ele>720</ele>
        <time>0001-01-01T09:45:00Z</time>
      </trkpt>
      <trkpt lat="45.06951" lon="6.01996">
        <ele>719</ele>
        <time>0001-01-01T09:45:00Z</time>
      </trkpt>
      <trkpt lat="45.06938" lon="6.02009">
        <ele>719</ele>
        <time>0001-01-01T09:45:00Z</time>
      </trkpt>
      <trkpt lat="45.06806" lon="6.02109">
        <ele>714</ele>
        <time>0001-01-01T09:45:00Z</time>
      </trkpt>
      <trkpt lat="45.06696" lon="6.02196">
        <ele>715</ele>
        <time>0001-01-01T09:45:00Z</time>
      </trkpt>
      <trkpt lat="45.06641" lon="6.02239">
        <ele>716</ele>
        <time>0001-01-01T09:45:00Z</time>
      </trkpt>
      <trkpt lat="45.06578" lon="6.02285">
        <ele>722</ele>
        <time>0001-01-01T09:45:00Z</time>
      </trkpt>
      <trkpt lat="45.06513" lon="6.02333">
        <ele>718</ele>
        <time>0001-01-01T09:45:00Z</time>
      </trkpt>
      <trkpt lat="45.06471" lon="6.02365">
        <ele>718</ele>
        <time>0001-01-01T09:45:00Z</time>
      </trkpt>
      <trkpt lat="45.06449" lon="6.02382">
        <ele>719</ele>
        <time>0001-01-01T09:45:00Z</time>
      </trkpt>
      <trkpt lat="45.06439" lon="6.0239">
        <ele>719</ele>
        <time>0001-01-01T09:45:00Z</time>
      </trkpt>
      <trkpt lat="45.06406" lon="6.02417">
        <ele>719</ele>
        <time>0001-01-01T09:45:00Z</time>
      </trkpt>
      <trkpt lat="45.06393" lon="6.02425">
        <ele>719</ele>
        <time>0001-01-01T09:45:00Z</time>
      </trkpt>
      <trkpt lat="45.06383" lon="6.02432">
        <ele>719</ele>
        <time>0001-01-01T09:45:00Z</time>
      </trkpt>
      <trkpt lat="45.06367" lon="6.02439">
        <ele>719</ele>
        <time>0001-01-01T09:45:00Z</time>
      </trkpt>
      <trkpt lat="45.06365" lon="6.02439">
        <ele>719</ele>
        <time>0001-01-01T09:45:00Z</time>
      </trkpt>
      <trkpt lat="45.06363" lon="6.02438">
        <ele>719</ele>
        <time>0001-01-01T09:45:00Z</time>
      </trkpt>
      <trkpt lat="45.06361" lon="6.02438">
        <ele>719</ele>
        <time>0001-01-01T09:45:00Z</time>
      </trkpt>
      <trkpt lat="45.0636" lon="6.02437">
        <ele>719</ele>
        <time>0001-01-01T09:45:00Z</time>
      </trkpt>
      <trkpt lat="45.06358" lon="6.02437">
        <ele>719</ele>
        <time>0001-01-01T09:45:00Z</time>
      </trkpt>
      <trkpt lat="45.06357" lon="6.02438">
        <ele>719</ele>
        <time>0001-01-01T09:45:00Z</time>
      </trkpt>
      <trkpt lat="45.06355" lon="6.02438">
        <ele>719</ele>
        <time>0001-01-01T09:45:00Z</time>
      </trkpt>
      <trkpt lat="45.06354" lon="6.02439">
        <ele>719</ele>
        <time>0001-01-01T09:45:00Z</time>
      </trkpt>
      <trkpt lat="45.06352" lon="6.02439">
        <ele>719</ele>
        <time>0001-01-01T09:45:00Z</time>
      </trkpt>
      <trkpt lat="45.06351" lon="6.0244">
        <ele>719</ele>
        <time>0001-01-01T09:45:00Z</time>
      </trkpt>
      <trkpt lat="45.0635" lon="6.02441">
        <ele>719</ele>
        <time>0001-01-01T09:45:00Z</time>
      </trkpt>
      <trkpt lat="45.06349" lon="6.02442">
        <ele>719</ele>
        <time>0001-01-01T09:45:00Z</time>
      </trkpt>
      <trkpt lat="45.06348" lon="6.02443">
        <ele>719</ele>
        <time>0001-01-01T09:45:00Z</time>
      </trkpt>
      <trkpt lat="45.06346" lon="6.02444">
        <ele>719</ele>
        <time>0001-01-01T09:45:00Z</time>
      </trkpt>
      <trkpt lat="45.06346" lon="6.02446">
        <ele>719</ele>
        <time>0001-01-01T09:45:00Z</time>
      </trkpt>
      <trkpt lat="45.06345" lon="6.02447">
        <ele>719</ele>
        <time>0001-01-01T09:45:00Z</time>
      </trkpt>
      <trkpt lat="45.06343" lon="6.0245">
        <ele>719</ele>
        <time>0001-01-01T09:45:00Z</time>
      </trkpt>
      <trkpt lat="45.06342" lon="6.02452">
        <ele>719</ele>
        <time>0001-01-01T09:45:00Z</time>
      </trkpt>
      <trkpt lat="45.06342" lon="6.02454">
        <ele>719</ele>
        <time>0001-01-01T09:45:00Z</time>
      </trkpt>
      <trkpt lat="45.06341" lon="6.02456">
        <ele>719</ele>
        <time>0001-01-01T09:45:00Z</time>
      </trkpt>
      <trkpt lat="45.06341" lon="6.02458">
        <ele>719</ele>
        <time>0001-01-01T09:45:00Z</time>
      </trkpt>
      <trkpt lat="45.06341" lon="6.0246">
        <ele>718</ele>
        <time>0001-01-01T09:45:00Z</time>
      </trkpt>
      <trkpt lat="45.0634" lon="6.02462">
        <ele>718</ele>
        <time>0001-01-01T09:45:00Z</time>
      </trkpt>
      <trkpt lat="45.0634" lon="6.02464">
        <ele>718</ele>
        <time>0001-01-01T09:45:00Z</time>
      </trkpt>
      <trkpt lat="45.06334" lon="6.02467">
        <ele>718</ele>
        <time>0001-01-01T09:45:00Z</time>
      </trkpt>
      <trkpt lat="45.06326" lon="6.02475">
        <ele>718</ele>
        <time>0001-01-01T09:45:00Z</time>
      </trkpt>
      <trkpt lat="45.06317" lon="6.02481">
        <ele>718</ele>
        <time>0001-01-01T09:45:00Z</time>
      </trkpt>
      <trkpt lat="45.0631" lon="6.02485">
        <ele>718</ele>
        <time>0001-01-01T09:45:00Z</time>
      </trkpt>
      <trkpt lat="45.06297" lon="6.02494">
        <ele>718</ele>
        <time>0001-01-01T09:45:00Z</time>
      </trkpt>
      <trkpt lat="45.06287" lon="6.02501">
        <ele>718</ele>
        <time>0001-01-01T09:45:00Z</time>
      </trkpt>
      <trkpt lat="45.06282" lon="6.02508">
        <ele>718</ele>
        <time>0001-01-01T09:45:00Z</time>
      </trkpt>
      <trkpt lat="45.06233" lon="6.02544">
        <ele>719</ele>
        <time>0001-01-01T09:45:00Z</time>
      </trkpt>
      <trkpt lat="45.06224" lon="6.02551">
        <ele>719</ele>
        <time>0001-01-01T09:45:00Z</time>
      </trkpt>
      <trkpt lat="45.06162" lon="6.02598">
        <ele>715</ele>
        <time>0001-01-01T09:45:00Z</time>
      </trkpt>
      <trkpt lat="45.06112" lon="6.02637">
        <ele>717</ele>
        <time>0001-01-01T09:45:00Z</time>
      </trkpt>
      <trkpt lat="45.06053" lon="6.02682">
        <ele>717</ele>
        <time>0001-01-01T09:45:00Z</time>
      </trkpt>
      <trkpt lat="45.05982" lon="6.02736">
        <ele>718</ele>
        <time>0001-01-01T09:45:00Z</time>
      </trkpt>
      <trkpt lat="45.05889" lon="6.02808">
        <ele>720</ele>
        <time>0001-01-01T09:45:00Z</time>
      </trkpt>
      <trkpt lat="45.0582" lon="6.02863">
        <ele>722</ele>
        <time>0001-01-01T09:45:00Z</time>
      </trkpt>
      <trkpt lat="45.05809" lon="6.0287">
        <ele>722</ele>
        <time>0001-01-01T09:45:00Z</time>
      </trkpt>
      <trkpt lat="45.0577" lon="6.02898">
        <ele>721</ele>
        <time>0001-01-01T09:45:00Z</time>
      </trkpt>
      <trkpt lat="45.05766" lon="6.02901">
        <ele>721</ele>
        <time>0001-01-01T09:45:00Z</time>
      </trkpt>
      <trkpt lat="45.05734" lon="6.02923">
        <ele>721</ele>
        <time>0001-01-01T09:45:00Z</time>
      </trkpt>
      <trkpt lat="45.0573" lon="6.02925">
        <ele>721</ele>
        <time>0001-01-01T09:45:00Z</time>
      </trkpt>
      <trkpt lat="45.05707" lon="6.02939">
        <ele>723</ele>
        <time>0001-01-01T09:45:00Z</time>
      </trkpt>
      <trkpt lat="45.0568" lon="6.02948">
        <ele>723</ele>
        <time>0001-01-01T09:45:00Z</time>
      </trkpt>
      <trkpt lat="45.05663" lon="6.02953">
        <ele>723</ele>
        <time>0001-01-01T09:45:00Z</time>
      </trkpt>
      <trkpt lat="45.05655" lon="6.02955">
        <ele>723</ele>
        <time>0001-01-01T09:45:00Z</time>
      </trkpt>
      <trkpt lat="45.05627" lon="6.02958">
        <ele>723</ele>
        <time>0001-01-01T09:45:00Z</time>
      </trkpt>
      <trkpt lat="45.05607" lon="6.02963">
        <ele>721</ele>
        <time>0001-01-01T09:45:00Z</time>
      </trkpt>
      <trkpt lat="45.05597" lon="6.02965">
        <ele>721</ele>
        <time>0001-01-01T09:45:00Z</time>
      </trkpt>
      <trkpt lat="45.05582" lon="6.02968">
        <ele>721</ele>
        <time>0001-01-01T09:45:00Z</time>
      </trkpt>
      <trkpt lat="45.05566" lon="6.02969">
        <ele>721</ele>
        <time>0001-01-01T09:45:00Z</time>
      </trkpt>
      <trkpt lat="45.05562" lon="6.02969">
        <ele>721</ele>
        <time>0001-01-01T09:45:00Z</time>
      </trkpt>
      <trkpt lat="45.05553" lon="6.0297">
        <ele>721</ele>
        <time>0001-01-01T09:45:00Z</time>
      </trkpt>
      <trkpt lat="45.05536" lon="6.02975">
        <ele>726</ele>
        <time>0001-01-01T09:45:00Z</time>
      </trkpt>
      <trkpt lat="45.05526" lon="6.02977">
        <ele>726</ele>
        <time>0001-01-01T09:45:00Z</time>
      </trkpt>
      <trkpt lat="45.0552" lon="6.02979">
        <ele>726</ele>
        <time>0001-01-01T09:45:00Z</time>
      </trkpt>
      <trkpt lat="45.05516" lon="6.02981">
        <ele>726</ele>
        <time>0001-01-01T09:45:00Z</time>
      </trkpt>
      <trkpt lat="45.05511" lon="6.02985">
        <ele>726</ele>
        <time>0001-01-01T09:45:00Z</time>
      </trkpt>
      <trkpt lat="45.05508" lon="6.02993">
        <ele>726</ele>
        <time>0001-01-01T09:45:00Z</time>
      </trkpt>
      <trkpt lat="45.05502" lon="6.03006">
        <ele>726</ele>
        <time>0001-01-01T09:45:00Z</time>
      </trkpt>
      <trkpt lat="45.055" lon="6.03011">
        <ele>726</ele>
        <time>0001-01-01T09:45:00Z</time>
      </trkpt>
    </trkseg>
  </trk>
</gpx>